<?xml version="1.0" encoding="UTF-8" standalone="no" ?>
<gpx xmlns="http://www.topografix.com/GPX/1/1" xmlns:xsi="http://www.w3.org/2001/XMLSchema-instance" xsi:schemaLocation="http://www.topografix.com/GPX/1/1 http://www.topografix.com/GPX/1/1/gpx.xsd" version="1.1" creator="VisuGPX - https://www.visugpx.com">
  <metadata>
    <name>Dourdan Epernon 06-JUIL-20</name>
    <desc><![CDATA[Sur le Chemin de Péguy Etape 2 Dourdan - Gallardon - Epernon ]]></desc>
  </metadata>
  <trk>
    <name><![CDATA[Day 06-JUIL-20 07:43:50]]></name>
    <trkseg>
      <trkpt lat="48.53327" lon="2.00958">
        <ele>17.44</ele>
        <time>2020-07-06T05:43:50Z</time>
      </trkpt>
      <trkpt lat="48.53316" lon="2.00948">
        <ele>16.96</ele>
        <time>2020-07-06T05:44:09Z</time>
      </trkpt>
      <trkpt lat="48.53306" lon="2.00949">
        <ele>17.44</ele>
        <time>2020-07-06T05:44:15Z</time>
      </trkpt>
      <trkpt lat="48.53298" lon="2.00947">
        <ele>16.96</ele>
        <time>2020-07-06T05:44:22Z</time>
      </trkpt>
      <trkpt lat="48.53287" lon="2.00944">
        <ele>17.44</ele>
        <time>2020-07-06T05:44:31Z</time>
      </trkpt>
      <trkpt lat="48.53276" lon="2.00942">
        <ele>17.44</ele>
        <time>2020-07-06T05:44:39Z</time>
      </trkpt>
      <trkpt lat="48.53263" lon="2.00938">
        <ele>17.92</ele>
        <time>2020-07-06T05:44:49Z</time>
      </trkpt>
      <trkpt lat="48.5325" lon="2.00937">
        <ele>18.4</ele>
        <time>2020-07-06T05:44:56Z</time>
      </trkpt>
      <trkpt lat="48.53239" lon="2.00933">
        <ele>18.88</ele>
        <time>2020-07-06T05:45:04Z</time>
      </trkpt>
      <trkpt lat="48.53228" lon="2.0093">
        <ele>18.88</ele>
        <time>2020-07-06T05:45:12Z</time>
      </trkpt>
      <trkpt lat="48.53218" lon="2.00935">
        <ele>18.88</ele>
        <time>2020-07-06T05:45:19Z</time>
      </trkpt>
      <trkpt lat="48.53208" lon="2.00938">
        <ele>19.36</ele>
        <time>2020-07-06T05:45:27Z</time>
      </trkpt>
      <trkpt lat="48.53199" lon="2.00946">
        <ele>19.36</ele>
        <time>2020-07-06T05:45:34Z</time>
      </trkpt>
      <trkpt lat="48.53192" lon="2.00953">
        <ele>19.36</ele>
        <time>2020-07-06T05:45:41Z</time>
      </trkpt>
      <trkpt lat="48.53183" lon="2.00959">
        <ele>19.84</ele>
        <time>2020-07-06T05:45:49Z</time>
      </trkpt>
      <trkpt lat="48.53173" lon="2.00967">
        <ele>19.84</ele>
        <time>2020-07-06T05:45:58Z</time>
      </trkpt>
      <trkpt lat="48.53163" lon="2.00972">
        <ele>19.36</ele>
        <time>2020-07-06T05:46:05Z</time>
      </trkpt>
      <trkpt lat="48.53158" lon="2.00988">
        <ele>20.32</ele>
        <time>2020-07-06T05:46:13Z</time>
      </trkpt>
      <trkpt lat="48.53153" lon="2.00999">
        <ele>20.32</ele>
        <time>2020-07-06T05:46:27Z</time>
      </trkpt>
      <trkpt lat="48.53144" lon="2.01004">
        <ele>20.32</ele>
        <time>2020-07-06T05:46:43Z</time>
      </trkpt>
      <trkpt lat="48.53133" lon="2.0101">
        <ele>22.25</ele>
        <time>2020-07-06T05:47:29Z</time>
      </trkpt>
      <trkpt lat="48.53114" lon="2.01025">
        <ele>23.21</ele>
        <time>2020-07-06T05:47:57Z</time>
      </trkpt>
      <trkpt lat="48.53103" lon="2.01036">
        <ele>22.25</ele>
        <time>2020-07-06T05:48:05Z</time>
      </trkpt>
      <trkpt lat="48.53094" lon="2.01043">
        <ele>22.25</ele>
        <time>2020-07-06T05:48:13Z</time>
      </trkpt>
      <trkpt lat="48.53084" lon="2.01048">
        <ele>22.73</ele>
        <time>2020-07-06T05:48:20Z</time>
      </trkpt>
      <trkpt lat="48.53077" lon="2.01058">
        <ele>22.73</ele>
        <time>2020-07-06T05:48:28Z</time>
      </trkpt>
      <trkpt lat="48.5307" lon="2.0106">
        <ele>23.21</ele>
        <time>2020-07-06T05:48:37Z</time>
      </trkpt>
      <trkpt lat="48.53067" lon="2.01073">
        <ele>22.73</ele>
        <time>2020-07-06T05:48:47Z</time>
      </trkpt>
      <trkpt lat="48.53056" lon="2.0107">
        <ele>23.69</ele>
        <time>2020-07-06T05:49:03Z</time>
      </trkpt>
      <trkpt lat="48.53056" lon="2.01066">
        <ele>24.17</ele>
        <time>2020-07-06T05:49:17Z</time>
      </trkpt>
      <trkpt lat="48.53059" lon="2.01078">
        <ele>25.61</ele>
        <time>2020-07-06T05:49:50Z</time>
      </trkpt>
      <trkpt lat="48.53057" lon="2.01074">
        <ele>26.09</ele>
        <time>2020-07-06T05:50:02Z</time>
      </trkpt>
      <trkpt lat="48.5306" lon="2.01083">
        <ele>26.09</ele>
        <time>2020-07-06T05:50:11Z</time>
      </trkpt>
      <trkpt lat="48.53058" lon="2.01096">
        <ele>26.57</ele>
        <time>2020-07-06T05:50:17Z</time>
      </trkpt>
      <trkpt lat="48.53049" lon="2.01105">
        <ele>26.09</ele>
        <time>2020-07-06T05:50:24Z</time>
      </trkpt>
      <trkpt lat="48.53041" lon="2.01113">
        <ele>26.09</ele>
        <time>2020-07-06T05:50:31Z</time>
      </trkpt>
      <trkpt lat="48.53034" lon="2.01126">
        <ele>26.09</ele>
        <time>2020-07-06T05:50:37Z</time>
      </trkpt>
      <trkpt lat="48.53028" lon="2.01135">
        <ele>26.09</ele>
        <time>2020-07-06T05:50:51Z</time>
      </trkpt>
      <trkpt lat="48.53022" lon="2.01149">
        <ele>26.09</ele>
        <time>2020-07-06T05:51:02Z</time>
      </trkpt>
      <trkpt lat="48.53014" lon="2.01162">
        <ele>26.09</ele>
        <time>2020-07-06T05:51:10Z</time>
      </trkpt>
      <trkpt lat="48.53006" lon="2.0117">
        <ele>25.61</ele>
        <time>2020-07-06T05:51:16Z</time>
      </trkpt>
      <trkpt lat="48.52994" lon="2.01167">
        <ele>25.61</ele>
        <time>2020-07-06T05:51:23Z</time>
      </trkpt>
      <trkpt lat="48.52984" lon="2.01159">
        <ele>25.13</ele>
        <time>2020-07-06T05:51:31Z</time>
      </trkpt>
      <trkpt lat="48.52977" lon="2.01156">
        <ele>25.13</ele>
        <time>2020-07-06T05:51:48Z</time>
      </trkpt>
      <trkpt lat="48.52962" lon="2.01155">
        <ele>25.13</ele>
        <time>2020-07-06T05:52:04Z</time>
      </trkpt>
      <trkpt lat="48.5295" lon="2.01154">
        <ele>26.57</ele>
        <time>2020-07-06T05:52:21Z</time>
      </trkpt>
      <trkpt lat="48.52942" lon="2.01167">
        <ele>26.09</ele>
        <time>2020-07-06T05:52:32Z</time>
      </trkpt>
      <trkpt lat="48.52936" lon="2.0118">
        <ele>25.61</ele>
        <time>2020-07-06T05:52:40Z</time>
      </trkpt>
      <trkpt lat="48.52931" lon="2.01193">
        <ele>25.13</ele>
        <time>2020-07-06T05:52:48Z</time>
      </trkpt>
      <trkpt lat="48.52925" lon="2.01202">
        <ele>24.65</ele>
        <time>2020-07-06T05:52:57Z</time>
      </trkpt>
      <trkpt lat="48.5291" lon="2.01196">
        <ele>23.69</ele>
        <time>2020-07-06T05:53:08Z</time>
      </trkpt>
      <trkpt lat="48.52895" lon="2.01194">
        <ele>22.73</ele>
        <time>2020-07-06T05:53:15Z</time>
      </trkpt>
      <trkpt lat="48.52883" lon="2.01191">
        <ele>21.77</ele>
        <time>2020-07-06T05:53:24Z</time>
      </trkpt>
      <trkpt lat="48.52877" lon="2.01181">
        <ele>21.29</ele>
        <time>2020-07-06T05:53:36Z</time>
      </trkpt>
      <trkpt lat="48.52872" lon="2.01177">
        <ele>21.77</ele>
        <time>2020-07-06T05:54:06Z</time>
      </trkpt>
      <trkpt lat="48.52868" lon="2.01163">
        <ele>21.77</ele>
        <time>2020-07-06T05:54:12Z</time>
      </trkpt>
      <trkpt lat="48.52875" lon="2.01145">
        <ele>22.25</ele>
        <time>2020-07-06T05:54:18Z</time>
      </trkpt>
      <trkpt lat="48.52879" lon="2.0113">
        <ele>22.25</ele>
        <time>2020-07-06T05:54:24Z</time>
      </trkpt>
      <trkpt lat="48.52881" lon="2.01116">
        <ele>22.25</ele>
        <time>2020-07-06T05:54:31Z</time>
      </trkpt>
      <trkpt lat="48.52872" lon="2.0111">
        <ele>22.25</ele>
        <time>2020-07-06T05:54:37Z</time>
      </trkpt>
      <trkpt lat="48.52863" lon="2.01104">
        <ele>21.77</ele>
        <time>2020-07-06T05:54:44Z</time>
      </trkpt>
      <trkpt lat="48.52854" lon="2.01098">
        <ele>21.77</ele>
        <time>2020-07-06T05:54:50Z</time>
      </trkpt>
      <trkpt lat="48.52846" lon="2.01091">
        <ele>20.81</ele>
        <time>2020-07-06T05:54:55Z</time>
      </trkpt>
      <trkpt lat="48.52837" lon="2.01084">
        <ele>21.29</ele>
        <time>2020-07-06T05:55:01Z</time>
      </trkpt>
      <trkpt lat="48.52836" lon="2.01074">
        <ele>21.29</ele>
        <time>2020-07-06T05:55:10Z</time>
      </trkpt>
      <trkpt lat="48.52843" lon="2.01062">
        <ele>22.25</ele>
        <time>2020-07-06T05:55:20Z</time>
      </trkpt>
      <trkpt lat="48.52845" lon="2.01046">
        <ele>22.25</ele>
        <time>2020-07-06T05:55:29Z</time>
      </trkpt>
      <trkpt lat="48.52849" lon="2.01033">
        <ele>22.73</ele>
        <time>2020-07-06T05:55:40Z</time>
      </trkpt>
      <trkpt lat="48.52852" lon="2.01019">
        <ele>23.21</ele>
        <time>2020-07-06T05:55:48Z</time>
      </trkpt>
      <trkpt lat="48.52856" lon="2.01005">
        <ele>23.21</ele>
        <time>2020-07-06T05:55:56Z</time>
      </trkpt>
      <trkpt lat="48.5286" lon="2.00989">
        <ele>23.69</ele>
        <time>2020-07-06T05:56:04Z</time>
      </trkpt>
      <trkpt lat="48.52864" lon="2.00975">
        <ele>24.17</ele>
        <time>2020-07-06T05:56:12Z</time>
      </trkpt>
      <trkpt lat="48.52869" lon="2.00963">
        <ele>24.65</ele>
        <time>2020-07-06T05:56:19Z</time>
      </trkpt>
      <trkpt lat="48.52875" lon="2.00949">
        <ele>24.65</ele>
        <time>2020-07-06T05:56:27Z</time>
      </trkpt>
      <trkpt lat="48.5288" lon="2.00935">
        <ele>25.13</ele>
        <time>2020-07-06T05:56:36Z</time>
      </trkpt>
      <trkpt lat="48.52884" lon="2.00921">
        <ele>25.13</ele>
        <time>2020-07-06T05:56:44Z</time>
      </trkpt>
      <trkpt lat="48.52887" lon="2.00908">
        <ele>25.61</ele>
        <time>2020-07-06T05:56:52Z</time>
      </trkpt>
      <trkpt lat="48.52889" lon="2.00894">
        <ele>26.57</ele>
        <time>2020-07-06T05:57:00Z</time>
      </trkpt>
      <trkpt lat="48.52891" lon="2.0088">
        <ele>26.57</ele>
        <time>2020-07-06T05:57:07Z</time>
      </trkpt>
      <trkpt lat="48.52893" lon="2.00866">
        <ele>27.53</ele>
        <time>2020-07-06T05:57:16Z</time>
      </trkpt>
      <trkpt lat="48.52893" lon="2.00854">
        <ele>27.53</ele>
        <time>2020-07-06T05:57:26Z</time>
      </trkpt>
      <trkpt lat="48.5289" lon="2.00853">
        <ele>29.46</ele>
        <time>2020-07-06T05:58:04Z</time>
      </trkpt>
      <trkpt lat="48.52886" lon="2.00854">
        <ele>29.46</ele>
        <time>2020-07-06T05:58:25Z</time>
      </trkpt>
      <trkpt lat="48.52889" lon="2.00853">
        <ele>33.3</ele>
        <time>2020-07-06T06:00:13Z</time>
      </trkpt>
      <trkpt lat="48.52895" lon="2.00866">
        <ele>32.82</ele>
        <time>2020-07-06T06:00:22Z</time>
      </trkpt>
      <trkpt lat="48.529" lon="2.00868">
        <ele>33.3</ele>
        <time>2020-07-06T06:00:33Z</time>
      </trkpt>
      <trkpt lat="48.52893" lon="2.00857">
        <ele>33.78</ele>
        <time>2020-07-06T06:00:42Z</time>
      </trkpt>
      <trkpt lat="48.52887" lon="2.00846">
        <ele>34.74</ele>
        <time>2020-07-06T06:01:13Z</time>
      </trkpt>
      <trkpt lat="48.52885" lon="2.00838">
        <ele>35.23</ele>
        <time>2020-07-06T06:01:39Z</time>
      </trkpt>
      <trkpt lat="48.52878" lon="2.00843">
        <ele>36.19</ele>
        <time>2020-07-06T06:02:03Z</time>
      </trkpt>
      <trkpt lat="48.52881" lon="2.00848">
        <ele>38.11</ele>
        <time>2020-07-06T06:03:11Z</time>
      </trkpt>
      <trkpt lat="48.52884" lon="2.00843">
        <ele>38.11</ele>
        <time>2020-07-06T06:03:40Z</time>
      </trkpt>
      <trkpt lat="48.52892" lon="2.00854">
        <ele>38.59</ele>
        <time>2020-07-06T06:03:47Z</time>
      </trkpt>
      <trkpt lat="48.52898" lon="2.00868">
        <ele>38.59</ele>
        <time>2020-07-06T06:03:54Z</time>
      </trkpt>
      <trkpt lat="48.52906" lon="2.00878">
        <ele>38.59</ele>
        <time>2020-07-06T06:04:02Z</time>
      </trkpt>
      <trkpt lat="48.5291" lon="2.0089">
        <ele>38.59</ele>
        <time>2020-07-06T06:04:11Z</time>
      </trkpt>
      <trkpt lat="48.5292" lon="2.00898">
        <ele>39.07</ele>
        <time>2020-07-06T06:04:17Z</time>
      </trkpt>
      <trkpt lat="48.52931" lon="2.00908">
        <ele>39.55</ele>
        <time>2020-07-06T06:04:26Z</time>
      </trkpt>
      <trkpt lat="48.52939" lon="2.00915">
        <ele>40.03</ele>
        <time>2020-07-06T06:04:37Z</time>
      </trkpt>
      <trkpt lat="48.52943" lon="2.0091">
        <ele>40.03</ele>
        <time>2020-07-06T06:04:47Z</time>
      </trkpt>
      <trkpt lat="48.5295" lon="2.00896">
        <ele>40.03</ele>
        <time>2020-07-06T06:04:55Z</time>
      </trkpt>
      <trkpt lat="48.52958" lon="2.00883">
        <ele>40.51</ele>
        <time>2020-07-06T06:05:01Z</time>
      </trkpt>
      <trkpt lat="48.52964" lon="2.00869">
        <ele>41.47</ele>
        <time>2020-07-06T06:05:09Z</time>
      </trkpt>
      <trkpt lat="48.52971" lon="2.00856">
        <ele>41.95</ele>
        <time>2020-07-06T06:05:16Z</time>
      </trkpt>
      <trkpt lat="48.52979" lon="2.00842">
        <ele>41.95</ele>
        <time>2020-07-06T06:05:25Z</time>
      </trkpt>
      <trkpt lat="48.52986" lon="2.0083">
        <ele>41.95</ele>
        <time>2020-07-06T06:05:33Z</time>
      </trkpt>
      <trkpt lat="48.52994" lon="2.0082">
        <ele>42.44</ele>
        <time>2020-07-06T06:05:40Z</time>
      </trkpt>
      <trkpt lat="48.53005" lon="2.00815">
        <ele>42.92</ele>
        <time>2020-07-06T06:05:48Z</time>
      </trkpt>
      <trkpt lat="48.53017" lon="2.00815">
        <ele>43.88</ele>
        <time>2020-07-06T06:05:57Z</time>
      </trkpt>
      <trkpt lat="48.53026" lon="2.00812">
        <ele>44.36</ele>
        <time>2020-07-06T06:06:05Z</time>
      </trkpt>
      <trkpt lat="48.53034" lon="2.00801">
        <ele>43.4</ele>
        <time>2020-07-06T06:06:15Z</time>
      </trkpt>
      <trkpt lat="48.53045" lon="2.0079">
        <ele>43.4</ele>
        <time>2020-07-06T06:06:23Z</time>
      </trkpt>
      <trkpt lat="48.53059" lon="2.0078">
        <ele>43.4</ele>
        <time>2020-07-06T06:06:33Z</time>
      </trkpt>
      <trkpt lat="48.53072" lon="2.00763">
        <ele>44.36</ele>
        <time>2020-07-06T06:06:45Z</time>
      </trkpt>
      <trkpt lat="48.53083" lon="2.00751">
        <ele>44.36</ele>
        <time>2020-07-06T06:06:54Z</time>
      </trkpt>
      <trkpt lat="48.53097" lon="2.00739">
        <ele>44.84</ele>
        <time>2020-07-06T06:07:04Z</time>
      </trkpt>
      <trkpt lat="48.53112" lon="2.00728">
        <ele>44.84</ele>
        <time>2020-07-06T06:07:14Z</time>
      </trkpt>
      <trkpt lat="48.53123" lon="2.0072">
        <ele>45.8</ele>
        <time>2020-07-06T06:07:22Z</time>
      </trkpt>
      <trkpt lat="48.53129" lon="2.00704">
        <ele>45.8</ele>
        <time>2020-07-06T06:07:31Z</time>
      </trkpt>
      <trkpt lat="48.53139" lon="2.00691">
        <ele>45.8</ele>
        <time>2020-07-06T06:07:42Z</time>
      </trkpt>
      <trkpt lat="48.5315" lon="2.00681">
        <ele>46.76</ele>
        <time>2020-07-06T06:08:09Z</time>
      </trkpt>
      <trkpt lat="48.53149" lon="2.0068">
        <ele>47.24</ele>
        <time>2020-07-06T06:08:28Z</time>
      </trkpt>
      <trkpt lat="48.53154" lon="2.00673">
        <ele>47.24</ele>
        <time>2020-07-06T06:09:00Z</time>
      </trkpt>
      <trkpt lat="48.53161" lon="2.00658">
        <ele>47.72</ele>
        <time>2020-07-06T06:09:11Z</time>
      </trkpt>
      <trkpt lat="48.53171" lon="2.00647">
        <ele>48.68</ele>
        <time>2020-07-06T06:09:44Z</time>
      </trkpt>
      <trkpt lat="48.53178" lon="2.00635">
        <ele>49.16</ele>
        <time>2020-07-06T06:10:07Z</time>
      </trkpt>
      <trkpt lat="48.53183" lon="2.0062">
        <ele>49.16</ele>
        <time>2020-07-06T06:10:14Z</time>
      </trkpt>
      <trkpt lat="48.53189" lon="2.00609">
        <ele>49.16</ele>
        <time>2020-07-06T06:10:26Z</time>
      </trkpt>
      <trkpt lat="48.53197" lon="2.00596">
        <ele>49.65</ele>
        <time>2020-07-06T06:10:37Z</time>
      </trkpt>
      <trkpt lat="48.53203" lon="2.00578">
        <ele>49.65</ele>
        <time>2020-07-06T06:10:47Z</time>
      </trkpt>
      <trkpt lat="48.53209" lon="2.0056">
        <ele>50.13</ele>
        <time>2020-07-06T06:10:58Z</time>
      </trkpt>
      <trkpt lat="48.53212" lon="2.0054">
        <ele>50.13</ele>
        <time>2020-07-06T06:11:10Z</time>
      </trkpt>
      <trkpt lat="48.53215" lon="2.00524">
        <ele>50.13</ele>
        <time>2020-07-06T06:11:17Z</time>
      </trkpt>
      <trkpt lat="48.53217" lon="2.00507">
        <ele>50.61</ele>
        <time>2020-07-06T06:11:23Z</time>
      </trkpt>
      <trkpt lat="48.53218" lon="2.00493">
        <ele>51.09</ele>
        <time>2020-07-06T06:11:29Z</time>
      </trkpt>
      <trkpt lat="48.53223" lon="2.00479">
        <ele>51.09</ele>
        <time>2020-07-06T06:11:42Z</time>
      </trkpt>
      <trkpt lat="48.53227" lon="2.00463">
        <ele>51.57</ele>
        <time>2020-07-06T06:11:51Z</time>
      </trkpt>
      <trkpt lat="48.53232" lon="2.00443">
        <ele>51.57</ele>
        <time>2020-07-06T06:12:04Z</time>
      </trkpt>
      <trkpt lat="48.53236" lon="2.00425">
        <ele>51.57</ele>
        <time>2020-07-06T06:12:12Z</time>
      </trkpt>
      <trkpt lat="48.53238" lon="2.00406">
        <ele>51.57</ele>
        <time>2020-07-06T06:12:20Z</time>
      </trkpt>
      <trkpt lat="48.53241" lon="2.00391">
        <ele>52.05</ele>
        <time>2020-07-06T06:12:28Z</time>
      </trkpt>
      <trkpt lat="48.53247" lon="2.00374">
        <ele>52.05</ele>
        <time>2020-07-06T06:12:39Z</time>
      </trkpt>
      <trkpt lat="48.53251" lon="2.0036">
        <ele>52.53</ele>
        <time>2020-07-06T06:12:46Z</time>
      </trkpt>
      <trkpt lat="48.53254" lon="2.00342">
        <ele>52.53</ele>
        <time>2020-07-06T06:12:54Z</time>
      </trkpt>
      <trkpt lat="48.53255" lon="2.00325">
        <ele>52.53</ele>
        <time>2020-07-06T06:13:01Z</time>
      </trkpt>
      <trkpt lat="48.53254" lon="2.00305">
        <ele>52.53</ele>
        <time>2020-07-06T06:13:10Z</time>
      </trkpt>
      <trkpt lat="48.53256" lon="2.00284">
        <ele>53.01</ele>
        <time>2020-07-06T06:13:24Z</time>
      </trkpt>
      <trkpt lat="48.53263" lon="2.00268">
        <ele>53.49</ele>
        <time>2020-07-06T06:13:35Z</time>
      </trkpt>
      <trkpt lat="48.53266" lon="2.00251">
        <ele>53.49</ele>
        <time>2020-07-06T06:13:42Z</time>
      </trkpt>
      <trkpt lat="48.53265" lon="2.00234">
        <ele>53.97</ele>
        <time>2020-07-06T06:13:49Z</time>
      </trkpt>
      <trkpt lat="48.53263" lon="2.00219">
        <ele>53.97</ele>
        <time>2020-07-06T06:13:54Z</time>
      </trkpt>
      <trkpt lat="48.53262" lon="2.00205">
        <ele>54.45</ele>
        <time>2020-07-06T06:14:02Z</time>
      </trkpt>
      <trkpt lat="48.53263" lon="2.0019">
        <ele>54.93</ele>
        <time>2020-07-06T06:14:16Z</time>
      </trkpt>
      <trkpt lat="48.53259" lon="2.00173">
        <ele>54.93</ele>
        <time>2020-07-06T06:14:25Z</time>
      </trkpt>
      <trkpt lat="48.53259" lon="2.00155">
        <ele>54.93</ele>
        <time>2020-07-06T06:14:35Z</time>
      </trkpt>
      <trkpt lat="48.53268" lon="2.00157">
        <ele>55.89</ele>
        <time>2020-07-06T06:14:44Z</time>
      </trkpt>
      <trkpt lat="48.53278" lon="2.00157">
        <ele>57.34</ele>
        <time>2020-07-06T06:14:52Z</time>
      </trkpt>
      <trkpt lat="48.53288" lon="2.00157">
        <ele>56.86</ele>
        <time>2020-07-06T06:14:59Z</time>
      </trkpt>
      <trkpt lat="48.53299" lon="2.00155">
        <ele>57.82</ele>
        <time>2020-07-06T06:15:07Z</time>
      </trkpt>
      <trkpt lat="48.53306" lon="2.00144">
        <ele>58.3</ele>
        <time>2020-07-06T06:15:16Z</time>
      </trkpt>
      <trkpt lat="48.53309" lon="2.0013">
        <ele>58.78</ele>
        <time>2020-07-06T06:15:28Z</time>
      </trkpt>
      <trkpt lat="48.53309" lon="2.00112">
        <ele>58.78</ele>
        <time>2020-07-06T06:15:37Z</time>
      </trkpt>
      <trkpt lat="48.5331" lon="2.00094">
        <ele>58.78</ele>
        <time>2020-07-06T06:15:48Z</time>
      </trkpt>
      <trkpt lat="48.53312" lon="2.00074">
        <ele>59.26</ele>
        <time>2020-07-06T06:15:58Z</time>
      </trkpt>
      <trkpt lat="48.53309" lon="2.00053">
        <ele>59.26</ele>
        <time>2020-07-06T06:16:06Z</time>
      </trkpt>
      <trkpt lat="48.53309" lon="2.00036">
        <ele>59.74</ele>
        <time>2020-07-06T06:16:14Z</time>
      </trkpt>
      <trkpt lat="48.53308" lon="2.00019">
        <ele>59.74</ele>
        <time>2020-07-06T06:16:21Z</time>
      </trkpt>
      <trkpt lat="48.53309" lon="1.99999">
        <ele>60.22</ele>
        <time>2020-07-06T06:16:31Z</time>
      </trkpt>
      <trkpt lat="48.53309" lon="1.99979">
        <ele>59.74</ele>
        <time>2020-07-06T06:16:40Z</time>
      </trkpt>
      <trkpt lat="48.53307" lon="1.9996">
        <ele>60.7</ele>
        <time>2020-07-06T06:16:49Z</time>
      </trkpt>
      <trkpt lat="48.53306" lon="1.99943">
        <ele>61.18</ele>
        <time>2020-07-06T06:16:58Z</time>
      </trkpt>
      <trkpt lat="48.53304" lon="1.99927">
        <ele>61.66</ele>
        <time>2020-07-06T06:17:06Z</time>
      </trkpt>
      <trkpt lat="48.53302" lon="1.99911">
        <ele>62.14</ele>
        <time>2020-07-06T06:17:14Z</time>
      </trkpt>
      <trkpt lat="48.53302" lon="1.99893">
        <ele>62.14</ele>
        <time>2020-07-06T06:17:23Z</time>
      </trkpt>
      <trkpt lat="48.53306" lon="1.99877">
        <ele>62.62</ele>
        <time>2020-07-06T06:17:33Z</time>
      </trkpt>
      <trkpt lat="48.53308" lon="1.99861">
        <ele>62.62</ele>
        <time>2020-07-06T06:17:41Z</time>
      </trkpt>
      <trkpt lat="48.53308" lon="1.99842">
        <ele>63.58</ele>
        <time>2020-07-06T06:17:50Z</time>
      </trkpt>
      <trkpt lat="48.53307" lon="1.9982">
        <ele>63.58</ele>
        <time>2020-07-06T06:17:59Z</time>
      </trkpt>
      <trkpt lat="48.53306" lon="1.99801">
        <ele>64.07</ele>
        <time>2020-07-06T06:18:10Z</time>
      </trkpt>
      <trkpt lat="48.53304" lon="1.99779">
        <ele>64.55</ele>
        <time>2020-07-06T06:18:19Z</time>
      </trkpt>
      <trkpt lat="48.53303" lon="1.99762">
        <ele>64.55</ele>
        <time>2020-07-06T06:18:28Z</time>
      </trkpt>
      <trkpt lat="48.533" lon="1.99744">
        <ele>65.03</ele>
        <time>2020-07-06T06:18:36Z</time>
      </trkpt>
      <trkpt lat="48.53301" lon="1.99726">
        <ele>65.03</ele>
        <time>2020-07-06T06:18:43Z</time>
      </trkpt>
      <trkpt lat="48.53295" lon="1.99705">
        <ele>66.47</ele>
        <time>2020-07-06T06:18:53Z</time>
      </trkpt>
      <trkpt lat="48.5329" lon="1.99687">
        <ele>66.95</ele>
        <time>2020-07-06T06:19:04Z</time>
      </trkpt>
      <trkpt lat="48.53286" lon="1.99669">
        <ele>67.91</ele>
        <time>2020-07-06T06:19:14Z</time>
      </trkpt>
      <trkpt lat="48.53282" lon="1.99652">
        <ele>68.39</ele>
        <time>2020-07-06T06:19:21Z</time>
      </trkpt>
      <trkpt lat="48.5328" lon="1.99636">
        <ele>68.39</ele>
        <time>2020-07-06T06:19:27Z</time>
      </trkpt>
      <trkpt lat="48.53275" lon="1.99619">
        <ele>68.87</ele>
        <time>2020-07-06T06:19:36Z</time>
      </trkpt>
      <trkpt lat="48.53269" lon="1.99603">
        <ele>69.35</ele>
        <time>2020-07-06T06:19:44Z</time>
      </trkpt>
      <trkpt lat="48.53263" lon="1.99588">
        <ele>69.35</ele>
        <time>2020-07-06T06:19:52Z</time>
      </trkpt>
      <trkpt lat="48.53255" lon="1.99575">
        <ele>68.87</ele>
        <time>2020-07-06T06:20:00Z</time>
      </trkpt>
      <trkpt lat="48.53249" lon="1.9956">
        <ele>68.87</ele>
        <time>2020-07-06T06:20:08Z</time>
      </trkpt>
      <trkpt lat="48.53242" lon="1.99549">
        <ele>68.87</ele>
        <time>2020-07-06T06:20:14Z</time>
      </trkpt>
      <trkpt lat="48.53235" lon="1.99537">
        <ele>68.87</ele>
        <time>2020-07-06T06:20:22Z</time>
      </trkpt>
      <trkpt lat="48.53229" lon="1.99519">
        <ele>68.39</ele>
        <time>2020-07-06T06:20:30Z</time>
      </trkpt>
      <trkpt lat="48.53221" lon="1.99505">
        <ele>68.39</ele>
        <time>2020-07-06T06:20:40Z</time>
      </trkpt>
      <trkpt lat="48.53218" lon="1.99485">
        <ele>67.91</ele>
        <time>2020-07-06T06:20:50Z</time>
      </trkpt>
      <trkpt lat="48.53214" lon="1.99472">
        <ele>67.91</ele>
        <time>2020-07-06T06:20:55Z</time>
      </trkpt>
      <trkpt lat="48.5321" lon="1.99453">
        <ele>67.43</ele>
        <time>2020-07-06T06:21:03Z</time>
      </trkpt>
      <trkpt lat="48.53208" lon="1.99434">
        <ele>67.43</ele>
        <time>2020-07-06T06:21:11Z</time>
      </trkpt>
      <trkpt lat="48.53205" lon="1.99417">
        <ele>66.95</ele>
        <time>2020-07-06T06:21:18Z</time>
      </trkpt>
      <trkpt lat="48.53201" lon="1.99401">
        <ele>66.95</ele>
        <time>2020-07-06T06:21:25Z</time>
      </trkpt>
      <trkpt lat="48.53197" lon="1.99387">
        <ele>66.95</ele>
        <time>2020-07-06T06:21:31Z</time>
      </trkpt>
      <trkpt lat="48.53196" lon="1.99371">
        <ele>66.47</ele>
        <time>2020-07-06T06:21:38Z</time>
      </trkpt>
      <trkpt lat="48.53191" lon="1.99357">
        <ele>66.47</ele>
        <time>2020-07-06T06:21:45Z</time>
      </trkpt>
      <trkpt lat="48.53186" lon="1.99344">
        <ele>65.99</ele>
        <time>2020-07-06T06:21:52Z</time>
      </trkpt>
      <trkpt lat="48.53181" lon="1.9933">
        <ele>65.51</ele>
        <time>2020-07-06T06:21:59Z</time>
      </trkpt>
      <trkpt lat="48.5318" lon="1.99313">
        <ele>65.99</ele>
        <time>2020-07-06T06:22:09Z</time>
      </trkpt>
      <trkpt lat="48.53176" lon="1.99297">
        <ele>65.99</ele>
        <time>2020-07-06T06:22:16Z</time>
      </trkpt>
      <trkpt lat="48.53173" lon="1.99285">
        <ele>65.51</ele>
        <time>2020-07-06T06:22:22Z</time>
      </trkpt>
      <trkpt lat="48.5317" lon="1.99265">
        <ele>65.51</ele>
        <time>2020-07-06T06:22:32Z</time>
      </trkpt>
      <trkpt lat="48.53166" lon="1.99246">
        <ele>65.51</ele>
        <time>2020-07-06T06:22:39Z</time>
      </trkpt>
      <trkpt lat="48.53162" lon="1.99233">
        <ele>65.51</ele>
        <time>2020-07-06T06:22:45Z</time>
      </trkpt>
      <trkpt lat="48.53161" lon="1.99215">
        <ele>66.95</ele>
        <time>2020-07-06T06:22:53Z</time>
      </trkpt>
      <trkpt lat="48.53158" lon="1.99194">
        <ele>65.99</ele>
        <time>2020-07-06T06:23:02Z</time>
      </trkpt>
      <trkpt lat="48.53154" lon="1.99179">
        <ele>65.99</ele>
        <time>2020-07-06T06:23:09Z</time>
      </trkpt>
      <trkpt lat="48.53151" lon="1.99158">
        <ele>66.47</ele>
        <time>2020-07-06T06:23:19Z</time>
      </trkpt>
      <trkpt lat="48.53148" lon="1.99141">
        <ele>66.95</ele>
        <time>2020-07-06T06:23:26Z</time>
      </trkpt>
      <trkpt lat="48.53146" lon="1.99122">
        <ele>66.95</ele>
        <time>2020-07-06T06:23:35Z</time>
      </trkpt>
      <trkpt lat="48.53143" lon="1.991">
        <ele>66.95</ele>
        <time>2020-07-06T06:23:46Z</time>
      </trkpt>
      <trkpt lat="48.53139" lon="1.9908">
        <ele>67.91</ele>
        <time>2020-07-06T06:23:55Z</time>
      </trkpt>
      <trkpt lat="48.53137" lon="1.9906">
        <ele>67.91</ele>
        <time>2020-07-06T06:24:03Z</time>
      </trkpt>
      <trkpt lat="48.53139" lon="1.99041">
        <ele>68.39</ele>
        <time>2020-07-06T06:24:11Z</time>
      </trkpt>
      <trkpt lat="48.53139" lon="1.99019">
        <ele>68.87</ele>
        <time>2020-07-06T06:24:20Z</time>
      </trkpt>
      <trkpt lat="48.53138" lon="1.98999">
        <ele>68.87</ele>
        <time>2020-07-06T06:24:28Z</time>
      </trkpt>
      <trkpt lat="48.53138" lon="1.98979">
        <ele>68.87</ele>
        <time>2020-07-06T06:24:37Z</time>
      </trkpt>
      <trkpt lat="48.53136" lon="1.98958">
        <ele>68.87</ele>
        <time>2020-07-06T06:24:47Z</time>
      </trkpt>
      <trkpt lat="48.53137" lon="1.98936">
        <ele>68.87</ele>
        <time>2020-07-06T06:24:58Z</time>
      </trkpt>
      <trkpt lat="48.53137" lon="1.98915">
        <ele>69.35</ele>
        <time>2020-07-06T06:25:08Z</time>
      </trkpt>
      <trkpt lat="48.53133" lon="1.98886">
        <ele>68.87</ele>
        <time>2020-07-06T06:25:19Z</time>
      </trkpt>
      <trkpt lat="48.53133" lon="1.98854">
        <ele>68.87</ele>
        <time>2020-07-06T06:25:32Z</time>
      </trkpt>
      <trkpt lat="48.53131" lon="1.98829">
        <ele>69.35</ele>
        <time>2020-07-06T06:25:45Z</time>
      </trkpt>
      <trkpt lat="48.53129" lon="1.98799">
        <ele>69.35</ele>
        <time>2020-07-06T06:25:57Z</time>
      </trkpt>
      <trkpt lat="48.53127" lon="1.98774">
        <ele>69.83</ele>
        <time>2020-07-06T06:26:08Z</time>
      </trkpt>
      <trkpt lat="48.53127" lon="1.98752">
        <ele>70.79</ele>
        <time>2020-07-06T06:26:23Z</time>
      </trkpt>
      <trkpt lat="48.53124" lon="1.98729">
        <ele>70.79</ele>
        <time>2020-07-06T06:26:33Z</time>
      </trkpt>
      <trkpt lat="48.5312" lon="1.98711">
        <ele>71.76</ele>
        <time>2020-07-06T06:26:42Z</time>
      </trkpt>
      <trkpt lat="48.53119" lon="1.98683">
        <ele>71.76</ele>
        <time>2020-07-06T06:26:55Z</time>
      </trkpt>
      <trkpt lat="48.53117" lon="1.98664">
        <ele>72.24</ele>
        <time>2020-07-06T06:27:04Z</time>
      </trkpt>
      <trkpt lat="48.53113" lon="1.98648">
        <ele>72.72</ele>
        <time>2020-07-06T06:27:12Z</time>
      </trkpt>
      <trkpt lat="48.53109" lon="1.98626">
        <ele>72.24</ele>
        <time>2020-07-06T06:27:21Z</time>
      </trkpt>
      <trkpt lat="48.53105" lon="1.98604">
        <ele>72.24</ele>
        <time>2020-07-06T06:27:29Z</time>
      </trkpt>
      <trkpt lat="48.531" lon="1.98587">
        <ele>72.24</ele>
        <time>2020-07-06T06:27:38Z</time>
      </trkpt>
      <trkpt lat="48.53096" lon="1.98572">
        <ele>71.76</ele>
        <time>2020-07-06T06:27:45Z</time>
      </trkpt>
      <trkpt lat="48.53093" lon="1.98557">
        <ele>71.27</ele>
        <time>2020-07-06T06:27:53Z</time>
      </trkpt>
      <trkpt lat="48.53089" lon="1.98538">
        <ele>71.76</ele>
        <time>2020-07-06T06:28:02Z</time>
      </trkpt>
      <trkpt lat="48.53086" lon="1.98515">
        <ele>71.76</ele>
        <time>2020-07-06T06:28:11Z</time>
      </trkpt>
      <trkpt lat="48.53075" lon="1.985">
        <ele>71.76</ele>
        <time>2020-07-06T06:28:18Z</time>
      </trkpt>
      <trkpt lat="48.53065" lon="1.98491">
        <ele>71.76</ele>
        <time>2020-07-06T06:28:24Z</time>
      </trkpt>
      <trkpt lat="48.53069" lon="1.98482">
        <ele>72.24</ele>
        <time>2020-07-06T06:28:50Z</time>
      </trkpt>
      <trkpt lat="48.53071" lon="1.98463">
        <ele>72.24</ele>
        <time>2020-07-06T06:28:58Z</time>
      </trkpt>
      <trkpt lat="48.5307" lon="1.98454">
        <ele>72.24</ele>
        <time>2020-07-06T06:29:21Z</time>
      </trkpt>
      <trkpt lat="48.53065" lon="1.98435">
        <ele>72.24</ele>
        <time>2020-07-06T06:29:34Z</time>
      </trkpt>
      <trkpt lat="48.53061" lon="1.98418">
        <ele>71.76</ele>
        <time>2020-07-06T06:29:44Z</time>
      </trkpt>
      <trkpt lat="48.53056" lon="1.98395">
        <ele>72.24</ele>
        <time>2020-07-06T06:29:56Z</time>
      </trkpt>
      <trkpt lat="48.53049" lon="1.98373">
        <ele>72.24</ele>
        <time>2020-07-06T06:30:05Z</time>
      </trkpt>
      <trkpt lat="48.5304" lon="1.98354">
        <ele>72.72</ele>
        <time>2020-07-06T06:30:16Z</time>
      </trkpt>
      <trkpt lat="48.53034" lon="1.98331">
        <ele>73.2</ele>
        <time>2020-07-06T06:30:27Z</time>
      </trkpt>
      <trkpt lat="48.53026" lon="1.9831">
        <ele>73.2</ele>
        <time>2020-07-06T06:30:38Z</time>
      </trkpt>
      <trkpt lat="48.5302" lon="1.98289">
        <ele>74.16</ele>
        <time>2020-07-06T06:30:49Z</time>
      </trkpt>
      <trkpt lat="48.53016" lon="1.98264">
        <ele>75.6</ele>
        <time>2020-07-06T06:31:02Z</time>
      </trkpt>
      <trkpt lat="48.53009" lon="1.98235">
        <ele>76.56</ele>
        <time>2020-07-06T06:31:14Z</time>
      </trkpt>
      <trkpt lat="48.5301" lon="1.98214">
        <ele>75.6</ele>
        <time>2020-07-06T06:31:24Z</time>
      </trkpt>
      <trkpt lat="48.53004" lon="1.98191">
        <ele>74.64</ele>
        <time>2020-07-06T06:31:33Z</time>
      </trkpt>
      <trkpt lat="48.52994" lon="1.98174">
        <ele>74.16</ele>
        <time>2020-07-06T06:31:43Z</time>
      </trkpt>
      <trkpt lat="48.52987" lon="1.98163">
        <ele>73.68</ele>
        <time>2020-07-06T06:31:51Z</time>
      </trkpt>
      <trkpt lat="48.5298" lon="1.98144">
        <ele>73.2</ele>
        <time>2020-07-06T06:32:01Z</time>
      </trkpt>
      <trkpt lat="48.52972" lon="1.98132">
        <ele>72.24</ele>
        <time>2020-07-06T06:32:08Z</time>
      </trkpt>
      <trkpt lat="48.52963" lon="1.98129">
        <ele>72.24</ele>
        <time>2020-07-06T06:32:16Z</time>
      </trkpt>
      <trkpt lat="48.52954" lon="1.98131">
        <ele>71.76</ele>
        <time>2020-07-06T06:32:27Z</time>
      </trkpt>
      <trkpt lat="48.52945" lon="1.98127">
        <ele>71.27</ele>
        <time>2020-07-06T06:32:43Z</time>
      </trkpt>
      <trkpt lat="48.5294" lon="1.98139">
        <ele>71.76</ele>
        <time>2020-07-06T06:32:52Z</time>
      </trkpt>
      <trkpt lat="48.52939" lon="1.9814">
        <ele>71.76</ele>
        <time>2020-07-06T06:33:10Z</time>
      </trkpt>
      <trkpt lat="48.52945" lon="1.98132">
        <ele>71.76</ele>
        <time>2020-07-06T06:33:22Z</time>
      </trkpt>
      <trkpt lat="48.52961" lon="1.98126">
        <ele>73.2</ele>
        <time>2020-07-06T06:33:36Z</time>
      </trkpt>
      <trkpt lat="48.52967" lon="1.98114">
        <ele>73.2</ele>
        <time>2020-07-06T06:33:46Z</time>
      </trkpt>
      <trkpt lat="48.52974" lon="1.98103">
        <ele>73.68</ele>
        <time>2020-07-06T06:33:53Z</time>
      </trkpt>
      <trkpt lat="48.52984" lon="1.98092">
        <ele>73.68</ele>
        <time>2020-07-06T06:34:03Z</time>
      </trkpt>
      <trkpt lat="48.52992" lon="1.98081">
        <ele>74.16</ele>
        <time>2020-07-06T06:34:11Z</time>
      </trkpt>
      <trkpt lat="48.52998" lon="1.98057">
        <ele>75.12</ele>
        <time>2020-07-06T06:34:25Z</time>
      </trkpt>
      <trkpt lat="48.52996" lon="1.98031">
        <ele>76.08</ele>
        <time>2020-07-06T06:34:37Z</time>
      </trkpt>
      <trkpt lat="48.52996" lon="1.98004">
        <ele>76.08</ele>
        <time>2020-07-06T06:34:50Z</time>
      </trkpt>
      <trkpt lat="48.52997" lon="1.97984">
        <ele>76.08</ele>
        <time>2020-07-06T06:35:00Z</time>
      </trkpt>
      <trkpt lat="48.52996" lon="1.97961">
        <ele>76.56</ele>
        <time>2020-07-06T06:35:09Z</time>
      </trkpt>
      <trkpt lat="48.52995" lon="1.97941">
        <ele>77.04</ele>
        <time>2020-07-06T06:35:18Z</time>
      </trkpt>
      <trkpt lat="48.52997" lon="1.97918">
        <ele>77.04</ele>
        <time>2020-07-06T06:35:28Z</time>
      </trkpt>
      <trkpt lat="48.52999" lon="1.979">
        <ele>77.04</ele>
        <time>2020-07-06T06:35:36Z</time>
      </trkpt>
      <trkpt lat="48.53004" lon="1.97876">
        <ele>76.56</ele>
        <time>2020-07-06T06:35:47Z</time>
      </trkpt>
      <trkpt lat="48.53008" lon="1.97854">
        <ele>76.08</ele>
        <time>2020-07-06T06:35:57Z</time>
      </trkpt>
      <trkpt lat="48.53018" lon="1.9784">
        <ele>76.08</ele>
        <time>2020-07-06T06:36:04Z</time>
      </trkpt>
      <trkpt lat="48.53026" lon="1.97824">
        <ele>76.08</ele>
        <time>2020-07-06T06:36:13Z</time>
      </trkpt>
      <trkpt lat="48.53035" lon="1.97808">
        <ele>76.56</ele>
        <time>2020-07-06T06:36:23Z</time>
      </trkpt>
      <trkpt lat="48.53045" lon="1.97798">
        <ele>76.56</ele>
        <time>2020-07-06T06:36:31Z</time>
      </trkpt>
      <trkpt lat="48.53055" lon="1.97785">
        <ele>76.56</ele>
        <time>2020-07-06T06:36:39Z</time>
      </trkpt>
      <trkpt lat="48.53071" lon="1.97772">
        <ele>77.04</ele>
        <time>2020-07-06T06:36:52Z</time>
      </trkpt>
      <trkpt lat="48.5308" lon="1.97757">
        <ele>77.04</ele>
        <time>2020-07-06T06:37:02Z</time>
      </trkpt>
      <trkpt lat="48.53088" lon="1.9774">
        <ele>77.52</ele>
        <time>2020-07-06T06:37:12Z</time>
      </trkpt>
      <trkpt lat="48.53088" lon="1.97722">
        <ele>78</ele>
        <time>2020-07-06T06:37:21Z</time>
      </trkpt>
      <trkpt lat="48.53079" lon="1.977">
        <ele>78</ele>
        <time>2020-07-06T06:37:33Z</time>
      </trkpt>
      <trkpt lat="48.53071" lon="1.97685">
        <ele>77.52</ele>
        <time>2020-07-06T06:37:44Z</time>
      </trkpt>
      <trkpt lat="48.53062" lon="1.97667">
        <ele>77.52</ele>
        <time>2020-07-06T06:37:53Z</time>
      </trkpt>
      <trkpt lat="48.53055" lon="1.97645">
        <ele>78</ele>
        <time>2020-07-06T06:38:01Z</time>
      </trkpt>
      <trkpt lat="48.53054" lon="1.97626">
        <ele>78.48</ele>
        <time>2020-07-06T06:38:12Z</time>
      </trkpt>
      <trkpt lat="48.53051" lon="1.97598">
        <ele>78.97</ele>
        <time>2020-07-06T06:38:21Z</time>
      </trkpt>
      <trkpt lat="48.53051" lon="1.97574">
        <ele>79.93</ele>
        <time>2020-07-06T06:38:31Z</time>
      </trkpt>
      <trkpt lat="48.53052" lon="1.97551">
        <ele>80.41</ele>
        <time>2020-07-06T06:38:42Z</time>
      </trkpt>
      <trkpt lat="48.53052" lon="1.97528">
        <ele>80.89</ele>
        <time>2020-07-06T06:38:53Z</time>
      </trkpt>
      <trkpt lat="48.53055" lon="1.97505">
        <ele>81.37</ele>
        <time>2020-07-06T06:39:04Z</time>
      </trkpt>
      <trkpt lat="48.53055" lon="1.97482">
        <ele>81.85</ele>
        <time>2020-07-06T06:39:14Z</time>
      </trkpt>
      <trkpt lat="48.53054" lon="1.97452">
        <ele>82.81</ele>
        <time>2020-07-06T06:39:26Z</time>
      </trkpt>
      <trkpt lat="48.53056" lon="1.97432">
        <ele>84.25</ele>
        <time>2020-07-06T06:39:36Z</time>
      </trkpt>
      <trkpt lat="48.53056" lon="1.97414">
        <ele>85.21</ele>
        <time>2020-07-06T06:39:47Z</time>
      </trkpt>
      <trkpt lat="48.5306" lon="1.97393">
        <ele>86.66</ele>
        <time>2020-07-06T06:39:57Z</time>
      </trkpt>
      <trkpt lat="48.5306" lon="1.97376">
        <ele>87.14</ele>
        <time>2020-07-06T06:40:03Z</time>
      </trkpt>
      <trkpt lat="48.53062" lon="1.9736">
        <ele>88.1</ele>
        <time>2020-07-06T06:40:11Z</time>
      </trkpt>
      <trkpt lat="48.53062" lon="1.97344">
        <ele>88.58</ele>
        <time>2020-07-06T06:40:19Z</time>
      </trkpt>
      <trkpt lat="48.53062" lon="1.97328">
        <ele>89.06</ele>
        <time>2020-07-06T06:40:27Z</time>
      </trkpt>
      <trkpt lat="48.53063" lon="1.9731">
        <ele>90.5</ele>
        <time>2020-07-06T06:40:35Z</time>
      </trkpt>
      <trkpt lat="48.53064" lon="1.97288">
        <ele>91.94</ele>
        <time>2020-07-06T06:40:44Z</time>
      </trkpt>
      <trkpt lat="48.53064" lon="1.97268">
        <ele>92.9</ele>
        <time>2020-07-06T06:40:54Z</time>
      </trkpt>
      <trkpt lat="48.53069" lon="1.97254">
        <ele>93.87</ele>
        <time>2020-07-06T06:41:01Z</time>
      </trkpt>
      <trkpt lat="48.53069" lon="1.97235">
        <ele>94.35</ele>
        <time>2020-07-06T06:41:08Z</time>
      </trkpt>
      <trkpt lat="48.53068" lon="1.97216">
        <ele>94.83</ele>
        <time>2020-07-06T06:41:16Z</time>
      </trkpt>
      <trkpt lat="48.53069" lon="1.97201">
        <ele>95.79</ele>
        <time>2020-07-06T06:41:23Z</time>
      </trkpt>
      <trkpt lat="48.53065" lon="1.97182">
        <ele>96.75</ele>
        <time>2020-07-06T06:41:36Z</time>
      </trkpt>
      <trkpt lat="48.53071" lon="1.97185">
        <ele>97.23</ele>
        <time>2020-07-06T06:42:16Z</time>
      </trkpt>
      <trkpt lat="48.53066" lon="1.97174">
        <ele>97.23</ele>
        <time>2020-07-06T06:42:25Z</time>
      </trkpt>
      <trkpt lat="48.53058" lon="1.97159">
        <ele>97.23</ele>
        <time>2020-07-06T06:42:34Z</time>
      </trkpt>
      <trkpt lat="48.5305" lon="1.97147">
        <ele>97.23</ele>
        <time>2020-07-06T06:42:41Z</time>
      </trkpt>
      <trkpt lat="48.53044" lon="1.97133">
        <ele>97.23</ele>
        <time>2020-07-06T06:42:48Z</time>
      </trkpt>
      <trkpt lat="48.53039" lon="1.9712">
        <ele>97.23</ele>
        <time>2020-07-06T06:42:54Z</time>
      </trkpt>
      <trkpt lat="48.53031" lon="1.97108">
        <ele>97.23</ele>
        <time>2020-07-06T06:43:01Z</time>
      </trkpt>
      <trkpt lat="48.53026" lon="1.97095">
        <ele>98.19</ele>
        <time>2020-07-06T06:43:09Z</time>
      </trkpt>
      <trkpt lat="48.53026" lon="1.97078">
        <ele>98.19</ele>
        <time>2020-07-06T06:43:17Z</time>
      </trkpt>
      <trkpt lat="48.53028" lon="1.97062">
        <ele>99.63</ele>
        <time>2020-07-06T06:43:25Z</time>
      </trkpt>
      <trkpt lat="48.53031" lon="1.97046">
        <ele>100.11</ele>
        <time>2020-07-06T06:43:32Z</time>
      </trkpt>
      <trkpt lat="48.53035" lon="1.97031">
        <ele>101.08</ele>
        <time>2020-07-06T06:43:42Z</time>
      </trkpt>
      <trkpt lat="48.53037" lon="1.97016">
        <ele>101.08</ele>
        <time>2020-07-06T06:43:50Z</time>
      </trkpt>
      <trkpt lat="48.53038" lon="1.96997">
        <ele>102.04</ele>
        <time>2020-07-06T06:43:59Z</time>
      </trkpt>
      <trkpt lat="48.53037" lon="1.96982">
        <ele>102.52</ele>
        <time>2020-07-06T06:44:05Z</time>
      </trkpt>
      <trkpt lat="48.53039" lon="1.96966">
        <ele>102.04</ele>
        <time>2020-07-06T06:44:11Z</time>
      </trkpt>
      <trkpt lat="48.53042" lon="1.96945">
        <ele>101.56</ele>
        <time>2020-07-06T06:44:17Z</time>
      </trkpt>
      <trkpt lat="48.53046" lon="1.96927">
        <ele>101.56</ele>
        <time>2020-07-06T06:44:24Z</time>
      </trkpt>
      <trkpt lat="48.53051" lon="1.96915">
        <ele>101.08</ele>
        <time>2020-07-06T06:44:30Z</time>
      </trkpt>
      <trkpt lat="48.53056" lon="1.96902">
        <ele>101.08</ele>
        <time>2020-07-06T06:44:39Z</time>
      </trkpt>
      <trkpt lat="48.53063" lon="1.96886">
        <ele>101.56</ele>
        <time>2020-07-06T06:44:47Z</time>
      </trkpt>
      <trkpt lat="48.53068" lon="1.9687">
        <ele>101.08</ele>
        <time>2020-07-06T06:44:54Z</time>
      </trkpt>
      <trkpt lat="48.53074" lon="1.96855">
        <ele>101.08</ele>
        <time>2020-07-06T06:45:01Z</time>
      </trkpt>
      <trkpt lat="48.53081" lon="1.96842">
        <ele>100.6</ele>
        <time>2020-07-06T06:45:08Z</time>
      </trkpt>
      <trkpt lat="48.53089" lon="1.96829">
        <ele>100.11</ele>
        <time>2020-07-06T06:45:15Z</time>
      </trkpt>
      <trkpt lat="48.53098" lon="1.96818">
        <ele>99.63</ele>
        <time>2020-07-06T06:45:22Z</time>
      </trkpt>
      <trkpt lat="48.53104" lon="1.96805">
        <ele>98.19</ele>
        <time>2020-07-06T06:45:29Z</time>
      </trkpt>
      <trkpt lat="48.5311" lon="1.96787">
        <ele>97.23</ele>
        <time>2020-07-06T06:45:36Z</time>
      </trkpt>
      <trkpt lat="48.5311" lon="1.96772">
        <ele>96.75</ele>
        <time>2020-07-06T06:45:42Z</time>
      </trkpt>
      <trkpt lat="48.53112" lon="1.96755">
        <ele>95.79</ele>
        <time>2020-07-06T06:45:49Z</time>
      </trkpt>
      <trkpt lat="48.53111" lon="1.96741">
        <ele>95.31</ele>
        <time>2020-07-06T06:45:54Z</time>
      </trkpt>
      <trkpt lat="48.5311" lon="1.96726">
        <ele>94.35</ele>
        <time>2020-07-06T06:46:01Z</time>
      </trkpt>
      <trkpt lat="48.53106" lon="1.96711">
        <ele>93.39</ele>
        <time>2020-07-06T06:46:09Z</time>
      </trkpt>
      <trkpt lat="48.53099" lon="1.96697">
        <ele>92.9</ele>
        <time>2020-07-06T06:46:15Z</time>
      </trkpt>
      <trkpt lat="48.53092" lon="1.96684">
        <ele>91.94</ele>
        <time>2020-07-06T06:46:21Z</time>
      </trkpt>
      <trkpt lat="48.53086" lon="1.96669">
        <ele>91.46</ele>
        <time>2020-07-06T06:46:28Z</time>
      </trkpt>
      <trkpt lat="48.5308" lon="1.96656">
        <ele>90.98</ele>
        <time>2020-07-06T06:46:34Z</time>
      </trkpt>
      <trkpt lat="48.53076" lon="1.96644">
        <ele>90.5</ele>
        <time>2020-07-06T06:46:40Z</time>
      </trkpt>
      <trkpt lat="48.53071" lon="1.96631">
        <ele>90.02</ele>
        <time>2020-07-06T06:46:48Z</time>
      </trkpt>
      <trkpt lat="48.53068" lon="1.96615">
        <ele>90.02</ele>
        <time>2020-07-06T06:46:55Z</time>
      </trkpt>
      <trkpt lat="48.53067" lon="1.96598">
        <ele>89.06</ele>
        <time>2020-07-06T06:47:03Z</time>
      </trkpt>
      <trkpt lat="48.53066" lon="1.96582">
        <ele>88.58</ele>
        <time>2020-07-06T06:47:10Z</time>
      </trkpt>
      <trkpt lat="48.53064" lon="1.9656">
        <ele>88.58</ele>
        <time>2020-07-06T06:47:17Z</time>
      </trkpt>
      <trkpt lat="48.53063" lon="1.96544">
        <ele>87.62</ele>
        <time>2020-07-06T06:47:25Z</time>
      </trkpt>
      <trkpt lat="48.53064" lon="1.96526">
        <ele>87.14</ele>
        <time>2020-07-06T06:47:32Z</time>
      </trkpt>
      <trkpt lat="48.53062" lon="1.96509">
        <ele>86.66</ele>
        <time>2020-07-06T06:47:39Z</time>
      </trkpt>
      <trkpt lat="48.53059" lon="1.96495">
        <ele>86.66</ele>
        <time>2020-07-06T06:47:46Z</time>
      </trkpt>
      <trkpt lat="48.53057" lon="1.96479">
        <ele>86.18</ele>
        <time>2020-07-06T06:47:55Z</time>
      </trkpt>
      <trkpt lat="48.53049" lon="1.9647">
        <ele>85.21</ele>
        <time>2020-07-06T06:48:02Z</time>
      </trkpt>
      <trkpt lat="48.53039" lon="1.96461">
        <ele>84.73</ele>
        <time>2020-07-06T06:48:09Z</time>
      </trkpt>
      <trkpt lat="48.53031" lon="1.96448">
        <ele>84.73</ele>
        <time>2020-07-06T06:48:15Z</time>
      </trkpt>
      <trkpt lat="48.53025" lon="1.96435">
        <ele>84.25</ele>
        <time>2020-07-06T06:48:21Z</time>
      </trkpt>
      <trkpt lat="48.53022" lon="1.96419">
        <ele>83.77</ele>
        <time>2020-07-06T06:48:27Z</time>
      </trkpt>
      <trkpt lat="48.53023" lon="1.96404">
        <ele>83.77</ele>
        <time>2020-07-06T06:48:33Z</time>
      </trkpt>
      <trkpt lat="48.53027" lon="1.96385">
        <ele>83.29</ele>
        <time>2020-07-06T06:48:41Z</time>
      </trkpt>
      <trkpt lat="48.53031" lon="1.96369">
        <ele>83.29</ele>
        <time>2020-07-06T06:48:48Z</time>
      </trkpt>
      <trkpt lat="48.53034" lon="1.96354">
        <ele>82.81</ele>
        <time>2020-07-06T06:48:54Z</time>
      </trkpt>
      <trkpt lat="48.53037" lon="1.96338">
        <ele>82.81</ele>
        <time>2020-07-06T06:49:01Z</time>
      </trkpt>
      <trkpt lat="48.53042" lon="1.96322">
        <ele>82.33</ele>
        <time>2020-07-06T06:49:08Z</time>
      </trkpt>
      <trkpt lat="48.53045" lon="1.96306">
        <ele>82.81</ele>
        <time>2020-07-06T06:49:15Z</time>
      </trkpt>
      <trkpt lat="48.53046" lon="1.96289">
        <ele>82.33</ele>
        <time>2020-07-06T06:49:22Z</time>
      </trkpt>
      <trkpt lat="48.53045" lon="1.96275">
        <ele>82.81</ele>
        <time>2020-07-06T06:49:28Z</time>
      </trkpt>
      <trkpt lat="48.53047" lon="1.9626">
        <ele>83.29</ele>
        <time>2020-07-06T06:49:35Z</time>
      </trkpt>
      <trkpt lat="48.53042" lon="1.96249">
        <ele>83.77</ele>
        <time>2020-07-06T06:49:43Z</time>
      </trkpt>
      <trkpt lat="48.53032" lon="1.96244">
        <ele>83.77</ele>
        <time>2020-07-06T06:49:51Z</time>
      </trkpt>
      <trkpt lat="48.53023" lon="1.96238">
        <ele>83.77</ele>
        <time>2020-07-06T06:49:58Z</time>
      </trkpt>
      <trkpt lat="48.53013" lon="1.96233">
        <ele>84.25</ele>
        <time>2020-07-06T06:50:06Z</time>
      </trkpt>
      <trkpt lat="48.53002" lon="1.96229">
        <ele>84.73</ele>
        <time>2020-07-06T06:50:15Z</time>
      </trkpt>
      <trkpt lat="48.5299" lon="1.96225">
        <ele>84.73</ele>
        <time>2020-07-06T06:50:23Z</time>
      </trkpt>
      <trkpt lat="48.52978" lon="1.9622">
        <ele>84.73</ele>
        <time>2020-07-06T06:50:30Z</time>
      </trkpt>
      <trkpt lat="48.52966" lon="1.96219">
        <ele>84.73</ele>
        <time>2020-07-06T06:50:38Z</time>
      </trkpt>
      <trkpt lat="48.52954" lon="1.96217">
        <ele>85.21</ele>
        <time>2020-07-06T06:50:45Z</time>
      </trkpt>
      <trkpt lat="48.52944" lon="1.96209">
        <ele>85.21</ele>
        <time>2020-07-06T06:50:52Z</time>
      </trkpt>
      <trkpt lat="48.52932" lon="1.96206">
        <ele>85.69</ele>
        <time>2020-07-06T06:51:00Z</time>
      </trkpt>
      <trkpt lat="48.5292" lon="1.96203">
        <ele>86.18</ele>
        <time>2020-07-06T06:51:09Z</time>
      </trkpt>
      <trkpt lat="48.52912" lon="1.96201">
        <ele>85.69</ele>
        <time>2020-07-06T06:51:17Z</time>
      </trkpt>
      <trkpt lat="48.52906" lon="1.96192">
        <ele>85.69</ele>
        <time>2020-07-06T06:51:25Z</time>
      </trkpt>
      <trkpt lat="48.52896" lon="1.96191">
        <ele>86.18</ele>
        <time>2020-07-06T06:51:34Z</time>
      </trkpt>
      <trkpt lat="48.52885" lon="1.96188">
        <ele>86.18</ele>
        <time>2020-07-06T06:51:41Z</time>
      </trkpt>
      <trkpt lat="48.52876" lon="1.96189">
        <ele>85.69</ele>
        <time>2020-07-06T06:51:47Z</time>
      </trkpt>
      <trkpt lat="48.52865" lon="1.96186">
        <ele>85.69</ele>
        <time>2020-07-06T06:51:55Z</time>
      </trkpt>
      <trkpt lat="48.52857" lon="1.9618">
        <ele>85.69</ele>
        <time>2020-07-06T06:52:03Z</time>
      </trkpt>
      <trkpt lat="48.52848" lon="1.96179">
        <ele>85.69</ele>
        <time>2020-07-06T06:52:11Z</time>
      </trkpt>
      <trkpt lat="48.52837" lon="1.96183">
        <ele>85.69</ele>
        <time>2020-07-06T06:52:18Z</time>
      </trkpt>
      <trkpt lat="48.52827" lon="1.9618">
        <ele>86.66</ele>
        <time>2020-07-06T06:52:25Z</time>
      </trkpt>
      <trkpt lat="48.5281" lon="1.96177">
        <ele>88.58</ele>
        <time>2020-07-06T06:52:37Z</time>
      </trkpt>
      <trkpt lat="48.52798" lon="1.96175">
        <ele>89.54</ele>
        <time>2020-07-06T06:52:46Z</time>
      </trkpt>
      <trkpt lat="48.52786" lon="1.96173">
        <ele>90.98</ele>
        <time>2020-07-06T06:52:56Z</time>
      </trkpt>
      <trkpt lat="48.52772" lon="1.9617">
        <ele>92.42</ele>
        <time>2020-07-06T06:53:06Z</time>
      </trkpt>
      <trkpt lat="48.52761" lon="1.9617">
        <ele>93.39</ele>
        <time>2020-07-06T06:53:14Z</time>
      </trkpt>
      <trkpt lat="48.5275" lon="1.96167">
        <ele>94.35</ele>
        <time>2020-07-06T06:53:22Z</time>
      </trkpt>
      <trkpt lat="48.52732" lon="1.96168">
        <ele>95.79</ele>
        <time>2020-07-06T06:53:36Z</time>
      </trkpt>
      <trkpt lat="48.5272" lon="1.96168">
        <ele>96.75</ele>
        <time>2020-07-06T06:53:44Z</time>
      </trkpt>
      <trkpt lat="48.52708" lon="1.96171">
        <ele>97.23</ele>
        <time>2020-07-06T06:53:51Z</time>
      </trkpt>
      <trkpt lat="48.52694" lon="1.96175">
        <ele>98.67</ele>
        <time>2020-07-06T06:54:00Z</time>
      </trkpt>
      <trkpt lat="48.52678" lon="1.96173">
        <ele>100.11</ele>
        <time>2020-07-06T06:54:12Z</time>
      </trkpt>
      <trkpt lat="48.52661" lon="1.96169">
        <ele>101.08</ele>
        <time>2020-07-06T06:54:24Z</time>
      </trkpt>
      <trkpt lat="48.52647" lon="1.96164">
        <ele>102.52</ele>
        <time>2020-07-06T06:54:34Z</time>
      </trkpt>
      <trkpt lat="48.52652" lon="1.96162">
        <ele>102.04</ele>
        <time>2020-07-06T06:54:43Z</time>
      </trkpt>
      <trkpt lat="48.52664" lon="1.9617">
        <ele>101.08</ele>
        <time>2020-07-06T06:54:55Z</time>
      </trkpt>
      <trkpt lat="48.52676" lon="1.96172">
        <ele>100.11</ele>
        <time>2020-07-06T06:55:02Z</time>
      </trkpt>
      <trkpt lat="48.5269" lon="1.96173">
        <ele>99.63</ele>
        <time>2020-07-06T06:55:16Z</time>
      </trkpt>
      <trkpt lat="48.52711" lon="1.96171">
        <ele>98.19</ele>
        <time>2020-07-06T06:55:31Z</time>
      </trkpt>
      <trkpt lat="48.52716" lon="1.96158">
        <ele>97.23</ele>
        <time>2020-07-06T06:55:42Z</time>
      </trkpt>
      <trkpt lat="48.52705" lon="1.96149">
        <ele>96.27</ele>
        <time>2020-07-06T06:55:54Z</time>
      </trkpt>
      <trkpt lat="48.52693" lon="1.96143">
        <ele>95.79</ele>
        <time>2020-07-06T06:56:04Z</time>
      </trkpt>
      <trkpt lat="48.52684" lon="1.96129">
        <ele>94.83</ele>
        <time>2020-07-06T06:56:13Z</time>
      </trkpt>
      <trkpt lat="48.52675" lon="1.96114">
        <ele>94.83</ele>
        <time>2020-07-06T06:56:24Z</time>
      </trkpt>
      <trkpt lat="48.52666" lon="1.96102">
        <ele>94.83</ele>
        <time>2020-07-06T06:56:33Z</time>
      </trkpt>
      <trkpt lat="48.52663" lon="1.96083">
        <ele>93.87</ele>
        <time>2020-07-06T06:56:41Z</time>
      </trkpt>
      <trkpt lat="48.52654" lon="1.9607">
        <ele>93.87</ele>
        <time>2020-07-06T06:56:50Z</time>
      </trkpt>
      <trkpt lat="48.52645" lon="1.96055">
        <ele>93.39</ele>
        <time>2020-07-06T06:57:01Z</time>
      </trkpt>
      <trkpt lat="48.52641" lon="1.96041">
        <ele>93.39</ele>
        <time>2020-07-06T06:57:09Z</time>
      </trkpt>
      <trkpt lat="48.52634" lon="1.96022">
        <ele>93.39</ele>
        <time>2020-07-06T06:57:19Z</time>
      </trkpt>
      <trkpt lat="48.52624" lon="1.95998">
        <ele>93.39</ele>
        <time>2020-07-06T06:57:31Z</time>
      </trkpt>
      <trkpt lat="48.52617" lon="1.95984">
        <ele>93.87</ele>
        <time>2020-07-06T06:57:42Z</time>
      </trkpt>
      <trkpt lat="48.52607" lon="1.95967">
        <ele>92.9</ele>
        <time>2020-07-06T06:57:52Z</time>
      </trkpt>
      <trkpt lat="48.52602" lon="1.95949">
        <ele>91.94</ele>
        <time>2020-07-06T06:57:59Z</time>
      </trkpt>
      <trkpt lat="48.52595" lon="1.95933">
        <ele>90.98</ele>
        <time>2020-07-06T06:58:06Z</time>
      </trkpt>
      <trkpt lat="48.52589" lon="1.95917">
        <ele>90.5</ele>
        <time>2020-07-06T06:58:14Z</time>
      </trkpt>
      <trkpt lat="48.52586" lon="1.959">
        <ele>89.54</ele>
        <time>2020-07-06T06:58:22Z</time>
      </trkpt>
      <trkpt lat="48.52581" lon="1.95881">
        <ele>89.54</ele>
        <time>2020-07-06T06:58:31Z</time>
      </trkpt>
      <trkpt lat="48.52578" lon="1.95859">
        <ele>89.54</ele>
        <time>2020-07-06T06:58:41Z</time>
      </trkpt>
      <trkpt lat="48.52566" lon="1.95844">
        <ele>89.54</ele>
        <time>2020-07-06T06:58:51Z</time>
      </trkpt>
      <trkpt lat="48.52553" lon="1.95825">
        <ele>90.5</ele>
        <time>2020-07-06T06:59:02Z</time>
      </trkpt>
      <trkpt lat="48.52542" lon="1.95814">
        <ele>90.98</ele>
        <time>2020-07-06T06:59:09Z</time>
      </trkpt>
      <trkpt lat="48.5254" lon="1.95798">
        <ele>91.94</ele>
        <time>2020-07-06T06:59:17Z</time>
      </trkpt>
      <trkpt lat="48.52533" lon="1.95784">
        <ele>93.39</ele>
        <time>2020-07-06T06:59:27Z</time>
      </trkpt>
      <trkpt lat="48.52525" lon="1.9577">
        <ele>94.35</ele>
        <time>2020-07-06T06:59:36Z</time>
      </trkpt>
      <trkpt lat="48.52517" lon="1.95754">
        <ele>95.79</ele>
        <time>2020-07-06T06:59:49Z</time>
      </trkpt>
      <trkpt lat="48.52508" lon="1.95739">
        <ele>95.79</ele>
        <time>2020-07-06T06:59:58Z</time>
      </trkpt>
      <trkpt lat="48.52496" lon="1.95724">
        <ele>94.35</ele>
        <time>2020-07-06T07:00:06Z</time>
      </trkpt>
      <trkpt lat="48.52485" lon="1.95718">
        <ele>93.39</ele>
        <time>2020-07-06T07:00:15Z</time>
      </trkpt>
      <trkpt lat="48.52472" lon="1.95719">
        <ele>91.94</ele>
        <time>2020-07-06T07:00:27Z</time>
      </trkpt>
      <trkpt lat="48.52456" lon="1.95717">
        <ele>91.94</ele>
        <time>2020-07-06T07:00:37Z</time>
      </trkpt>
      <trkpt lat="48.52443" lon="1.95715">
        <ele>91.46</ele>
        <time>2020-07-06T07:00:46Z</time>
      </trkpt>
      <trkpt lat="48.52423" lon="1.95721">
        <ele>90.5</ele>
        <time>2020-07-06T07:01:02Z</time>
      </trkpt>
      <trkpt lat="48.52406" lon="1.95723">
        <ele>90.02</ele>
        <time>2020-07-06T07:01:13Z</time>
      </trkpt>
      <trkpt lat="48.52393" lon="1.95729">
        <ele>90.02</ele>
        <time>2020-07-06T07:01:20Z</time>
      </trkpt>
      <trkpt lat="48.52381" lon="1.9573">
        <ele>90.02</ele>
        <time>2020-07-06T07:01:30Z</time>
      </trkpt>
      <trkpt lat="48.52368" lon="1.95728">
        <ele>90.02</ele>
        <time>2020-07-06T07:01:38Z</time>
      </trkpt>
      <trkpt lat="48.52354" lon="1.95722">
        <ele>90.5</ele>
        <time>2020-07-06T07:01:49Z</time>
      </trkpt>
      <trkpt lat="48.52345" lon="1.95711">
        <ele>90.02</ele>
        <time>2020-07-06T07:01:57Z</time>
      </trkpt>
      <trkpt lat="48.52334" lon="1.95699">
        <ele>90.02</ele>
        <time>2020-07-06T07:02:06Z</time>
      </trkpt>
      <trkpt lat="48.52323" lon="1.9569">
        <ele>90.02</ele>
        <time>2020-07-06T07:02:16Z</time>
      </trkpt>
      <trkpt lat="48.52312" lon="1.95683">
        <ele>90.5</ele>
        <time>2020-07-06T07:02:22Z</time>
      </trkpt>
      <trkpt lat="48.52301" lon="1.95678">
        <ele>90.02</ele>
        <time>2020-07-06T07:02:30Z</time>
      </trkpt>
      <trkpt lat="48.52293" lon="1.95665">
        <ele>90.5</ele>
        <time>2020-07-06T07:02:38Z</time>
      </trkpt>
      <trkpt lat="48.52285" lon="1.95654">
        <ele>90.98</ele>
        <time>2020-07-06T07:02:47Z</time>
      </trkpt>
      <trkpt lat="48.5228" lon="1.95637">
        <ele>91.46</ele>
        <time>2020-07-06T07:03:07Z</time>
      </trkpt>
      <trkpt lat="48.52276" lon="1.95617">
        <ele>90.98</ele>
        <time>2020-07-06T07:03:16Z</time>
      </trkpt>
      <trkpt lat="48.52274" lon="1.95601">
        <ele>91.94</ele>
        <time>2020-07-06T07:03:23Z</time>
      </trkpt>
      <trkpt lat="48.52269" lon="1.95578">
        <ele>92.42</ele>
        <time>2020-07-06T07:03:31Z</time>
      </trkpt>
      <trkpt lat="48.52265" lon="1.95551">
        <ele>94.35</ele>
        <time>2020-07-06T07:03:42Z</time>
      </trkpt>
      <trkpt lat="48.52262" lon="1.95534">
        <ele>95.31</ele>
        <time>2020-07-06T07:03:51Z</time>
      </trkpt>
      <trkpt lat="48.52261" lon="1.95514">
        <ele>95.31</ele>
        <time>2020-07-06T07:03:58Z</time>
      </trkpt>
      <trkpt lat="48.52258" lon="1.95498">
        <ele>96.27</ele>
        <time>2020-07-06T07:04:05Z</time>
      </trkpt>
      <trkpt lat="48.52255" lon="1.95475">
        <ele>96.75</ele>
        <time>2020-07-06T07:04:16Z</time>
      </trkpt>
      <trkpt lat="48.52247" lon="1.95455">
        <ele>97.23</ele>
        <time>2020-07-06T07:04:25Z</time>
      </trkpt>
      <trkpt lat="48.52235" lon="1.95451">
        <ele>95.79</ele>
        <time>2020-07-06T07:04:34Z</time>
      </trkpt>
      <trkpt lat="48.52219" lon="1.95461">
        <ele>94.35</ele>
        <time>2020-07-06T07:04:46Z</time>
      </trkpt>
      <trkpt lat="48.52204" lon="1.95474">
        <ele>93.87</ele>
        <time>2020-07-06T07:04:56Z</time>
      </trkpt>
      <trkpt lat="48.52193" lon="1.95489">
        <ele>94.83</ele>
        <time>2020-07-06T07:05:07Z</time>
      </trkpt>
      <trkpt lat="48.52181" lon="1.955">
        <ele>95.79</ele>
        <time>2020-07-06T07:05:17Z</time>
      </trkpt>
      <trkpt lat="48.52169" lon="1.955">
        <ele>94.83</ele>
        <time>2020-07-06T07:05:25Z</time>
      </trkpt>
      <trkpt lat="48.52157" lon="1.95495">
        <ele>93.87</ele>
        <time>2020-07-06T07:05:39Z</time>
      </trkpt>
      <trkpt lat="48.52142" lon="1.95497">
        <ele>93.87</ele>
        <time>2020-07-06T07:05:49Z</time>
      </trkpt>
      <trkpt lat="48.52129" lon="1.95497">
        <ele>94.35</ele>
        <time>2020-07-06T07:05:57Z</time>
      </trkpt>
      <trkpt lat="48.52116" lon="1.95496">
        <ele>94.35</ele>
        <time>2020-07-06T07:06:04Z</time>
      </trkpt>
      <trkpt lat="48.52106" lon="1.95493">
        <ele>94.83</ele>
        <time>2020-07-06T07:06:11Z</time>
      </trkpt>
      <trkpt lat="48.52097" lon="1.95495">
        <ele>95.31</ele>
        <time>2020-07-06T07:06:19Z</time>
      </trkpt>
      <trkpt lat="48.52089" lon="1.95481">
        <ele>95.31</ele>
        <time>2020-07-06T07:06:30Z</time>
      </trkpt>
      <trkpt lat="48.52081" lon="1.95471">
        <ele>94.35</ele>
        <time>2020-07-06T07:06:40Z</time>
      </trkpt>
      <trkpt lat="48.52072" lon="1.95459">
        <ele>94.35</ele>
        <time>2020-07-06T07:06:50Z</time>
      </trkpt>
      <trkpt lat="48.52064" lon="1.95441">
        <ele>94.83</ele>
        <time>2020-07-06T07:06:59Z</time>
      </trkpt>
      <trkpt lat="48.52056" lon="1.95423">
        <ele>94.83</ele>
        <time>2020-07-06T07:07:08Z</time>
      </trkpt>
      <trkpt lat="48.52049" lon="1.95406">
        <ele>94.35</ele>
        <time>2020-07-06T07:07:15Z</time>
      </trkpt>
      <trkpt lat="48.52043" lon="1.95388">
        <ele>94.83</ele>
        <time>2020-07-06T07:07:23Z</time>
      </trkpt>
      <trkpt lat="48.52032" lon="1.95377">
        <ele>94.83</ele>
        <time>2020-07-06T07:07:32Z</time>
      </trkpt>
      <trkpt lat="48.52025" lon="1.95367">
        <ele>94.83</ele>
        <time>2020-07-06T07:07:41Z</time>
      </trkpt>
      <trkpt lat="48.52016" lon="1.95349">
        <ele>95.31</ele>
        <time>2020-07-06T07:07:51Z</time>
      </trkpt>
      <trkpt lat="48.52007" lon="1.95334">
        <ele>95.31</ele>
        <time>2020-07-06T07:08:02Z</time>
      </trkpt>
      <trkpt lat="48.51995" lon="1.95319">
        <ele>95.31</ele>
        <time>2020-07-06T07:08:12Z</time>
      </trkpt>
      <trkpt lat="48.51982" lon="1.95311">
        <ele>95.79</ele>
        <time>2020-07-06T07:08:23Z</time>
      </trkpt>
      <trkpt lat="48.51968" lon="1.95298">
        <ele>95.79</ele>
        <time>2020-07-06T07:08:32Z</time>
      </trkpt>
      <trkpt lat="48.51953" lon="1.95291">
        <ele>97.23</ele>
        <time>2020-07-06T07:08:42Z</time>
      </trkpt>
      <trkpt lat="48.5194" lon="1.95282">
        <ele>97.23</ele>
        <time>2020-07-06T07:08:51Z</time>
      </trkpt>
      <trkpt lat="48.51931" lon="1.95269">
        <ele>97.23</ele>
        <time>2020-07-06T07:09:01Z</time>
      </trkpt>
      <trkpt lat="48.51919" lon="1.95261">
        <ele>97.23</ele>
        <time>2020-07-06T07:09:11Z</time>
      </trkpt>
      <trkpt lat="48.51909" lon="1.9525">
        <ele>97.23</ele>
        <time>2020-07-06T07:09:20Z</time>
      </trkpt>
      <trkpt lat="48.51896" lon="1.95232">
        <ele>97.23</ele>
        <time>2020-07-06T07:09:32Z</time>
      </trkpt>
      <trkpt lat="48.51881" lon="1.95218">
        <ele>97.23</ele>
        <time>2020-07-06T07:09:43Z</time>
      </trkpt>
      <trkpt lat="48.51868" lon="1.95207">
        <ele>96.75</ele>
        <time>2020-07-06T07:09:54Z</time>
      </trkpt>
      <trkpt lat="48.51851" lon="1.95198">
        <ele>96.75</ele>
        <time>2020-07-06T07:10:05Z</time>
      </trkpt>
      <trkpt lat="48.51842" lon="1.95194">
        <ele>97.23</ele>
        <time>2020-07-06T07:10:12Z</time>
      </trkpt>
      <trkpt lat="48.51829" lon="1.95186">
        <ele>96.75</ele>
        <time>2020-07-06T07:10:23Z</time>
      </trkpt>
      <trkpt lat="48.51813" lon="1.9518">
        <ele>97.71</ele>
        <time>2020-07-06T07:10:36Z</time>
      </trkpt>
      <trkpt lat="48.51805" lon="1.95165">
        <ele>97.71</ele>
        <time>2020-07-06T07:10:47Z</time>
      </trkpt>
      <trkpt lat="48.51802" lon="1.95144">
        <ele>98.19</ele>
        <time>2020-07-06T07:10:58Z</time>
      </trkpt>
      <trkpt lat="48.51793" lon="1.95123">
        <ele>97.71</ele>
        <time>2020-07-06T07:11:09Z</time>
      </trkpt>
      <trkpt lat="48.5178" lon="1.95108">
        <ele>98.67</ele>
        <time>2020-07-06T07:11:20Z</time>
      </trkpt>
      <trkpt lat="48.51774" lon="1.95087">
        <ele>99.63</ele>
        <time>2020-07-06T07:11:33Z</time>
      </trkpt>
      <trkpt lat="48.5178" lon="1.95069">
        <ele>98.67</ele>
        <time>2020-07-06T07:11:47Z</time>
      </trkpt>
      <trkpt lat="48.51789" lon="1.9505">
        <ele>98.67</ele>
        <time>2020-07-06T07:11:59Z</time>
      </trkpt>
      <trkpt lat="48.51802" lon="1.95031">
        <ele>98.19</ele>
        <time>2020-07-06T07:12:17Z</time>
      </trkpt>
      <trkpt lat="48.51813" lon="1.95014">
        <ele>98.67</ele>
        <time>2020-07-06T07:12:26Z</time>
      </trkpt>
      <trkpt lat="48.51829" lon="1.94987">
        <ele>98.67</ele>
        <time>2020-07-06T07:12:37Z</time>
      </trkpt>
      <trkpt lat="48.51834" lon="1.94964">
        <ele>99.15</ele>
        <time>2020-07-06T07:12:52Z</time>
      </trkpt>
      <trkpt lat="48.51842" lon="1.94941">
        <ele>99.15</ele>
        <time>2020-07-06T07:13:02Z</time>
      </trkpt>
      <trkpt lat="48.51842" lon="1.94916">
        <ele>99.15</ele>
        <time>2020-07-06T07:13:12Z</time>
      </trkpt>
      <trkpt lat="48.51837" lon="1.94893">
        <ele>99.63</ele>
        <time>2020-07-06T07:13:22Z</time>
      </trkpt>
      <trkpt lat="48.51831" lon="1.9487">
        <ele>100.11</ele>
        <time>2020-07-06T07:13:33Z</time>
      </trkpt>
      <trkpt lat="48.51826" lon="1.94845">
        <ele>102.04</ele>
        <time>2020-07-06T07:13:48Z</time>
      </trkpt>
      <trkpt lat="48.51821" lon="1.94828">
        <ele>102.52</ele>
        <time>2020-07-06T07:13:58Z</time>
      </trkpt>
      <trkpt lat="48.51809" lon="1.9482">
        <ele>103.48</ele>
        <time>2020-07-06T07:14:09Z</time>
      </trkpt>
      <trkpt lat="48.51786" lon="1.94827">
        <ele>105.4</ele>
        <time>2020-07-06T07:14:28Z</time>
      </trkpt>
      <trkpt lat="48.51773" lon="1.94839">
        <ele>106.84</ele>
        <time>2020-07-06T07:14:39Z</time>
      </trkpt>
      <trkpt lat="48.51746" lon="1.9484">
        <ele>108.29</ele>
        <time>2020-07-06T07:15:01Z</time>
      </trkpt>
      <trkpt lat="48.5173" lon="1.94836">
        <ele>107.81</ele>
        <time>2020-07-06T07:15:10Z</time>
      </trkpt>
      <trkpt lat="48.51711" lon="1.94825">
        <ele>107.32</ele>
        <time>2020-07-06T07:15:22Z</time>
      </trkpt>
      <trkpt lat="48.51696" lon="1.94819">
        <ele>106.36</ele>
        <time>2020-07-06T07:15:32Z</time>
      </trkpt>
      <trkpt lat="48.51684" lon="1.94812">
        <ele>105.4</ele>
        <time>2020-07-06T07:15:41Z</time>
      </trkpt>
      <trkpt lat="48.51674" lon="1.948">
        <ele>105.4</ele>
        <time>2020-07-06T07:15:51Z</time>
      </trkpt>
      <trkpt lat="48.51664" lon="1.94784">
        <ele>104.44</ele>
        <time>2020-07-06T07:16:03Z</time>
      </trkpt>
      <trkpt lat="48.51653" lon="1.94767">
        <ele>103</ele>
        <time>2020-07-06T07:16:13Z</time>
      </trkpt>
      <trkpt lat="48.51641" lon="1.94743">
        <ele>102.52</ele>
        <time>2020-07-06T07:16:25Z</time>
      </trkpt>
      <trkpt lat="48.51635" lon="1.9472">
        <ele>102.04</ele>
        <time>2020-07-06T07:16:36Z</time>
      </trkpt>
      <trkpt lat="48.51627" lon="1.94706">
        <ele>102.52</ele>
        <time>2020-07-06T07:16:45Z</time>
      </trkpt>
      <trkpt lat="48.51617" lon="1.94694">
        <ele>102.52</ele>
        <time>2020-07-06T07:16:57Z</time>
      </trkpt>
      <trkpt lat="48.51603" lon="1.94692">
        <ele>102.04</ele>
        <time>2020-07-06T07:17:35Z</time>
      </trkpt>
      <trkpt lat="48.51603" lon="1.94694">
        <ele>103</ele>
        <time>2020-07-06T07:19:54Z</time>
      </trkpt>
      <trkpt lat="48.51593" lon="1.94697">
        <ele>103.48</ele>
        <time>2020-07-06T07:20:16Z</time>
      </trkpt>
      <trkpt lat="48.51598" lon="1.94698">
        <ele>103.48</ele>
        <time>2020-07-06T07:21:23Z</time>
      </trkpt>
      <trkpt lat="48.51582" lon="1.94705">
        <ele>103.48</ele>
        <time>2020-07-06T07:21:43Z</time>
      </trkpt>
      <trkpt lat="48.51561" lon="1.9472">
        <ele>103.96</ele>
        <time>2020-07-06T07:21:58Z</time>
      </trkpt>
      <trkpt lat="48.51546" lon="1.94739">
        <ele>103.96</ele>
        <time>2020-07-06T07:22:08Z</time>
      </trkpt>
      <trkpt lat="48.51528" lon="1.94761">
        <ele>104.44</ele>
        <time>2020-07-06T07:22:25Z</time>
      </trkpt>
      <trkpt lat="48.51509" lon="1.94775">
        <ele>104.92</ele>
        <time>2020-07-06T07:22:44Z</time>
      </trkpt>
      <trkpt lat="48.51487" lon="1.94783">
        <ele>106.36</ele>
        <time>2020-07-06T07:22:58Z</time>
      </trkpt>
      <trkpt lat="48.51467" lon="1.94802">
        <ele>105.4</ele>
        <time>2020-07-06T07:23:15Z</time>
      </trkpt>
      <trkpt lat="48.51444" lon="1.94809">
        <ele>104.92</ele>
        <time>2020-07-06T07:23:31Z</time>
      </trkpt>
      <trkpt lat="48.51423" lon="1.9482">
        <ele>105.4</ele>
        <time>2020-07-06T07:23:45Z</time>
      </trkpt>
      <trkpt lat="48.51409" lon="1.94839">
        <ele>105.4</ele>
        <time>2020-07-06T07:24:06Z</time>
      </trkpt>
      <trkpt lat="48.51398" lon="1.94845">
        <ele>105.4</ele>
        <time>2020-07-06T07:24:16Z</time>
      </trkpt>
      <trkpt lat="48.51386" lon="1.94855">
        <ele>105.4</ele>
        <time>2020-07-06T07:24:28Z</time>
      </trkpt>
      <trkpt lat="48.51373" lon="1.94862">
        <ele>106.36</ele>
        <time>2020-07-06T07:24:43Z</time>
      </trkpt>
      <trkpt lat="48.51363" lon="1.94843">
        <ele>105.4</ele>
        <time>2020-07-06T07:24:56Z</time>
      </trkpt>
      <trkpt lat="48.51353" lon="1.94819">
        <ele>105.88</ele>
        <time>2020-07-06T07:25:06Z</time>
      </trkpt>
      <trkpt lat="48.51342" lon="1.94801">
        <ele>105.88</ele>
        <time>2020-07-06T07:25:16Z</time>
      </trkpt>
      <trkpt lat="48.51333" lon="1.94786">
        <ele>105.88</ele>
        <time>2020-07-06T07:25:25Z</time>
      </trkpt>
      <trkpt lat="48.51325" lon="1.94765">
        <ele>106.36</ele>
        <time>2020-07-06T07:25:38Z</time>
      </trkpt>
      <trkpt lat="48.51315" lon="1.94747">
        <ele>106.36</ele>
        <time>2020-07-06T07:25:56Z</time>
      </trkpt>
      <trkpt lat="48.51301" lon="1.94719">
        <ele>106.84</ele>
        <time>2020-07-06T07:26:11Z</time>
      </trkpt>
      <trkpt lat="48.51293" lon="1.94696">
        <ele>107.32</ele>
        <time>2020-07-06T07:26:25Z</time>
      </trkpt>
      <trkpt lat="48.51289" lon="1.94664">
        <ele>107.32</ele>
        <time>2020-07-06T07:26:41Z</time>
      </trkpt>
      <trkpt lat="48.51291" lon="1.94643">
        <ele>107.32</ele>
        <time>2020-07-06T07:26:51Z</time>
      </trkpt>
      <trkpt lat="48.51283" lon="1.94621">
        <ele>107.32</ele>
        <time>2020-07-06T07:27:03Z</time>
      </trkpt>
      <trkpt lat="48.51289" lon="1.94605">
        <ele>107.32</ele>
        <time>2020-07-06T07:27:12Z</time>
      </trkpt>
      <trkpt lat="48.51297" lon="1.94577">
        <ele>107.81</ele>
        <time>2020-07-06T07:27:26Z</time>
      </trkpt>
      <trkpt lat="48.51302" lon="1.94562">
        <ele>107.81</ele>
        <time>2020-07-06T07:27:35Z</time>
      </trkpt>
      <trkpt lat="48.51298" lon="1.94535">
        <ele>107.81</ele>
        <time>2020-07-06T07:27:46Z</time>
      </trkpt>
      <trkpt lat="48.513" lon="1.94517">
        <ele>107.81</ele>
        <time>2020-07-06T07:27:56Z</time>
      </trkpt>
      <trkpt lat="48.51313" lon="1.94503">
        <ele>108.29</ele>
        <time>2020-07-06T07:28:08Z</time>
      </trkpt>
      <trkpt lat="48.51319" lon="1.94515">
        <ele>107.32</ele>
        <time>2020-07-06T07:28:19Z</time>
      </trkpt>
      <trkpt lat="48.51319" lon="1.94534">
        <ele>106.84</ele>
        <time>2020-07-06T07:28:30Z</time>
      </trkpt>
      <trkpt lat="48.51336" lon="1.94556">
        <ele>106.84</ele>
        <time>2020-07-06T07:28:43Z</time>
      </trkpt>
      <trkpt lat="48.51356" lon="1.94561">
        <ele>106.84</ele>
        <time>2020-07-06T07:28:58Z</time>
      </trkpt>
      <trkpt lat="48.51354" lon="1.94556">
        <ele>106.84</ele>
        <time>2020-07-06T07:29:24Z</time>
      </trkpt>
      <trkpt lat="48.51352" lon="1.94541">
        <ele>106.84</ele>
        <time>2020-07-06T07:29:42Z</time>
      </trkpt>
      <trkpt lat="48.51358" lon="1.94507">
        <ele>106.84</ele>
        <time>2020-07-06T07:29:57Z</time>
      </trkpt>
      <trkpt lat="48.51358" lon="1.94486">
        <ele>106.84</ele>
        <time>2020-07-06T07:30:08Z</time>
      </trkpt>
      <trkpt lat="48.51358" lon="1.94466">
        <ele>107.32</ele>
        <time>2020-07-06T07:30:18Z</time>
      </trkpt>
      <trkpt lat="48.51355" lon="1.94447">
        <ele>107.32</ele>
        <time>2020-07-06T07:30:27Z</time>
      </trkpt>
      <trkpt lat="48.5135" lon="1.94425">
        <ele>107.32</ele>
        <time>2020-07-06T07:30:38Z</time>
      </trkpt>
      <trkpt lat="48.5135" lon="1.94401">
        <ele>108.77</ele>
        <time>2020-07-06T07:30:47Z</time>
      </trkpt>
      <trkpt lat="48.51359" lon="1.94381">
        <ele>108.29</ele>
        <time>2020-07-06T07:30:56Z</time>
      </trkpt>
      <trkpt lat="48.51365" lon="1.94362">
        <ele>108.29</ele>
        <time>2020-07-06T07:31:07Z</time>
      </trkpt>
      <trkpt lat="48.51372" lon="1.94347">
        <ele>108.77</ele>
        <time>2020-07-06T07:31:15Z</time>
      </trkpt>
      <trkpt lat="48.51381" lon="1.94328">
        <ele>108.77</ele>
        <time>2020-07-06T07:31:26Z</time>
      </trkpt>
      <trkpt lat="48.51382" lon="1.94309">
        <ele>108.77</ele>
        <time>2020-07-06T07:31:33Z</time>
      </trkpt>
      <trkpt lat="48.51386" lon="1.94291">
        <ele>108.77</ele>
        <time>2020-07-06T07:31:42Z</time>
      </trkpt>
      <trkpt lat="48.51393" lon="1.94266">
        <ele>108.77</ele>
        <time>2020-07-06T07:31:51Z</time>
      </trkpt>
      <trkpt lat="48.51395" lon="1.94247">
        <ele>108.29</ele>
        <time>2020-07-06T07:31:58Z</time>
      </trkpt>
      <trkpt lat="48.51392" lon="1.94231">
        <ele>109.25</ele>
        <time>2020-07-06T07:32:06Z</time>
      </trkpt>
      <trkpt lat="48.51387" lon="1.94218">
        <ele>110.21</ele>
        <time>2020-07-06T07:32:14Z</time>
      </trkpt>
      <trkpt lat="48.51379" lon="1.94208">
        <ele>111.65</ele>
        <time>2020-07-06T07:32:20Z</time>
      </trkpt>
      <trkpt lat="48.5137" lon="1.94191">
        <ele>112.61</ele>
        <time>2020-07-06T07:32:30Z</time>
      </trkpt>
      <trkpt lat="48.51363" lon="1.94173">
        <ele>113.57</ele>
        <time>2020-07-06T07:32:40Z</time>
      </trkpt>
      <trkpt lat="48.51357" lon="1.94162">
        <ele>114.53</ele>
        <time>2020-07-06T07:32:46Z</time>
      </trkpt>
      <trkpt lat="48.51351" lon="1.9415">
        <ele>115.5</ele>
        <time>2020-07-06T07:32:54Z</time>
      </trkpt>
      <trkpt lat="48.51341" lon="1.94142">
        <ele>116.46</ele>
        <time>2020-07-06T07:33:03Z</time>
      </trkpt>
      <trkpt lat="48.5133" lon="1.9412">
        <ele>117.9</ele>
        <time>2020-07-06T07:33:16Z</time>
      </trkpt>
      <trkpt lat="48.51327" lon="1.941">
        <ele>118.86</ele>
        <time>2020-07-06T07:33:28Z</time>
      </trkpt>
      <trkpt lat="48.51323" lon="1.94084">
        <ele>118.86</ele>
        <time>2020-07-06T07:33:36Z</time>
      </trkpt>
      <trkpt lat="48.51318" lon="1.94064">
        <ele>119.34</ele>
        <time>2020-07-06T07:33:47Z</time>
      </trkpt>
      <trkpt lat="48.51307" lon="1.94042">
        <ele>119.34</ele>
        <time>2020-07-06T07:33:58Z</time>
      </trkpt>
      <trkpt lat="48.51298" lon="1.9403">
        <ele>119.34</ele>
        <time>2020-07-06T07:34:04Z</time>
      </trkpt>
      <trkpt lat="48.51293" lon="1.94012">
        <ele>119.34</ele>
        <time>2020-07-06T07:34:11Z</time>
      </trkpt>
      <trkpt lat="48.51287" lon="1.93994">
        <ele>118.86</ele>
        <time>2020-07-06T07:34:19Z</time>
      </trkpt>
      <trkpt lat="48.51286" lon="1.93979">
        <ele>119.34</ele>
        <time>2020-07-06T07:34:29Z</time>
      </trkpt>
      <trkpt lat="48.51275" lon="1.93963">
        <ele>120.3</ele>
        <time>2020-07-06T07:34:40Z</time>
      </trkpt>
      <trkpt lat="48.5127" lon="1.93938">
        <ele>119.82</ele>
        <time>2020-07-06T07:34:49Z</time>
      </trkpt>
      <trkpt lat="48.51264" lon="1.93917">
        <ele>120.78</ele>
        <time>2020-07-06T07:34:59Z</time>
      </trkpt>
      <trkpt lat="48.5126" lon="1.939">
        <ele>120.3</ele>
        <time>2020-07-06T07:35:08Z</time>
      </trkpt>
      <trkpt lat="48.51256" lon="1.93878">
        <ele>119.34</ele>
        <time>2020-07-06T07:35:18Z</time>
      </trkpt>
      <trkpt lat="48.5125" lon="1.93859">
        <ele>117.9</ele>
        <time>2020-07-06T07:35:26Z</time>
      </trkpt>
      <trkpt lat="48.51247" lon="1.9384">
        <ele>116.94</ele>
        <time>2020-07-06T07:35:34Z</time>
      </trkpt>
      <trkpt lat="48.51243" lon="1.93823">
        <ele>115.98</ele>
        <time>2020-07-06T07:35:43Z</time>
      </trkpt>
      <trkpt lat="48.51235" lon="1.93811">
        <ele>115.5</ele>
        <time>2020-07-06T07:35:51Z</time>
      </trkpt>
      <trkpt lat="48.51225" lon="1.93799">
        <ele>114.05</ele>
        <time>2020-07-06T07:35:58Z</time>
      </trkpt>
      <trkpt lat="48.51217" lon="1.93783">
        <ele>113.57</ele>
        <time>2020-07-06T07:36:05Z</time>
      </trkpt>
      <trkpt lat="48.51218" lon="1.93763">
        <ele>113.09</ele>
        <time>2020-07-06T07:36:15Z</time>
      </trkpt>
      <trkpt lat="48.51208" lon="1.93744">
        <ele>113.09</ele>
        <time>2020-07-06T07:36:24Z</time>
      </trkpt>
      <trkpt lat="48.51198" lon="1.93724">
        <ele>113.09</ele>
        <time>2020-07-06T07:36:37Z</time>
      </trkpt>
      <trkpt lat="48.51194" lon="1.93701">
        <ele>113.09</ele>
        <time>2020-07-06T07:36:47Z</time>
      </trkpt>
      <trkpt lat="48.51186" lon="1.93683">
        <ele>112.61</ele>
        <time>2020-07-06T07:36:56Z</time>
      </trkpt>
      <trkpt lat="48.51182" lon="1.93661">
        <ele>112.13</ele>
        <time>2020-07-06T07:37:08Z</time>
      </trkpt>
      <trkpt lat="48.5117" lon="1.93632">
        <ele>112.61</ele>
        <time>2020-07-06T07:37:23Z</time>
      </trkpt>
      <trkpt lat="48.51159" lon="1.93607">
        <ele>112.13</ele>
        <time>2020-07-06T07:37:34Z</time>
      </trkpt>
      <trkpt lat="48.51156" lon="1.93583">
        <ele>112.61</ele>
        <time>2020-07-06T07:37:46Z</time>
      </trkpt>
      <trkpt lat="48.51149" lon="1.93557">
        <ele>112.61</ele>
        <time>2020-07-06T07:38:01Z</time>
      </trkpt>
      <trkpt lat="48.51149" lon="1.93531">
        <ele>113.09</ele>
        <time>2020-07-06T07:38:15Z</time>
      </trkpt>
      <trkpt lat="48.5114" lon="1.93505">
        <ele>113.57</ele>
        <time>2020-07-06T07:38:28Z</time>
      </trkpt>
      <trkpt lat="48.51133" lon="1.93482">
        <ele>114.05</ele>
        <time>2020-07-06T07:38:39Z</time>
      </trkpt>
      <trkpt lat="48.51122" lon="1.93467">
        <ele>114.05</ele>
        <time>2020-07-06T07:38:48Z</time>
      </trkpt>
      <trkpt lat="48.51112" lon="1.93449">
        <ele>114.53</ele>
        <time>2020-07-06T07:38:58Z</time>
      </trkpt>
      <trkpt lat="48.51114" lon="1.93409">
        <ele>114.53</ele>
        <time>2020-07-06T07:39:11Z</time>
      </trkpt>
      <trkpt lat="48.51102" lon="1.93384">
        <ele>115.5</ele>
        <time>2020-07-06T07:39:24Z</time>
      </trkpt>
      <trkpt lat="48.51094" lon="1.93367">
        <ele>115.98</ele>
        <time>2020-07-06T07:39:33Z</time>
      </trkpt>
      <trkpt lat="48.51094" lon="1.93347">
        <ele>117.42</ele>
        <time>2020-07-06T07:39:43Z</time>
      </trkpt>
      <trkpt lat="48.51092" lon="1.93321">
        <ele>118.38</ele>
        <time>2020-07-06T07:39:56Z</time>
      </trkpt>
      <trkpt lat="48.51089" lon="1.93301">
        <ele>119.34</ele>
        <time>2020-07-06T07:40:08Z</time>
      </trkpt>
      <trkpt lat="48.51084" lon="1.93276">
        <ele>120.78</ele>
        <time>2020-07-06T07:40:23Z</time>
      </trkpt>
      <trkpt lat="48.51086" lon="1.93252">
        <ele>118.86</ele>
        <time>2020-07-06T07:40:39Z</time>
      </trkpt>
      <trkpt lat="48.51083" lon="1.9323">
        <ele>117.42</ele>
        <time>2020-07-06T07:40:50Z</time>
      </trkpt>
      <trkpt lat="48.51077" lon="1.93211">
        <ele>116.46</ele>
        <time>2020-07-06T07:41:00Z</time>
      </trkpt>
      <trkpt lat="48.51071" lon="1.9319">
        <ele>116.46</ele>
        <time>2020-07-06T07:41:08Z</time>
      </trkpt>
      <trkpt lat="48.51065" lon="1.93177">
        <ele>115.98</ele>
        <time>2020-07-06T07:41:16Z</time>
      </trkpt>
      <trkpt lat="48.5106" lon="1.93162">
        <ele>115.98</ele>
        <time>2020-07-06T07:41:26Z</time>
      </trkpt>
      <trkpt lat="48.5105" lon="1.93153">
        <ele>115.5</ele>
        <time>2020-07-06T07:41:33Z</time>
      </trkpt>
      <trkpt lat="48.51041" lon="1.93149">
        <ele>115.01</ele>
        <time>2020-07-06T07:41:39Z</time>
      </trkpt>
      <trkpt lat="48.51032" lon="1.93142">
        <ele>115.01</ele>
        <time>2020-07-06T07:41:47Z</time>
      </trkpt>
      <trkpt lat="48.51022" lon="1.93136">
        <ele>114.53</ele>
        <time>2020-07-06T07:41:56Z</time>
      </trkpt>
      <trkpt lat="48.51013" lon="1.93125">
        <ele>114.05</ele>
        <time>2020-07-06T07:42:10Z</time>
      </trkpt>
      <trkpt lat="48.50995" lon="1.93101">
        <ele>113.09</ele>
        <time>2020-07-06T07:42:27Z</time>
      </trkpt>
      <trkpt lat="48.50987" lon="1.93086">
        <ele>113.09</ele>
        <time>2020-07-06T07:42:37Z</time>
      </trkpt>
      <trkpt lat="48.50974" lon="1.93059">
        <ele>112.61</ele>
        <time>2020-07-06T07:42:59Z</time>
      </trkpt>
      <trkpt lat="48.5096" lon="1.93031">
        <ele>112.61</ele>
        <time>2020-07-06T07:43:17Z</time>
      </trkpt>
      <trkpt lat="48.50933" lon="1.93012">
        <ele>112.61</ele>
        <time>2020-07-06T07:43:36Z</time>
      </trkpt>
      <trkpt lat="48.50927" lon="1.92996">
        <ele>112.61</ele>
        <time>2020-07-06T07:43:55Z</time>
      </trkpt>
      <trkpt lat="48.50935" lon="1.92971">
        <ele>113.57</ele>
        <time>2020-07-06T07:44:09Z</time>
      </trkpt>
      <trkpt lat="48.50943" lon="1.92946">
        <ele>115.5</ele>
        <time>2020-07-06T07:44:27Z</time>
      </trkpt>
      <trkpt lat="48.50951" lon="1.92926">
        <ele>116.46</ele>
        <time>2020-07-06T07:44:37Z</time>
      </trkpt>
      <trkpt lat="48.50959" lon="1.92915">
        <ele>117.9</ele>
        <time>2020-07-06T07:44:48Z</time>
      </trkpt>
      <trkpt lat="48.50968" lon="1.92915">
        <ele>119.34</ele>
        <time>2020-07-06T07:45:00Z</time>
      </trkpt>
      <trkpt lat="48.50979" lon="1.92894">
        <ele>121.74</ele>
        <time>2020-07-06T07:45:09Z</time>
      </trkpt>
      <trkpt lat="48.50986" lon="1.92874">
        <ele>122.22</ele>
        <time>2020-07-06T07:45:19Z</time>
      </trkpt>
      <trkpt lat="48.50991" lon="1.92862">
        <ele>123.19</ele>
        <time>2020-07-06T07:45:36Z</time>
      </trkpt>
      <trkpt lat="48.51001" lon="1.92863">
        <ele>122.71</ele>
        <time>2020-07-06T07:45:47Z</time>
      </trkpt>
      <trkpt lat="48.51008" lon="1.92861">
        <ele>122.71</ele>
        <time>2020-07-06T07:46:02Z</time>
      </trkpt>
      <trkpt lat="48.51003" lon="1.92841">
        <ele>123.67</ele>
        <time>2020-07-06T07:46:10Z</time>
      </trkpt>
      <trkpt lat="48.50999" lon="1.92828">
        <ele>124.15</ele>
        <time>2020-07-06T07:46:18Z</time>
      </trkpt>
      <trkpt lat="48.51001" lon="1.92833">
        <ele>124.15</ele>
        <time>2020-07-06T07:46:46Z</time>
      </trkpt>
      <trkpt lat="48.51002" lon="1.92835">
        <ele>124.15</ele>
        <time>2020-07-06T07:47:03Z</time>
      </trkpt>
      <trkpt lat="48.51004" lon="1.9285">
        <ele>123.67</ele>
        <time>2020-07-06T07:47:10Z</time>
      </trkpt>
      <trkpt lat="48.51008" lon="1.92856">
        <ele>122.22</ele>
        <time>2020-07-06T07:47:34Z</time>
      </trkpt>
      <trkpt lat="48.51007" lon="1.92839">
        <ele>121.26</ele>
        <time>2020-07-06T07:47:50Z</time>
      </trkpt>
      <trkpt lat="48.51003" lon="1.92827">
        <ele>121.26</ele>
        <time>2020-07-06T07:47:56Z</time>
      </trkpt>
      <trkpt lat="48.51003" lon="1.9281">
        <ele>120.78</ele>
        <time>2020-07-06T07:48:03Z</time>
      </trkpt>
      <trkpt lat="48.51003" lon="1.92792">
        <ele>120.3</ele>
        <time>2020-07-06T07:48:11Z</time>
      </trkpt>
      <trkpt lat="48.50996" lon="1.92782">
        <ele>119.82</ele>
        <time>2020-07-06T07:48:16Z</time>
      </trkpt>
      <trkpt lat="48.50993" lon="1.92768">
        <ele>119.34</ele>
        <time>2020-07-06T07:48:23Z</time>
      </trkpt>
      <trkpt lat="48.50987" lon="1.92765">
        <ele>119.34</ele>
        <time>2020-07-06T07:48:41Z</time>
      </trkpt>
      <trkpt lat="48.50978" lon="1.92773">
        <ele>119.82</ele>
        <time>2020-07-06T07:48:47Z</time>
      </trkpt>
      <trkpt lat="48.50969" lon="1.92779">
        <ele>120.3</ele>
        <time>2020-07-06T07:48:52Z</time>
      </trkpt>
      <trkpt lat="48.5096" lon="1.92784">
        <ele>121.26</ele>
        <time>2020-07-06T07:48:59Z</time>
      </trkpt>
      <trkpt lat="48.5095" lon="1.92785">
        <ele>121.26</ele>
        <time>2020-07-06T07:49:06Z</time>
      </trkpt>
      <trkpt lat="48.50942" lon="1.92772">
        <ele>121.26</ele>
        <time>2020-07-06T07:49:23Z</time>
      </trkpt>
      <trkpt lat="48.50947" lon="1.92781">
        <ele>121.26</ele>
        <time>2020-07-06T07:49:38Z</time>
      </trkpt>
      <trkpt lat="48.5096" lon="1.92783">
        <ele>121.26</ele>
        <time>2020-07-06T07:49:46Z</time>
      </trkpt>
      <trkpt lat="48.50969" lon="1.9278">
        <ele>120.78</ele>
        <time>2020-07-06T07:49:52Z</time>
      </trkpt>
      <trkpt lat="48.50978" lon="1.92776">
        <ele>119.82</ele>
        <time>2020-07-06T07:50:01Z</time>
      </trkpt>
      <trkpt lat="48.50983" lon="1.92758">
        <ele>118.38</ele>
        <time>2020-07-06T07:50:11Z</time>
      </trkpt>
      <trkpt lat="48.50985" lon="1.92739">
        <ele>118.86</ele>
        <time>2020-07-06T07:50:19Z</time>
      </trkpt>
      <trkpt lat="48.50982" lon="1.9272">
        <ele>118.38</ele>
        <time>2020-07-06T07:50:28Z</time>
      </trkpt>
      <trkpt lat="48.50981" lon="1.92698">
        <ele>117.9</ele>
        <time>2020-07-06T07:50:35Z</time>
      </trkpt>
      <trkpt lat="48.50986" lon="1.92676">
        <ele>117.42</ele>
        <time>2020-07-06T07:50:42Z</time>
      </trkpt>
      <trkpt lat="48.50981" lon="1.92656">
        <ele>116.94</ele>
        <time>2020-07-06T07:50:49Z</time>
      </trkpt>
      <trkpt lat="48.50981" lon="1.92635">
        <ele>117.42</ele>
        <time>2020-07-06T07:50:55Z</time>
      </trkpt>
      <trkpt lat="48.5098" lon="1.92621">
        <ele>117.42</ele>
        <time>2020-07-06T07:51:01Z</time>
      </trkpt>
      <trkpt lat="48.50977" lon="1.92605">
        <ele>117.42</ele>
        <time>2020-07-06T07:51:08Z</time>
      </trkpt>
      <trkpt lat="48.50974" lon="1.92588">
        <ele>117.42</ele>
        <time>2020-07-06T07:51:15Z</time>
      </trkpt>
      <trkpt lat="48.50973" lon="1.92573">
        <ele>117.9</ele>
        <time>2020-07-06T07:51:22Z</time>
      </trkpt>
      <trkpt lat="48.50973" lon="1.92559">
        <ele>118.38</ele>
        <time>2020-07-06T07:51:29Z</time>
      </trkpt>
      <trkpt lat="48.50969" lon="1.92544">
        <ele>118.38</ele>
        <time>2020-07-06T07:51:37Z</time>
      </trkpt>
      <trkpt lat="48.50973" lon="1.92533">
        <ele>118.86</ele>
        <time>2020-07-06T07:51:44Z</time>
      </trkpt>
      <trkpt lat="48.50979" lon="1.92515">
        <ele>118.86</ele>
        <time>2020-07-06T07:51:52Z</time>
      </trkpt>
      <trkpt lat="48.50972" lon="1.92499">
        <ele>118.86</ele>
        <time>2020-07-06T07:51:58Z</time>
      </trkpt>
      <trkpt lat="48.50973" lon="1.92484">
        <ele>118.86</ele>
        <time>2020-07-06T07:52:03Z</time>
      </trkpt>
      <trkpt lat="48.50968" lon="1.92469">
        <ele>118.86</ele>
        <time>2020-07-06T07:52:09Z</time>
      </trkpt>
      <trkpt lat="48.50962" lon="1.92455">
        <ele>119.34</ele>
        <time>2020-07-06T07:52:16Z</time>
      </trkpt>
      <trkpt lat="48.50958" lon="1.9244">
        <ele>120.3</ele>
        <time>2020-07-06T07:52:23Z</time>
      </trkpt>
      <trkpt lat="48.50958" lon="1.92433">
        <ele>119.82</ele>
        <time>2020-07-06T07:52:53Z</time>
      </trkpt>
      <trkpt lat="48.50952" lon="1.92415">
        <ele>119.34</ele>
        <time>2020-07-06T07:53:04Z</time>
      </trkpt>
      <trkpt lat="48.50945" lon="1.924">
        <ele>119.34</ele>
        <time>2020-07-06T07:53:11Z</time>
      </trkpt>
      <trkpt lat="48.50944" lon="1.92379">
        <ele>119.82</ele>
        <time>2020-07-06T07:53:20Z</time>
      </trkpt>
      <trkpt lat="48.50944" lon="1.92358">
        <ele>120.3</ele>
        <time>2020-07-06T07:53:29Z</time>
      </trkpt>
      <trkpt lat="48.50944" lon="1.92341">
        <ele>120.3</ele>
        <time>2020-07-06T07:53:37Z</time>
      </trkpt>
      <trkpt lat="48.5095" lon="1.92329">
        <ele>119.82</ele>
        <time>2020-07-06T07:53:44Z</time>
      </trkpt>
      <trkpt lat="48.50953" lon="1.92314">
        <ele>119.82</ele>
        <time>2020-07-06T07:53:53Z</time>
      </trkpt>
      <trkpt lat="48.50944" lon="1.92302">
        <ele>119.34</ele>
        <time>2020-07-06T07:53:59Z</time>
      </trkpt>
      <trkpt lat="48.50942" lon="1.9228">
        <ele>119.34</ele>
        <time>2020-07-06T07:54:13Z</time>
      </trkpt>
      <trkpt lat="48.50938" lon="1.92258">
        <ele>119.34</ele>
        <time>2020-07-06T07:54:23Z</time>
      </trkpt>
      <trkpt lat="48.50935" lon="1.92233">
        <ele>119.82</ele>
        <time>2020-07-06T07:54:34Z</time>
      </trkpt>
      <trkpt lat="48.50932" lon="1.92212">
        <ele>120.3</ele>
        <time>2020-07-06T07:54:43Z</time>
      </trkpt>
      <trkpt lat="48.50939" lon="1.9219">
        <ele>120.3</ele>
        <time>2020-07-06T07:54:55Z</time>
      </trkpt>
      <trkpt lat="48.50934" lon="1.92157">
        <ele>120.3</ele>
        <time>2020-07-06T07:55:10Z</time>
      </trkpt>
      <trkpt lat="48.50933" lon="1.9213">
        <ele>119.82</ele>
        <time>2020-07-06T07:55:22Z</time>
      </trkpt>
      <trkpt lat="48.50926" lon="1.92103">
        <ele>119.34</ele>
        <time>2020-07-06T07:55:31Z</time>
      </trkpt>
      <trkpt lat="48.50922" lon="1.92083">
        <ele>119.34</ele>
        <time>2020-07-06T07:55:41Z</time>
      </trkpt>
      <trkpt lat="48.50918" lon="1.92056">
        <ele>119.82</ele>
        <time>2020-07-06T07:55:55Z</time>
      </trkpt>
      <trkpt lat="48.50906" lon="1.92031">
        <ele>119.82</ele>
        <time>2020-07-06T07:56:08Z</time>
      </trkpt>
      <trkpt lat="48.50894" lon="1.92014">
        <ele>119.82</ele>
        <time>2020-07-06T07:56:18Z</time>
      </trkpt>
      <trkpt lat="48.50887" lon="1.91995">
        <ele>119.82</ele>
        <time>2020-07-06T07:56:27Z</time>
      </trkpt>
      <trkpt lat="48.50882" lon="1.91974">
        <ele>119.82</ele>
        <time>2020-07-06T07:56:38Z</time>
      </trkpt>
      <trkpt lat="48.50882" lon="1.91945">
        <ele>120.3</ele>
        <time>2020-07-06T07:56:50Z</time>
      </trkpt>
      <trkpt lat="48.50879" lon="1.91918">
        <ele>120.78</ele>
        <time>2020-07-06T07:57:04Z</time>
      </trkpt>
      <trkpt lat="48.50887" lon="1.91898">
        <ele>121.26</ele>
        <time>2020-07-06T07:57:15Z</time>
      </trkpt>
      <trkpt lat="48.50894" lon="1.91885">
        <ele>121.74</ele>
        <time>2020-07-06T07:57:23Z</time>
      </trkpt>
      <trkpt lat="48.50905" lon="1.91876">
        <ele>122.22</ele>
        <time>2020-07-06T07:57:31Z</time>
      </trkpt>
      <trkpt lat="48.50908" lon="1.91859">
        <ele>122.71</ele>
        <time>2020-07-06T07:57:41Z</time>
      </trkpt>
      <trkpt lat="48.50895" lon="1.91836">
        <ele>121.26</ele>
        <time>2020-07-06T07:57:59Z</time>
      </trkpt>
      <trkpt lat="48.50878" lon="1.91818">
        <ele>120.78</ele>
        <time>2020-07-06T07:58:11Z</time>
      </trkpt>
      <trkpt lat="48.50866" lon="1.91812">
        <ele>120.3</ele>
        <time>2020-07-06T07:58:18Z</time>
      </trkpt>
      <trkpt lat="48.50855" lon="1.91798">
        <ele>119.34</ele>
        <time>2020-07-06T07:58:29Z</time>
      </trkpt>
      <trkpt lat="48.50844" lon="1.91792">
        <ele>118.86</ele>
        <time>2020-07-06T07:58:38Z</time>
      </trkpt>
      <trkpt lat="48.5083" lon="1.91784">
        <ele>118.38</ele>
        <time>2020-07-06T07:58:54Z</time>
      </trkpt>
      <trkpt lat="48.50825" lon="1.91779">
        <ele>119.34</ele>
        <time>2020-07-06T07:59:30Z</time>
      </trkpt>
      <trkpt lat="48.50816" lon="1.91767">
        <ele>119.82</ele>
        <time>2020-07-06T07:59:38Z</time>
      </trkpt>
      <trkpt lat="48.50812" lon="1.91757">
        <ele>120.3</ele>
        <time>2020-07-06T07:59:47Z</time>
      </trkpt>
      <trkpt lat="48.50815" lon="1.91744">
        <ele>120.78</ele>
        <time>2020-07-06T07:59:54Z</time>
      </trkpt>
      <trkpt lat="48.50815" lon="1.91727">
        <ele>121.74</ele>
        <time>2020-07-06T08:00:02Z</time>
      </trkpt>
      <trkpt lat="48.50818" lon="1.91702">
        <ele>121.74</ele>
        <time>2020-07-06T08:00:13Z</time>
      </trkpt>
      <trkpt lat="48.50825" lon="1.91681">
        <ele>122.71</ele>
        <time>2020-07-06T08:00:25Z</time>
      </trkpt>
      <trkpt lat="48.50832" lon="1.91659">
        <ele>123.19</ele>
        <time>2020-07-06T08:00:36Z</time>
      </trkpt>
      <trkpt lat="48.50842" lon="1.91636">
        <ele>124.63</ele>
        <time>2020-07-06T08:00:48Z</time>
      </trkpt>
      <trkpt lat="48.5085" lon="1.91617">
        <ele>125.59</ele>
        <time>2020-07-06T08:00:58Z</time>
      </trkpt>
      <trkpt lat="48.50857" lon="1.91596">
        <ele>126.55</ele>
        <time>2020-07-06T08:01:09Z</time>
      </trkpt>
      <trkpt lat="48.50857" lon="1.91577">
        <ele>127.03</ele>
        <time>2020-07-06T08:01:18Z</time>
      </trkpt>
      <trkpt lat="48.50859" lon="1.91559">
        <ele>127.99</ele>
        <time>2020-07-06T08:01:25Z</time>
      </trkpt>
      <trkpt lat="48.50859" lon="1.91546">
        <ele>128.95</ele>
        <time>2020-07-06T08:01:32Z</time>
      </trkpt>
      <trkpt lat="48.50861" lon="1.91531">
        <ele>130.4</ele>
        <time>2020-07-06T08:01:41Z</time>
      </trkpt>
      <trkpt lat="48.50861" lon="1.91512">
        <ele>131.84</ele>
        <time>2020-07-06T08:01:51Z</time>
      </trkpt>
      <trkpt lat="48.50861" lon="1.91491">
        <ele>133.28</ele>
        <time>2020-07-06T08:02:03Z</time>
      </trkpt>
      <trkpt lat="48.50865" lon="1.9147">
        <ele>135.2</ele>
        <time>2020-07-06T08:02:15Z</time>
      </trkpt>
      <trkpt lat="48.50867" lon="1.91444">
        <ele>137.13</ele>
        <time>2020-07-06T08:02:28Z</time>
      </trkpt>
      <trkpt lat="48.50861" lon="1.91424">
        <ele>139.05</ele>
        <time>2020-07-06T08:02:39Z</time>
      </trkpt>
      <trkpt lat="48.50854" lon="1.91413">
        <ele>140.97</ele>
        <time>2020-07-06T08:02:48Z</time>
      </trkpt>
      <trkpt lat="48.50842" lon="1.91402">
        <ele>142.89</ele>
        <time>2020-07-06T08:02:58Z</time>
      </trkpt>
      <trkpt lat="48.50832" lon="1.91395">
        <ele>144.82</ele>
        <time>2020-07-06T08:03:08Z</time>
      </trkpt>
      <trkpt lat="48.50822" lon="1.9139">
        <ele>146.74</ele>
        <time>2020-07-06T08:03:21Z</time>
      </trkpt>
      <trkpt lat="48.50813" lon="1.91398">
        <ele>147.22</ele>
        <time>2020-07-06T08:03:30Z</time>
      </trkpt>
      <trkpt lat="48.50804" lon="1.914">
        <ele>147.7</ele>
        <time>2020-07-06T08:03:44Z</time>
      </trkpt>
      <trkpt lat="48.50798" lon="1.91405">
        <ele>147.7</ele>
        <time>2020-07-06T08:04:14Z</time>
      </trkpt>
      <trkpt lat="48.508" lon="1.91385">
        <ele>147.7</ele>
        <time>2020-07-06T08:04:27Z</time>
      </trkpt>
      <trkpt lat="48.50803" lon="1.91378">
        <ele>147.7</ele>
        <time>2020-07-06T08:04:44Z</time>
      </trkpt>
      <trkpt lat="48.50806" lon="1.9137">
        <ele>147.7</ele>
        <time>2020-07-06T08:05:00Z</time>
      </trkpt>
      <trkpt lat="48.50808" lon="1.91352">
        <ele>147.7</ele>
        <time>2020-07-06T08:05:08Z</time>
      </trkpt>
      <trkpt lat="48.50811" lon="1.91334">
        <ele>147.22</ele>
        <time>2020-07-06T08:05:17Z</time>
      </trkpt>
      <trkpt lat="48.50812" lon="1.91315">
        <ele>147.7</ele>
        <time>2020-07-06T08:05:25Z</time>
      </trkpt>
      <trkpt lat="48.50814" lon="1.91297">
        <ele>148.18</ele>
        <time>2020-07-06T08:05:33Z</time>
      </trkpt>
      <trkpt lat="48.50815" lon="1.91279">
        <ele>148.18</ele>
        <time>2020-07-06T08:05:42Z</time>
      </trkpt>
      <trkpt lat="48.50817" lon="1.91265">
        <ele>147.7</ele>
        <time>2020-07-06T08:06:02Z</time>
      </trkpt>
      <trkpt lat="48.50817" lon="1.91249">
        <ele>148.18</ele>
        <time>2020-07-06T08:06:12Z</time>
      </trkpt>
      <trkpt lat="48.50819" lon="1.91232">
        <ele>148.18</ele>
        <time>2020-07-06T08:06:20Z</time>
      </trkpt>
      <trkpt lat="48.50819" lon="1.91217">
        <ele>149.14</ele>
        <time>2020-07-06T08:06:28Z</time>
      </trkpt>
      <trkpt lat="48.50823" lon="1.91202">
        <ele>149.62</ele>
        <time>2020-07-06T08:06:36Z</time>
      </trkpt>
      <trkpt lat="48.50826" lon="1.91189">
        <ele>149.14</ele>
        <time>2020-07-06T08:06:43Z</time>
      </trkpt>
      <trkpt lat="48.50831" lon="1.91177">
        <ele>149.14</ele>
        <time>2020-07-06T08:06:49Z</time>
      </trkpt>
      <trkpt lat="48.50835" lon="1.91164">
        <ele>149.62</ele>
        <time>2020-07-06T08:06:56Z</time>
      </trkpt>
      <trkpt lat="48.50838" lon="1.91149">
        <ele>149.62</ele>
        <time>2020-07-06T08:07:04Z</time>
      </trkpt>
      <trkpt lat="48.50842" lon="1.91136">
        <ele>149.62</ele>
        <time>2020-07-06T08:07:10Z</time>
      </trkpt>
      <trkpt lat="48.50846" lon="1.91123">
        <ele>149.14</ele>
        <time>2020-07-06T08:07:16Z</time>
      </trkpt>
      <trkpt lat="48.50851" lon="1.91111">
        <ele>149.62</ele>
        <time>2020-07-06T08:07:23Z</time>
      </trkpt>
      <trkpt lat="48.50856" lon="1.91097">
        <ele>149.62</ele>
        <time>2020-07-06T08:07:30Z</time>
      </trkpt>
      <trkpt lat="48.50861" lon="1.91085">
        <ele>149.14</ele>
        <time>2020-07-06T08:07:36Z</time>
      </trkpt>
      <trkpt lat="48.50866" lon="1.91074">
        <ele>149.14</ele>
        <time>2020-07-06T08:07:42Z</time>
      </trkpt>
      <trkpt lat="48.50873" lon="1.91062">
        <ele>149.14</ele>
        <time>2020-07-06T08:07:49Z</time>
      </trkpt>
      <trkpt lat="48.50878" lon="1.91051">
        <ele>149.14</ele>
        <time>2020-07-06T08:07:55Z</time>
      </trkpt>
      <trkpt lat="48.50883" lon="1.91038">
        <ele>149.14</ele>
        <time>2020-07-06T08:08:02Z</time>
      </trkpt>
      <trkpt lat="48.50891" lon="1.91027">
        <ele>149.14</ele>
        <time>2020-07-06T08:08:08Z</time>
      </trkpt>
      <trkpt lat="48.50898" lon="1.91017">
        <ele>148.66</ele>
        <time>2020-07-06T08:08:16Z</time>
      </trkpt>
      <trkpt lat="48.50903" lon="1.91002">
        <ele>148.66</ele>
        <time>2020-07-06T08:08:23Z</time>
      </trkpt>
      <trkpt lat="48.5091" lon="1.90991">
        <ele>148.66</ele>
        <time>2020-07-06T08:08:29Z</time>
      </trkpt>
      <trkpt lat="48.50917" lon="1.9098">
        <ele>149.14</ele>
        <time>2020-07-06T08:08:36Z</time>
      </trkpt>
      <trkpt lat="48.50924" lon="1.9097">
        <ele>148.18</ele>
        <time>2020-07-06T08:08:42Z</time>
      </trkpt>
      <trkpt lat="48.50929" lon="1.90959">
        <ele>148.66</ele>
        <time>2020-07-06T08:08:48Z</time>
      </trkpt>
      <trkpt lat="48.50934" lon="1.90946">
        <ele>148.18</ele>
        <time>2020-07-06T08:08:55Z</time>
      </trkpt>
      <trkpt lat="48.50941" lon="1.90934">
        <ele>148.18</ele>
        <time>2020-07-06T08:09:03Z</time>
      </trkpt>
      <trkpt lat="48.50947" lon="1.9092">
        <ele>148.18</ele>
        <time>2020-07-06T08:09:10Z</time>
      </trkpt>
      <trkpt lat="48.50952" lon="1.90907">
        <ele>147.7</ele>
        <time>2020-07-06T08:09:17Z</time>
      </trkpt>
      <trkpt lat="48.50958" lon="1.90894">
        <ele>148.66</ele>
        <time>2020-07-06T08:09:24Z</time>
      </trkpt>
      <trkpt lat="48.50963" lon="1.9088">
        <ele>148.18</ele>
        <time>2020-07-06T08:09:31Z</time>
      </trkpt>
      <trkpt lat="48.50967" lon="1.90866">
        <ele>148.66</ele>
        <time>2020-07-06T08:09:38Z</time>
      </trkpt>
      <trkpt lat="48.50973" lon="1.90852">
        <ele>148.66</ele>
        <time>2020-07-06T08:09:45Z</time>
      </trkpt>
      <trkpt lat="48.5098" lon="1.9084">
        <ele>149.14</ele>
        <time>2020-07-06T08:09:52Z</time>
      </trkpt>
      <trkpt lat="48.50984" lon="1.90825">
        <ele>149.14</ele>
        <time>2020-07-06T08:09:59Z</time>
      </trkpt>
      <trkpt lat="48.50987" lon="1.9081">
        <ele>149.14</ele>
        <time>2020-07-06T08:10:06Z</time>
      </trkpt>
      <trkpt lat="48.5099" lon="1.90795">
        <ele>149.62</ele>
        <time>2020-07-06T08:10:15Z</time>
      </trkpt>
      <trkpt lat="48.50993" lon="1.90783">
        <ele>149.14</ele>
        <time>2020-07-06T08:10:32Z</time>
      </trkpt>
      <trkpt lat="48.50998" lon="1.90768">
        <ele>149.62</ele>
        <time>2020-07-06T08:10:39Z</time>
      </trkpt>
      <trkpt lat="48.51" lon="1.90753">
        <ele>149.62</ele>
        <time>2020-07-06T08:10:46Z</time>
      </trkpt>
      <trkpt lat="48.51001" lon="1.90736">
        <ele>150.1</ele>
        <time>2020-07-06T08:10:53Z</time>
      </trkpt>
      <trkpt lat="48.51002" lon="1.90721">
        <ele>149.14</ele>
        <time>2020-07-06T08:11:00Z</time>
      </trkpt>
      <trkpt lat="48.51005" lon="1.90706">
        <ele>149.62</ele>
        <time>2020-07-06T08:11:06Z</time>
      </trkpt>
      <trkpt lat="48.51009" lon="1.90693">
        <ele>149.62</ele>
        <time>2020-07-06T08:11:13Z</time>
      </trkpt>
      <trkpt lat="48.5101" lon="1.90677">
        <ele>149.62</ele>
        <time>2020-07-06T08:11:20Z</time>
      </trkpt>
      <trkpt lat="48.51013" lon="1.90663">
        <ele>149.62</ele>
        <time>2020-07-06T08:11:27Z</time>
      </trkpt>
      <trkpt lat="48.51015" lon="1.90648">
        <ele>150.58</ele>
        <time>2020-07-06T08:11:35Z</time>
      </trkpt>
      <trkpt lat="48.51017" lon="1.90633">
        <ele>150.1</ele>
        <time>2020-07-06T08:11:42Z</time>
      </trkpt>
      <trkpt lat="48.51017" lon="1.90618">
        <ele>150.58</ele>
        <time>2020-07-06T08:11:48Z</time>
      </trkpt>
      <trkpt lat="48.5102" lon="1.90605">
        <ele>151.54</ele>
        <time>2020-07-06T08:11:54Z</time>
      </trkpt>
      <trkpt lat="48.51025" lon="1.90591">
        <ele>151.06</ele>
        <time>2020-07-06T08:12:02Z</time>
      </trkpt>
      <trkpt lat="48.51026" lon="1.90574">
        <ele>152.03</ele>
        <time>2020-07-06T08:12:10Z</time>
      </trkpt>
      <trkpt lat="48.51028" lon="1.90557">
        <ele>152.51</ele>
        <time>2020-07-06T08:12:17Z</time>
      </trkpt>
      <trkpt lat="48.51029" lon="1.90542">
        <ele>152.99</ele>
        <time>2020-07-06T08:12:24Z</time>
      </trkpt>
      <trkpt lat="48.51032" lon="1.90527">
        <ele>152.99</ele>
        <time>2020-07-06T08:12:30Z</time>
      </trkpt>
      <trkpt lat="48.51034" lon="1.90512">
        <ele>152.03</ele>
        <time>2020-07-06T08:12:37Z</time>
      </trkpt>
      <trkpt lat="48.51035" lon="1.90497">
        <ele>152.03</ele>
        <time>2020-07-06T08:12:43Z</time>
      </trkpt>
      <trkpt lat="48.51036" lon="1.90481">
        <ele>151.54</ele>
        <time>2020-07-06T08:12:50Z</time>
      </trkpt>
      <trkpt lat="48.51038" lon="1.90468">
        <ele>150.58</ele>
        <time>2020-07-06T08:12:56Z</time>
      </trkpt>
      <trkpt lat="48.5104" lon="1.90453">
        <ele>150.58</ele>
        <time>2020-07-06T08:13:03Z</time>
      </trkpt>
      <trkpt lat="48.51043" lon="1.9044">
        <ele>149.62</ele>
        <time>2020-07-06T08:13:10Z</time>
      </trkpt>
      <trkpt lat="48.51051" lon="1.90437">
        <ele>150.58</ele>
        <time>2020-07-06T08:13:17Z</time>
      </trkpt>
      <trkpt lat="48.5106" lon="1.90443">
        <ele>150.1</ele>
        <time>2020-07-06T08:13:24Z</time>
      </trkpt>
      <trkpt lat="48.51071" lon="1.90448">
        <ele>150.1</ele>
        <time>2020-07-06T08:13:31Z</time>
      </trkpt>
      <trkpt lat="48.51079" lon="1.90453">
        <ele>150.1</ele>
        <time>2020-07-06T08:13:37Z</time>
      </trkpt>
      <trkpt lat="48.51088" lon="1.90459">
        <ele>150.1</ele>
        <time>2020-07-06T08:13:44Z</time>
      </trkpt>
      <trkpt lat="48.51098" lon="1.90462">
        <ele>149.14</ele>
        <time>2020-07-06T08:13:51Z</time>
      </trkpt>
      <trkpt lat="48.51106" lon="1.90469">
        <ele>149.62</ele>
        <time>2020-07-06T08:13:57Z</time>
      </trkpt>
      <trkpt lat="48.51117" lon="1.90475">
        <ele>148.66</ele>
        <time>2020-07-06T08:14:04Z</time>
      </trkpt>
      <trkpt lat="48.51126" lon="1.90478">
        <ele>148.18</ele>
        <time>2020-07-06T08:14:11Z</time>
      </trkpt>
      <trkpt lat="48.51136" lon="1.90485">
        <ele>148.18</ele>
        <time>2020-07-06T08:14:18Z</time>
      </trkpt>
      <trkpt lat="48.51145" lon="1.9048">
        <ele>146.26</ele>
        <time>2020-07-06T08:14:24Z</time>
      </trkpt>
      <trkpt lat="48.51151" lon="1.90469">
        <ele>146.74</ele>
        <time>2020-07-06T08:14:30Z</time>
      </trkpt>
      <trkpt lat="48.51154" lon="1.90456">
        <ele>145.78</ele>
        <time>2020-07-06T08:14:36Z</time>
      </trkpt>
      <trkpt lat="48.5116" lon="1.90445">
        <ele>145.78</ele>
        <time>2020-07-06T08:14:42Z</time>
      </trkpt>
      <trkpt lat="48.51164" lon="1.90431">
        <ele>145.78</ele>
        <time>2020-07-06T08:14:49Z</time>
      </trkpt>
      <trkpt lat="48.51166" lon="1.90416">
        <ele>146.26</ele>
        <time>2020-07-06T08:14:56Z</time>
      </trkpt>
      <trkpt lat="48.5117" lon="1.90402">
        <ele>146.26</ele>
        <time>2020-07-06T08:15:02Z</time>
      </trkpt>
      <trkpt lat="48.51174" lon="1.9039">
        <ele>145.3</ele>
        <time>2020-07-06T08:15:08Z</time>
      </trkpt>
      <trkpt lat="48.51178" lon="1.90378">
        <ele>145.3</ele>
        <time>2020-07-06T08:15:14Z</time>
      </trkpt>
      <trkpt lat="48.51182" lon="1.90364">
        <ele>145.78</ele>
        <time>2020-07-06T08:15:20Z</time>
      </trkpt>
      <trkpt lat="48.51184" lon="1.90351">
        <ele>145.3</ele>
        <time>2020-07-06T08:15:27Z</time>
      </trkpt>
      <trkpt lat="48.5119" lon="1.9034">
        <ele>144.82</ele>
        <time>2020-07-06T08:15:33Z</time>
      </trkpt>
      <trkpt lat="48.51195" lon="1.90326">
        <ele>144.82</ele>
        <time>2020-07-06T08:15:41Z</time>
      </trkpt>
      <trkpt lat="48.51202" lon="1.90315">
        <ele>144.34</ele>
        <time>2020-07-06T08:15:48Z</time>
      </trkpt>
      <trkpt lat="48.51209" lon="1.90305">
        <ele>144.34</ele>
        <time>2020-07-06T08:15:55Z</time>
      </trkpt>
      <trkpt lat="48.51216" lon="1.90292">
        <ele>144.82</ele>
        <time>2020-07-06T08:16:02Z</time>
      </trkpt>
      <trkpt lat="48.51224" lon="1.90281">
        <ele>145.3</ele>
        <time>2020-07-06T08:16:08Z</time>
      </trkpt>
      <trkpt lat="48.51231" lon="1.90273">
        <ele>145.78</ele>
        <time>2020-07-06T08:16:15Z</time>
      </trkpt>
      <trkpt lat="48.51238" lon="1.90262">
        <ele>146.26</ele>
        <time>2020-07-06T08:16:22Z</time>
      </trkpt>
      <trkpt lat="48.51244" lon="1.90252">
        <ele>146.26</ele>
        <time>2020-07-06T08:16:28Z</time>
      </trkpt>
      <trkpt lat="48.51252" lon="1.90244">
        <ele>146.74</ele>
        <time>2020-07-06T08:16:35Z</time>
      </trkpt>
      <trkpt lat="48.51259" lon="1.90231">
        <ele>147.7</ele>
        <time>2020-07-06T08:16:43Z</time>
      </trkpt>
      <trkpt lat="48.51267" lon="1.90224">
        <ele>147.22</ele>
        <time>2020-07-06T08:16:49Z</time>
      </trkpt>
      <trkpt lat="48.51274" lon="1.90213">
        <ele>147.7</ele>
        <time>2020-07-06T08:16:56Z</time>
      </trkpt>
      <trkpt lat="48.51281" lon="1.90202">
        <ele>148.18</ele>
        <time>2020-07-06T08:17:02Z</time>
      </trkpt>
      <trkpt lat="48.51287" lon="1.90191">
        <ele>147.22</ele>
        <time>2020-07-06T08:17:09Z</time>
      </trkpt>
      <trkpt lat="48.51294" lon="1.90181">
        <ele>147.7</ele>
        <time>2020-07-06T08:17:16Z</time>
      </trkpt>
      <trkpt lat="48.51299" lon="1.90168">
        <ele>146.74</ele>
        <time>2020-07-06T08:17:23Z</time>
      </trkpt>
      <trkpt lat="48.51304" lon="1.90154">
        <ele>146.74</ele>
        <time>2020-07-06T08:17:30Z</time>
      </trkpt>
      <trkpt lat="48.51311" lon="1.90143">
        <ele>146.26</ele>
        <time>2020-07-06T08:17:37Z</time>
      </trkpt>
      <trkpt lat="48.51317" lon="1.9013">
        <ele>145.78</ele>
        <time>2020-07-06T08:17:44Z</time>
      </trkpt>
      <trkpt lat="48.51321" lon="1.90117">
        <ele>145.78</ele>
        <time>2020-07-06T08:17:58Z</time>
      </trkpt>
      <trkpt lat="48.51327" lon="1.90107">
        <ele>145.78</ele>
        <time>2020-07-06T08:18:05Z</time>
      </trkpt>
      <trkpt lat="48.51337" lon="1.90102">
        <ele>145.78</ele>
        <time>2020-07-06T08:18:12Z</time>
      </trkpt>
      <trkpt lat="48.51345" lon="1.90094">
        <ele>146.26</ele>
        <time>2020-07-06T08:18:19Z</time>
      </trkpt>
      <trkpt lat="48.51352" lon="1.9009">
        <ele>146.74</ele>
        <time>2020-07-06T08:18:43Z</time>
      </trkpt>
      <trkpt lat="48.51361" lon="1.90089">
        <ele>146.26</ele>
        <time>2020-07-06T08:18:52Z</time>
      </trkpt>
      <trkpt lat="48.5137" lon="1.90085">
        <ele>146.26</ele>
        <time>2020-07-06T08:19:01Z</time>
      </trkpt>
      <trkpt lat="48.5138" lon="1.9008">
        <ele>146.74</ele>
        <time>2020-07-06T08:19:08Z</time>
      </trkpt>
      <trkpt lat="48.51389" lon="1.90075">
        <ele>147.22</ele>
        <time>2020-07-06T08:19:21Z</time>
      </trkpt>
      <trkpt lat="48.51398" lon="1.90072">
        <ele>147.22</ele>
        <time>2020-07-06T08:19:29Z</time>
      </trkpt>
      <trkpt lat="48.51407" lon="1.90068">
        <ele>147.22</ele>
        <time>2020-07-06T08:19:36Z</time>
      </trkpt>
      <trkpt lat="48.51416" lon="1.90064">
        <ele>148.18</ele>
        <time>2020-07-06T08:19:43Z</time>
      </trkpt>
      <trkpt lat="48.51426" lon="1.90058">
        <ele>147.22</ele>
        <time>2020-07-06T08:19:50Z</time>
      </trkpt>
      <trkpt lat="48.51435" lon="1.90054">
        <ele>148.18</ele>
        <time>2020-07-06T08:19:58Z</time>
      </trkpt>
      <trkpt lat="48.51443" lon="1.90045">
        <ele>148.18</ele>
        <time>2020-07-06T08:20:05Z</time>
      </trkpt>
      <trkpt lat="48.51451" lon="1.90038">
        <ele>148.18</ele>
        <time>2020-07-06T08:20:13Z</time>
      </trkpt>
      <trkpt lat="48.51459" lon="1.90032">
        <ele>148.66</ele>
        <time>2020-07-06T08:20:20Z</time>
      </trkpt>
      <trkpt lat="48.51467" lon="1.90024">
        <ele>148.66</ele>
        <time>2020-07-06T08:20:27Z</time>
      </trkpt>
      <trkpt lat="48.51475" lon="1.90016">
        <ele>149.14</ele>
        <time>2020-07-06T08:20:35Z</time>
      </trkpt>
      <trkpt lat="48.51483" lon="1.90009">
        <ele>149.14</ele>
        <time>2020-07-06T08:20:43Z</time>
      </trkpt>
      <trkpt lat="48.51491" lon="1.89998">
        <ele>149.14</ele>
        <time>2020-07-06T08:20:51Z</time>
      </trkpt>
      <trkpt lat="48.515" lon="1.8999">
        <ele>149.62</ele>
        <time>2020-07-06T08:20:58Z</time>
      </trkpt>
      <trkpt lat="48.51506" lon="1.8998">
        <ele>150.1</ele>
        <time>2020-07-06T08:21:05Z</time>
      </trkpt>
      <trkpt lat="48.51516" lon="1.89973">
        <ele>150.1</ele>
        <time>2020-07-06T08:21:13Z</time>
      </trkpt>
      <trkpt lat="48.51524" lon="1.89963">
        <ele>150.58</ele>
        <time>2020-07-06T08:21:21Z</time>
      </trkpt>
      <trkpt lat="48.51533" lon="1.89956">
        <ele>151.06</ele>
        <time>2020-07-06T08:21:27Z</time>
      </trkpt>
      <trkpt lat="48.5154" lon="1.89947">
        <ele>151.06</ele>
        <time>2020-07-06T08:21:34Z</time>
      </trkpt>
      <trkpt lat="48.51547" lon="1.89939">
        <ele>150.58</ele>
        <time>2020-07-06T08:21:41Z</time>
      </trkpt>
      <trkpt lat="48.51554" lon="1.89934">
        <ele>151.06</ele>
        <time>2020-07-06T08:22:00Z</time>
      </trkpt>
      <trkpt lat="48.51562" lon="1.89927">
        <ele>151.54</ele>
        <time>2020-07-06T08:22:08Z</time>
      </trkpt>
      <trkpt lat="48.5157" lon="1.89918">
        <ele>151.54</ele>
        <time>2020-07-06T08:22:16Z</time>
      </trkpt>
      <trkpt lat="48.51579" lon="1.8991">
        <ele>151.06</ele>
        <time>2020-07-06T08:22:24Z</time>
      </trkpt>
      <trkpt lat="48.51587" lon="1.899">
        <ele>151.54</ele>
        <time>2020-07-06T08:22:33Z</time>
      </trkpt>
      <trkpt lat="48.51595" lon="1.89893">
        <ele>151.54</ele>
        <time>2020-07-06T08:22:41Z</time>
      </trkpt>
      <trkpt lat="48.51603" lon="1.89885">
        <ele>152.03</ele>
        <time>2020-07-06T08:22:48Z</time>
      </trkpt>
      <trkpt lat="48.51611" lon="1.89877">
        <ele>152.51</ele>
        <time>2020-07-06T08:22:55Z</time>
      </trkpt>
      <trkpt lat="48.51619" lon="1.89869">
        <ele>152.03</ele>
        <time>2020-07-06T08:23:03Z</time>
      </trkpt>
      <trkpt lat="48.51627" lon="1.89863">
        <ele>152.03</ele>
        <time>2020-07-06T08:23:10Z</time>
      </trkpt>
      <trkpt lat="48.51634" lon="1.89855">
        <ele>151.06</ele>
        <time>2020-07-06T08:23:17Z</time>
      </trkpt>
      <trkpt lat="48.51641" lon="1.89845">
        <ele>151.54</ele>
        <time>2020-07-06T08:23:25Z</time>
      </trkpt>
      <trkpt lat="48.51649" lon="1.89839">
        <ele>152.03</ele>
        <time>2020-07-06T08:23:32Z</time>
      </trkpt>
      <trkpt lat="48.51657" lon="1.89829">
        <ele>152.03</ele>
        <time>2020-07-06T08:23:40Z</time>
      </trkpt>
      <trkpt lat="48.51664" lon="1.8982">
        <ele>152.99</ele>
        <time>2020-07-06T08:23:48Z</time>
      </trkpt>
      <trkpt lat="48.51673" lon="1.89811">
        <ele>152.03</ele>
        <time>2020-07-06T08:23:56Z</time>
      </trkpt>
      <trkpt lat="48.51681" lon="1.89799">
        <ele>152.51</ele>
        <time>2020-07-06T08:24:04Z</time>
      </trkpt>
      <trkpt lat="48.5169" lon="1.89789">
        <ele>152.03</ele>
        <time>2020-07-06T08:24:11Z</time>
      </trkpt>
      <trkpt lat="48.51695" lon="1.8978">
        <ele>153.47</ele>
        <time>2020-07-06T08:24:17Z</time>
      </trkpt>
      <trkpt lat="48.51701" lon="1.8977">
        <ele>152.99</ele>
        <time>2020-07-06T08:24:24Z</time>
      </trkpt>
      <trkpt lat="48.51706" lon="1.89758">
        <ele>152.99</ele>
        <time>2020-07-06T08:24:32Z</time>
      </trkpt>
      <trkpt lat="48.51714" lon="1.89746">
        <ele>153.47</ele>
        <time>2020-07-06T08:24:39Z</time>
      </trkpt>
      <trkpt lat="48.51721" lon="1.89734">
        <ele>152.99</ele>
        <time>2020-07-06T08:24:46Z</time>
      </trkpt>
      <trkpt lat="48.51728" lon="1.89724">
        <ele>153.47</ele>
        <time>2020-07-06T08:24:53Z</time>
      </trkpt>
      <trkpt lat="48.51734" lon="1.89711">
        <ele>153.47</ele>
        <time>2020-07-06T08:25:01Z</time>
      </trkpt>
      <trkpt lat="48.5174" lon="1.897">
        <ele>153.47</ele>
        <time>2020-07-06T08:25:07Z</time>
      </trkpt>
      <trkpt lat="48.51745" lon="1.89687">
        <ele>153.95</ele>
        <time>2020-07-06T08:25:14Z</time>
      </trkpt>
      <trkpt lat="48.51752" lon="1.89674">
        <ele>153.47</ele>
        <time>2020-07-06T08:25:22Z</time>
      </trkpt>
      <trkpt lat="48.51756" lon="1.8966">
        <ele>152.99</ele>
        <time>2020-07-06T08:25:30Z</time>
      </trkpt>
      <trkpt lat="48.5176" lon="1.89645">
        <ele>152.99</ele>
        <time>2020-07-06T08:25:38Z</time>
      </trkpt>
      <trkpt lat="48.51763" lon="1.8963">
        <ele>152.51</ele>
        <time>2020-07-06T08:25:46Z</time>
      </trkpt>
      <trkpt lat="48.51766" lon="1.89615">
        <ele>152.51</ele>
        <time>2020-07-06T08:26:22Z</time>
      </trkpt>
      <trkpt lat="48.51768" lon="1.89602">
        <ele>152.51</ele>
        <time>2020-07-06T08:26:35Z</time>
      </trkpt>
      <trkpt lat="48.51772" lon="1.89588">
        <ele>151.54</ele>
        <time>2020-07-06T08:26:44Z</time>
      </trkpt>
      <trkpt lat="48.51773" lon="1.89572">
        <ele>151.06</ele>
        <time>2020-07-06T08:26:52Z</time>
      </trkpt>
      <trkpt lat="48.51774" lon="1.89559">
        <ele>151.54</ele>
        <time>2020-07-06T08:27:00Z</time>
      </trkpt>
      <trkpt lat="48.51775" lon="1.89548">
        <ele>151.54</ele>
        <time>2020-07-06T08:27:12Z</time>
      </trkpt>
      <trkpt lat="48.51775" lon="1.89534">
        <ele>152.03</ele>
        <time>2020-07-06T08:27:19Z</time>
      </trkpt>
      <trkpt lat="48.51775" lon="1.89518">
        <ele>151.06</ele>
        <time>2020-07-06T08:27:27Z</time>
      </trkpt>
      <trkpt lat="48.51775" lon="1.89504">
        <ele>151.54</ele>
        <time>2020-07-06T08:27:34Z</time>
      </trkpt>
      <trkpt lat="48.51776" lon="1.8949">
        <ele>151.06</ele>
        <time>2020-07-06T08:27:42Z</time>
      </trkpt>
      <trkpt lat="48.51776" lon="1.89475">
        <ele>151.06</ele>
        <time>2020-07-06T08:27:49Z</time>
      </trkpt>
      <trkpt lat="48.51777" lon="1.89461">
        <ele>151.06</ele>
        <time>2020-07-06T08:27:57Z</time>
      </trkpt>
      <trkpt lat="48.51776" lon="1.89446">
        <ele>150.58</ele>
        <time>2020-07-06T08:28:05Z</time>
      </trkpt>
      <trkpt lat="48.51778" lon="1.89432">
        <ele>150.58</ele>
        <time>2020-07-06T08:28:12Z</time>
      </trkpt>
      <trkpt lat="48.51776" lon="1.89417">
        <ele>151.06</ele>
        <time>2020-07-06T08:28:19Z</time>
      </trkpt>
      <trkpt lat="48.51777" lon="1.89403">
        <ele>151.06</ele>
        <time>2020-07-06T08:28:26Z</time>
      </trkpt>
      <trkpt lat="48.51777" lon="1.8939">
        <ele>151.06</ele>
        <time>2020-07-06T08:28:33Z</time>
      </trkpt>
      <trkpt lat="48.51778" lon="1.89376">
        <ele>150.58</ele>
        <time>2020-07-06T08:28:40Z</time>
      </trkpt>
      <trkpt lat="48.51778" lon="1.89362">
        <ele>150.58</ele>
        <time>2020-07-06T08:28:47Z</time>
      </trkpt>
      <trkpt lat="48.51779" lon="1.89347">
        <ele>149.62</ele>
        <time>2020-07-06T08:28:54Z</time>
      </trkpt>
      <trkpt lat="48.51778" lon="1.89332">
        <ele>150.1</ele>
        <time>2020-07-06T08:29:01Z</time>
      </trkpt>
      <trkpt lat="48.51778" lon="1.89318">
        <ele>150.1</ele>
        <time>2020-07-06T08:29:08Z</time>
      </trkpt>
      <trkpt lat="48.51779" lon="1.89304">
        <ele>150.58</ele>
        <time>2020-07-06T08:29:15Z</time>
      </trkpt>
      <trkpt lat="48.51779" lon="1.8929">
        <ele>151.06</ele>
        <time>2020-07-06T08:29:22Z</time>
      </trkpt>
      <trkpt lat="48.51779" lon="1.89273">
        <ele>151.06</ele>
        <time>2020-07-06T08:29:30Z</time>
      </trkpt>
      <trkpt lat="48.51779" lon="1.8926">
        <ele>151.54</ele>
        <time>2020-07-06T08:29:37Z</time>
      </trkpt>
      <trkpt lat="48.51779" lon="1.89243">
        <ele>151.54</ele>
        <time>2020-07-06T08:29:45Z</time>
      </trkpt>
      <trkpt lat="48.51778" lon="1.89228">
        <ele>151.54</ele>
        <time>2020-07-06T08:29:53Z</time>
      </trkpt>
      <trkpt lat="48.51781" lon="1.89213">
        <ele>151.54</ele>
        <time>2020-07-06T08:30:01Z</time>
      </trkpt>
      <trkpt lat="48.5178" lon="1.89198">
        <ele>151.54</ele>
        <time>2020-07-06T08:30:09Z</time>
      </trkpt>
      <trkpt lat="48.5178" lon="1.89184">
        <ele>151.54</ele>
        <time>2020-07-06T08:30:20Z</time>
      </trkpt>
      <trkpt lat="48.5178" lon="1.89168">
        <ele>151.06</ele>
        <time>2020-07-06T08:30:29Z</time>
      </trkpt>
      <trkpt lat="48.51784" lon="1.89153">
        <ele>151.06</ele>
        <time>2020-07-06T08:30:47Z</time>
      </trkpt>
      <trkpt lat="48.51784" lon="1.89136">
        <ele>151.06</ele>
        <time>2020-07-06T08:31:12Z</time>
      </trkpt>
      <trkpt lat="48.51789" lon="1.89122">
        <ele>150.58</ele>
        <time>2020-07-06T08:31:26Z</time>
      </trkpt>
      <trkpt lat="48.51794" lon="1.89109">
        <ele>150.58</ele>
        <time>2020-07-06T08:31:35Z</time>
      </trkpt>
      <trkpt lat="48.518" lon="1.89091">
        <ele>150.1</ele>
        <time>2020-07-06T08:31:45Z</time>
      </trkpt>
      <trkpt lat="48.5181" lon="1.89085">
        <ele>148.66</ele>
        <time>2020-07-06T08:31:56Z</time>
      </trkpt>
      <trkpt lat="48.51822" lon="1.89072">
        <ele>147.7</ele>
        <time>2020-07-06T08:32:10Z</time>
      </trkpt>
      <trkpt lat="48.51838" lon="1.89058">
        <ele>147.22</ele>
        <time>2020-07-06T08:32:22Z</time>
      </trkpt>
      <trkpt lat="48.51848" lon="1.89047">
        <ele>147.22</ele>
        <time>2020-07-06T08:32:30Z</time>
      </trkpt>
      <trkpt lat="48.51857" lon="1.89039">
        <ele>146.74</ele>
        <time>2020-07-06T08:32:37Z</time>
      </trkpt>
      <trkpt lat="48.51867" lon="1.89034">
        <ele>147.22</ele>
        <time>2020-07-06T08:32:44Z</time>
      </trkpt>
      <trkpt lat="48.51879" lon="1.89023">
        <ele>146.74</ele>
        <time>2020-07-06T08:32:52Z</time>
      </trkpt>
      <trkpt lat="48.51888" lon="1.89015">
        <ele>146.26</ele>
        <time>2020-07-06T08:32:59Z</time>
      </trkpt>
      <trkpt lat="48.51898" lon="1.89012">
        <ele>146.26</ele>
        <time>2020-07-06T08:33:05Z</time>
      </trkpt>
      <trkpt lat="48.51907" lon="1.89008">
        <ele>146.26</ele>
        <time>2020-07-06T08:33:12Z</time>
      </trkpt>
      <trkpt lat="48.51917" lon="1.89004">
        <ele>147.22</ele>
        <time>2020-07-06T08:33:19Z</time>
      </trkpt>
      <trkpt lat="48.51928" lon="1.89001">
        <ele>147.22</ele>
        <time>2020-07-06T08:33:26Z</time>
      </trkpt>
      <trkpt lat="48.51938" lon="1.88999">
        <ele>146.26</ele>
        <time>2020-07-06T08:33:33Z</time>
      </trkpt>
      <trkpt lat="48.51949" lon="1.88994">
        <ele>146.74</ele>
        <time>2020-07-06T08:33:40Z</time>
      </trkpt>
      <trkpt lat="48.51958" lon="1.88994">
        <ele>147.22</ele>
        <time>2020-07-06T08:33:46Z</time>
      </trkpt>
      <trkpt lat="48.51967" lon="1.88993">
        <ele>147.22</ele>
        <time>2020-07-06T08:33:52Z</time>
      </trkpt>
      <trkpt lat="48.51976" lon="1.88987">
        <ele>147.22</ele>
        <time>2020-07-06T08:33:59Z</time>
      </trkpt>
      <trkpt lat="48.51986" lon="1.88984">
        <ele>147.22</ele>
        <time>2020-07-06T08:34:06Z</time>
      </trkpt>
      <trkpt lat="48.51995" lon="1.88985">
        <ele>147.22</ele>
        <time>2020-07-06T08:34:13Z</time>
      </trkpt>
      <trkpt lat="48.52005" lon="1.88983">
        <ele>147.22</ele>
        <time>2020-07-06T08:34:23Z</time>
      </trkpt>
      <trkpt lat="48.52011" lon="1.88982">
        <ele>147.7</ele>
        <time>2020-07-06T08:34:34Z</time>
      </trkpt>
      <trkpt lat="48.52017" lon="1.8898">
        <ele>147.22</ele>
        <time>2020-07-06T08:34:46Z</time>
      </trkpt>
      <trkpt lat="48.52026" lon="1.88977">
        <ele>147.22</ele>
        <time>2020-07-06T08:34:52Z</time>
      </trkpt>
      <trkpt lat="48.52035" lon="1.88977">
        <ele>147.22</ele>
        <time>2020-07-06T08:35:04Z</time>
      </trkpt>
      <trkpt lat="48.52044" lon="1.88974">
        <ele>147.22</ele>
        <time>2020-07-06T08:35:11Z</time>
      </trkpt>
      <trkpt lat="48.52054" lon="1.88972">
        <ele>147.7</ele>
        <time>2020-07-06T08:35:19Z</time>
      </trkpt>
      <trkpt lat="48.52063" lon="1.8897">
        <ele>148.66</ele>
        <time>2020-07-06T08:35:26Z</time>
      </trkpt>
      <trkpt lat="48.52074" lon="1.88967">
        <ele>149.62</ele>
        <time>2020-07-06T08:35:34Z</time>
      </trkpt>
      <trkpt lat="48.52083" lon="1.88969">
        <ele>148.18</ele>
        <time>2020-07-06T08:35:40Z</time>
      </trkpt>
      <trkpt lat="48.52088" lon="1.8898">
        <ele>148.18</ele>
        <time>2020-07-06T08:35:47Z</time>
      </trkpt>
      <trkpt lat="48.52092" lon="1.88992">
        <ele>148.18</ele>
        <time>2020-07-06T08:35:53Z</time>
      </trkpt>
      <trkpt lat="48.52093" lon="1.89005">
        <ele>148.66</ele>
        <time>2020-07-06T08:35:59Z</time>
      </trkpt>
      <trkpt lat="48.52096" lon="1.89018">
        <ele>148.66</ele>
        <time>2020-07-06T08:36:06Z</time>
      </trkpt>
      <trkpt lat="48.52097" lon="1.89032">
        <ele>149.14</ele>
        <time>2020-07-06T08:36:13Z</time>
      </trkpt>
      <trkpt lat="48.52098" lon="1.89046">
        <ele>148.66</ele>
        <time>2020-07-06T08:36:20Z</time>
      </trkpt>
      <trkpt lat="48.52101" lon="1.89061">
        <ele>149.14</ele>
        <time>2020-07-06T08:36:27Z</time>
      </trkpt>
      <trkpt lat="48.52103" lon="1.89074">
        <ele>149.14</ele>
        <time>2020-07-06T08:36:34Z</time>
      </trkpt>
      <trkpt lat="48.52105" lon="1.89089">
        <ele>149.14</ele>
        <time>2020-07-06T08:36:41Z</time>
      </trkpt>
      <trkpt lat="48.52108" lon="1.89104">
        <ele>149.62</ele>
        <time>2020-07-06T08:36:49Z</time>
      </trkpt>
      <trkpt lat="48.52108" lon="1.89118">
        <ele>149.62</ele>
        <time>2020-07-06T08:36:56Z</time>
      </trkpt>
      <trkpt lat="48.52109" lon="1.89131">
        <ele>149.62</ele>
        <time>2020-07-06T08:37:02Z</time>
      </trkpt>
      <trkpt lat="48.52112" lon="1.89144">
        <ele>150.1</ele>
        <time>2020-07-06T08:37:08Z</time>
      </trkpt>
      <trkpt lat="48.52113" lon="1.89158">
        <ele>150.1</ele>
        <time>2020-07-06T08:37:14Z</time>
      </trkpt>
      <trkpt lat="48.52113" lon="1.89171">
        <ele>150.58</ele>
        <time>2020-07-06T08:37:20Z</time>
      </trkpt>
      <trkpt lat="48.52115" lon="1.89186">
        <ele>150.1</ele>
        <time>2020-07-06T08:37:27Z</time>
      </trkpt>
      <trkpt lat="48.52118" lon="1.89201">
        <ele>150.58</ele>
        <time>2020-07-06T08:37:34Z</time>
      </trkpt>
      <trkpt lat="48.52119" lon="1.89214">
        <ele>151.06</ele>
        <time>2020-07-06T08:37:40Z</time>
      </trkpt>
      <trkpt lat="48.52119" lon="1.89228">
        <ele>151.06</ele>
        <time>2020-07-06T08:37:47Z</time>
      </trkpt>
      <trkpt lat="48.52122" lon="1.89243">
        <ele>151.06</ele>
        <time>2020-07-06T08:37:54Z</time>
      </trkpt>
      <trkpt lat="48.52124" lon="1.89257">
        <ele>151.54</ele>
        <time>2020-07-06T08:38:00Z</time>
      </trkpt>
      <trkpt lat="48.52125" lon="1.8927">
        <ele>151.06</ele>
        <time>2020-07-06T08:38:06Z</time>
      </trkpt>
      <trkpt lat="48.52126" lon="1.89286">
        <ele>151.06</ele>
        <time>2020-07-06T08:38:13Z</time>
      </trkpt>
      <trkpt lat="48.52128" lon="1.893">
        <ele>151.54</ele>
        <time>2020-07-06T08:38:20Z</time>
      </trkpt>
      <trkpt lat="48.52127" lon="1.89314">
        <ele>151.54</ele>
        <time>2020-07-06T08:38:27Z</time>
      </trkpt>
      <trkpt lat="48.5213" lon="1.89329">
        <ele>151.06</ele>
        <time>2020-07-06T08:38:34Z</time>
      </trkpt>
      <trkpt lat="48.52131" lon="1.89344">
        <ele>151.06</ele>
        <time>2020-07-06T08:38:41Z</time>
      </trkpt>
      <trkpt lat="48.52133" lon="1.8936">
        <ele>151.54</ele>
        <time>2020-07-06T08:38:49Z</time>
      </trkpt>
      <trkpt lat="48.52136" lon="1.89373">
        <ele>151.54</ele>
        <time>2020-07-06T08:38:56Z</time>
      </trkpt>
      <trkpt lat="48.52139" lon="1.89389">
        <ele>151.54</ele>
        <time>2020-07-06T08:39:03Z</time>
      </trkpt>
      <trkpt lat="48.52144" lon="1.89403">
        <ele>151.06</ele>
        <time>2020-07-06T08:39:10Z</time>
      </trkpt>
      <trkpt lat="48.52153" lon="1.8941">
        <ele>151.06</ele>
        <time>2020-07-06T08:39:17Z</time>
      </trkpt>
      <trkpt lat="48.52162" lon="1.89408">
        <ele>150.58</ele>
        <time>2020-07-06T08:39:23Z</time>
      </trkpt>
      <trkpt lat="48.52172" lon="1.89402">
        <ele>151.06</ele>
        <time>2020-07-06T08:39:31Z</time>
      </trkpt>
      <trkpt lat="48.52183" lon="1.89399">
        <ele>151.54</ele>
        <time>2020-07-06T08:39:39Z</time>
      </trkpt>
      <trkpt lat="48.52193" lon="1.89398">
        <ele>151.06</ele>
        <time>2020-07-06T08:39:46Z</time>
      </trkpt>
      <trkpt lat="48.52203" lon="1.89394">
        <ele>151.06</ele>
        <time>2020-07-06T08:39:52Z</time>
      </trkpt>
      <trkpt lat="48.52213" lon="1.8939">
        <ele>151.54</ele>
        <time>2020-07-06T08:40:01Z</time>
      </trkpt>
      <trkpt lat="48.52223" lon="1.89389">
        <ele>151.54</ele>
        <time>2020-07-06T08:40:07Z</time>
      </trkpt>
      <trkpt lat="48.52233" lon="1.89385">
        <ele>151.54</ele>
        <time>2020-07-06T08:40:14Z</time>
      </trkpt>
      <trkpt lat="48.52243" lon="1.89382">
        <ele>151.06</ele>
        <time>2020-07-06T08:40:21Z</time>
      </trkpt>
      <trkpt lat="48.52254" lon="1.89381">
        <ele>151.06</ele>
        <time>2020-07-06T08:40:29Z</time>
      </trkpt>
      <trkpt lat="48.52265" lon="1.89377">
        <ele>151.54</ele>
        <time>2020-07-06T08:40:37Z</time>
      </trkpt>
      <trkpt lat="48.52275" lon="1.8937">
        <ele>151.06</ele>
        <time>2020-07-06T08:40:45Z</time>
      </trkpt>
      <trkpt lat="48.52286" lon="1.89369">
        <ele>151.06</ele>
        <time>2020-07-06T08:40:52Z</time>
      </trkpt>
      <trkpt lat="48.52297" lon="1.89366">
        <ele>151.06</ele>
        <time>2020-07-06T08:41:00Z</time>
      </trkpt>
      <trkpt lat="48.52308" lon="1.8936">
        <ele>151.06</ele>
        <time>2020-07-06T08:41:06Z</time>
      </trkpt>
      <trkpt lat="48.52318" lon="1.89357">
        <ele>151.06</ele>
        <time>2020-07-06T08:41:13Z</time>
      </trkpt>
      <trkpt lat="48.52329" lon="1.89356">
        <ele>151.06</ele>
        <time>2020-07-06T08:41:20Z</time>
      </trkpt>
      <trkpt lat="48.52339" lon="1.89353">
        <ele>151.54</ele>
        <time>2020-07-06T08:41:26Z</time>
      </trkpt>
      <trkpt lat="48.52349" lon="1.89346">
        <ele>151.54</ele>
        <time>2020-07-06T08:41:34Z</time>
      </trkpt>
      <trkpt lat="48.52359" lon="1.89344">
        <ele>151.54</ele>
        <time>2020-07-06T08:41:41Z</time>
      </trkpt>
      <trkpt lat="48.5237" lon="1.89342">
        <ele>152.03</ele>
        <time>2020-07-06T08:41:49Z</time>
      </trkpt>
      <trkpt lat="48.52381" lon="1.89337">
        <ele>152.03</ele>
        <time>2020-07-06T08:41:57Z</time>
      </trkpt>
      <trkpt lat="48.52392" lon="1.89335">
        <ele>152.51</ele>
        <time>2020-07-06T08:42:05Z</time>
      </trkpt>
      <trkpt lat="48.52402" lon="1.89331">
        <ele>152.51</ele>
        <time>2020-07-06T08:42:12Z</time>
      </trkpt>
      <trkpt lat="48.52413" lon="1.89327">
        <ele>152.51</ele>
        <time>2020-07-06T08:42:20Z</time>
      </trkpt>
      <trkpt lat="48.52423" lon="1.89324">
        <ele>152.99</ele>
        <time>2020-07-06T08:42:28Z</time>
      </trkpt>
      <trkpt lat="48.52432" lon="1.89318">
        <ele>152.51</ele>
        <time>2020-07-06T08:42:34Z</time>
      </trkpt>
      <trkpt lat="48.52443" lon="1.89314">
        <ele>152.99</ele>
        <time>2020-07-06T08:42:41Z</time>
      </trkpt>
      <trkpt lat="48.52454" lon="1.8931">
        <ele>152.03</ele>
        <time>2020-07-06T08:42:48Z</time>
      </trkpt>
      <trkpt lat="48.52464" lon="1.89307">
        <ele>153.47</ele>
        <time>2020-07-06T08:42:55Z</time>
      </trkpt>
      <trkpt lat="48.52474" lon="1.89304">
        <ele>152.51</ele>
        <time>2020-07-06T08:43:02Z</time>
      </trkpt>
      <trkpt lat="48.52483" lon="1.89301">
        <ele>151.54</ele>
        <time>2020-07-06T08:43:09Z</time>
      </trkpt>
      <trkpt lat="48.52492" lon="1.89297">
        <ele>151.54</ele>
        <time>2020-07-06T08:43:16Z</time>
      </trkpt>
      <trkpt lat="48.52502" lon="1.8929">
        <ele>151.06</ele>
        <time>2020-07-06T08:43:22Z</time>
      </trkpt>
      <trkpt lat="48.52513" lon="1.89284">
        <ele>151.06</ele>
        <time>2020-07-06T08:43:29Z</time>
      </trkpt>
      <trkpt lat="48.52521" lon="1.8928">
        <ele>150.58</ele>
        <time>2020-07-06T08:43:35Z</time>
      </trkpt>
      <trkpt lat="48.52532" lon="1.89275">
        <ele>150.1</ele>
        <time>2020-07-06T08:43:43Z</time>
      </trkpt>
      <trkpt lat="48.52542" lon="1.89268">
        <ele>150.58</ele>
        <time>2020-07-06T08:43:50Z</time>
      </trkpt>
      <trkpt lat="48.52551" lon="1.89259">
        <ele>150.1</ele>
        <time>2020-07-06T08:43:57Z</time>
      </trkpt>
      <trkpt lat="48.52561" lon="1.89256">
        <ele>150.58</ele>
        <time>2020-07-06T08:44:05Z</time>
      </trkpt>
      <trkpt lat="48.52571" lon="1.89253">
        <ele>150.1</ele>
        <time>2020-07-06T08:44:12Z</time>
      </trkpt>
      <trkpt lat="48.52582" lon="1.89247">
        <ele>150.1</ele>
        <time>2020-07-06T08:44:19Z</time>
      </trkpt>
      <trkpt lat="48.52593" lon="1.89238">
        <ele>150.1</ele>
        <time>2020-07-06T08:44:28Z</time>
      </trkpt>
      <trkpt lat="48.52603" lon="1.89234">
        <ele>150.1</ele>
        <time>2020-07-06T08:44:35Z</time>
      </trkpt>
      <trkpt lat="48.52613" lon="1.89236">
        <ele>150.1</ele>
        <time>2020-07-06T08:44:41Z</time>
      </trkpt>
      <trkpt lat="48.52622" lon="1.89224">
        <ele>150.1</ele>
        <time>2020-07-06T08:44:48Z</time>
      </trkpt>
      <trkpt lat="48.52633" lon="1.89213">
        <ele>150.58</ele>
        <time>2020-07-06T08:44:57Z</time>
      </trkpt>
      <trkpt lat="48.52642" lon="1.89203">
        <ele>150.58</ele>
        <time>2020-07-06T08:45:05Z</time>
      </trkpt>
      <trkpt lat="48.52653" lon="1.89195">
        <ele>150.58</ele>
        <time>2020-07-06T08:45:14Z</time>
      </trkpt>
      <trkpt lat="48.52664" lon="1.89186">
        <ele>151.06</ele>
        <time>2020-07-06T08:45:24Z</time>
      </trkpt>
      <trkpt lat="48.52675" lon="1.8918">
        <ele>151.54</ele>
        <time>2020-07-06T08:45:32Z</time>
      </trkpt>
      <trkpt lat="48.52685" lon="1.89168">
        <ele>151.06</ele>
        <time>2020-07-06T08:45:41Z</time>
      </trkpt>
      <trkpt lat="48.52695" lon="1.89162">
        <ele>151.54</ele>
        <time>2020-07-06T08:45:48Z</time>
      </trkpt>
      <trkpt lat="48.52705" lon="1.89156">
        <ele>151.06</ele>
        <time>2020-07-06T08:45:57Z</time>
      </trkpt>
      <trkpt lat="48.52718" lon="1.89158">
        <ele>151.06</ele>
        <time>2020-07-06T08:46:07Z</time>
      </trkpt>
      <trkpt lat="48.5273" lon="1.89164">
        <ele>151.54</ele>
        <time>2020-07-06T08:46:15Z</time>
      </trkpt>
      <trkpt lat="48.5274" lon="1.89168">
        <ele>151.54</ele>
        <time>2020-07-06T08:46:22Z</time>
      </trkpt>
      <trkpt lat="48.52751" lon="1.89174">
        <ele>152.03</ele>
        <time>2020-07-06T08:46:30Z</time>
      </trkpt>
      <trkpt lat="48.52761" lon="1.89179">
        <ele>151.54</ele>
        <time>2020-07-06T08:46:39Z</time>
      </trkpt>
      <trkpt lat="48.52772" lon="1.89181">
        <ele>152.03</ele>
        <time>2020-07-06T08:46:47Z</time>
      </trkpt>
      <trkpt lat="48.52776" lon="1.89184">
        <ele>152.03</ele>
        <time>2020-07-06T08:47:06Z</time>
      </trkpt>
      <trkpt lat="48.52786" lon="1.89184">
        <ele>152.51</ele>
        <time>2020-07-06T08:47:14Z</time>
      </trkpt>
      <trkpt lat="48.52796" lon="1.89178">
        <ele>152.03</ele>
        <time>2020-07-06T08:47:25Z</time>
      </trkpt>
      <trkpt lat="48.528" lon="1.89175">
        <ele>152.51</ele>
        <time>2020-07-06T08:47:47Z</time>
      </trkpt>
      <trkpt lat="48.52799" lon="1.89181">
        <ele>152.99</ele>
        <time>2020-07-06T08:48:30Z</time>
      </trkpt>
      <trkpt lat="48.52805" lon="1.89194">
        <ele>152.51</ele>
        <time>2020-07-06T08:48:38Z</time>
      </trkpt>
      <trkpt lat="48.52805" lon="1.89203">
        <ele>153.95</ele>
        <time>2020-07-06T08:49:11Z</time>
      </trkpt>
      <trkpt lat="48.52801" lon="1.89189">
        <ele>153.47</ele>
        <time>2020-07-06T08:49:21Z</time>
      </trkpt>
      <trkpt lat="48.52797" lon="1.89177">
        <ele>152.99</ele>
        <time>2020-07-06T08:49:30Z</time>
      </trkpt>
      <trkpt lat="48.52796" lon="1.89177">
        <ele>152.99</ele>
        <time>2020-07-06T08:49:55Z</time>
      </trkpt>
      <trkpt lat="48.52798" lon="1.89174">
        <ele>153.47</ele>
        <time>2020-07-06T08:52:03Z</time>
      </trkpt>
      <trkpt lat="48.528" lon="1.8919">
        <ele>153.95</ele>
        <time>2020-07-06T08:52:35Z</time>
      </trkpt>
      <trkpt lat="48.52796" lon="1.89176">
        <ele>153.47</ele>
        <time>2020-07-06T08:52:51Z</time>
      </trkpt>
      <trkpt lat="48.52798" lon="1.89175">
        <ele>153.95</ele>
        <time>2020-07-06T08:53:44Z</time>
      </trkpt>
      <trkpt lat="48.52796" lon="1.89177">
        <ele>153.95</ele>
        <time>2020-07-06T08:55:25Z</time>
      </trkpt>
      <trkpt lat="48.52799" lon="1.89173">
        <ele>153.95</ele>
        <time>2020-07-06T08:57:02Z</time>
      </trkpt>
      <trkpt lat="48.52799" lon="1.89175">
        <ele>153.95</ele>
        <time>2020-07-06T08:57:35Z</time>
      </trkpt>
      <trkpt lat="48.52802" lon="1.89168">
        <ele>154.43</ele>
        <time>2020-07-06T08:59:28Z</time>
      </trkpt>
      <trkpt lat="48.528" lon="1.89159">
        <ele>154.91</ele>
        <time>2020-07-06T08:59:38Z</time>
      </trkpt>
      <trkpt lat="48.52791" lon="1.89153">
        <ele>154.91</ele>
        <time>2020-07-06T08:59:47Z</time>
      </trkpt>
      <trkpt lat="48.52786" lon="1.89153">
        <ele>154.43</ele>
        <time>2020-07-06T09:00:07Z</time>
      </trkpt>
      <trkpt lat="48.52796" lon="1.89151">
        <ele>154.91</ele>
        <time>2020-07-06T09:00:15Z</time>
      </trkpt>
      <trkpt lat="48.52806" lon="1.89152">
        <ele>155.39</ele>
        <time>2020-07-06T09:00:23Z</time>
      </trkpt>
      <trkpt lat="48.52815" lon="1.8914">
        <ele>154.43</ele>
        <time>2020-07-06T09:00:31Z</time>
      </trkpt>
      <trkpt lat="48.5282" lon="1.89128">
        <ele>154.91</ele>
        <time>2020-07-06T09:00:37Z</time>
      </trkpt>
      <trkpt lat="48.52824" lon="1.89112">
        <ele>155.39</ele>
        <time>2020-07-06T09:00:44Z</time>
      </trkpt>
      <trkpt lat="48.52829" lon="1.89097">
        <ele>154.91</ele>
        <time>2020-07-06T09:00:51Z</time>
      </trkpt>
      <trkpt lat="48.52833" lon="1.89082">
        <ele>155.39</ele>
        <time>2020-07-06T09:00:58Z</time>
      </trkpt>
      <trkpt lat="48.52838" lon="1.89069">
        <ele>154.91</ele>
        <time>2020-07-06T09:01:05Z</time>
      </trkpt>
      <trkpt lat="48.52843" lon="1.89056">
        <ele>154.43</ele>
        <time>2020-07-06T09:01:11Z</time>
      </trkpt>
      <trkpt lat="48.52849" lon="1.89043">
        <ele>154.43</ele>
        <time>2020-07-06T09:01:18Z</time>
      </trkpt>
      <trkpt lat="48.52855" lon="1.89028">
        <ele>154.43</ele>
        <time>2020-07-06T09:01:25Z</time>
      </trkpt>
      <trkpt lat="48.52861" lon="1.89016">
        <ele>153.95</ele>
        <time>2020-07-06T09:01:31Z</time>
      </trkpt>
      <trkpt lat="48.52868" lon="1.89008">
        <ele>153.47</ele>
        <time>2020-07-06T09:01:37Z</time>
      </trkpt>
      <trkpt lat="48.52876" lon="1.89">
        <ele>153.95</ele>
        <time>2020-07-06T09:01:43Z</time>
      </trkpt>
      <trkpt lat="48.52884" lon="1.88992">
        <ele>153.95</ele>
        <time>2020-07-06T09:01:50Z</time>
      </trkpt>
      <trkpt lat="48.52893" lon="1.88985">
        <ele>155.39</ele>
        <time>2020-07-06T09:01:58Z</time>
      </trkpt>
      <trkpt lat="48.52901" lon="1.88977">
        <ele>152.99</ele>
        <time>2020-07-06T09:02:05Z</time>
      </trkpt>
      <trkpt lat="48.52911" lon="1.88971">
        <ele>154.43</ele>
        <time>2020-07-06T09:02:12Z</time>
      </trkpt>
      <trkpt lat="48.52919" lon="1.88964">
        <ele>154.43</ele>
        <time>2020-07-06T09:02:18Z</time>
      </trkpt>
      <trkpt lat="48.52927" lon="1.88956">
        <ele>153.95</ele>
        <time>2020-07-06T09:02:25Z</time>
      </trkpt>
      <trkpt lat="48.52935" lon="1.88947">
        <ele>153.47</ele>
        <time>2020-07-06T09:02:32Z</time>
      </trkpt>
      <trkpt lat="48.52943" lon="1.88938">
        <ele>153.95</ele>
        <time>2020-07-06T09:02:39Z</time>
      </trkpt>
      <trkpt lat="48.5295" lon="1.88927">
        <ele>153.47</ele>
        <time>2020-07-06T09:02:46Z</time>
      </trkpt>
      <trkpt lat="48.52958" lon="1.88919">
        <ele>153.95</ele>
        <time>2020-07-06T09:02:52Z</time>
      </trkpt>
      <trkpt lat="48.52964" lon="1.8891">
        <ele>154.43</ele>
        <time>2020-07-06T09:02:58Z</time>
      </trkpt>
      <trkpt lat="48.5297" lon="1.88897">
        <ele>154.43</ele>
        <time>2020-07-06T09:03:05Z</time>
      </trkpt>
      <trkpt lat="48.52976" lon="1.88884">
        <ele>153.95</ele>
        <time>2020-07-06T09:03:13Z</time>
      </trkpt>
      <trkpt lat="48.52981" lon="1.8887">
        <ele>154.43</ele>
        <time>2020-07-06T09:03:20Z</time>
      </trkpt>
      <trkpt lat="48.52984" lon="1.88857">
        <ele>154.43</ele>
        <time>2020-07-06T09:03:26Z</time>
      </trkpt>
      <trkpt lat="48.52986" lon="1.88842">
        <ele>153.47</ele>
        <time>2020-07-06T09:03:33Z</time>
      </trkpt>
      <trkpt lat="48.52989" lon="1.88827">
        <ele>153.95</ele>
        <time>2020-07-06T09:03:40Z</time>
      </trkpt>
      <trkpt lat="48.52993" lon="1.88814">
        <ele>153.95</ele>
        <time>2020-07-06T09:03:46Z</time>
      </trkpt>
      <trkpt lat="48.52995" lon="1.88799">
        <ele>154.43</ele>
        <time>2020-07-06T09:03:53Z</time>
      </trkpt>
      <trkpt lat="48.53" lon="1.88784">
        <ele>153.95</ele>
        <time>2020-07-06T09:04:00Z</time>
      </trkpt>
      <trkpt lat="48.53005" lon="1.88772">
        <ele>153.95</ele>
        <time>2020-07-06T09:04:06Z</time>
      </trkpt>
      <trkpt lat="48.53009" lon="1.88759">
        <ele>153.95</ele>
        <time>2020-07-06T09:04:13Z</time>
      </trkpt>
      <trkpt lat="48.53013" lon="1.88746">
        <ele>153.95</ele>
        <time>2020-07-06T09:04:20Z</time>
      </trkpt>
      <trkpt lat="48.5302" lon="1.88735">
        <ele>154.43</ele>
        <time>2020-07-06T09:04:27Z</time>
      </trkpt>
      <trkpt lat="48.53025" lon="1.88721">
        <ele>154.91</ele>
        <time>2020-07-06T09:04:35Z</time>
      </trkpt>
      <trkpt lat="48.53033" lon="1.8871">
        <ele>154.91</ele>
        <time>2020-07-06T09:04:43Z</time>
      </trkpt>
      <trkpt lat="48.53039" lon="1.88699">
        <ele>154.43</ele>
        <time>2020-07-06T09:04:49Z</time>
      </trkpt>
      <trkpt lat="48.53046" lon="1.88687">
        <ele>154.43</ele>
        <time>2020-07-06T09:04:56Z</time>
      </trkpt>
      <trkpt lat="48.53054" lon="1.88678">
        <ele>154.91</ele>
        <time>2020-07-06T09:05:03Z</time>
      </trkpt>
      <trkpt lat="48.5306" lon="1.88666">
        <ele>154.43</ele>
        <time>2020-07-06T09:05:10Z</time>
      </trkpt>
      <trkpt lat="48.53067" lon="1.88655">
        <ele>154.43</ele>
        <time>2020-07-06T09:05:17Z</time>
      </trkpt>
      <trkpt lat="48.53074" lon="1.88645">
        <ele>154.43</ele>
        <time>2020-07-06T09:05:24Z</time>
      </trkpt>
      <trkpt lat="48.5308" lon="1.88633">
        <ele>154.43</ele>
        <time>2020-07-06T09:05:31Z</time>
      </trkpt>
      <trkpt lat="48.53087" lon="1.88623">
        <ele>154.91</ele>
        <time>2020-07-06T09:05:38Z</time>
      </trkpt>
      <trkpt lat="48.53093" lon="1.88612">
        <ele>154.91</ele>
        <time>2020-07-06T09:05:45Z</time>
      </trkpt>
      <trkpt lat="48.531" lon="1.88601">
        <ele>154.91</ele>
        <time>2020-07-06T09:05:52Z</time>
      </trkpt>
      <trkpt lat="48.53108" lon="1.88591">
        <ele>155.39</ele>
        <time>2020-07-06T09:05:59Z</time>
      </trkpt>
      <trkpt lat="48.53113" lon="1.88578">
        <ele>155.39</ele>
        <time>2020-07-06T09:06:06Z</time>
      </trkpt>
      <trkpt lat="48.5312" lon="1.88568">
        <ele>155.87</ele>
        <time>2020-07-06T09:06:13Z</time>
      </trkpt>
      <trkpt lat="48.53127" lon="1.88558">
        <ele>155.39</ele>
        <time>2020-07-06T09:06:19Z</time>
      </trkpt>
      <trkpt lat="48.53133" lon="1.88546">
        <ele>155.39</ele>
        <time>2020-07-06T09:06:26Z</time>
      </trkpt>
      <trkpt lat="48.53141" lon="1.88535">
        <ele>155.87</ele>
        <time>2020-07-06T09:06:34Z</time>
      </trkpt>
      <trkpt lat="48.53148" lon="1.88523">
        <ele>155.87</ele>
        <time>2020-07-06T09:06:41Z</time>
      </trkpt>
      <trkpt lat="48.53154" lon="1.88512">
        <ele>155.87</ele>
        <time>2020-07-06T09:06:48Z</time>
      </trkpt>
      <trkpt lat="48.53161" lon="1.88502">
        <ele>155.39</ele>
        <time>2020-07-06T09:06:54Z</time>
      </trkpt>
      <trkpt lat="48.53166" lon="1.88491">
        <ele>155.87</ele>
        <time>2020-07-06T09:07:01Z</time>
      </trkpt>
      <trkpt lat="48.53172" lon="1.88478">
        <ele>155.87</ele>
        <time>2020-07-06T09:07:08Z</time>
      </trkpt>
      <trkpt lat="48.5318" lon="1.88467">
        <ele>155.87</ele>
        <time>2020-07-06T09:07:15Z</time>
      </trkpt>
      <trkpt lat="48.53185" lon="1.88454">
        <ele>156.35</ele>
        <time>2020-07-06T09:07:22Z</time>
      </trkpt>
      <trkpt lat="48.53192" lon="1.88442">
        <ele>156.35</ele>
        <time>2020-07-06T09:07:29Z</time>
      </trkpt>
      <trkpt lat="48.53198" lon="1.8843">
        <ele>155.87</ele>
        <time>2020-07-06T09:07:36Z</time>
      </trkpt>
      <trkpt lat="48.53203" lon="1.88417">
        <ele>156.35</ele>
        <time>2020-07-06T09:07:43Z</time>
      </trkpt>
      <trkpt lat="48.5321" lon="1.88405">
        <ele>156.35</ele>
        <time>2020-07-06T09:07:50Z</time>
      </trkpt>
      <trkpt lat="48.53216" lon="1.88394">
        <ele>156.35</ele>
        <time>2020-07-06T09:07:57Z</time>
      </trkpt>
      <trkpt lat="48.53221" lon="1.88381">
        <ele>156.83</ele>
        <time>2020-07-06T09:08:04Z</time>
      </trkpt>
      <trkpt lat="48.53227" lon="1.8837">
        <ele>156.83</ele>
        <time>2020-07-06T09:08:11Z</time>
      </trkpt>
      <trkpt lat="48.53233" lon="1.88358">
        <ele>156.83</ele>
        <time>2020-07-06T09:08:17Z</time>
      </trkpt>
      <trkpt lat="48.53238" lon="1.88346">
        <ele>156.83</ele>
        <time>2020-07-06T09:08:25Z</time>
      </trkpt>
      <trkpt lat="48.53245" lon="1.88335">
        <ele>157.31</ele>
        <time>2020-07-06T09:08:31Z</time>
      </trkpt>
      <trkpt lat="48.53249" lon="1.88323">
        <ele>156.83</ele>
        <time>2020-07-06T09:08:37Z</time>
      </trkpt>
      <trkpt lat="48.53254" lon="1.88311">
        <ele>156.83</ele>
        <time>2020-07-06T09:08:44Z</time>
      </trkpt>
      <trkpt lat="48.53261" lon="1.883">
        <ele>156.83</ele>
        <time>2020-07-06T09:08:51Z</time>
      </trkpt>
      <trkpt lat="48.53265" lon="1.88287">
        <ele>157.79</ele>
        <time>2020-07-06T09:08:58Z</time>
      </trkpt>
      <trkpt lat="48.53271" lon="1.88274">
        <ele>157.31</ele>
        <time>2020-07-06T09:09:05Z</time>
      </trkpt>
      <trkpt lat="48.53279" lon="1.88263">
        <ele>156.83</ele>
        <time>2020-07-06T09:09:12Z</time>
      </trkpt>
      <trkpt lat="48.53283" lon="1.8825">
        <ele>157.31</ele>
        <time>2020-07-06T09:09:18Z</time>
      </trkpt>
      <trkpt lat="48.53288" lon="1.88238">
        <ele>157.31</ele>
        <time>2020-07-06T09:09:25Z</time>
      </trkpt>
      <trkpt lat="48.53294" lon="1.88225">
        <ele>157.79</ele>
        <time>2020-07-06T09:09:32Z</time>
      </trkpt>
      <trkpt lat="48.53299" lon="1.88211">
        <ele>157.79</ele>
        <time>2020-07-06T09:09:39Z</time>
      </trkpt>
      <trkpt lat="48.53304" lon="1.88199">
        <ele>157.79</ele>
        <time>2020-07-06T09:09:46Z</time>
      </trkpt>
      <trkpt lat="48.5331" lon="1.88188">
        <ele>157.79</ele>
        <time>2020-07-06T09:09:52Z</time>
      </trkpt>
      <trkpt lat="48.53314" lon="1.88175">
        <ele>157.79</ele>
        <time>2020-07-06T09:09:59Z</time>
      </trkpt>
      <trkpt lat="48.5332" lon="1.88164">
        <ele>157.79</ele>
        <time>2020-07-06T09:10:05Z</time>
      </trkpt>
      <trkpt lat="48.53325" lon="1.88152">
        <ele>158.27</ele>
        <time>2020-07-06T09:10:12Z</time>
      </trkpt>
      <trkpt lat="48.53329" lon="1.88139">
        <ele>157.79</ele>
        <time>2020-07-06T09:10:19Z</time>
      </trkpt>
      <trkpt lat="48.53336" lon="1.88126">
        <ele>157.31</ele>
        <time>2020-07-06T09:10:26Z</time>
      </trkpt>
      <trkpt lat="48.53341" lon="1.88115">
        <ele>157.79</ele>
        <time>2020-07-06T09:10:32Z</time>
      </trkpt>
      <trkpt lat="48.53346" lon="1.88102">
        <ele>157.31</ele>
        <time>2020-07-06T09:10:39Z</time>
      </trkpt>
      <trkpt lat="48.53351" lon="1.8809">
        <ele>156.83</ele>
        <time>2020-07-06T09:10:45Z</time>
      </trkpt>
      <trkpt lat="48.53356" lon="1.88077">
        <ele>156.83</ele>
        <time>2020-07-06T09:10:52Z</time>
      </trkpt>
      <trkpt lat="48.53362" lon="1.88064">
        <ele>157.79</ele>
        <time>2020-07-06T09:10:59Z</time>
      </trkpt>
      <trkpt lat="48.53367" lon="1.88052">
        <ele>157.31</ele>
        <time>2020-07-06T09:11:06Z</time>
      </trkpt>
      <trkpt lat="48.53372" lon="1.88038">
        <ele>157.31</ele>
        <time>2020-07-06T09:11:13Z</time>
      </trkpt>
      <trkpt lat="48.53378" lon="1.88025">
        <ele>158.75</ele>
        <time>2020-07-06T09:11:20Z</time>
      </trkpt>
      <trkpt lat="48.53384" lon="1.88013">
        <ele>157.79</ele>
        <time>2020-07-06T09:11:27Z</time>
      </trkpt>
      <trkpt lat="48.53388" lon="1.88">
        <ele>157.79</ele>
        <time>2020-07-06T09:11:34Z</time>
      </trkpt>
      <trkpt lat="48.53392" lon="1.87987">
        <ele>157.79</ele>
        <time>2020-07-06T09:11:40Z</time>
      </trkpt>
      <trkpt lat="48.53398" lon="1.87974">
        <ele>157.31</ele>
        <time>2020-07-06T09:11:47Z</time>
      </trkpt>
      <trkpt lat="48.53401" lon="1.87959">
        <ele>157.79</ele>
        <time>2020-07-06T09:11:54Z</time>
      </trkpt>
      <trkpt lat="48.53402" lon="1.87945">
        <ele>157.31</ele>
        <time>2020-07-06T09:12:01Z</time>
      </trkpt>
      <trkpt lat="48.53403" lon="1.87931">
        <ele>157.79</ele>
        <time>2020-07-06T09:12:07Z</time>
      </trkpt>
      <trkpt lat="48.53405" lon="1.87917">
        <ele>157.79</ele>
        <time>2020-07-06T09:12:14Z</time>
      </trkpt>
      <trkpt lat="48.53404" lon="1.87903">
        <ele>157.31</ele>
        <time>2020-07-06T09:12:20Z</time>
      </trkpt>
      <trkpt lat="48.53401" lon="1.8789">
        <ele>159.24</ele>
        <time>2020-07-06T09:12:28Z</time>
      </trkpt>
      <trkpt lat="48.53401" lon="1.87876">
        <ele>157.79</ele>
        <time>2020-07-06T09:12:36Z</time>
      </trkpt>
      <trkpt lat="48.53399" lon="1.8786">
        <ele>157.79</ele>
        <time>2020-07-06T09:12:44Z</time>
      </trkpt>
      <trkpt lat="48.53399" lon="1.87843">
        <ele>157.31</ele>
        <time>2020-07-06T09:12:51Z</time>
      </trkpt>
      <trkpt lat="48.53398" lon="1.87828">
        <ele>157.79</ele>
        <time>2020-07-06T09:12:58Z</time>
      </trkpt>
      <trkpt lat="48.53398" lon="1.87811">
        <ele>158.27</ele>
        <time>2020-07-06T09:13:06Z</time>
      </trkpt>
      <trkpt lat="48.53395" lon="1.878">
        <ele>157.79</ele>
        <time>2020-07-06T09:13:13Z</time>
      </trkpt>
      <trkpt lat="48.53385" lon="1.87802">
        <ele>157.79</ele>
        <time>2020-07-06T09:13:21Z</time>
      </trkpt>
      <trkpt lat="48.53376" lon="1.8781">
        <ele>157.79</ele>
        <time>2020-07-06T09:13:29Z</time>
      </trkpt>
      <trkpt lat="48.53365" lon="1.87812">
        <ele>157.79</ele>
        <time>2020-07-06T09:13:37Z</time>
      </trkpt>
      <trkpt lat="48.53354" lon="1.87808">
        <ele>157.31</ele>
        <time>2020-07-06T09:13:44Z</time>
      </trkpt>
      <trkpt lat="48.53346" lon="1.87797">
        <ele>157.31</ele>
        <time>2020-07-06T09:13:50Z</time>
      </trkpt>
      <trkpt lat="48.53342" lon="1.87784">
        <ele>158.75</ele>
        <time>2020-07-06T09:13:57Z</time>
      </trkpt>
      <trkpt lat="48.5334" lon="1.8777">
        <ele>157.79</ele>
        <time>2020-07-06T09:14:08Z</time>
      </trkpt>
      <trkpt lat="48.53337" lon="1.87755">
        <ele>158.27</ele>
        <time>2020-07-06T09:14:15Z</time>
      </trkpt>
      <trkpt lat="48.53335" lon="1.87739">
        <ele>158.27</ele>
        <time>2020-07-06T09:14:22Z</time>
      </trkpt>
      <trkpt lat="48.53331" lon="1.87726">
        <ele>158.27</ele>
        <time>2020-07-06T09:14:32Z</time>
      </trkpt>
      <trkpt lat="48.53328" lon="1.87712">
        <ele>158.75</ele>
        <time>2020-07-06T09:14:43Z</time>
      </trkpt>
      <trkpt lat="48.53327" lon="1.87697">
        <ele>157.79</ele>
        <time>2020-07-06T09:14:51Z</time>
      </trkpt>
      <trkpt lat="48.5333" lon="1.87686">
        <ele>158.27</ele>
        <time>2020-07-06T09:15:08Z</time>
      </trkpt>
      <trkpt lat="48.5333" lon="1.87683">
        <ele>157.79</ele>
        <time>2020-07-06T09:15:49Z</time>
      </trkpt>
      <trkpt lat="48.53325" lon="1.87672">
        <ele>158.75</ele>
        <time>2020-07-06T09:15:59Z</time>
      </trkpt>
      <trkpt lat="48.53323" lon="1.87656">
        <ele>157.31</ele>
        <time>2020-07-06T09:16:07Z</time>
      </trkpt>
      <trkpt lat="48.5332" lon="1.87642">
        <ele>157.31</ele>
        <time>2020-07-06T09:16:14Z</time>
      </trkpt>
      <trkpt lat="48.53319" lon="1.87626">
        <ele>157.79</ele>
        <time>2020-07-06T09:16:22Z</time>
      </trkpt>
      <trkpt lat="48.53318" lon="1.8761">
        <ele>156.83</ele>
        <time>2020-07-06T09:16:30Z</time>
      </trkpt>
      <trkpt lat="48.53315" lon="1.87597">
        <ele>157.79</ele>
        <time>2020-07-06T09:16:38Z</time>
      </trkpt>
      <trkpt lat="48.53315" lon="1.87582">
        <ele>157.31</ele>
        <time>2020-07-06T09:16:46Z</time>
      </trkpt>
      <trkpt lat="48.53312" lon="1.8757">
        <ele>157.31</ele>
        <time>2020-07-06T09:17:09Z</time>
      </trkpt>
      <trkpt lat="48.53312" lon="1.87556">
        <ele>156.83</ele>
        <time>2020-07-06T09:17:17Z</time>
      </trkpt>
      <trkpt lat="48.53308" lon="1.87543">
        <ele>157.31</ele>
        <time>2020-07-06T09:17:24Z</time>
      </trkpt>
      <trkpt lat="48.53307" lon="1.87528">
        <ele>156.83</ele>
        <time>2020-07-06T09:17:32Z</time>
      </trkpt>
      <trkpt lat="48.53306" lon="1.87514">
        <ele>156.83</ele>
        <time>2020-07-06T09:17:40Z</time>
      </trkpt>
      <trkpt lat="48.53302" lon="1.87501">
        <ele>156.83</ele>
        <time>2020-07-06T09:17:46Z</time>
      </trkpt>
      <trkpt lat="48.53299" lon="1.87488">
        <ele>156.83</ele>
        <time>2020-07-06T09:17:55Z</time>
      </trkpt>
      <trkpt lat="48.53296" lon="1.87473">
        <ele>157.31</ele>
        <time>2020-07-06T09:18:05Z</time>
      </trkpt>
      <trkpt lat="48.53295" lon="1.8746">
        <ele>157.79</ele>
        <time>2020-07-06T09:18:13Z</time>
      </trkpt>
      <trkpt lat="48.53291" lon="1.87446">
        <ele>157.31</ele>
        <time>2020-07-06T09:18:20Z</time>
      </trkpt>
      <trkpt lat="48.53288" lon="1.87434">
        <ele>157.31</ele>
        <time>2020-07-06T09:18:27Z</time>
      </trkpt>
      <trkpt lat="48.53287" lon="1.8742">
        <ele>156.83</ele>
        <time>2020-07-06T09:18:35Z</time>
      </trkpt>
      <trkpt lat="48.53286" lon="1.87405">
        <ele>157.31</ele>
        <time>2020-07-06T09:18:55Z</time>
      </trkpt>
      <trkpt lat="48.53285" lon="1.87389">
        <ele>156.35</ele>
        <time>2020-07-06T09:19:02Z</time>
      </trkpt>
      <trkpt lat="48.53282" lon="1.87372">
        <ele>157.31</ele>
        <time>2020-07-06T09:19:09Z</time>
      </trkpt>
      <trkpt lat="48.53281" lon="1.87356">
        <ele>156.83</ele>
        <time>2020-07-06T09:19:16Z</time>
      </trkpt>
      <trkpt lat="48.5328" lon="1.8734">
        <ele>157.31</ele>
        <time>2020-07-06T09:19:23Z</time>
      </trkpt>
      <trkpt lat="48.53281" lon="1.87324">
        <ele>157.79</ele>
        <time>2020-07-06T09:19:30Z</time>
      </trkpt>
      <trkpt lat="48.53283" lon="1.8731">
        <ele>158.27</ele>
        <time>2020-07-06T09:19:37Z</time>
      </trkpt>
      <trkpt lat="48.53287" lon="1.87294">
        <ele>157.79</ele>
        <time>2020-07-06T09:19:46Z</time>
      </trkpt>
      <trkpt lat="48.53289" lon="1.8728">
        <ele>158.27</ele>
        <time>2020-07-06T09:19:53Z</time>
      </trkpt>
      <trkpt lat="48.53291" lon="1.87264">
        <ele>157.79</ele>
        <time>2020-07-06T09:20:02Z</time>
      </trkpt>
      <trkpt lat="48.53295" lon="1.87251">
        <ele>157.31</ele>
        <time>2020-07-06T09:20:09Z</time>
      </trkpt>
      <trkpt lat="48.53297" lon="1.87236">
        <ele>157.79</ele>
        <time>2020-07-06T09:20:17Z</time>
      </trkpt>
      <trkpt lat="48.53301" lon="1.87221">
        <ele>156.83</ele>
        <time>2020-07-06T09:20:25Z</time>
      </trkpt>
      <trkpt lat="48.53303" lon="1.87205">
        <ele>157.31</ele>
        <time>2020-07-06T09:20:33Z</time>
      </trkpt>
      <trkpt lat="48.53307" lon="1.8719">
        <ele>156.83</ele>
        <time>2020-07-06T09:20:41Z</time>
      </trkpt>
      <trkpt lat="48.5331" lon="1.87176">
        <ele>156.83</ele>
        <time>2020-07-06T09:20:48Z</time>
      </trkpt>
      <trkpt lat="48.53312" lon="1.87161">
        <ele>156.83</ele>
        <time>2020-07-06T09:20:56Z</time>
      </trkpt>
      <trkpt lat="48.53318" lon="1.87148">
        <ele>157.31</ele>
        <time>2020-07-06T09:21:03Z</time>
      </trkpt>
      <trkpt lat="48.53325" lon="1.87137">
        <ele>157.79</ele>
        <time>2020-07-06T09:21:11Z</time>
      </trkpt>
      <trkpt lat="48.53333" lon="1.87127">
        <ele>157.79</ele>
        <time>2020-07-06T09:21:19Z</time>
      </trkpt>
      <trkpt lat="48.53341" lon="1.87117">
        <ele>156.83</ele>
        <time>2020-07-06T09:21:27Z</time>
      </trkpt>
      <trkpt lat="48.53348" lon="1.87105">
        <ele>156.83</ele>
        <time>2020-07-06T09:21:35Z</time>
      </trkpt>
      <trkpt lat="48.53355" lon="1.87093">
        <ele>156.35</ele>
        <time>2020-07-06T09:21:43Z</time>
      </trkpt>
      <trkpt lat="48.53353" lon="1.87086">
        <ele>156.35</ele>
        <time>2020-07-06T09:21:58Z</time>
      </trkpt>
      <trkpt lat="48.53354" lon="1.87071">
        <ele>156.83</ele>
        <time>2020-07-06T09:22:08Z</time>
      </trkpt>
      <trkpt lat="48.53354" lon="1.87056">
        <ele>157.79</ele>
        <time>2020-07-06T09:22:18Z</time>
      </trkpt>
      <trkpt lat="48.53355" lon="1.87043">
        <ele>156.83</ele>
        <time>2020-07-06T09:22:30Z</time>
      </trkpt>
      <trkpt lat="48.53351" lon="1.8703">
        <ele>157.79</ele>
        <time>2020-07-06T09:22:39Z</time>
      </trkpt>
      <trkpt lat="48.5335" lon="1.87014">
        <ele>157.31</ele>
        <time>2020-07-06T09:22:47Z</time>
      </trkpt>
      <trkpt lat="48.53352" lon="1.87">
        <ele>156.83</ele>
        <time>2020-07-06T09:23:05Z</time>
      </trkpt>
      <trkpt lat="48.53356" lon="1.86984">
        <ele>154.91</ele>
        <time>2020-07-06T09:23:12Z</time>
      </trkpt>
      <trkpt lat="48.53354" lon="1.86968">
        <ele>156.83</ele>
        <time>2020-07-06T09:23:19Z</time>
      </trkpt>
      <trkpt lat="48.53354" lon="1.86951">
        <ele>156.35</ele>
        <time>2020-07-06T09:23:27Z</time>
      </trkpt>
      <trkpt lat="48.53355" lon="1.86935">
        <ele>156.83</ele>
        <time>2020-07-06T09:23:34Z</time>
      </trkpt>
      <trkpt lat="48.53352" lon="1.86919">
        <ele>157.31</ele>
        <time>2020-07-06T09:23:42Z</time>
      </trkpt>
      <trkpt lat="48.5335" lon="1.86906">
        <ele>155.87</ele>
        <time>2020-07-06T09:23:50Z</time>
      </trkpt>
      <trkpt lat="48.53353" lon="1.86891">
        <ele>157.79</ele>
        <time>2020-07-06T09:23:59Z</time>
      </trkpt>
      <trkpt lat="48.5336" lon="1.86894">
        <ele>157.79</ele>
        <time>2020-07-06T09:24:44Z</time>
      </trkpt>
      <trkpt lat="48.53358" lon="1.86893">
        <ele>157.79</ele>
        <time>2020-07-06T09:26:56Z</time>
      </trkpt>
      <trkpt lat="48.53355" lon="1.86899">
        <ele>157.79</ele>
        <time>2020-07-06T09:29:25Z</time>
      </trkpt>
      <trkpt lat="48.53353" lon="1.86912">
        <ele>157.79</ele>
        <time>2020-07-06T09:29:33Z</time>
      </trkpt>
      <trkpt lat="48.53355" lon="1.86927">
        <ele>157.79</ele>
        <time>2020-07-06T09:29:40Z</time>
      </trkpt>
      <trkpt lat="48.53358" lon="1.86942">
        <ele>157.79</ele>
        <time>2020-07-06T09:29:47Z</time>
      </trkpt>
      <trkpt lat="48.53359" lon="1.86956">
        <ele>157.79</ele>
        <time>2020-07-06T09:29:54Z</time>
      </trkpt>
      <trkpt lat="48.53359" lon="1.8697">
        <ele>158.27</ele>
        <time>2020-07-06T09:30:00Z</time>
      </trkpt>
      <trkpt lat="48.5336" lon="1.86984">
        <ele>158.27</ele>
        <time>2020-07-06T09:30:07Z</time>
      </trkpt>
      <trkpt lat="48.53358" lon="1.87">
        <ele>158.27</ele>
        <time>2020-07-06T09:30:15Z</time>
      </trkpt>
      <trkpt lat="48.53354" lon="1.87016">
        <ele>157.79</ele>
        <time>2020-07-06T09:30:25Z</time>
      </trkpt>
      <trkpt lat="48.53353" lon="1.87034">
        <ele>158.75</ele>
        <time>2020-07-06T09:30:37Z</time>
      </trkpt>
      <trkpt lat="48.53351" lon="1.87054">
        <ele>158.75</ele>
        <time>2020-07-06T09:30:46Z</time>
      </trkpt>
      <trkpt lat="48.5335" lon="1.87077">
        <ele>158.27</ele>
        <time>2020-07-06T09:30:53Z</time>
      </trkpt>
      <trkpt lat="48.53349" lon="1.87094">
        <ele>158.27</ele>
        <time>2020-07-06T09:31:00Z</time>
      </trkpt>
      <trkpt lat="48.53345" lon="1.87109">
        <ele>158.27</ele>
        <time>2020-07-06T09:31:08Z</time>
      </trkpt>
      <trkpt lat="48.53339" lon="1.8712">
        <ele>158.27</ele>
        <time>2020-07-06T09:31:15Z</time>
      </trkpt>
      <trkpt lat="48.53333" lon="1.87129">
        <ele>159.24</ele>
        <time>2020-07-06T09:32:34Z</time>
      </trkpt>
      <trkpt lat="48.53325" lon="1.87138">
        <ele>159.72</ele>
        <time>2020-07-06T09:32:44Z</time>
      </trkpt>
      <trkpt lat="48.5333" lon="1.87131">
        <ele>158.75</ele>
        <time>2020-07-06T09:32:55Z</time>
      </trkpt>
      <trkpt lat="48.53332" lon="1.87117">
        <ele>158.75</ele>
        <time>2020-07-06T09:33:03Z</time>
      </trkpt>
      <trkpt lat="48.53326" lon="1.87107">
        <ele>157.79</ele>
        <time>2020-07-06T09:33:16Z</time>
      </trkpt>
      <trkpt lat="48.53319" lon="1.87094">
        <ele>158.27</ele>
        <time>2020-07-06T09:33:26Z</time>
      </trkpt>
      <trkpt lat="48.53311" lon="1.87081">
        <ele>157.79</ele>
        <time>2020-07-06T09:33:39Z</time>
      </trkpt>
      <trkpt lat="48.53301" lon="1.87073">
        <ele>157.79</ele>
        <time>2020-07-06T09:33:47Z</time>
      </trkpt>
      <trkpt lat="48.53292" lon="1.87066">
        <ele>157.31</ele>
        <time>2020-07-06T09:33:57Z</time>
      </trkpt>
      <trkpt lat="48.53283" lon="1.87053">
        <ele>156.83</ele>
        <time>2020-07-06T09:34:06Z</time>
      </trkpt>
      <trkpt lat="48.53276" lon="1.87039">
        <ele>157.31</ele>
        <time>2020-07-06T09:34:15Z</time>
      </trkpt>
      <trkpt lat="48.53268" lon="1.87028">
        <ele>156.83</ele>
        <time>2020-07-06T09:34:23Z</time>
      </trkpt>
      <trkpt lat="48.53261" lon="1.87017">
        <ele>156.83</ele>
        <time>2020-07-06T09:34:30Z</time>
      </trkpt>
      <trkpt lat="48.53252" lon="1.87003">
        <ele>156.83</ele>
        <time>2020-07-06T09:34:38Z</time>
      </trkpt>
      <trkpt lat="48.53243" lon="1.86991">
        <ele>156.35</ele>
        <time>2020-07-06T09:34:46Z</time>
      </trkpt>
      <trkpt lat="48.53235" lon="1.86978">
        <ele>156.35</ele>
        <time>2020-07-06T09:34:54Z</time>
      </trkpt>
      <trkpt lat="48.53227" lon="1.86965">
        <ele>156.35</ele>
        <time>2020-07-06T09:35:03Z</time>
      </trkpt>
      <trkpt lat="48.53219" lon="1.86952">
        <ele>156.35</ele>
        <time>2020-07-06T09:35:12Z</time>
      </trkpt>
      <trkpt lat="48.53211" lon="1.8694">
        <ele>155.87</ele>
        <time>2020-07-06T09:35:20Z</time>
      </trkpt>
      <trkpt lat="48.53204" lon="1.86927">
        <ele>155.87</ele>
        <time>2020-07-06T09:35:28Z</time>
      </trkpt>
      <trkpt lat="48.53197" lon="1.86912">
        <ele>155.87</ele>
        <time>2020-07-06T09:35:36Z</time>
      </trkpt>
      <trkpt lat="48.53188" lon="1.86898">
        <ele>155.87</ele>
        <time>2020-07-06T09:35:45Z</time>
      </trkpt>
      <trkpt lat="48.5318" lon="1.86883">
        <ele>155.87</ele>
        <time>2020-07-06T09:35:53Z</time>
      </trkpt>
      <trkpt lat="48.53171" lon="1.86871">
        <ele>155.87</ele>
        <time>2020-07-06T09:36:02Z</time>
      </trkpt>
      <trkpt lat="48.5316" lon="1.86858">
        <ele>155.87</ele>
        <time>2020-07-06T09:36:11Z</time>
      </trkpt>
      <trkpt lat="48.53153" lon="1.86848">
        <ele>155.87</ele>
        <time>2020-07-06T09:36:18Z</time>
      </trkpt>
      <trkpt lat="48.53147" lon="1.86835">
        <ele>155.87</ele>
        <time>2020-07-06T09:36:27Z</time>
      </trkpt>
      <trkpt lat="48.5314" lon="1.86819">
        <ele>155.39</ele>
        <time>2020-07-06T09:36:36Z</time>
      </trkpt>
      <trkpt lat="48.53129" lon="1.86804">
        <ele>155.39</ele>
        <time>2020-07-06T09:36:45Z</time>
      </trkpt>
      <trkpt lat="48.53122" lon="1.86791">
        <ele>155.39</ele>
        <time>2020-07-06T09:36:52Z</time>
      </trkpt>
      <trkpt lat="48.53114" lon="1.86781">
        <ele>155.39</ele>
        <time>2020-07-06T09:36:59Z</time>
      </trkpt>
      <trkpt lat="48.53107" lon="1.86772">
        <ele>155.87</ele>
        <time>2020-07-06T09:37:06Z</time>
      </trkpt>
      <trkpt lat="48.531" lon="1.86758">
        <ele>155.39</ele>
        <time>2020-07-06T09:37:15Z</time>
      </trkpt>
      <trkpt lat="48.5309" lon="1.86743">
        <ele>155.87</ele>
        <time>2020-07-06T09:37:26Z</time>
      </trkpt>
      <trkpt lat="48.53082" lon="1.86729">
        <ele>155.39</ele>
        <time>2020-07-06T09:37:34Z</time>
      </trkpt>
      <trkpt lat="48.53074" lon="1.86717">
        <ele>156.35</ele>
        <time>2020-07-06T09:37:42Z</time>
      </trkpt>
      <trkpt lat="48.53067" lon="1.86704">
        <ele>155.87</ele>
        <time>2020-07-06T09:37:51Z</time>
      </trkpt>
      <trkpt lat="48.53059" lon="1.86691">
        <ele>154.91</ele>
        <time>2020-07-06T09:38:02Z</time>
      </trkpt>
      <trkpt lat="48.53051" lon="1.86676">
        <ele>154.91</ele>
        <time>2020-07-06T09:38:13Z</time>
      </trkpt>
      <trkpt lat="48.53042" lon="1.86663">
        <ele>154.91</ele>
        <time>2020-07-06T09:38:21Z</time>
      </trkpt>
      <trkpt lat="48.53031" lon="1.86645">
        <ele>154.43</ele>
        <time>2020-07-06T09:38:35Z</time>
      </trkpt>
      <trkpt lat="48.53021" lon="1.86631">
        <ele>154.43</ele>
        <time>2020-07-06T09:38:43Z</time>
      </trkpt>
      <trkpt lat="48.53013" lon="1.86618">
        <ele>153.95</ele>
        <time>2020-07-06T09:38:53Z</time>
      </trkpt>
      <trkpt lat="48.53004" lon="1.86603">
        <ele>154.43</ele>
        <time>2020-07-06T09:39:02Z</time>
      </trkpt>
      <trkpt lat="48.52996" lon="1.86589">
        <ele>153.95</ele>
        <time>2020-07-06T09:39:14Z</time>
      </trkpt>
      <trkpt lat="48.52988" lon="1.86574">
        <ele>153.95</ele>
        <time>2020-07-06T09:39:25Z</time>
      </trkpt>
      <trkpt lat="48.52978" lon="1.8656">
        <ele>154.43</ele>
        <time>2020-07-06T09:39:36Z</time>
      </trkpt>
      <trkpt lat="48.52968" lon="1.86544">
        <ele>153.95</ele>
        <time>2020-07-06T09:39:52Z</time>
      </trkpt>
      <trkpt lat="48.52957" lon="1.86528">
        <ele>153.47</ele>
        <time>2020-07-06T09:40:01Z</time>
      </trkpt>
      <trkpt lat="48.52947" lon="1.86513">
        <ele>153.47</ele>
        <time>2020-07-06T09:40:10Z</time>
      </trkpt>
      <trkpt lat="48.52938" lon="1.86498">
        <ele>153.47</ele>
        <time>2020-07-06T09:40:19Z</time>
      </trkpt>
      <trkpt lat="48.52929" lon="1.86484">
        <ele>153.47</ele>
        <time>2020-07-06T09:40:26Z</time>
      </trkpt>
      <trkpt lat="48.52919" lon="1.86466">
        <ele>152.99</ele>
        <time>2020-07-06T09:40:36Z</time>
      </trkpt>
      <trkpt lat="48.52909" lon="1.86451">
        <ele>153.47</ele>
        <time>2020-07-06T09:40:45Z</time>
      </trkpt>
      <trkpt lat="48.529" lon="1.86433">
        <ele>152.99</ele>
        <time>2020-07-06T09:40:58Z</time>
      </trkpt>
      <trkpt lat="48.5289" lon="1.86418">
        <ele>152.99</ele>
        <time>2020-07-06T09:41:09Z</time>
      </trkpt>
      <trkpt lat="48.52882" lon="1.864">
        <ele>152.51</ele>
        <time>2020-07-06T09:41:20Z</time>
      </trkpt>
      <trkpt lat="48.52872" lon="1.86383">
        <ele>152.51</ele>
        <time>2020-07-06T09:41:30Z</time>
      </trkpt>
      <trkpt lat="48.52862" lon="1.86371">
        <ele>152.51</ele>
        <time>2020-07-06T09:41:38Z</time>
      </trkpt>
      <trkpt lat="48.52852" lon="1.86357">
        <ele>152.51</ele>
        <time>2020-07-06T09:41:46Z</time>
      </trkpt>
      <trkpt lat="48.52844" lon="1.86343">
        <ele>152.03</ele>
        <time>2020-07-06T09:41:55Z</time>
      </trkpt>
      <trkpt lat="48.52836" lon="1.86329">
        <ele>152.03</ele>
        <time>2020-07-06T09:42:03Z</time>
      </trkpt>
      <trkpt lat="48.52828" lon="1.86317">
        <ele>152.03</ele>
        <time>2020-07-06T09:42:12Z</time>
      </trkpt>
      <trkpt lat="48.52819" lon="1.86304">
        <ele>152.03</ele>
        <time>2020-07-06T09:42:23Z</time>
      </trkpt>
      <trkpt lat="48.52809" lon="1.8629">
        <ele>151.54</ele>
        <time>2020-07-06T09:42:31Z</time>
      </trkpt>
      <trkpt lat="48.52799" lon="1.86273">
        <ele>151.06</ele>
        <time>2020-07-06T09:42:42Z</time>
      </trkpt>
      <trkpt lat="48.52793" lon="1.86259">
        <ele>151.54</ele>
        <time>2020-07-06T09:42:52Z</time>
      </trkpt>
      <trkpt lat="48.52783" lon="1.86247">
        <ele>151.54</ele>
        <time>2020-07-06T09:43:02Z</time>
      </trkpt>
      <trkpt lat="48.52773" lon="1.86231">
        <ele>151.06</ele>
        <time>2020-07-06T09:43:13Z</time>
      </trkpt>
      <trkpt lat="48.52763" lon="1.86215">
        <ele>151.54</ele>
        <time>2020-07-06T09:43:24Z</time>
      </trkpt>
      <trkpt lat="48.52752" lon="1.86194">
        <ele>151.06</ele>
        <time>2020-07-06T09:43:39Z</time>
      </trkpt>
      <trkpt lat="48.52741" lon="1.86181">
        <ele>151.06</ele>
        <time>2020-07-06T09:43:51Z</time>
      </trkpt>
      <trkpt lat="48.52732" lon="1.86168">
        <ele>150.58</ele>
        <time>2020-07-06T09:44:01Z</time>
      </trkpt>
      <trkpt lat="48.52725" lon="1.86153">
        <ele>151.06</ele>
        <time>2020-07-06T09:44:09Z</time>
      </trkpt>
      <trkpt lat="48.52715" lon="1.86138">
        <ele>150.58</ele>
        <time>2020-07-06T09:44:20Z</time>
      </trkpt>
      <trkpt lat="48.52706" lon="1.86118">
        <ele>150.58</ele>
        <time>2020-07-06T09:44:31Z</time>
      </trkpt>
      <trkpt lat="48.52697" lon="1.86105">
        <ele>150.1</ele>
        <time>2020-07-06T09:44:43Z</time>
      </trkpt>
      <trkpt lat="48.52686" lon="1.86088">
        <ele>150.1</ele>
        <time>2020-07-06T09:44:59Z</time>
      </trkpt>
      <trkpt lat="48.52676" lon="1.86072">
        <ele>150.1</ele>
        <time>2020-07-06T09:45:11Z</time>
      </trkpt>
      <trkpt lat="48.52665" lon="1.86057">
        <ele>150.1</ele>
        <time>2020-07-06T09:45:21Z</time>
      </trkpt>
      <trkpt lat="48.52656" lon="1.86041">
        <ele>150.1</ele>
        <time>2020-07-06T09:45:31Z</time>
      </trkpt>
      <trkpt lat="48.52646" lon="1.86025">
        <ele>150.1</ele>
        <time>2020-07-06T09:45:41Z</time>
      </trkpt>
      <trkpt lat="48.52634" lon="1.86004">
        <ele>149.62</ele>
        <time>2020-07-06T09:45:54Z</time>
      </trkpt>
      <trkpt lat="48.52623" lon="1.85993">
        <ele>149.14</ele>
        <time>2020-07-06T09:46:03Z</time>
      </trkpt>
      <trkpt lat="48.52614" lon="1.85978">
        <ele>149.62</ele>
        <time>2020-07-06T09:46:13Z</time>
      </trkpt>
      <trkpt lat="48.52606" lon="1.85963">
        <ele>149.14</ele>
        <time>2020-07-06T09:46:22Z</time>
      </trkpt>
      <trkpt lat="48.52596" lon="1.8595">
        <ele>149.14</ele>
        <time>2020-07-06T09:46:31Z</time>
      </trkpt>
      <trkpt lat="48.52586" lon="1.85937">
        <ele>149.14</ele>
        <time>2020-07-06T09:46:39Z</time>
      </trkpt>
      <trkpt lat="48.52577" lon="1.85923">
        <ele>149.14</ele>
        <time>2020-07-06T09:46:49Z</time>
      </trkpt>
      <trkpt lat="48.52572" lon="1.8591">
        <ele>149.14</ele>
        <time>2020-07-06T09:46:57Z</time>
      </trkpt>
      <trkpt lat="48.52564" lon="1.85899">
        <ele>149.14</ele>
        <time>2020-07-06T09:47:05Z</time>
      </trkpt>
      <trkpt lat="48.52556" lon="1.85887">
        <ele>149.14</ele>
        <time>2020-07-06T09:47:14Z</time>
      </trkpt>
      <trkpt lat="48.52549" lon="1.85867">
        <ele>149.62</ele>
        <time>2020-07-06T09:47:49Z</time>
      </trkpt>
      <trkpt lat="48.52544" lon="1.8586">
        <ele>149.14</ele>
        <time>2020-07-06T09:48:11Z</time>
      </trkpt>
      <trkpt lat="48.52536" lon="1.85849">
        <ele>149.14</ele>
        <time>2020-07-06T09:48:21Z</time>
      </trkpt>
      <trkpt lat="48.52528" lon="1.85837">
        <ele>149.14</ele>
        <time>2020-07-06T09:48:30Z</time>
      </trkpt>
      <trkpt lat="48.5252" lon="1.85825">
        <ele>149.14</ele>
        <time>2020-07-06T09:48:39Z</time>
      </trkpt>
      <trkpt lat="48.52512" lon="1.85811">
        <ele>149.14</ele>
        <time>2020-07-06T09:48:48Z</time>
      </trkpt>
      <trkpt lat="48.52503" lon="1.85799">
        <ele>149.14</ele>
        <time>2020-07-06T09:48:57Z</time>
      </trkpt>
      <trkpt lat="48.52495" lon="1.85785">
        <ele>150.1</ele>
        <time>2020-07-06T09:49:06Z</time>
      </trkpt>
      <trkpt lat="48.52487" lon="1.85772">
        <ele>149.14</ele>
        <time>2020-07-06T09:49:14Z</time>
      </trkpt>
      <trkpt lat="48.52479" lon="1.85759">
        <ele>149.14</ele>
        <time>2020-07-06T09:49:22Z</time>
      </trkpt>
      <trkpt lat="48.52472" lon="1.85748">
        <ele>149.14</ele>
        <time>2020-07-06T09:49:30Z</time>
      </trkpt>
      <trkpt lat="48.52465" lon="1.85734">
        <ele>149.14</ele>
        <time>2020-07-06T09:49:40Z</time>
      </trkpt>
      <trkpt lat="48.52456" lon="1.85722">
        <ele>149.14</ele>
        <time>2020-07-06T09:49:49Z</time>
      </trkpt>
      <trkpt lat="48.52448" lon="1.85711">
        <ele>149.14</ele>
        <time>2020-07-06T09:49:57Z</time>
      </trkpt>
      <trkpt lat="48.5244" lon="1.85697">
        <ele>149.14</ele>
        <time>2020-07-06T09:50:05Z</time>
      </trkpt>
      <trkpt lat="48.52432" lon="1.85685">
        <ele>149.14</ele>
        <time>2020-07-06T09:50:12Z</time>
      </trkpt>
      <trkpt lat="48.52424" lon="1.85671">
        <ele>149.14</ele>
        <time>2020-07-06T09:50:20Z</time>
      </trkpt>
      <trkpt lat="48.52417" lon="1.85658">
        <ele>149.14</ele>
        <time>2020-07-06T09:50:28Z</time>
      </trkpt>
      <trkpt lat="48.52409" lon="1.85646">
        <ele>148.66</ele>
        <time>2020-07-06T09:50:37Z</time>
      </trkpt>
      <trkpt lat="48.52402" lon="1.85634">
        <ele>147.7</ele>
        <time>2020-07-06T09:50:45Z</time>
      </trkpt>
      <trkpt lat="48.52395" lon="1.85621">
        <ele>149.14</ele>
        <time>2020-07-06T09:50:55Z</time>
      </trkpt>
      <trkpt lat="48.52387" lon="1.85609">
        <ele>149.62</ele>
        <time>2020-07-06T09:51:03Z</time>
      </trkpt>
      <trkpt lat="48.52379" lon="1.85596">
        <ele>149.14</ele>
        <time>2020-07-06T09:51:12Z</time>
      </trkpt>
      <trkpt lat="48.5237" lon="1.85584">
        <ele>149.62</ele>
        <time>2020-07-06T09:51:20Z</time>
      </trkpt>
      <trkpt lat="48.52362" lon="1.85572">
        <ele>149.14</ele>
        <time>2020-07-06T09:51:29Z</time>
      </trkpt>
      <trkpt lat="48.52356" lon="1.85559">
        <ele>149.62</ele>
        <time>2020-07-06T09:51:37Z</time>
      </trkpt>
      <trkpt lat="48.52347" lon="1.85544">
        <ele>149.62</ele>
        <time>2020-07-06T09:51:47Z</time>
      </trkpt>
      <trkpt lat="48.52338" lon="1.8553">
        <ele>149.62</ele>
        <time>2020-07-06T09:51:55Z</time>
      </trkpt>
      <trkpt lat="48.5233" lon="1.85518">
        <ele>149.62</ele>
        <time>2020-07-06T09:52:03Z</time>
      </trkpt>
      <trkpt lat="48.52321" lon="1.85504">
        <ele>149.62</ele>
        <time>2020-07-06T09:52:12Z</time>
      </trkpt>
      <trkpt lat="48.52313" lon="1.85491">
        <ele>149.62</ele>
        <time>2020-07-06T09:52:21Z</time>
      </trkpt>
      <trkpt lat="48.52305" lon="1.85477">
        <ele>149.62</ele>
        <time>2020-07-06T09:52:29Z</time>
      </trkpt>
      <trkpt lat="48.52297" lon="1.85463">
        <ele>149.62</ele>
        <time>2020-07-06T09:52:38Z</time>
      </trkpt>
      <trkpt lat="48.52289" lon="1.85448">
        <ele>149.62</ele>
        <time>2020-07-06T09:52:50Z</time>
      </trkpt>
      <trkpt lat="48.52281" lon="1.85431">
        <ele>150.1</ele>
        <time>2020-07-06T09:53:02Z</time>
      </trkpt>
      <trkpt lat="48.52274" lon="1.85417">
        <ele>149.62</ele>
        <time>2020-07-06T09:53:13Z</time>
      </trkpt>
      <trkpt lat="48.52265" lon="1.85403">
        <ele>149.62</ele>
        <time>2020-07-06T09:53:22Z</time>
      </trkpt>
      <trkpt lat="48.52257" lon="1.85387">
        <ele>149.62</ele>
        <time>2020-07-06T09:53:31Z</time>
      </trkpt>
      <trkpt lat="48.5225" lon="1.85372">
        <ele>149.62</ele>
        <time>2020-07-06T09:53:40Z</time>
      </trkpt>
      <trkpt lat="48.52242" lon="1.85357">
        <ele>149.62</ele>
        <time>2020-07-06T09:53:50Z</time>
      </trkpt>
      <trkpt lat="48.52235" lon="1.85342">
        <ele>149.62</ele>
        <time>2020-07-06T09:53:58Z</time>
      </trkpt>
      <trkpt lat="48.52229" lon="1.85327">
        <ele>149.62</ele>
        <time>2020-07-06T09:54:07Z</time>
      </trkpt>
      <trkpt lat="48.52221" lon="1.85312">
        <ele>149.62</ele>
        <time>2020-07-06T09:54:17Z</time>
      </trkpt>
      <trkpt lat="48.52213" lon="1.85292">
        <ele>149.62</ele>
        <time>2020-07-06T09:54:27Z</time>
      </trkpt>
      <trkpt lat="48.52205" lon="1.85273">
        <ele>149.62</ele>
        <time>2020-07-06T09:54:36Z</time>
      </trkpt>
      <trkpt lat="48.522" lon="1.85258">
        <ele>149.62</ele>
        <time>2020-07-06T09:54:45Z</time>
      </trkpt>
      <trkpt lat="48.52194" lon="1.85243">
        <ele>149.62</ele>
        <time>2020-07-06T09:54:55Z</time>
      </trkpt>
      <trkpt lat="48.52187" lon="1.85226">
        <ele>150.1</ele>
        <time>2020-07-06T09:55:06Z</time>
      </trkpt>
      <trkpt lat="48.52181" lon="1.8521">
        <ele>150.1</ele>
        <time>2020-07-06T09:55:15Z</time>
      </trkpt>
      <trkpt lat="48.52174" lon="1.85194">
        <ele>150.1</ele>
        <time>2020-07-06T09:55:23Z</time>
      </trkpt>
      <trkpt lat="48.52167" lon="1.85176">
        <ele>150.1</ele>
        <time>2020-07-06T09:55:32Z</time>
      </trkpt>
      <trkpt lat="48.52161" lon="1.85158">
        <ele>150.1</ele>
        <time>2020-07-06T09:55:39Z</time>
      </trkpt>
      <trkpt lat="48.52157" lon="1.85141">
        <ele>150.1</ele>
        <time>2020-07-06T09:55:47Z</time>
      </trkpt>
      <trkpt lat="48.52157" lon="1.85125">
        <ele>150.58</ele>
        <time>2020-07-06T09:55:54Z</time>
      </trkpt>
      <trkpt lat="48.52161" lon="1.85109">
        <ele>150.1</ele>
        <time>2020-07-06T09:56:06Z</time>
      </trkpt>
      <trkpt lat="48.52168" lon="1.851">
        <ele>150.58</ele>
        <time>2020-07-06T09:56:19Z</time>
      </trkpt>
      <trkpt lat="48.52159" lon="1.85057">
        <ele>150.58</ele>
        <time>2020-07-06T09:56:30Z</time>
      </trkpt>
      <trkpt lat="48.52152" lon="1.85043">
        <ele>150.58</ele>
        <time>2020-07-06T09:56:38Z</time>
      </trkpt>
      <trkpt lat="48.52148" lon="1.85029">
        <ele>151.06</ele>
        <time>2020-07-06T09:56:46Z</time>
      </trkpt>
      <trkpt lat="48.52142" lon="1.85016">
        <ele>151.54</ele>
        <time>2020-07-06T09:56:54Z</time>
      </trkpt>
      <trkpt lat="48.52137" lon="1.85003">
        <ele>151.54</ele>
        <time>2020-07-06T09:57:02Z</time>
      </trkpt>
      <trkpt lat="48.52133" lon="1.84988">
        <ele>152.03</ele>
        <time>2020-07-06T09:57:09Z</time>
      </trkpt>
      <trkpt lat="48.52127" lon="1.84974">
        <ele>151.54</ele>
        <time>2020-07-06T09:57:17Z</time>
      </trkpt>
      <trkpt lat="48.5212" lon="1.84964">
        <ele>152.03</ele>
        <time>2020-07-06T09:57:24Z</time>
      </trkpt>
      <trkpt lat="48.52114" lon="1.84952">
        <ele>152.51</ele>
        <time>2020-07-06T09:57:31Z</time>
      </trkpt>
      <trkpt lat="48.52107" lon="1.84941">
        <ele>152.99</ele>
        <time>2020-07-06T09:57:38Z</time>
      </trkpt>
      <trkpt lat="48.52101" lon="1.8493">
        <ele>152.99</ele>
        <time>2020-07-06T09:57:47Z</time>
      </trkpt>
      <trkpt lat="48.52101" lon="1.84918">
        <ele>151.54</ele>
        <time>2020-07-06T09:58:02Z</time>
      </trkpt>
      <trkpt lat="48.52102" lon="1.84903">
        <ele>150.1</ele>
        <time>2020-07-06T09:58:11Z</time>
      </trkpt>
      <trkpt lat="48.52101" lon="1.84885">
        <ele>150.1</ele>
        <time>2020-07-06T09:58:24Z</time>
      </trkpt>
      <trkpt lat="48.521" lon="1.84874">
        <ele>149.62</ele>
        <time>2020-07-06T09:58:42Z</time>
      </trkpt>
      <trkpt lat="48.52099" lon="1.84856">
        <ele>150.1</ele>
        <time>2020-07-06T09:58:50Z</time>
      </trkpt>
      <trkpt lat="48.52095" lon="1.8484">
        <ele>150.1</ele>
        <time>2020-07-06T09:58:58Z</time>
      </trkpt>
      <trkpt lat="48.52092" lon="1.84824">
        <ele>150.1</ele>
        <time>2020-07-06T09:59:05Z</time>
      </trkpt>
      <trkpt lat="48.5209" lon="1.84804">
        <ele>150.1</ele>
        <time>2020-07-06T09:59:13Z</time>
      </trkpt>
      <trkpt lat="48.52087" lon="1.84783">
        <ele>149.62</ele>
        <time>2020-07-06T09:59:21Z</time>
      </trkpt>
      <trkpt lat="48.52084" lon="1.84765">
        <ele>150.1</ele>
        <time>2020-07-06T09:59:29Z</time>
      </trkpt>
      <trkpt lat="48.52082" lon="1.84747">
        <ele>150.1</ele>
        <time>2020-07-06T09:59:36Z</time>
      </trkpt>
      <trkpt lat="48.5208" lon="1.84731">
        <ele>149.62</ele>
        <time>2020-07-06T09:59:43Z</time>
      </trkpt>
      <trkpt lat="48.52079" lon="1.84715">
        <ele>149.62</ele>
        <time>2020-07-06T09:59:51Z</time>
      </trkpt>
      <trkpt lat="48.52076" lon="1.84698">
        <ele>149.62</ele>
        <time>2020-07-06T09:59:58Z</time>
      </trkpt>
      <trkpt lat="48.52075" lon="1.84681">
        <ele>149.62</ele>
        <time>2020-07-06T10:00:04Z</time>
      </trkpt>
      <trkpt lat="48.52072" lon="1.84665">
        <ele>149.62</ele>
        <time>2020-07-06T10:00:11Z</time>
      </trkpt>
      <trkpt lat="48.52071" lon="1.84647">
        <ele>150.1</ele>
        <time>2020-07-06T10:00:19Z</time>
      </trkpt>
      <trkpt lat="48.52069" lon="1.8463">
        <ele>150.1</ele>
        <time>2020-07-06T10:00:26Z</time>
      </trkpt>
      <trkpt lat="48.52068" lon="1.84611">
        <ele>150.1</ele>
        <time>2020-07-06T10:00:34Z</time>
      </trkpt>
      <trkpt lat="48.52065" lon="1.84593">
        <ele>150.1</ele>
        <time>2020-07-06T10:00:43Z</time>
      </trkpt>
      <trkpt lat="48.52064" lon="1.84572">
        <ele>150.1</ele>
        <time>2020-07-06T10:00:53Z</time>
      </trkpt>
      <trkpt lat="48.52062" lon="1.84555">
        <ele>150.1</ele>
        <time>2020-07-06T10:01:01Z</time>
      </trkpt>
      <trkpt lat="48.52061" lon="1.84538">
        <ele>150.1</ele>
        <time>2020-07-06T10:01:09Z</time>
      </trkpt>
      <trkpt lat="48.5206" lon="1.84522">
        <ele>150.58</ele>
        <time>2020-07-06T10:01:17Z</time>
      </trkpt>
      <trkpt lat="48.52057" lon="1.84505">
        <ele>150.58</ele>
        <time>2020-07-06T10:01:25Z</time>
      </trkpt>
      <trkpt lat="48.52054" lon="1.84486">
        <ele>150.58</ele>
        <time>2020-07-06T10:01:34Z</time>
      </trkpt>
      <trkpt lat="48.52052" lon="1.84469">
        <ele>150.58</ele>
        <time>2020-07-06T10:01:42Z</time>
      </trkpt>
      <trkpt lat="48.5205" lon="1.84452">
        <ele>150.58</ele>
        <time>2020-07-06T10:01:50Z</time>
      </trkpt>
      <trkpt lat="48.52048" lon="1.84435">
        <ele>150.58</ele>
        <time>2020-07-06T10:01:59Z</time>
      </trkpt>
      <trkpt lat="48.52047" lon="1.84418">
        <ele>150.58</ele>
        <time>2020-07-06T10:02:07Z</time>
      </trkpt>
      <trkpt lat="48.52046" lon="1.844">
        <ele>150.58</ele>
        <time>2020-07-06T10:02:16Z</time>
      </trkpt>
      <trkpt lat="48.52043" lon="1.84383">
        <ele>150.58</ele>
        <time>2020-07-06T10:02:24Z</time>
      </trkpt>
      <trkpt lat="48.52042" lon="1.84366">
        <ele>150.1</ele>
        <time>2020-07-06T10:02:33Z</time>
      </trkpt>
      <trkpt lat="48.5204" lon="1.84348">
        <ele>150.1</ele>
        <time>2020-07-06T10:02:41Z</time>
      </trkpt>
      <trkpt lat="48.52039" lon="1.84331">
        <ele>150.58</ele>
        <time>2020-07-06T10:02:49Z</time>
      </trkpt>
      <trkpt lat="48.52036" lon="1.84316">
        <ele>150.58</ele>
        <time>2020-07-06T10:02:57Z</time>
      </trkpt>
      <trkpt lat="48.52035" lon="1.84299">
        <ele>150.1</ele>
        <time>2020-07-06T10:03:05Z</time>
      </trkpt>
      <trkpt lat="48.52033" lon="1.84281">
        <ele>150.1</ele>
        <time>2020-07-06T10:03:19Z</time>
      </trkpt>
      <trkpt lat="48.52031" lon="1.84266">
        <ele>150.1</ele>
        <time>2020-07-06T10:03:27Z</time>
      </trkpt>
      <trkpt lat="48.52031" lon="1.84249">
        <ele>150.58</ele>
        <time>2020-07-06T10:03:36Z</time>
      </trkpt>
      <trkpt lat="48.52028" lon="1.84232">
        <ele>150.58</ele>
        <time>2020-07-06T10:03:45Z</time>
      </trkpt>
      <trkpt lat="48.52026" lon="1.84216">
        <ele>150.58</ele>
        <time>2020-07-06T10:03:55Z</time>
      </trkpt>
      <trkpt lat="48.52023" lon="1.84199">
        <ele>150.1</ele>
        <time>2020-07-06T10:04:06Z</time>
      </trkpt>
      <trkpt lat="48.52022" lon="1.84182">
        <ele>150.1</ele>
        <time>2020-07-06T10:04:16Z</time>
      </trkpt>
      <trkpt lat="48.52022" lon="1.84167">
        <ele>150.1</ele>
        <time>2020-07-06T10:04:26Z</time>
      </trkpt>
      <trkpt lat="48.52022" lon="1.8415">
        <ele>150.1</ele>
        <time>2020-07-06T10:04:37Z</time>
      </trkpt>
      <trkpt lat="48.52021" lon="1.84131">
        <ele>150.1</ele>
        <time>2020-07-06T10:04:49Z</time>
      </trkpt>
      <trkpt lat="48.52016" lon="1.84113">
        <ele>150.58</ele>
        <time>2020-07-06T10:04:59Z</time>
      </trkpt>
      <trkpt lat="48.52016" lon="1.8409">
        <ele>150.58</ele>
        <time>2020-07-06T10:05:12Z</time>
      </trkpt>
      <trkpt lat="48.52012" lon="1.84074">
        <ele>150.1</ele>
        <time>2020-07-06T10:05:21Z</time>
      </trkpt>
      <trkpt lat="48.52005" lon="1.84047">
        <ele>150.1</ele>
        <time>2020-07-06T10:05:32Z</time>
      </trkpt>
      <trkpt lat="48.52" lon="1.84031">
        <ele>149.62</ele>
        <time>2020-07-06T10:05:40Z</time>
      </trkpt>
      <trkpt lat="48.51997" lon="1.84013">
        <ele>150.58</ele>
        <time>2020-07-06T10:05:50Z</time>
      </trkpt>
      <trkpt lat="48.51991" lon="1.84003">
        <ele>150.58</ele>
        <time>2020-07-06T10:06:26Z</time>
      </trkpt>
      <trkpt lat="48.51993" lon="1.83999">
        <ele>149.62</ele>
        <time>2020-07-06T10:07:05Z</time>
      </trkpt>
      <trkpt lat="48.51992" lon="1.83993">
        <ele>149.62</ele>
        <time>2020-07-06T10:07:23Z</time>
      </trkpt>
      <trkpt lat="48.51995" lon="1.83977">
        <ele>150.1</ele>
        <time>2020-07-06T10:07:32Z</time>
      </trkpt>
      <trkpt lat="48.51993" lon="1.83971">
        <ele>150.1</ele>
        <time>2020-07-06T10:07:53Z</time>
      </trkpt>
      <trkpt lat="48.51988" lon="1.83968">
        <ele>150.1</ele>
        <time>2020-07-06T10:08:26Z</time>
      </trkpt>
      <trkpt lat="48.51982" lon="1.83965">
        <ele>150.1</ele>
        <time>2020-07-06T10:08:44Z</time>
      </trkpt>
      <trkpt lat="48.51983" lon="1.83947">
        <ele>150.58</ele>
        <time>2020-07-06T10:08:57Z</time>
      </trkpt>
      <trkpt lat="48.51979" lon="1.83933">
        <ele>150.58</ele>
        <time>2020-07-06T10:09:08Z</time>
      </trkpt>
      <trkpt lat="48.51967" lon="1.83922">
        <ele>150.58</ele>
        <time>2020-07-06T10:09:21Z</time>
      </trkpt>
      <trkpt lat="48.51957" lon="1.83919">
        <ele>150.58</ele>
        <time>2020-07-06T10:09:38Z</time>
      </trkpt>
      <trkpt lat="48.51947" lon="1.83915">
        <ele>150.58</ele>
        <time>2020-07-06T10:09:46Z</time>
      </trkpt>
      <trkpt lat="48.51936" lon="1.83911">
        <ele>151.06</ele>
        <time>2020-07-06T10:09:58Z</time>
      </trkpt>
      <trkpt lat="48.51927" lon="1.83907">
        <ele>151.06</ele>
        <time>2020-07-06T10:10:06Z</time>
      </trkpt>
      <trkpt lat="48.51916" lon="1.83905">
        <ele>151.06</ele>
        <time>2020-07-06T10:10:14Z</time>
      </trkpt>
      <trkpt lat="48.51906" lon="1.83902">
        <ele>151.06</ele>
        <time>2020-07-06T10:10:22Z</time>
      </trkpt>
      <trkpt lat="48.51895" lon="1.839">
        <ele>151.06</ele>
        <time>2020-07-06T10:10:30Z</time>
      </trkpt>
      <trkpt lat="48.51885" lon="1.83898">
        <ele>151.06</ele>
        <time>2020-07-06T10:10:37Z</time>
      </trkpt>
      <trkpt lat="48.51876" lon="1.83893">
        <ele>151.54</ele>
        <time>2020-07-06T10:10:44Z</time>
      </trkpt>
      <trkpt lat="48.51867" lon="1.8389">
        <ele>151.06</ele>
        <time>2020-07-06T10:10:51Z</time>
      </trkpt>
      <trkpt lat="48.51856" lon="1.83887">
        <ele>150.58</ele>
        <time>2020-07-06T10:11:00Z</time>
      </trkpt>
      <trkpt lat="48.51846" lon="1.83883">
        <ele>151.06</ele>
        <time>2020-07-06T10:11:07Z</time>
      </trkpt>
      <trkpt lat="48.51836" lon="1.83879">
        <ele>151.06</ele>
        <time>2020-07-06T10:11:14Z</time>
      </trkpt>
      <trkpt lat="48.51827" lon="1.83875">
        <ele>151.06</ele>
        <time>2020-07-06T10:11:20Z</time>
      </trkpt>
      <trkpt lat="48.51818" lon="1.83873">
        <ele>151.06</ele>
        <time>2020-07-06T10:11:26Z</time>
      </trkpt>
      <trkpt lat="48.5181" lon="1.83868">
        <ele>151.06</ele>
        <time>2020-07-06T10:11:33Z</time>
      </trkpt>
      <trkpt lat="48.518" lon="1.83865">
        <ele>151.06</ele>
        <time>2020-07-06T10:11:41Z</time>
      </trkpt>
      <trkpt lat="48.51791" lon="1.8386">
        <ele>151.06</ele>
        <time>2020-07-06T10:11:48Z</time>
      </trkpt>
      <trkpt lat="48.51781" lon="1.83856">
        <ele>151.06</ele>
        <time>2020-07-06T10:11:55Z</time>
      </trkpt>
      <trkpt lat="48.51771" lon="1.83849">
        <ele>151.54</ele>
        <time>2020-07-06T10:12:02Z</time>
      </trkpt>
      <trkpt lat="48.51763" lon="1.83846">
        <ele>151.54</ele>
        <time>2020-07-06T10:12:09Z</time>
      </trkpt>
      <trkpt lat="48.51754" lon="1.83841">
        <ele>151.54</ele>
        <time>2020-07-06T10:12:17Z</time>
      </trkpt>
      <trkpt lat="48.51743" lon="1.83836">
        <ele>151.06</ele>
        <time>2020-07-06T10:12:26Z</time>
      </trkpt>
      <trkpt lat="48.51733" lon="1.83832">
        <ele>151.06</ele>
        <time>2020-07-06T10:12:33Z</time>
      </trkpt>
      <trkpt lat="48.51724" lon="1.83828">
        <ele>151.54</ele>
        <time>2020-07-06T10:12:40Z</time>
      </trkpt>
      <trkpt lat="48.51714" lon="1.83823">
        <ele>151.54</ele>
        <time>2020-07-06T10:12:48Z</time>
      </trkpt>
      <trkpt lat="48.51704" lon="1.83816">
        <ele>151.54</ele>
        <time>2020-07-06T10:12:57Z</time>
      </trkpt>
      <trkpt lat="48.51694" lon="1.83814">
        <ele>151.54</ele>
        <time>2020-07-06T10:13:04Z</time>
      </trkpt>
      <trkpt lat="48.51684" lon="1.83811">
        <ele>151.54</ele>
        <time>2020-07-06T10:13:11Z</time>
      </trkpt>
      <trkpt lat="48.51674" lon="1.8381">
        <ele>151.54</ele>
        <time>2020-07-06T10:13:19Z</time>
      </trkpt>
      <trkpt lat="48.51665" lon="1.83803">
        <ele>151.54</ele>
        <time>2020-07-06T10:13:26Z</time>
      </trkpt>
      <trkpt lat="48.51655" lon="1.83796">
        <ele>151.54</ele>
        <time>2020-07-06T10:13:33Z</time>
      </trkpt>
      <trkpt lat="48.51648" lon="1.83791">
        <ele>152.03</ele>
        <time>2020-07-06T10:13:46Z</time>
      </trkpt>
      <trkpt lat="48.51648" lon="1.83779">
        <ele>152.03</ele>
        <time>2020-07-06T10:14:02Z</time>
      </trkpt>
      <trkpt lat="48.51645" lon="1.83764">
        <ele>152.03</ele>
        <time>2020-07-06T10:14:09Z</time>
      </trkpt>
      <trkpt lat="48.51648" lon="1.83749">
        <ele>152.03</ele>
        <time>2020-07-06T10:14:18Z</time>
      </trkpt>
      <trkpt lat="48.51647" lon="1.83734">
        <ele>152.51</ele>
        <time>2020-07-06T10:14:27Z</time>
      </trkpt>
      <trkpt lat="48.51643" lon="1.83719">
        <ele>152.03</ele>
        <time>2020-07-06T10:14:34Z</time>
      </trkpt>
      <trkpt lat="48.51639" lon="1.83703">
        <ele>152.99</ele>
        <time>2020-07-06T10:14:42Z</time>
      </trkpt>
      <trkpt lat="48.51633" lon="1.83687">
        <ele>152.51</ele>
        <time>2020-07-06T10:14:50Z</time>
      </trkpt>
      <trkpt lat="48.51636" lon="1.83674">
        <ele>151.54</ele>
        <time>2020-07-06T10:14:57Z</time>
      </trkpt>
      <trkpt lat="48.51633" lon="1.83658">
        <ele>152.03</ele>
        <time>2020-07-06T10:15:06Z</time>
      </trkpt>
      <trkpt lat="48.5163" lon="1.83644">
        <ele>151.06</ele>
        <time>2020-07-06T10:15:14Z</time>
      </trkpt>
      <trkpt lat="48.51631" lon="1.83629">
        <ele>151.06</ele>
        <time>2020-07-06T10:15:20Z</time>
      </trkpt>
      <trkpt lat="48.51629" lon="1.83615">
        <ele>151.54</ele>
        <time>2020-07-06T10:15:27Z</time>
      </trkpt>
      <trkpt lat="48.51628" lon="1.836">
        <ele>151.54</ele>
        <time>2020-07-06T10:15:36Z</time>
      </trkpt>
      <trkpt lat="48.51633" lon="1.83584">
        <ele>151.54</ele>
        <time>2020-07-06T10:15:49Z</time>
      </trkpt>
      <trkpt lat="48.51634" lon="1.83567">
        <ele>152.03</ele>
        <time>2020-07-06T10:15:58Z</time>
      </trkpt>
      <trkpt lat="48.5163" lon="1.83559">
        <ele>151.54</ele>
        <time>2020-07-06T10:16:09Z</time>
      </trkpt>
      <trkpt lat="48.5162" lon="1.83558">
        <ele>152.03</ele>
        <time>2020-07-06T10:16:15Z</time>
      </trkpt>
      <trkpt lat="48.51611" lon="1.83554">
        <ele>152.03</ele>
        <time>2020-07-06T10:16:22Z</time>
      </trkpt>
      <trkpt lat="48.51603" lon="1.83553">
        <ele>153.47</ele>
        <time>2020-07-06T10:16:32Z</time>
      </trkpt>
      <trkpt lat="48.51605" lon="1.83543">
        <ele>152.03</ele>
        <time>2020-07-06T10:17:02Z</time>
      </trkpt>
      <trkpt lat="48.51602" lon="1.8354">
        <ele>152.03</ele>
        <time>2020-07-06T10:17:29Z</time>
      </trkpt>
      <trkpt lat="48.51595" lon="1.83532">
        <ele>151.54</ele>
        <time>2020-07-06T10:17:37Z</time>
      </trkpt>
      <trkpt lat="48.51586" lon="1.83534">
        <ele>152.03</ele>
        <time>2020-07-06T10:17:51Z</time>
      </trkpt>
      <trkpt lat="48.51579" lon="1.83534">
        <ele>151.54</ele>
        <time>2020-07-06T10:18:20Z</time>
      </trkpt>
      <trkpt lat="48.51574" lon="1.8354">
        <ele>151.54</ele>
        <time>2020-07-06T10:18:31Z</time>
      </trkpt>
      <trkpt lat="48.51587" lon="1.83543">
        <ele>152.51</ele>
        <time>2020-07-06T10:18:55Z</time>
      </trkpt>
      <trkpt lat="48.51576" lon="1.83546">
        <ele>152.03</ele>
        <time>2020-07-06T10:19:11Z</time>
      </trkpt>
      <trkpt lat="48.51571" lon="1.83555">
        <ele>152.03</ele>
        <time>2020-07-06T10:19:22Z</time>
      </trkpt>
      <trkpt lat="48.51563" lon="1.83559">
        <ele>151.54</ele>
        <time>2020-07-06T10:19:30Z</time>
      </trkpt>
      <trkpt lat="48.51552" lon="1.83563">
        <ele>151.54</ele>
        <time>2020-07-06T10:19:37Z</time>
      </trkpt>
      <trkpt lat="48.51548" lon="1.83573">
        <ele>151.54</ele>
        <time>2020-07-06T10:19:49Z</time>
      </trkpt>
      <trkpt lat="48.5155" lon="1.83589">
        <ele>152.03</ele>
        <time>2020-07-06T10:20:04Z</time>
      </trkpt>
      <trkpt lat="48.51557" lon="1.83599">
        <ele>152.03</ele>
        <time>2020-07-06T10:20:36Z</time>
      </trkpt>
      <trkpt lat="48.51559" lon="1.83599">
        <ele>152.51</ele>
        <time>2020-07-06T10:22:17Z</time>
      </trkpt>
      <trkpt lat="48.51557" lon="1.83601">
        <ele>152.51</ele>
        <time>2020-07-06T10:26:02Z</time>
      </trkpt>
      <trkpt lat="48.5155" lon="1.83611">
        <ele>151.54</ele>
        <time>2020-07-06T10:26:49Z</time>
      </trkpt>
      <trkpt lat="48.5155" lon="1.83626">
        <ele>151.54</ele>
        <time>2020-07-06T10:26:57Z</time>
      </trkpt>
      <trkpt lat="48.51552" lon="1.83642">
        <ele>151.54</ele>
        <time>2020-07-06T10:27:05Z</time>
      </trkpt>
      <trkpt lat="48.51554" lon="1.8366">
        <ele>151.54</ele>
        <time>2020-07-06T10:27:16Z</time>
      </trkpt>
      <trkpt lat="48.51559" lon="1.83667">
        <ele>151.54</ele>
        <time>2020-07-06T10:27:32Z</time>
      </trkpt>
      <trkpt lat="48.51557" lon="1.83665">
        <ele>152.03</ele>
        <time>2020-07-06T10:27:46Z</time>
      </trkpt>
      <trkpt lat="48.51548" lon="1.83659">
        <ele>151.54</ele>
        <time>2020-07-06T10:27:55Z</time>
      </trkpt>
      <trkpt lat="48.51538" lon="1.83661">
        <ele>151.54</ele>
        <time>2020-07-06T10:28:02Z</time>
      </trkpt>
      <trkpt lat="48.51529" lon="1.83665">
        <ele>152.03</ele>
        <time>2020-07-06T10:28:11Z</time>
      </trkpt>
      <trkpt lat="48.51523" lon="1.83672">
        <ele>152.51</ele>
        <time>2020-07-06T10:28:21Z</time>
      </trkpt>
      <trkpt lat="48.51521" lon="1.8367">
        <ele>151.54</ele>
        <time>2020-07-06T10:28:49Z</time>
      </trkpt>
      <trkpt lat="48.51513" lon="1.83659">
        <ele>151.54</ele>
        <time>2020-07-06T10:28:57Z</time>
      </trkpt>
      <trkpt lat="48.51505" lon="1.83648">
        <ele>151.54</ele>
        <time>2020-07-06T10:29:05Z</time>
      </trkpt>
      <trkpt lat="48.51505" lon="1.83634">
        <ele>151.54</ele>
        <time>2020-07-06T10:29:14Z</time>
      </trkpt>
      <trkpt lat="48.51509" lon="1.83623">
        <ele>151.06</ele>
        <time>2020-07-06T10:29:34Z</time>
      </trkpt>
      <trkpt lat="48.51498" lon="1.8362">
        <ele>151.54</ele>
        <time>2020-07-06T10:29:43Z</time>
      </trkpt>
      <trkpt lat="48.51492" lon="1.83607">
        <ele>151.54</ele>
        <time>2020-07-06T10:29:52Z</time>
      </trkpt>
      <trkpt lat="48.51497" lon="1.83602">
        <ele>151.54</ele>
        <time>2020-07-06T10:30:04Z</time>
      </trkpt>
      <trkpt lat="48.51493" lon="1.83599">
        <ele>151.54</ele>
        <time>2020-07-06T10:30:26Z</time>
      </trkpt>
      <trkpt lat="48.51481" lon="1.83593">
        <ele>151.54</ele>
        <time>2020-07-06T10:30:35Z</time>
      </trkpt>
      <trkpt lat="48.51472" lon="1.83591">
        <ele>152.03</ele>
        <time>2020-07-06T10:30:54Z</time>
      </trkpt>
      <trkpt lat="48.51462" lon="1.83585">
        <ele>152.03</ele>
        <time>2020-07-06T10:31:01Z</time>
      </trkpt>
      <trkpt lat="48.51452" lon="1.83581">
        <ele>152.03</ele>
        <time>2020-07-06T10:31:09Z</time>
      </trkpt>
      <trkpt lat="48.51442" lon="1.83578">
        <ele>152.03</ele>
        <time>2020-07-06T10:31:16Z</time>
      </trkpt>
      <trkpt lat="48.51433" lon="1.83574">
        <ele>152.03</ele>
        <time>2020-07-06T10:31:23Z</time>
      </trkpt>
      <trkpt lat="48.51425" lon="1.83568">
        <ele>152.03</ele>
        <time>2020-07-06T10:31:30Z</time>
      </trkpt>
      <trkpt lat="48.51416" lon="1.83559">
        <ele>152.03</ele>
        <time>2020-07-06T10:31:38Z</time>
      </trkpt>
      <trkpt lat="48.51408" lon="1.8355">
        <ele>152.51</ele>
        <time>2020-07-06T10:31:46Z</time>
      </trkpt>
      <trkpt lat="48.51401" lon="1.83543">
        <ele>152.51</ele>
        <time>2020-07-06T10:31:54Z</time>
      </trkpt>
      <trkpt lat="48.51395" lon="1.83532">
        <ele>152.51</ele>
        <time>2020-07-06T10:32:01Z</time>
      </trkpt>
      <trkpt lat="48.5139" lon="1.83519">
        <ele>152.03</ele>
        <time>2020-07-06T10:32:10Z</time>
      </trkpt>
      <trkpt lat="48.51385" lon="1.83508">
        <ele>152.03</ele>
        <time>2020-07-06T10:32:15Z</time>
      </trkpt>
      <trkpt lat="48.5138" lon="1.83493">
        <ele>152.51</ele>
        <time>2020-07-06T10:32:23Z</time>
      </trkpt>
      <trkpt lat="48.51376" lon="1.8348">
        <ele>152.51</ele>
        <time>2020-07-06T10:32:31Z</time>
      </trkpt>
      <trkpt lat="48.51374" lon="1.83465">
        <ele>152.51</ele>
        <time>2020-07-06T10:32:38Z</time>
      </trkpt>
      <trkpt lat="48.51371" lon="1.83451">
        <ele>152.51</ele>
        <time>2020-07-06T10:32:46Z</time>
      </trkpt>
      <trkpt lat="48.51369" lon="1.83437">
        <ele>152.51</ele>
        <time>2020-07-06T10:32:54Z</time>
      </trkpt>
      <trkpt lat="48.51364" lon="1.83422">
        <ele>152.99</ele>
        <time>2020-07-06T10:33:04Z</time>
      </trkpt>
      <trkpt lat="48.51361" lon="1.83412">
        <ele>152.99</ele>
        <time>2020-07-06T10:33:30Z</time>
      </trkpt>
      <trkpt lat="48.51356" lon="1.83399">
        <ele>152.51</ele>
        <time>2020-07-06T10:33:37Z</time>
      </trkpt>
      <trkpt lat="48.51351" lon="1.83386">
        <ele>153.47</ele>
        <time>2020-07-06T10:33:44Z</time>
      </trkpt>
      <trkpt lat="48.51344" lon="1.83378">
        <ele>153.47</ele>
        <time>2020-07-06T10:33:52Z</time>
      </trkpt>
      <trkpt lat="48.51334" lon="1.83377">
        <ele>152.51</ele>
        <time>2020-07-06T10:34:02Z</time>
      </trkpt>
      <trkpt lat="48.51323" lon="1.83375">
        <ele>154.43</ele>
        <time>2020-07-06T10:34:10Z</time>
      </trkpt>
      <trkpt lat="48.51314" lon="1.83372">
        <ele>153.47</ele>
        <time>2020-07-06T10:34:17Z</time>
      </trkpt>
      <trkpt lat="48.51304" lon="1.8337">
        <ele>153.95</ele>
        <time>2020-07-06T10:34:23Z</time>
      </trkpt>
      <trkpt lat="48.51296" lon="1.83367">
        <ele>153.47</ele>
        <time>2020-07-06T10:34:29Z</time>
      </trkpt>
      <trkpt lat="48.51285" lon="1.83367">
        <ele>153.47</ele>
        <time>2020-07-06T10:34:36Z</time>
      </trkpt>
      <trkpt lat="48.51274" lon="1.83365">
        <ele>153.95</ele>
        <time>2020-07-06T10:34:44Z</time>
      </trkpt>
      <trkpt lat="48.51265" lon="1.83365">
        <ele>153.47</ele>
        <time>2020-07-06T10:34:51Z</time>
      </trkpt>
      <trkpt lat="48.51256" lon="1.83366">
        <ele>153.47</ele>
        <time>2020-07-06T10:34:59Z</time>
      </trkpt>
      <trkpt lat="48.51246" lon="1.83361">
        <ele>153.95</ele>
        <time>2020-07-06T10:35:06Z</time>
      </trkpt>
      <trkpt lat="48.51237" lon="1.8336">
        <ele>152.99</ele>
        <time>2020-07-06T10:35:13Z</time>
      </trkpt>
      <trkpt lat="48.51226" lon="1.83359">
        <ele>152.99</ele>
        <time>2020-07-06T10:35:21Z</time>
      </trkpt>
      <trkpt lat="48.51216" lon="1.83358">
        <ele>153.95</ele>
        <time>2020-07-06T10:35:30Z</time>
      </trkpt>
      <trkpt lat="48.51205" lon="1.83358">
        <ele>154.43</ele>
        <time>2020-07-06T10:35:37Z</time>
      </trkpt>
      <trkpt lat="48.51194" lon="1.83355">
        <ele>154.43</ele>
        <time>2020-07-06T10:35:44Z</time>
      </trkpt>
      <trkpt lat="48.51184" lon="1.83355">
        <ele>154.43</ele>
        <time>2020-07-06T10:35:50Z</time>
      </trkpt>
      <trkpt lat="48.51176" lon="1.83354">
        <ele>154.91</ele>
        <time>2020-07-06T10:35:57Z</time>
      </trkpt>
      <trkpt lat="48.51167" lon="1.83355">
        <ele>154.43</ele>
        <time>2020-07-06T10:36:05Z</time>
      </trkpt>
      <trkpt lat="48.51158" lon="1.83358">
        <ele>154.91</ele>
        <time>2020-07-06T10:36:13Z</time>
      </trkpt>
      <trkpt lat="48.51149" lon="1.83356">
        <ele>154.43</ele>
        <time>2020-07-06T10:36:21Z</time>
      </trkpt>
      <trkpt lat="48.5114" lon="1.83349">
        <ele>154.91</ele>
        <time>2020-07-06T10:36:29Z</time>
      </trkpt>
      <trkpt lat="48.5113" lon="1.83348">
        <ele>154.43</ele>
        <time>2020-07-06T10:36:38Z</time>
      </trkpt>
      <trkpt lat="48.5112" lon="1.83348">
        <ele>154.43</ele>
        <time>2020-07-06T10:36:46Z</time>
      </trkpt>
      <trkpt lat="48.5111" lon="1.83349">
        <ele>154.91</ele>
        <time>2020-07-06T10:36:54Z</time>
      </trkpt>
      <trkpt lat="48.51098" lon="1.83351">
        <ele>155.39</ele>
        <time>2020-07-06T10:37:02Z</time>
      </trkpt>
      <trkpt lat="48.51088" lon="1.83353">
        <ele>155.39</ele>
        <time>2020-07-06T10:37:10Z</time>
      </trkpt>
      <trkpt lat="48.51079" lon="1.83355">
        <ele>155.87</ele>
        <time>2020-07-06T10:37:18Z</time>
      </trkpt>
      <trkpt lat="48.51072" lon="1.83354">
        <ele>155.39</ele>
        <time>2020-07-06T10:37:26Z</time>
      </trkpt>
      <trkpt lat="48.51063" lon="1.83351">
        <ele>154.91</ele>
        <time>2020-07-06T10:37:35Z</time>
      </trkpt>
      <trkpt lat="48.51053" lon="1.8335">
        <ele>155.39</ele>
        <time>2020-07-06T10:37:43Z</time>
      </trkpt>
      <trkpt lat="48.51044" lon="1.83349">
        <ele>155.87</ele>
        <time>2020-07-06T10:37:51Z</time>
      </trkpt>
      <trkpt lat="48.51032" lon="1.83348">
        <ele>156.35</ele>
        <time>2020-07-06T10:37:59Z</time>
      </trkpt>
      <trkpt lat="48.51022" lon="1.83345">
        <ele>157.31</ele>
        <time>2020-07-06T10:38:08Z</time>
      </trkpt>
      <trkpt lat="48.51013" lon="1.83337">
        <ele>157.79</ele>
        <time>2020-07-06T10:38:17Z</time>
      </trkpt>
      <trkpt lat="48.51005" lon="1.83328">
        <ele>158.75</ele>
        <time>2020-07-06T10:38:25Z</time>
      </trkpt>
      <trkpt lat="48.50998" lon="1.83319">
        <ele>159.24</ele>
        <time>2020-07-06T10:38:33Z</time>
      </trkpt>
      <trkpt lat="48.50989" lon="1.8331">
        <ele>160.2</ele>
        <time>2020-07-06T10:38:43Z</time>
      </trkpt>
      <trkpt lat="48.50983" lon="1.83299">
        <ele>160.2</ele>
        <time>2020-07-06T10:38:51Z</time>
      </trkpt>
      <trkpt lat="48.50978" lon="1.83286">
        <ele>160.2</ele>
        <time>2020-07-06T10:38:58Z</time>
      </trkpt>
      <trkpt lat="48.50974" lon="1.83272">
        <ele>160.68</ele>
        <time>2020-07-06T10:39:06Z</time>
      </trkpt>
      <trkpt lat="48.5097" lon="1.83258">
        <ele>161.16</ele>
        <time>2020-07-06T10:39:14Z</time>
      </trkpt>
      <trkpt lat="48.50966" lon="1.83245">
        <ele>161.16</ele>
        <time>2020-07-06T10:39:22Z</time>
      </trkpt>
      <trkpt lat="48.50961" lon="1.8323">
        <ele>161.64</ele>
        <time>2020-07-06T10:39:30Z</time>
      </trkpt>
      <trkpt lat="48.50956" lon="1.83215">
        <ele>161.64</ele>
        <time>2020-07-06T10:39:38Z</time>
      </trkpt>
      <trkpt lat="48.5095" lon="1.83201">
        <ele>161.16</ele>
        <time>2020-07-06T10:39:45Z</time>
      </trkpt>
      <trkpt lat="48.50947" lon="1.8319">
        <ele>161.16</ele>
        <time>2020-07-06T10:39:52Z</time>
      </trkpt>
      <trkpt lat="48.50943" lon="1.83177">
        <ele>160.68</ele>
        <time>2020-07-06T10:39:59Z</time>
      </trkpt>
      <trkpt lat="48.50939" lon="1.83161">
        <ele>160.2</ele>
        <time>2020-07-06T10:40:07Z</time>
      </trkpt>
      <trkpt lat="48.50937" lon="1.83153">
        <ele>160.2</ele>
        <time>2020-07-06T10:40:32Z</time>
      </trkpt>
      <trkpt lat="48.50932" lon="1.83139">
        <ele>159.24</ele>
        <time>2020-07-06T10:40:42Z</time>
      </trkpt>
      <trkpt lat="48.50925" lon="1.83124">
        <ele>158.75</ele>
        <time>2020-07-06T10:40:49Z</time>
      </trkpt>
      <trkpt lat="48.50921" lon="1.83111">
        <ele>158.75</ele>
        <time>2020-07-06T10:40:55Z</time>
      </trkpt>
      <trkpt lat="48.50915" lon="1.83096">
        <ele>157.79</ele>
        <time>2020-07-06T10:41:02Z</time>
      </trkpt>
      <trkpt lat="48.50911" lon="1.83084">
        <ele>157.31</ele>
        <time>2020-07-06T10:41:08Z</time>
      </trkpt>
      <trkpt lat="48.50906" lon="1.83071">
        <ele>156.83</ele>
        <time>2020-07-06T10:41:15Z</time>
      </trkpt>
      <trkpt lat="48.50901" lon="1.83057">
        <ele>157.31</ele>
        <time>2020-07-06T10:41:22Z</time>
      </trkpt>
      <trkpt lat="48.50897" lon="1.83043">
        <ele>155.87</ele>
        <time>2020-07-06T10:41:29Z</time>
      </trkpt>
      <trkpt lat="48.50894" lon="1.83029">
        <ele>153.95</ele>
        <time>2020-07-06T10:41:36Z</time>
      </trkpt>
      <trkpt lat="48.50901" lon="1.83033">
        <ele>154.91</ele>
        <time>2020-07-06T10:41:45Z</time>
      </trkpt>
      <trkpt lat="48.50908" lon="1.83046">
        <ele>154.43</ele>
        <time>2020-07-06T10:41:53Z</time>
      </trkpt>
      <trkpt lat="48.50914" lon="1.83059">
        <ele>154.91</ele>
        <time>2020-07-06T10:42:01Z</time>
      </trkpt>
      <trkpt lat="48.5092" lon="1.83072">
        <ele>154.43</ele>
        <time>2020-07-06T10:42:08Z</time>
      </trkpt>
      <trkpt lat="48.50925" lon="1.83085">
        <ele>153.95</ele>
        <time>2020-07-06T10:42:15Z</time>
      </trkpt>
      <trkpt lat="48.50931" lon="1.83098">
        <ele>153.95</ele>
        <time>2020-07-06T10:42:22Z</time>
      </trkpt>
      <trkpt lat="48.50937" lon="1.8311">
        <ele>153.95</ele>
        <time>2020-07-06T10:42:29Z</time>
      </trkpt>
      <trkpt lat="48.50944" lon="1.83121">
        <ele>153.95</ele>
        <time>2020-07-06T10:42:36Z</time>
      </trkpt>
      <trkpt lat="48.50953" lon="1.83131">
        <ele>153.95</ele>
        <time>2020-07-06T10:42:43Z</time>
      </trkpt>
      <trkpt lat="48.50962" lon="1.83134">
        <ele>153.95</ele>
        <time>2020-07-06T10:42:49Z</time>
      </trkpt>
      <trkpt lat="48.50973" lon="1.83133">
        <ele>154.43</ele>
        <time>2020-07-06T10:42:56Z</time>
      </trkpt>
      <trkpt lat="48.50982" lon="1.83127">
        <ele>153.95</ele>
        <time>2020-07-06T10:43:03Z</time>
      </trkpt>
      <trkpt lat="48.50992" lon="1.83124">
        <ele>153.95</ele>
        <time>2020-07-06T10:43:10Z</time>
      </trkpt>
      <trkpt lat="48.51002" lon="1.83121">
        <ele>153.95</ele>
        <time>2020-07-06T10:43:17Z</time>
      </trkpt>
      <trkpt lat="48.51011" lon="1.83116">
        <ele>154.43</ele>
        <time>2020-07-06T10:43:24Z</time>
      </trkpt>
      <trkpt lat="48.51019" lon="1.83112">
        <ele>154.91</ele>
        <time>2020-07-06T10:43:30Z</time>
      </trkpt>
      <trkpt lat="48.51028" lon="1.83106">
        <ele>154.43</ele>
        <time>2020-07-06T10:43:37Z</time>
      </trkpt>
      <trkpt lat="48.51036" lon="1.83097">
        <ele>154.43</ele>
        <time>2020-07-06T10:43:44Z</time>
      </trkpt>
      <trkpt lat="48.51044" lon="1.83088">
        <ele>154.43</ele>
        <time>2020-07-06T10:43:50Z</time>
      </trkpt>
      <trkpt lat="48.51051" lon="1.8308">
        <ele>154.43</ele>
        <time>2020-07-06T10:43:57Z</time>
      </trkpt>
      <trkpt lat="48.5106" lon="1.8307">
        <ele>154.43</ele>
        <time>2020-07-06T10:44:04Z</time>
      </trkpt>
      <trkpt lat="48.51068" lon="1.8306">
        <ele>154.43</ele>
        <time>2020-07-06T10:44:11Z</time>
      </trkpt>
      <trkpt lat="48.51076" lon="1.83051">
        <ele>154.43</ele>
        <time>2020-07-06T10:44:18Z</time>
      </trkpt>
      <trkpt lat="48.51084" lon="1.83041">
        <ele>154.91</ele>
        <time>2020-07-06T10:44:25Z</time>
      </trkpt>
      <trkpt lat="48.51092" lon="1.83031">
        <ele>155.39</ele>
        <time>2020-07-06T10:44:32Z</time>
      </trkpt>
      <trkpt lat="48.511" lon="1.83021">
        <ele>154.91</ele>
        <time>2020-07-06T10:44:39Z</time>
      </trkpt>
      <trkpt lat="48.51108" lon="1.83012">
        <ele>155.39</ele>
        <time>2020-07-06T10:44:46Z</time>
      </trkpt>
      <trkpt lat="48.51114" lon="1.83003">
        <ele>154.91</ele>
        <time>2020-07-06T10:44:52Z</time>
      </trkpt>
      <trkpt lat="48.51122" lon="1.82994">
        <ele>154.91</ele>
        <time>2020-07-06T10:44:59Z</time>
      </trkpt>
      <trkpt lat="48.5113" lon="1.82985">
        <ele>154.91</ele>
        <time>2020-07-06T10:45:06Z</time>
      </trkpt>
      <trkpt lat="48.51137" lon="1.82976">
        <ele>154.91</ele>
        <time>2020-07-06T10:45:12Z</time>
      </trkpt>
      <trkpt lat="48.51145" lon="1.82968">
        <ele>155.39</ele>
        <time>2020-07-06T10:45:19Z</time>
      </trkpt>
      <trkpt lat="48.51153" lon="1.82957">
        <ele>154.91</ele>
        <time>2020-07-06T10:45:26Z</time>
      </trkpt>
      <trkpt lat="48.51161" lon="1.82948">
        <ele>154.43</ele>
        <time>2020-07-06T10:45:33Z</time>
      </trkpt>
      <trkpt lat="48.51169" lon="1.82939">
        <ele>154.91</ele>
        <time>2020-07-06T10:45:40Z</time>
      </trkpt>
      <trkpt lat="48.51177" lon="1.82929">
        <ele>154.91</ele>
        <time>2020-07-06T10:45:47Z</time>
      </trkpt>
      <trkpt lat="48.51185" lon="1.8292">
        <ele>155.39</ele>
        <time>2020-07-06T10:45:54Z</time>
      </trkpt>
      <trkpt lat="48.51193" lon="1.82911">
        <ele>154.43</ele>
        <time>2020-07-06T10:46:01Z</time>
      </trkpt>
      <trkpt lat="48.51201" lon="1.82901">
        <ele>154.43</ele>
        <time>2020-07-06T10:46:08Z</time>
      </trkpt>
      <trkpt lat="48.51209" lon="1.82893">
        <ele>154.43</ele>
        <time>2020-07-06T10:46:15Z</time>
      </trkpt>
      <trkpt lat="48.51216" lon="1.82884">
        <ele>154.43</ele>
        <time>2020-07-06T10:46:22Z</time>
      </trkpt>
      <trkpt lat="48.51224" lon="1.82873">
        <ele>154.43</ele>
        <time>2020-07-06T10:46:29Z</time>
      </trkpt>
      <trkpt lat="48.51231" lon="1.82864">
        <ele>154.43</ele>
        <time>2020-07-06T10:46:36Z</time>
      </trkpt>
      <trkpt lat="48.51238" lon="1.82852">
        <ele>153.95</ele>
        <time>2020-07-06T10:46:43Z</time>
      </trkpt>
      <trkpt lat="48.51241" lon="1.82837">
        <ele>153.47</ele>
        <time>2020-07-06T10:46:50Z</time>
      </trkpt>
      <trkpt lat="48.51239" lon="1.82822">
        <ele>153.95</ele>
        <time>2020-07-06T10:46:57Z</time>
      </trkpt>
      <trkpt lat="48.51235" lon="1.82807">
        <ele>153.47</ele>
        <time>2020-07-06T10:47:04Z</time>
      </trkpt>
      <trkpt lat="48.51231" lon="1.82794">
        <ele>152.99</ele>
        <time>2020-07-06T10:47:11Z</time>
      </trkpt>
      <trkpt lat="48.51228" lon="1.8278">
        <ele>153.47</ele>
        <time>2020-07-06T10:47:17Z</time>
      </trkpt>
      <trkpt lat="48.51225" lon="1.82766">
        <ele>154.43</ele>
        <time>2020-07-06T10:47:23Z</time>
      </trkpt>
      <trkpt lat="48.51221" lon="1.82753">
        <ele>154.91</ele>
        <time>2020-07-06T10:47:30Z</time>
      </trkpt>
      <trkpt lat="48.51218" lon="1.82741">
        <ele>153.95</ele>
        <time>2020-07-06T10:47:36Z</time>
      </trkpt>
      <trkpt lat="48.51214" lon="1.82727">
        <ele>154.43</ele>
        <time>2020-07-06T10:47:43Z</time>
      </trkpt>
      <trkpt lat="48.51211" lon="1.82714">
        <ele>154.43</ele>
        <time>2020-07-06T10:47:49Z</time>
      </trkpt>
      <trkpt lat="48.51208" lon="1.82699">
        <ele>153.95</ele>
        <time>2020-07-06T10:47:56Z</time>
      </trkpt>
      <trkpt lat="48.51205" lon="1.82684">
        <ele>154.43</ele>
        <time>2020-07-06T10:48:03Z</time>
      </trkpt>
      <trkpt lat="48.51202" lon="1.82671">
        <ele>154.43</ele>
        <time>2020-07-06T10:48:09Z</time>
      </trkpt>
      <trkpt lat="48.512" lon="1.82657">
        <ele>154.91</ele>
        <time>2020-07-06T10:48:16Z</time>
      </trkpt>
      <trkpt lat="48.51197" lon="1.82643">
        <ele>154.43</ele>
        <time>2020-07-06T10:48:23Z</time>
      </trkpt>
      <trkpt lat="48.51194" lon="1.82628">
        <ele>153.47</ele>
        <time>2020-07-06T10:48:30Z</time>
      </trkpt>
      <trkpt lat="48.51191" lon="1.82614">
        <ele>152.03</ele>
        <time>2020-07-06T10:48:37Z</time>
      </trkpt>
      <trkpt lat="48.51188" lon="1.82601">
        <ele>153.95</ele>
        <time>2020-07-06T10:48:44Z</time>
      </trkpt>
      <trkpt lat="48.51184" lon="1.82586">
        <ele>153.47</ele>
        <time>2020-07-06T10:48:51Z</time>
      </trkpt>
      <trkpt lat="48.5118" lon="1.82571">
        <ele>153.47</ele>
        <time>2020-07-06T10:48:58Z</time>
      </trkpt>
      <trkpt lat="48.51176" lon="1.82557">
        <ele>152.99</ele>
        <time>2020-07-06T10:49:04Z</time>
      </trkpt>
      <trkpt lat="48.51173" lon="1.82543">
        <ele>152.99</ele>
        <time>2020-07-06T10:49:11Z</time>
      </trkpt>
      <trkpt lat="48.51168" lon="1.82531">
        <ele>152.51</ele>
        <time>2020-07-06T10:49:17Z</time>
      </trkpt>
      <trkpt lat="48.51165" lon="1.82517">
        <ele>152.99</ele>
        <time>2020-07-06T10:49:24Z</time>
      </trkpt>
      <trkpt lat="48.51162" lon="1.82503">
        <ele>152.03</ele>
        <time>2020-07-06T10:49:30Z</time>
      </trkpt>
      <trkpt lat="48.5116" lon="1.82489">
        <ele>152.51</ele>
        <time>2020-07-06T10:49:37Z</time>
      </trkpt>
      <trkpt lat="48.51156" lon="1.82476">
        <ele>152.51</ele>
        <time>2020-07-06T10:49:43Z</time>
      </trkpt>
      <trkpt lat="48.51153" lon="1.82462">
        <ele>152.03</ele>
        <time>2020-07-06T10:49:50Z</time>
      </trkpt>
      <trkpt lat="48.5115" lon="1.82448">
        <ele>152.51</ele>
        <time>2020-07-06T10:49:56Z</time>
      </trkpt>
      <trkpt lat="48.51147" lon="1.82435">
        <ele>151.54</ele>
        <time>2020-07-06T10:50:03Z</time>
      </trkpt>
      <trkpt lat="48.51142" lon="1.8242">
        <ele>151.06</ele>
        <time>2020-07-06T10:50:10Z</time>
      </trkpt>
      <trkpt lat="48.51139" lon="1.82406">
        <ele>151.06</ele>
        <time>2020-07-06T10:50:17Z</time>
      </trkpt>
      <trkpt lat="48.51136" lon="1.82391">
        <ele>151.54</ele>
        <time>2020-07-06T10:50:23Z</time>
      </trkpt>
      <trkpt lat="48.51132" lon="1.82377">
        <ele>151.54</ele>
        <time>2020-07-06T10:50:30Z</time>
      </trkpt>
      <trkpt lat="48.51129" lon="1.82363">
        <ele>151.54</ele>
        <time>2020-07-06T10:50:36Z</time>
      </trkpt>
      <trkpt lat="48.51125" lon="1.82348">
        <ele>151.06</ele>
        <time>2020-07-06T10:50:43Z</time>
      </trkpt>
      <trkpt lat="48.51122" lon="1.82334">
        <ele>150.58</ele>
        <time>2020-07-06T10:50:49Z</time>
      </trkpt>
      <trkpt lat="48.51118" lon="1.82321">
        <ele>151.06</ele>
        <time>2020-07-06T10:50:56Z</time>
      </trkpt>
      <trkpt lat="48.51114" lon="1.82306">
        <ele>151.06</ele>
        <time>2020-07-06T10:51:03Z</time>
      </trkpt>
      <trkpt lat="48.5111" lon="1.82292">
        <ele>150.58</ele>
        <time>2020-07-06T10:51:10Z</time>
      </trkpt>
      <trkpt lat="48.51107" lon="1.82279">
        <ele>150.58</ele>
        <time>2020-07-06T10:51:16Z</time>
      </trkpt>
      <trkpt lat="48.51103" lon="1.82265">
        <ele>150.58</ele>
        <time>2020-07-06T10:51:23Z</time>
      </trkpt>
      <trkpt lat="48.51099" lon="1.82251">
        <ele>150.58</ele>
        <time>2020-07-06T10:51:30Z</time>
      </trkpt>
      <trkpt lat="48.51096" lon="1.82237">
        <ele>150.1</ele>
        <time>2020-07-06T10:51:36Z</time>
      </trkpt>
      <trkpt lat="48.51093" lon="1.82223">
        <ele>150.1</ele>
        <time>2020-07-06T10:51:42Z</time>
      </trkpt>
      <trkpt lat="48.5109" lon="1.82209">
        <ele>150.1</ele>
        <time>2020-07-06T10:51:49Z</time>
      </trkpt>
      <trkpt lat="48.51086" lon="1.82194">
        <ele>150.1</ele>
        <time>2020-07-06T10:51:56Z</time>
      </trkpt>
      <trkpt lat="48.51082" lon="1.82179">
        <ele>150.58</ele>
        <time>2020-07-06T10:52:03Z</time>
      </trkpt>
      <trkpt lat="48.51078" lon="1.82166">
        <ele>150.1</ele>
        <time>2020-07-06T10:52:09Z</time>
      </trkpt>
      <trkpt lat="48.51076" lon="1.82151">
        <ele>150.1</ele>
        <time>2020-07-06T10:52:15Z</time>
      </trkpt>
      <trkpt lat="48.51073" lon="1.82138">
        <ele>150.1</ele>
        <time>2020-07-06T10:52:21Z</time>
      </trkpt>
      <trkpt lat="48.5107" lon="1.82125">
        <ele>150.1</ele>
        <time>2020-07-06T10:52:27Z</time>
      </trkpt>
      <trkpt lat="48.51066" lon="1.82111">
        <ele>149.62</ele>
        <time>2020-07-06T10:52:34Z</time>
      </trkpt>
      <trkpt lat="48.51062" lon="1.82098">
        <ele>149.62</ele>
        <time>2020-07-06T10:52:40Z</time>
      </trkpt>
      <trkpt lat="48.5106" lon="1.82085">
        <ele>150.1</ele>
        <time>2020-07-06T10:52:46Z</time>
      </trkpt>
      <trkpt lat="48.51056" lon="1.8207">
        <ele>150.1</ele>
        <time>2020-07-06T10:52:53Z</time>
      </trkpt>
      <trkpt lat="48.51053" lon="1.82057">
        <ele>149.62</ele>
        <time>2020-07-06T10:52:59Z</time>
      </trkpt>
      <trkpt lat="48.5105" lon="1.82043">
        <ele>149.62</ele>
        <time>2020-07-06T10:53:06Z</time>
      </trkpt>
      <trkpt lat="48.51046" lon="1.82028">
        <ele>149.62</ele>
        <time>2020-07-06T10:53:13Z</time>
      </trkpt>
      <trkpt lat="48.51044" lon="1.82015">
        <ele>149.14</ele>
        <time>2020-07-06T10:53:19Z</time>
      </trkpt>
      <trkpt lat="48.51039" lon="1.82001">
        <ele>149.62</ele>
        <time>2020-07-06T10:53:26Z</time>
      </trkpt>
      <trkpt lat="48.51036" lon="1.81986">
        <ele>149.62</ele>
        <time>2020-07-06T10:53:33Z</time>
      </trkpt>
      <trkpt lat="48.51032" lon="1.81974">
        <ele>149.14</ele>
        <time>2020-07-06T10:53:39Z</time>
      </trkpt>
      <trkpt lat="48.5103" lon="1.8196">
        <ele>148.66</ele>
        <time>2020-07-06T10:53:45Z</time>
      </trkpt>
      <trkpt lat="48.51026" lon="1.81945">
        <ele>148.18</ele>
        <time>2020-07-06T10:53:52Z</time>
      </trkpt>
      <trkpt lat="48.51023" lon="1.81931">
        <ele>148.66</ele>
        <time>2020-07-06T10:53:59Z</time>
      </trkpt>
      <trkpt lat="48.51019" lon="1.81918">
        <ele>148.18</ele>
        <time>2020-07-06T10:54:05Z</time>
      </trkpt>
      <trkpt lat="48.51015" lon="1.81904">
        <ele>148.18</ele>
        <time>2020-07-06T10:54:11Z</time>
      </trkpt>
      <trkpt lat="48.51012" lon="1.8189">
        <ele>148.18</ele>
        <time>2020-07-06T10:54:18Z</time>
      </trkpt>
      <trkpt lat="48.51007" lon="1.81876">
        <ele>147.7</ele>
        <time>2020-07-06T10:54:25Z</time>
      </trkpt>
      <trkpt lat="48.51003" lon="1.81863">
        <ele>148.66</ele>
        <time>2020-07-06T10:54:31Z</time>
      </trkpt>
      <trkpt lat="48.50998" lon="1.8185">
        <ele>149.14</ele>
        <time>2020-07-06T10:54:38Z</time>
      </trkpt>
      <trkpt lat="48.50992" lon="1.81837">
        <ele>148.66</ele>
        <time>2020-07-06T10:54:45Z</time>
      </trkpt>
      <trkpt lat="48.50986" lon="1.81826">
        <ele>148.66</ele>
        <time>2020-07-06T10:54:52Z</time>
      </trkpt>
      <trkpt lat="48.50981" lon="1.81814">
        <ele>148.66</ele>
        <time>2020-07-06T10:54:58Z</time>
      </trkpt>
      <trkpt lat="48.50975" lon="1.81804">
        <ele>148.66</ele>
        <time>2020-07-06T10:55:05Z</time>
      </trkpt>
      <trkpt lat="48.50968" lon="1.81794">
        <ele>148.66</ele>
        <time>2020-07-06T10:55:13Z</time>
      </trkpt>
      <trkpt lat="48.5096" lon="1.81783">
        <ele>148.18</ele>
        <time>2020-07-06T10:55:19Z</time>
      </trkpt>
      <trkpt lat="48.50953" lon="1.81773">
        <ele>148.66</ele>
        <time>2020-07-06T10:55:26Z</time>
      </trkpt>
      <trkpt lat="48.50946" lon="1.81762">
        <ele>148.66</ele>
        <time>2020-07-06T10:55:32Z</time>
      </trkpt>
      <trkpt lat="48.5094" lon="1.81751">
        <ele>148.66</ele>
        <time>2020-07-06T10:55:39Z</time>
      </trkpt>
      <trkpt lat="48.5094" lon="1.81738">
        <ele>147.7</ele>
        <time>2020-07-06T10:55:48Z</time>
      </trkpt>
      <trkpt lat="48.5094" lon="1.81724">
        <ele>147.7</ele>
        <time>2020-07-06T10:55:55Z</time>
      </trkpt>
      <trkpt lat="48.50941" lon="1.81707">
        <ele>148.66</ele>
        <time>2020-07-06T10:56:02Z</time>
      </trkpt>
      <trkpt lat="48.50942" lon="1.81692">
        <ele>149.14</ele>
        <time>2020-07-06T10:56:09Z</time>
      </trkpt>
      <trkpt lat="48.50942" lon="1.81676">
        <ele>148.66</ele>
        <time>2020-07-06T10:56:16Z</time>
      </trkpt>
      <trkpt lat="48.50942" lon="1.81662">
        <ele>149.14</ele>
        <time>2020-07-06T10:56:23Z</time>
      </trkpt>
      <trkpt lat="48.50942" lon="1.81646">
        <ele>149.14</ele>
        <time>2020-07-06T10:56:30Z</time>
      </trkpt>
      <trkpt lat="48.50943" lon="1.81631">
        <ele>149.14</ele>
        <time>2020-07-06T10:56:37Z</time>
      </trkpt>
      <trkpt lat="48.50943" lon="1.81617">
        <ele>149.14</ele>
        <time>2020-07-06T10:56:44Z</time>
      </trkpt>
      <trkpt lat="48.50944" lon="1.81602">
        <ele>149.14</ele>
        <time>2020-07-06T10:56:51Z</time>
      </trkpt>
      <trkpt lat="48.50944" lon="1.81587">
        <ele>149.62</ele>
        <time>2020-07-06T10:56:58Z</time>
      </trkpt>
      <trkpt lat="48.50945" lon="1.81571">
        <ele>149.62</ele>
        <time>2020-07-06T10:57:05Z</time>
      </trkpt>
      <trkpt lat="48.50946" lon="1.81556">
        <ele>149.62</ele>
        <time>2020-07-06T10:57:12Z</time>
      </trkpt>
      <trkpt lat="48.50946" lon="1.81541">
        <ele>149.14</ele>
        <time>2020-07-06T10:57:19Z</time>
      </trkpt>
      <trkpt lat="48.50946" lon="1.81526">
        <ele>149.62</ele>
        <time>2020-07-06T10:57:26Z</time>
      </trkpt>
      <trkpt lat="48.50947" lon="1.81511">
        <ele>149.62</ele>
        <time>2020-07-06T10:57:33Z</time>
      </trkpt>
      <trkpt lat="48.50947" lon="1.81497">
        <ele>149.62</ele>
        <time>2020-07-06T10:57:40Z</time>
      </trkpt>
      <trkpt lat="48.50948" lon="1.81482">
        <ele>150.1</ele>
        <time>2020-07-06T10:57:47Z</time>
      </trkpt>
      <trkpt lat="48.50948" lon="1.81467">
        <ele>150.58</ele>
        <time>2020-07-06T10:57:54Z</time>
      </trkpt>
      <trkpt lat="48.50948" lon="1.81451">
        <ele>150.1</ele>
        <time>2020-07-06T10:58:02Z</time>
      </trkpt>
      <trkpt lat="48.5095" lon="1.81436">
        <ele>150.1</ele>
        <time>2020-07-06T10:58:09Z</time>
      </trkpt>
      <trkpt lat="48.5095" lon="1.81422">
        <ele>149.62</ele>
        <time>2020-07-06T10:58:15Z</time>
      </trkpt>
      <trkpt lat="48.50951" lon="1.81408">
        <ele>149.62</ele>
        <time>2020-07-06T10:58:22Z</time>
      </trkpt>
      <trkpt lat="48.50951" lon="1.81392">
        <ele>149.62</ele>
        <time>2020-07-06T10:58:29Z</time>
      </trkpt>
      <trkpt lat="48.50951" lon="1.81377">
        <ele>150.1</ele>
        <time>2020-07-06T10:58:36Z</time>
      </trkpt>
      <trkpt lat="48.50951" lon="1.81362">
        <ele>149.62</ele>
        <time>2020-07-06T10:58:43Z</time>
      </trkpt>
      <trkpt lat="48.50951" lon="1.81347">
        <ele>150.58</ele>
        <time>2020-07-06T10:58:50Z</time>
      </trkpt>
      <trkpt lat="48.50951" lon="1.81332">
        <ele>150.58</ele>
        <time>2020-07-06T10:58:58Z</time>
      </trkpt>
      <trkpt lat="48.50952" lon="1.81317">
        <ele>151.06</ele>
        <time>2020-07-06T10:59:06Z</time>
      </trkpt>
      <trkpt lat="48.50953" lon="1.81302">
        <ele>151.06</ele>
        <time>2020-07-06T10:59:15Z</time>
      </trkpt>
      <trkpt lat="48.50954" lon="1.81287">
        <ele>150.58</ele>
        <time>2020-07-06T10:59:23Z</time>
      </trkpt>
      <trkpt lat="48.50954" lon="1.81272">
        <ele>150.1</ele>
        <time>2020-07-06T10:59:32Z</time>
      </trkpt>
      <trkpt lat="48.50956" lon="1.81257">
        <ele>150.1</ele>
        <time>2020-07-06T10:59:40Z</time>
      </trkpt>
      <trkpt lat="48.50957" lon="1.81243">
        <ele>148.66</ele>
        <time>2020-07-06T10:59:49Z</time>
      </trkpt>
      <trkpt lat="48.50959" lon="1.81226">
        <ele>148.66</ele>
        <time>2020-07-06T10:59:58Z</time>
      </trkpt>
      <trkpt lat="48.5096" lon="1.81215">
        <ele>148.66</ele>
        <time>2020-07-06T11:00:11Z</time>
      </trkpt>
      <trkpt lat="48.50947" lon="1.81218">
        <ele>147.7</ele>
        <time>2020-07-06T11:00:24Z</time>
      </trkpt>
      <trkpt lat="48.50945" lon="1.81219">
        <ele>147.7</ele>
        <time>2020-07-06T11:02:11Z</time>
      </trkpt>
      <trkpt lat="48.50943" lon="1.8122">
        <ele>147.22</ele>
        <time>2020-07-06T11:04:12Z</time>
      </trkpt>
      <trkpt lat="48.5095" lon="1.81218">
        <ele>149.62</ele>
        <time>2020-07-06T11:12:22Z</time>
      </trkpt>
      <trkpt lat="48.50944" lon="1.81222">
        <ele>150.58</ele>
        <time>2020-07-06T11:20:00Z</time>
      </trkpt>
      <trkpt lat="48.50946" lon="1.81219">
        <ele>151.54</ele>
        <time>2020-07-06T11:24:30Z</time>
      </trkpt>
      <trkpt lat="48.50941" lon="1.81219">
        <ele>152.99</ele>
        <time>2020-07-06T11:30:32Z</time>
      </trkpt>
      <trkpt lat="48.50931" lon="1.81236">
        <ele>154.43</ele>
        <time>2020-07-06T11:30:53Z</time>
      </trkpt>
      <trkpt lat="48.50928" lon="1.81241">
        <ele>153.47</ele>
        <time>2020-07-06T11:31:35Z</time>
      </trkpt>
      <trkpt lat="48.50935" lon="1.8122">
        <ele>152.51</ele>
        <time>2020-07-06T11:31:50Z</time>
      </trkpt>
      <trkpt lat="48.50936" lon="1.81217">
        <ele>152.03</ele>
        <time>2020-07-06T11:32:06Z</time>
      </trkpt>
      <trkpt lat="48.50936" lon="1.81222">
        <ele>152.51</ele>
        <time>2020-07-06T11:32:30Z</time>
      </trkpt>
      <trkpt lat="48.5095" lon="1.81218">
        <ele>152.51</ele>
        <time>2020-07-06T11:33:04Z</time>
      </trkpt>
      <trkpt lat="48.50958" lon="1.81206">
        <ele>152.99</ele>
        <time>2020-07-06T11:33:14Z</time>
      </trkpt>
      <trkpt lat="48.50958" lon="1.81192">
        <ele>152.51</ele>
        <time>2020-07-06T11:33:23Z</time>
      </trkpt>
      <trkpt lat="48.50957" lon="1.81176">
        <ele>152.51</ele>
        <time>2020-07-06T11:33:36Z</time>
      </trkpt>
      <trkpt lat="48.50955" lon="1.81165">
        <ele>152.51</ele>
        <time>2020-07-06T11:34:00Z</time>
      </trkpt>
      <trkpt lat="48.50956" lon="1.81157">
        <ele>152.51</ele>
        <time>2020-07-06T11:34:51Z</time>
      </trkpt>
      <trkpt lat="48.50954" lon="1.81143">
        <ele>153.47</ele>
        <time>2020-07-06T11:34:58Z</time>
      </trkpt>
      <trkpt lat="48.50953" lon="1.81129">
        <ele>152.99</ele>
        <time>2020-07-06T11:35:06Z</time>
      </trkpt>
      <trkpt lat="48.5095" lon="1.81115">
        <ele>153.47</ele>
        <time>2020-07-06T11:35:13Z</time>
      </trkpt>
      <trkpt lat="48.5095" lon="1.81101">
        <ele>153.47</ele>
        <time>2020-07-06T11:35:24Z</time>
      </trkpt>
      <trkpt lat="48.5095" lon="1.81085">
        <ele>154.43</ele>
        <time>2020-07-06T11:35:33Z</time>
      </trkpt>
      <trkpt lat="48.50948" lon="1.81073">
        <ele>153.95</ele>
        <time>2020-07-06T11:35:42Z</time>
      </trkpt>
      <trkpt lat="48.50949" lon="1.81059">
        <ele>154.43</ele>
        <time>2020-07-06T11:35:49Z</time>
      </trkpt>
      <trkpt lat="48.50948" lon="1.81045">
        <ele>154.43</ele>
        <time>2020-07-06T11:35:56Z</time>
      </trkpt>
      <trkpt lat="48.50947" lon="1.81031">
        <ele>153.95</ele>
        <time>2020-07-06T11:36:14Z</time>
      </trkpt>
      <trkpt lat="48.50947" lon="1.81017">
        <ele>153.95</ele>
        <time>2020-07-06T11:36:21Z</time>
      </trkpt>
      <trkpt lat="48.50945" lon="1.81003">
        <ele>154.43</ele>
        <time>2020-07-06T11:36:29Z</time>
      </trkpt>
      <trkpt lat="48.50945" lon="1.80988">
        <ele>153.95</ele>
        <time>2020-07-06T11:36:38Z</time>
      </trkpt>
      <trkpt lat="48.50945" lon="1.80972">
        <ele>155.39</ele>
        <time>2020-07-06T11:36:46Z</time>
      </trkpt>
      <trkpt lat="48.50945" lon="1.80959">
        <ele>154.43</ele>
        <time>2020-07-06T11:36:53Z</time>
      </trkpt>
      <trkpt lat="48.50945" lon="1.80945">
        <ele>155.87</ele>
        <time>2020-07-06T11:37:02Z</time>
      </trkpt>
      <trkpt lat="48.50945" lon="1.80931">
        <ele>155.87</ele>
        <time>2020-07-06T11:37:10Z</time>
      </trkpt>
      <trkpt lat="48.50945" lon="1.80915">
        <ele>156.35</ele>
        <time>2020-07-06T11:37:18Z</time>
      </trkpt>
      <trkpt lat="48.50946" lon="1.809">
        <ele>154.91</ele>
        <time>2020-07-06T11:37:26Z</time>
      </trkpt>
      <trkpt lat="48.50945" lon="1.80885">
        <ele>155.39</ele>
        <time>2020-07-06T11:37:33Z</time>
      </trkpt>
      <trkpt lat="48.50947" lon="1.8087">
        <ele>155.87</ele>
        <time>2020-07-06T11:37:40Z</time>
      </trkpt>
      <trkpt lat="48.50946" lon="1.80856">
        <ele>155.87</ele>
        <time>2020-07-06T11:37:46Z</time>
      </trkpt>
      <trkpt lat="48.50948" lon="1.80841">
        <ele>155.39</ele>
        <time>2020-07-06T11:37:52Z</time>
      </trkpt>
      <trkpt lat="48.50951" lon="1.80827">
        <ele>154.91</ele>
        <time>2020-07-06T11:38:00Z</time>
      </trkpt>
      <trkpt lat="48.50952" lon="1.80814">
        <ele>154.91</ele>
        <time>2020-07-06T11:38:06Z</time>
      </trkpt>
      <trkpt lat="48.50954" lon="1.80801">
        <ele>154.91</ele>
        <time>2020-07-06T11:38:12Z</time>
      </trkpt>
      <trkpt lat="48.50956" lon="1.80786">
        <ele>154.43</ele>
        <time>2020-07-06T11:38:19Z</time>
      </trkpt>
      <trkpt lat="48.50959" lon="1.80769">
        <ele>154.91</ele>
        <time>2020-07-06T11:38:27Z</time>
      </trkpt>
      <trkpt lat="48.50963" lon="1.80757">
        <ele>155.39</ele>
        <time>2020-07-06T11:38:34Z</time>
      </trkpt>
      <trkpt lat="48.50967" lon="1.80743">
        <ele>154.43</ele>
        <time>2020-07-06T11:38:42Z</time>
      </trkpt>
      <trkpt lat="48.50973" lon="1.80731">
        <ele>154.91</ele>
        <time>2020-07-06T11:38:49Z</time>
      </trkpt>
      <trkpt lat="48.50979" lon="1.80716">
        <ele>154.91</ele>
        <time>2020-07-06T11:38:57Z</time>
      </trkpt>
      <trkpt lat="48.50985" lon="1.80702">
        <ele>154.43</ele>
        <time>2020-07-06T11:39:05Z</time>
      </trkpt>
      <trkpt lat="48.50989" lon="1.80687">
        <ele>154.91</ele>
        <time>2020-07-06T11:39:13Z</time>
      </trkpt>
      <trkpt lat="48.50994" lon="1.80674">
        <ele>154.91</ele>
        <time>2020-07-06T11:39:21Z</time>
      </trkpt>
      <trkpt lat="48.51001" lon="1.8066">
        <ele>154.91</ele>
        <time>2020-07-06T11:39:29Z</time>
      </trkpt>
      <trkpt lat="48.51005" lon="1.80646">
        <ele>154.91</ele>
        <time>2020-07-06T11:39:35Z</time>
      </trkpt>
      <trkpt lat="48.51011" lon="1.80633">
        <ele>154.91</ele>
        <time>2020-07-06T11:39:42Z</time>
      </trkpt>
      <trkpt lat="48.51018" lon="1.80621">
        <ele>154.91</ele>
        <time>2020-07-06T11:39:49Z</time>
      </trkpt>
      <trkpt lat="48.51025" lon="1.80607">
        <ele>154.91</ele>
        <time>2020-07-06T11:39:58Z</time>
      </trkpt>
      <trkpt lat="48.51029" lon="1.80596">
        <ele>154.91</ele>
        <time>2020-07-06T11:40:09Z</time>
      </trkpt>
      <trkpt lat="48.51035" lon="1.80584">
        <ele>155.39</ele>
        <time>2020-07-06T11:40:19Z</time>
      </trkpt>
      <trkpt lat="48.5104" lon="1.8057">
        <ele>154.91</ele>
        <time>2020-07-06T11:40:27Z</time>
      </trkpt>
      <trkpt lat="48.5105" lon="1.8056">
        <ele>154.43</ele>
        <time>2020-07-06T11:40:38Z</time>
      </trkpt>
      <trkpt lat="48.51057" lon="1.80548">
        <ele>153.95</ele>
        <time>2020-07-06T11:40:47Z</time>
      </trkpt>
      <trkpt lat="48.51064" lon="1.80536">
        <ele>153.95</ele>
        <time>2020-07-06T11:40:56Z</time>
      </trkpt>
      <trkpt lat="48.51072" lon="1.80527">
        <ele>152.99</ele>
        <time>2020-07-06T11:41:03Z</time>
      </trkpt>
      <trkpt lat="48.51081" lon="1.80519">
        <ele>153.95</ele>
        <time>2020-07-06T11:41:11Z</time>
      </trkpt>
      <trkpt lat="48.51089" lon="1.8051">
        <ele>152.99</ele>
        <time>2020-07-06T11:41:21Z</time>
      </trkpt>
      <trkpt lat="48.51097" lon="1.80499">
        <ele>153.47</ele>
        <time>2020-07-06T11:41:29Z</time>
      </trkpt>
      <trkpt lat="48.51104" lon="1.80487">
        <ele>152.99</ele>
        <time>2020-07-06T11:41:37Z</time>
      </trkpt>
      <trkpt lat="48.51111" lon="1.80478">
        <ele>154.43</ele>
        <time>2020-07-06T11:41:44Z</time>
      </trkpt>
      <trkpt lat="48.51118" lon="1.80469">
        <ele>153.95</ele>
        <time>2020-07-06T11:41:51Z</time>
      </trkpt>
      <trkpt lat="48.51126" lon="1.80459">
        <ele>153.95</ele>
        <time>2020-07-06T11:41:58Z</time>
      </trkpt>
      <trkpt lat="48.51134" lon="1.80451">
        <ele>154.91</ele>
        <time>2020-07-06T11:42:05Z</time>
      </trkpt>
      <trkpt lat="48.51142" lon="1.80439">
        <ele>154.91</ele>
        <time>2020-07-06T11:42:12Z</time>
      </trkpt>
      <trkpt lat="48.51149" lon="1.80429">
        <ele>153.95</ele>
        <time>2020-07-06T11:42:19Z</time>
      </trkpt>
      <trkpt lat="48.51155" lon="1.80416">
        <ele>154.91</ele>
        <time>2020-07-06T11:42:27Z</time>
      </trkpt>
      <trkpt lat="48.51164" lon="1.80405">
        <ele>153.95</ele>
        <time>2020-07-06T11:42:34Z</time>
      </trkpt>
      <trkpt lat="48.51165" lon="1.80399">
        <ele>153.95</ele>
        <time>2020-07-06T11:42:47Z</time>
      </trkpt>
      <trkpt lat="48.51171" lon="1.80387">
        <ele>153.95</ele>
        <time>2020-07-06T11:42:54Z</time>
      </trkpt>
      <trkpt lat="48.51178" lon="1.80374">
        <ele>153.47</ele>
        <time>2020-07-06T11:43:03Z</time>
      </trkpt>
      <trkpt lat="48.51179" lon="1.8036">
        <ele>153.47</ele>
        <time>2020-07-06T11:43:18Z</time>
      </trkpt>
      <trkpt lat="48.51182" lon="1.80342">
        <ele>152.51</ele>
        <time>2020-07-06T11:43:27Z</time>
      </trkpt>
      <trkpt lat="48.51186" lon="1.80325">
        <ele>151.54</ele>
        <time>2020-07-06T11:43:38Z</time>
      </trkpt>
      <trkpt lat="48.5119" lon="1.8031">
        <ele>150.1</ele>
        <time>2020-07-06T11:43:56Z</time>
      </trkpt>
      <trkpt lat="48.51193" lon="1.80288">
        <ele>149.14</ele>
        <time>2020-07-06T11:44:06Z</time>
      </trkpt>
      <trkpt lat="48.51194" lon="1.8026">
        <ele>147.7</ele>
        <time>2020-07-06T11:44:16Z</time>
      </trkpt>
      <trkpt lat="48.51193" lon="1.80239">
        <ele>146.26</ele>
        <time>2020-07-06T11:44:26Z</time>
      </trkpt>
      <trkpt lat="48.51198" lon="1.80212">
        <ele>143.85</ele>
        <time>2020-07-06T11:44:41Z</time>
      </trkpt>
      <trkpt lat="48.51199" lon="1.8019">
        <ele>141.93</ele>
        <time>2020-07-06T11:44:58Z</time>
      </trkpt>
      <trkpt lat="48.512" lon="1.80164">
        <ele>141.93</ele>
        <time>2020-07-06T11:45:09Z</time>
      </trkpt>
      <trkpt lat="48.51203" lon="1.80147">
        <ele>141.45</ele>
        <time>2020-07-06T11:45:18Z</time>
      </trkpt>
      <trkpt lat="48.51209" lon="1.80134">
        <ele>142.41</ele>
        <time>2020-07-06T11:45:26Z</time>
      </trkpt>
      <trkpt lat="48.51213" lon="1.80118">
        <ele>143.85</ele>
        <time>2020-07-06T11:45:36Z</time>
      </trkpt>
      <trkpt lat="48.5121" lon="1.80102">
        <ele>141.93</ele>
        <time>2020-07-06T11:45:44Z</time>
      </trkpt>
      <trkpt lat="48.51208" lon="1.80089">
        <ele>140.97</ele>
        <time>2020-07-06T11:45:51Z</time>
      </trkpt>
      <trkpt lat="48.51205" lon="1.80076">
        <ele>140.01</ele>
        <time>2020-07-06T11:45:58Z</time>
      </trkpt>
      <trkpt lat="48.51202" lon="1.8006">
        <ele>139.05</ele>
        <time>2020-07-06T11:46:06Z</time>
      </trkpt>
      <trkpt lat="48.51201" lon="1.80046">
        <ele>138.09</ele>
        <time>2020-07-06T11:46:13Z</time>
      </trkpt>
      <trkpt lat="48.51198" lon="1.80032">
        <ele>138.09</ele>
        <time>2020-07-06T11:46:20Z</time>
      </trkpt>
      <trkpt lat="48.51197" lon="1.80017">
        <ele>138.57</ele>
        <time>2020-07-06T11:46:28Z</time>
      </trkpt>
      <trkpt lat="48.51201" lon="1.80016">
        <ele>137.13</ele>
        <time>2020-07-06T11:46:58Z</time>
      </trkpt>
      <trkpt lat="48.51207" lon="1.80027">
        <ele>137.13</ele>
        <time>2020-07-06T11:47:09Z</time>
      </trkpt>
      <trkpt lat="48.51226" lon="1.80005">
        <ele>137.13</ele>
        <time>2020-07-06T11:47:30Z</time>
      </trkpt>
      <trkpt lat="48.51228" lon="1.80017">
        <ele>137.13</ele>
        <time>2020-07-06T11:47:41Z</time>
      </trkpt>
      <trkpt lat="48.51231" lon="1.80032">
        <ele>140.01</ele>
        <time>2020-07-06T11:47:48Z</time>
      </trkpt>
      <trkpt lat="48.51231" lon="1.80048">
        <ele>140.01</ele>
        <time>2020-07-06T11:47:57Z</time>
      </trkpt>
      <trkpt lat="48.51234" lon="1.80065">
        <ele>140.01</ele>
        <time>2020-07-06T11:48:06Z</time>
      </trkpt>
      <trkpt lat="48.51237" lon="1.80085">
        <ele>141.93</ele>
        <time>2020-07-06T11:48:17Z</time>
      </trkpt>
      <trkpt lat="48.5124" lon="1.80101">
        <ele>143.37</ele>
        <time>2020-07-06T11:48:26Z</time>
      </trkpt>
      <trkpt lat="48.51243" lon="1.80116">
        <ele>145.78</ele>
        <time>2020-07-06T11:48:36Z</time>
      </trkpt>
      <trkpt lat="48.51247" lon="1.80129">
        <ele>147.22</ele>
        <time>2020-07-06T11:48:46Z</time>
      </trkpt>
      <trkpt lat="48.51252" lon="1.80144">
        <ele>148.18</ele>
        <time>2020-07-06T11:48:55Z</time>
      </trkpt>
      <trkpt lat="48.5126" lon="1.80151">
        <ele>149.62</ele>
        <time>2020-07-06T11:49:04Z</time>
      </trkpt>
      <trkpt lat="48.51269" lon="1.80144">
        <ele>149.14</ele>
        <time>2020-07-06T11:49:14Z</time>
      </trkpt>
      <trkpt lat="48.51275" lon="1.80133">
        <ele>149.14</ele>
        <time>2020-07-06T11:49:23Z</time>
      </trkpt>
      <trkpt lat="48.51284" lon="1.80122">
        <ele>150.1</ele>
        <time>2020-07-06T11:49:33Z</time>
      </trkpt>
      <trkpt lat="48.51291" lon="1.80111">
        <ele>149.14</ele>
        <time>2020-07-06T11:49:41Z</time>
      </trkpt>
      <trkpt lat="48.513" lon="1.80099">
        <ele>149.14</ele>
        <time>2020-07-06T11:49:50Z</time>
      </trkpt>
      <trkpt lat="48.51308" lon="1.80086">
        <ele>148.66</ele>
        <time>2020-07-06T11:49:58Z</time>
      </trkpt>
      <trkpt lat="48.51316" lon="1.80074">
        <ele>148.18</ele>
        <time>2020-07-06T11:50:06Z</time>
      </trkpt>
      <trkpt lat="48.51322" lon="1.80062">
        <ele>148.66</ele>
        <time>2020-07-06T11:50:13Z</time>
      </trkpt>
      <trkpt lat="48.51327" lon="1.8005">
        <ele>148.66</ele>
        <time>2020-07-06T11:50:20Z</time>
      </trkpt>
      <trkpt lat="48.51334" lon="1.80036">
        <ele>148.18</ele>
        <time>2020-07-06T11:50:30Z</time>
      </trkpt>
      <trkpt lat="48.5134" lon="1.80023">
        <ele>148.66</ele>
        <time>2020-07-06T11:50:40Z</time>
      </trkpt>
      <trkpt lat="48.51349" lon="1.80011">
        <ele>148.66</ele>
        <time>2020-07-06T11:50:48Z</time>
      </trkpt>
      <trkpt lat="48.51357" lon="1.79999">
        <ele>148.66</ele>
        <time>2020-07-06T11:50:56Z</time>
      </trkpt>
      <trkpt lat="48.51365" lon="1.79986">
        <ele>149.62</ele>
        <time>2020-07-06T11:51:06Z</time>
      </trkpt>
      <trkpt lat="48.51374" lon="1.79974">
        <ele>150.1</ele>
        <time>2020-07-06T11:51:15Z</time>
      </trkpt>
      <trkpt lat="48.51381" lon="1.79961">
        <ele>151.06</ele>
        <time>2020-07-06T11:51:24Z</time>
      </trkpt>
      <trkpt lat="48.51388" lon="1.79949">
        <ele>151.06</ele>
        <time>2020-07-06T11:51:35Z</time>
      </trkpt>
      <trkpt lat="48.51397" lon="1.7994">
        <ele>151.06</ele>
        <time>2020-07-06T11:51:43Z</time>
      </trkpt>
      <trkpt lat="48.51407" lon="1.79929">
        <ele>151.54</ele>
        <time>2020-07-06T11:51:51Z</time>
      </trkpt>
      <trkpt lat="48.51419" lon="1.7992">
        <ele>151.54</ele>
        <time>2020-07-06T11:51:58Z</time>
      </trkpt>
      <trkpt lat="48.51427" lon="1.79907">
        <ele>151.54</ele>
        <time>2020-07-06T11:52:07Z</time>
      </trkpt>
      <trkpt lat="48.51435" lon="1.79895">
        <ele>151.06</ele>
        <time>2020-07-06T11:52:16Z</time>
      </trkpt>
      <trkpt lat="48.51442" lon="1.79882">
        <ele>151.06</ele>
        <time>2020-07-06T11:52:24Z</time>
      </trkpt>
      <trkpt lat="48.51452" lon="1.79871">
        <ele>150.58</ele>
        <time>2020-07-06T11:52:33Z</time>
      </trkpt>
      <trkpt lat="48.51461" lon="1.79857">
        <ele>151.06</ele>
        <time>2020-07-06T11:52:42Z</time>
      </trkpt>
      <trkpt lat="48.51468" lon="1.79846">
        <ele>151.54</ele>
        <time>2020-07-06T11:52:52Z</time>
      </trkpt>
      <trkpt lat="48.51473" lon="1.79838">
        <ele>151.06</ele>
        <time>2020-07-06T11:53:35Z</time>
      </trkpt>
      <trkpt lat="48.51481" lon="1.79829">
        <ele>151.06</ele>
        <time>2020-07-06T11:53:45Z</time>
      </trkpt>
      <trkpt lat="48.51489" lon="1.79819">
        <ele>151.06</ele>
        <time>2020-07-06T11:53:53Z</time>
      </trkpt>
      <trkpt lat="48.51494" lon="1.79811">
        <ele>151.06</ele>
        <time>2020-07-06T11:54:08Z</time>
      </trkpt>
      <trkpt lat="48.51492" lon="1.79797">
        <ele>150.1</ele>
        <time>2020-07-06T11:54:18Z</time>
      </trkpt>
      <trkpt lat="48.51492" lon="1.7978">
        <ele>148.18</ele>
        <time>2020-07-06T11:54:27Z</time>
      </trkpt>
      <trkpt lat="48.5149" lon="1.79764">
        <ele>146.74</ele>
        <time>2020-07-06T11:54:35Z</time>
      </trkpt>
      <trkpt lat="48.51488" lon="1.79749">
        <ele>145.3</ele>
        <time>2020-07-06T11:54:41Z</time>
      </trkpt>
      <trkpt lat="48.51487" lon="1.79736">
        <ele>143.85</ele>
        <time>2020-07-06T11:54:48Z</time>
      </trkpt>
      <trkpt lat="48.51485" lon="1.7972">
        <ele>142.41</ele>
        <time>2020-07-06T11:54:55Z</time>
      </trkpt>
      <trkpt lat="48.51483" lon="1.79707">
        <ele>140.97</ele>
        <time>2020-07-06T11:55:02Z</time>
      </trkpt>
      <trkpt lat="48.5148" lon="1.79692">
        <ele>139.05</ele>
        <time>2020-07-06T11:55:10Z</time>
      </trkpt>
      <trkpt lat="48.51477" lon="1.79679">
        <ele>137.61</ele>
        <time>2020-07-06T11:55:17Z</time>
      </trkpt>
      <trkpt lat="48.51471" lon="1.79666">
        <ele>136.64</ele>
        <time>2020-07-06T11:55:24Z</time>
      </trkpt>
      <trkpt lat="48.51468" lon="1.79652">
        <ele>134.72</ele>
        <time>2020-07-06T11:55:32Z</time>
      </trkpt>
      <trkpt lat="48.51463" lon="1.79638">
        <ele>134.24</ele>
        <time>2020-07-06T11:55:40Z</time>
      </trkpt>
      <trkpt lat="48.51458" lon="1.79621">
        <ele>133.76</ele>
        <time>2020-07-06T11:55:48Z</time>
      </trkpt>
      <trkpt lat="48.51456" lon="1.79608">
        <ele>134.24</ele>
        <time>2020-07-06T11:55:54Z</time>
      </trkpt>
      <trkpt lat="48.51453" lon="1.79592">
        <ele>133.76</ele>
        <time>2020-07-06T11:56:01Z</time>
      </trkpt>
      <trkpt lat="48.51451" lon="1.79579">
        <ele>133.76</ele>
        <time>2020-07-06T11:56:07Z</time>
      </trkpt>
      <trkpt lat="48.5145" lon="1.79565">
        <ele>133.76</ele>
        <time>2020-07-06T11:56:14Z</time>
      </trkpt>
      <trkpt lat="48.51446" lon="1.79549">
        <ele>133.76</ele>
        <time>2020-07-06T11:56:21Z</time>
      </trkpt>
      <trkpt lat="48.51443" lon="1.79535">
        <ele>133.28</ele>
        <time>2020-07-06T11:56:28Z</time>
      </trkpt>
      <trkpt lat="48.51444" lon="1.7952">
        <ele>132.8</ele>
        <time>2020-07-06T11:56:35Z</time>
      </trkpt>
      <trkpt lat="48.51443" lon="1.79504">
        <ele>133.76</ele>
        <time>2020-07-06T11:56:42Z</time>
      </trkpt>
      <trkpt lat="48.51444" lon="1.79488">
        <ele>133.76</ele>
        <time>2020-07-06T11:56:49Z</time>
      </trkpt>
      <trkpt lat="48.51442" lon="1.79474">
        <ele>133.76</ele>
        <time>2020-07-06T11:56:56Z</time>
      </trkpt>
      <trkpt lat="48.51439" lon="1.79458">
        <ele>132.8</ele>
        <time>2020-07-06T11:57:04Z</time>
      </trkpt>
      <trkpt lat="48.51435" lon="1.79443">
        <ele>133.28</ele>
        <time>2020-07-06T11:57:11Z</time>
      </trkpt>
      <trkpt lat="48.51437" lon="1.79427">
        <ele>131.84</ele>
        <time>2020-07-06T11:57:19Z</time>
      </trkpt>
      <trkpt lat="48.51439" lon="1.79411">
        <ele>131.84</ele>
        <time>2020-07-06T11:57:26Z</time>
      </trkpt>
      <trkpt lat="48.51439" lon="1.79395">
        <ele>132.32</ele>
        <time>2020-07-06T11:57:33Z</time>
      </trkpt>
      <trkpt lat="48.51442" lon="1.7938">
        <ele>131.84</ele>
        <time>2020-07-06T11:57:40Z</time>
      </trkpt>
      <trkpt lat="48.51441" lon="1.79365">
        <ele>132.32</ele>
        <time>2020-07-06T11:57:47Z</time>
      </trkpt>
      <trkpt lat="48.51441" lon="1.7935">
        <ele>132.32</ele>
        <time>2020-07-06T11:57:54Z</time>
      </trkpt>
      <trkpt lat="48.5144" lon="1.79335">
        <ele>132.32</ele>
        <time>2020-07-06T11:58:01Z</time>
      </trkpt>
      <trkpt lat="48.51438" lon="1.7932">
        <ele>132.32</ele>
        <time>2020-07-06T11:58:08Z</time>
      </trkpt>
      <trkpt lat="48.51435" lon="1.79304">
        <ele>133.28</ele>
        <time>2020-07-06T11:58:16Z</time>
      </trkpt>
      <trkpt lat="48.51433" lon="1.79288">
        <ele>133.76</ele>
        <time>2020-07-06T11:58:23Z</time>
      </trkpt>
      <trkpt lat="48.5143" lon="1.79274">
        <ele>134.24</ele>
        <time>2020-07-06T11:58:30Z</time>
      </trkpt>
      <trkpt lat="48.51428" lon="1.7926">
        <ele>135.2</ele>
        <time>2020-07-06T11:58:38Z</time>
      </trkpt>
      <trkpt lat="48.51425" lon="1.79244">
        <ele>135.2</ele>
        <time>2020-07-06T11:58:46Z</time>
      </trkpt>
      <trkpt lat="48.51423" lon="1.7923">
        <ele>135.2</ele>
        <time>2020-07-06T11:58:55Z</time>
      </trkpt>
      <trkpt lat="48.51426" lon="1.79215">
        <ele>134.72</ele>
        <time>2020-07-06T11:59:04Z</time>
      </trkpt>
      <trkpt lat="48.51431" lon="1.79201">
        <ele>133.76</ele>
        <time>2020-07-06T11:59:11Z</time>
      </trkpt>
      <trkpt lat="48.51439" lon="1.79195">
        <ele>133.28</ele>
        <time>2020-07-06T11:59:18Z</time>
      </trkpt>
      <trkpt lat="48.51451" lon="1.79191">
        <ele>132.32</ele>
        <time>2020-07-06T11:59:26Z</time>
      </trkpt>
      <trkpt lat="48.5146" lon="1.79186">
        <ele>132.32</ele>
        <time>2020-07-06T11:59:33Z</time>
      </trkpt>
      <trkpt lat="48.51471" lon="1.79186">
        <ele>131.84</ele>
        <time>2020-07-06T11:59:42Z</time>
      </trkpt>
      <trkpt lat="48.51481" lon="1.79178">
        <ele>131.84</ele>
        <time>2020-07-06T11:59:52Z</time>
      </trkpt>
      <trkpt lat="48.51483" lon="1.79162">
        <ele>132.32</ele>
        <time>2020-07-06T12:00:23Z</time>
      </trkpt>
      <trkpt lat="48.51487" lon="1.79145">
        <ele>132.32</ele>
        <time>2020-07-06T12:00:33Z</time>
      </trkpt>
      <trkpt lat="48.51492" lon="1.79139">
        <ele>132.32</ele>
        <time>2020-07-06T12:01:07Z</time>
      </trkpt>
      <trkpt lat="48.51493" lon="1.79147">
        <ele>131.36</ele>
        <time>2020-07-06T12:02:06Z</time>
      </trkpt>
      <trkpt lat="48.51486" lon="1.79131">
        <ele>131.36</ele>
        <time>2020-07-06T12:02:25Z</time>
      </trkpt>
      <trkpt lat="48.51484" lon="1.79112">
        <ele>131.84</ele>
        <time>2020-07-06T12:02:34Z</time>
      </trkpt>
      <trkpt lat="48.5148" lon="1.79097">
        <ele>131.36</ele>
        <time>2020-07-06T12:02:41Z</time>
      </trkpt>
      <trkpt lat="48.5148" lon="1.7908">
        <ele>130.88</ele>
        <time>2020-07-06T12:02:48Z</time>
      </trkpt>
      <trkpt lat="48.51477" lon="1.79067">
        <ele>130.88</ele>
        <time>2020-07-06T12:02:55Z</time>
      </trkpt>
      <trkpt lat="48.51481" lon="1.79053">
        <ele>130.88</ele>
        <time>2020-07-06T12:03:04Z</time>
      </trkpt>
      <trkpt lat="48.51484" lon="1.79037">
        <ele>130.4</ele>
        <time>2020-07-06T12:03:11Z</time>
      </trkpt>
      <trkpt lat="48.51483" lon="1.79026">
        <ele>131.36</ele>
        <time>2020-07-06T12:03:23Z</time>
      </trkpt>
      <trkpt lat="48.51488" lon="1.79011">
        <ele>129.43</ele>
        <time>2020-07-06T12:03:33Z</time>
      </trkpt>
      <trkpt lat="48.51489" lon="1.78995">
        <ele>129.92</ele>
        <time>2020-07-06T12:03:41Z</time>
      </trkpt>
      <trkpt lat="48.5149" lon="1.7898">
        <ele>130.88</ele>
        <time>2020-07-06T12:03:48Z</time>
      </trkpt>
      <trkpt lat="48.51492" lon="1.78965">
        <ele>129.92</ele>
        <time>2020-07-06T12:03:55Z</time>
      </trkpt>
      <trkpt lat="48.51496" lon="1.78952">
        <ele>130.88</ele>
        <time>2020-07-06T12:04:01Z</time>
      </trkpt>
      <trkpt lat="48.51499" lon="1.78938">
        <ele>129.92</ele>
        <time>2020-07-06T12:04:08Z</time>
      </trkpt>
      <trkpt lat="48.51504" lon="1.78925">
        <ele>129.92</ele>
        <time>2020-07-06T12:04:16Z</time>
      </trkpt>
      <trkpt lat="48.51509" lon="1.78911">
        <ele>130.88</ele>
        <time>2020-07-06T12:04:26Z</time>
      </trkpt>
      <trkpt lat="48.5151" lon="1.78902">
        <ele>130.88</ele>
        <time>2020-07-06T12:05:08Z</time>
      </trkpt>
      <trkpt lat="48.51513" lon="1.78902">
        <ele>130.88</ele>
        <time>2020-07-06T12:05:53Z</time>
      </trkpt>
      <trkpt lat="48.5151" lon="1.78902">
        <ele>130.4</ele>
        <time>2020-07-06T12:06:09Z</time>
      </trkpt>
      <trkpt lat="48.51516" lon="1.78909">
        <ele>128.95</ele>
        <time>2020-07-06T12:06:32Z</time>
      </trkpt>
      <trkpt lat="48.51516" lon="1.78904">
        <ele>129.43</ele>
        <time>2020-07-06T12:08:01Z</time>
      </trkpt>
      <trkpt lat="48.51517" lon="1.789">
        <ele>129.92</ele>
        <time>2020-07-06T12:08:20Z</time>
      </trkpt>
      <trkpt lat="48.51521" lon="1.78888">
        <ele>129.43</ele>
        <time>2020-07-06T12:08:32Z</time>
      </trkpt>
      <trkpt lat="48.51528" lon="1.78877">
        <ele>129.43</ele>
        <time>2020-07-06T12:08:39Z</time>
      </trkpt>
      <trkpt lat="48.51534" lon="1.78865">
        <ele>129.92</ele>
        <time>2020-07-06T12:08:47Z</time>
      </trkpt>
      <trkpt lat="48.51537" lon="1.78863">
        <ele>129.92</ele>
        <time>2020-07-06T12:09:01Z</time>
      </trkpt>
      <trkpt lat="48.51543" lon="1.78849">
        <ele>130.4</ele>
        <time>2020-07-06T12:09:08Z</time>
      </trkpt>
      <trkpt lat="48.51551" lon="1.78838">
        <ele>129.92</ele>
        <time>2020-07-06T12:09:16Z</time>
      </trkpt>
      <trkpt lat="48.51557" lon="1.78826">
        <ele>129.92</ele>
        <time>2020-07-06T12:09:24Z</time>
      </trkpt>
      <trkpt lat="48.51563" lon="1.78812">
        <ele>129.43</ele>
        <time>2020-07-06T12:09:31Z</time>
      </trkpt>
      <trkpt lat="48.51569" lon="1.788">
        <ele>129.92</ele>
        <time>2020-07-06T12:09:39Z</time>
      </trkpt>
      <trkpt lat="48.51576" lon="1.78787">
        <ele>129.92</ele>
        <time>2020-07-06T12:09:47Z</time>
      </trkpt>
      <trkpt lat="48.51582" lon="1.78774">
        <ele>129.92</ele>
        <time>2020-07-06T12:09:55Z</time>
      </trkpt>
      <trkpt lat="48.51589" lon="1.78763">
        <ele>129.92</ele>
        <time>2020-07-06T12:10:02Z</time>
      </trkpt>
      <trkpt lat="48.51594" lon="1.78746">
        <ele>129.92</ele>
        <time>2020-07-06T12:10:09Z</time>
      </trkpt>
      <trkpt lat="48.51599" lon="1.78733">
        <ele>129.43</ele>
        <time>2020-07-06T12:10:18Z</time>
      </trkpt>
      <trkpt lat="48.51605" lon="1.78722">
        <ele>129.43</ele>
        <time>2020-07-06T12:10:35Z</time>
      </trkpt>
      <trkpt lat="48.51613" lon="1.78708">
        <ele>129.43</ele>
        <time>2020-07-06T12:10:43Z</time>
      </trkpt>
      <trkpt lat="48.5162" lon="1.78697">
        <ele>128.47</ele>
        <time>2020-07-06T12:10:50Z</time>
      </trkpt>
      <trkpt lat="48.51626" lon="1.78685">
        <ele>128.47</ele>
        <time>2020-07-06T12:11:02Z</time>
      </trkpt>
      <trkpt lat="48.51622" lon="1.78675">
        <ele>128.47</ele>
        <time>2020-07-06T12:11:14Z</time>
      </trkpt>
      <trkpt lat="48.51647" lon="1.78632">
        <ele>127.99</ele>
        <time>2020-07-06T12:11:26Z</time>
      </trkpt>
      <trkpt lat="48.51656" lon="1.78617">
        <ele>127.51</ele>
        <time>2020-07-06T12:11:33Z</time>
      </trkpt>
      <trkpt lat="48.51666" lon="1.78605">
        <ele>127.51</ele>
        <time>2020-07-06T12:11:42Z</time>
      </trkpt>
      <trkpt lat="48.51676" lon="1.78595">
        <ele>127.51</ele>
        <time>2020-07-06T12:11:50Z</time>
      </trkpt>
      <trkpt lat="48.51683" lon="1.7858">
        <ele>127.51</ele>
        <time>2020-07-06T12:11:58Z</time>
      </trkpt>
      <trkpt lat="48.51691" lon="1.78569">
        <ele>127.51</ele>
        <time>2020-07-06T12:12:07Z</time>
      </trkpt>
      <trkpt lat="48.51703" lon="1.7856">
        <ele>127.03</ele>
        <time>2020-07-06T12:12:15Z</time>
      </trkpt>
      <trkpt lat="48.51712" lon="1.78553">
        <ele>127.03</ele>
        <time>2020-07-06T12:12:21Z</time>
      </trkpt>
      <trkpt lat="48.51721" lon="1.7855">
        <ele>127.51</ele>
        <time>2020-07-06T12:12:27Z</time>
      </trkpt>
      <trkpt lat="48.51731" lon="1.78544">
        <ele>127.51</ele>
        <time>2020-07-06T12:12:35Z</time>
      </trkpt>
      <trkpt lat="48.51741" lon="1.78536">
        <ele>127.03</ele>
        <time>2020-07-06T12:12:43Z</time>
      </trkpt>
      <trkpt lat="48.51753" lon="1.78532">
        <ele>127.03</ele>
        <time>2020-07-06T12:12:54Z</time>
      </trkpt>
      <trkpt lat="48.51764" lon="1.78526">
        <ele>127.03</ele>
        <time>2020-07-06T12:13:03Z</time>
      </trkpt>
      <trkpt lat="48.51773" lon="1.78522">
        <ele>126.55</ele>
        <time>2020-07-06T12:13:11Z</time>
      </trkpt>
      <trkpt lat="48.51782" lon="1.7852">
        <ele>126.55</ele>
        <time>2020-07-06T12:13:21Z</time>
      </trkpt>
      <trkpt lat="48.51797" lon="1.78521">
        <ele>126.55</ele>
        <time>2020-07-06T12:13:30Z</time>
      </trkpt>
      <trkpt lat="48.51815" lon="1.7852">
        <ele>126.55</ele>
        <time>2020-07-06T12:13:39Z</time>
      </trkpt>
      <trkpt lat="48.51825" lon="1.78519">
        <ele>127.03</ele>
        <time>2020-07-06T12:13:46Z</time>
      </trkpt>
      <trkpt lat="48.51828" lon="1.7852">
        <ele>126.55</ele>
        <time>2020-07-06T12:14:45Z</time>
      </trkpt>
      <trkpt lat="48.51836" lon="1.78516">
        <ele>126.07</ele>
        <time>2020-07-06T12:15:08Z</time>
      </trkpt>
      <trkpt lat="48.51847" lon="1.78513">
        <ele>125.59</ele>
        <time>2020-07-06T12:15:16Z</time>
      </trkpt>
      <trkpt lat="48.5186" lon="1.78509">
        <ele>125.59</ele>
        <time>2020-07-06T12:15:26Z</time>
      </trkpt>
      <trkpt lat="48.5187" lon="1.78504">
        <ele>125.11</ele>
        <time>2020-07-06T12:15:33Z</time>
      </trkpt>
      <trkpt lat="48.51882" lon="1.78497">
        <ele>124.63</ele>
        <time>2020-07-06T12:15:42Z</time>
      </trkpt>
      <trkpt lat="48.51892" lon="1.78491">
        <ele>124.63</ele>
        <time>2020-07-06T12:15:49Z</time>
      </trkpt>
      <trkpt lat="48.51902" lon="1.78487">
        <ele>124.63</ele>
        <time>2020-07-06T12:15:58Z</time>
      </trkpt>
      <trkpt lat="48.51914" lon="1.78481">
        <ele>124.63</ele>
        <time>2020-07-06T12:16:06Z</time>
      </trkpt>
      <trkpt lat="48.51924" lon="1.78475">
        <ele>124.15</ele>
        <time>2020-07-06T12:16:15Z</time>
      </trkpt>
      <trkpt lat="48.51937" lon="1.78471">
        <ele>124.15</ele>
        <time>2020-07-06T12:16:25Z</time>
      </trkpt>
      <trkpt lat="48.51948" lon="1.7847">
        <ele>124.15</ele>
        <time>2020-07-06T12:16:33Z</time>
      </trkpt>
      <trkpt lat="48.5196" lon="1.7847">
        <ele>124.15</ele>
        <time>2020-07-06T12:16:41Z</time>
      </trkpt>
      <trkpt lat="48.5197" lon="1.78468">
        <ele>124.15</ele>
        <time>2020-07-06T12:16:48Z</time>
      </trkpt>
      <trkpt lat="48.51982" lon="1.78469">
        <ele>123.67</ele>
        <time>2020-07-06T12:16:58Z</time>
      </trkpt>
      <trkpt lat="48.51993" lon="1.78466">
        <ele>122.71</ele>
        <time>2020-07-06T12:17:05Z</time>
      </trkpt>
      <trkpt lat="48.52004" lon="1.7847">
        <ele>123.19</ele>
        <time>2020-07-06T12:17:12Z</time>
      </trkpt>
      <trkpt lat="48.52015" lon="1.7847">
        <ele>122.71</ele>
        <time>2020-07-06T12:17:20Z</time>
      </trkpt>
      <trkpt lat="48.52025" lon="1.78473">
        <ele>123.19</ele>
        <time>2020-07-06T12:17:28Z</time>
      </trkpt>
      <trkpt lat="48.52036" lon="1.78479">
        <ele>123.19</ele>
        <time>2020-07-06T12:17:38Z</time>
      </trkpt>
      <trkpt lat="48.52048" lon="1.78482">
        <ele>123.19</ele>
        <time>2020-07-06T12:17:47Z</time>
      </trkpt>
      <trkpt lat="48.52057" lon="1.78485">
        <ele>123.19</ele>
        <time>2020-07-06T12:17:55Z</time>
      </trkpt>
      <trkpt lat="48.52071" lon="1.7849">
        <ele>122.71</ele>
        <time>2020-07-06T12:18:04Z</time>
      </trkpt>
      <trkpt lat="48.52082" lon="1.78497">
        <ele>122.71</ele>
        <time>2020-07-06T12:18:10Z</time>
      </trkpt>
      <trkpt lat="48.52094" lon="1.78502">
        <ele>122.71</ele>
        <time>2020-07-06T12:18:23Z</time>
      </trkpt>
      <trkpt lat="48.52106" lon="1.78506">
        <ele>122.22</ele>
        <time>2020-07-06T12:18:34Z</time>
      </trkpt>
      <trkpt lat="48.52117" lon="1.78518">
        <ele>121.74</ele>
        <time>2020-07-06T12:18:42Z</time>
      </trkpt>
      <trkpt lat="48.52129" lon="1.78525">
        <ele>122.22</ele>
        <time>2020-07-06T12:18:49Z</time>
      </trkpt>
      <trkpt lat="48.52139" lon="1.78529">
        <ele>122.71</ele>
        <time>2020-07-06T12:18:57Z</time>
      </trkpt>
      <trkpt lat="48.52153" lon="1.78541">
        <ele>122.22</ele>
        <time>2020-07-06T12:19:07Z</time>
      </trkpt>
      <trkpt lat="48.52165" lon="1.78556">
        <ele>122.22</ele>
        <time>2020-07-06T12:19:16Z</time>
      </trkpt>
      <trkpt lat="48.52171" lon="1.7857">
        <ele>122.22</ele>
        <time>2020-07-06T12:19:25Z</time>
      </trkpt>
      <trkpt lat="48.5218" lon="1.78579">
        <ele>121.74</ele>
        <time>2020-07-06T12:19:32Z</time>
      </trkpt>
      <trkpt lat="48.52184" lon="1.78595">
        <ele>121.74</ele>
        <time>2020-07-06T12:19:40Z</time>
      </trkpt>
      <trkpt lat="48.52189" lon="1.78609">
        <ele>122.22</ele>
        <time>2020-07-06T12:19:54Z</time>
      </trkpt>
      <trkpt lat="48.52191" lon="1.78619">
        <ele>122.22</ele>
        <time>2020-07-06T12:20:29Z</time>
      </trkpt>
      <trkpt lat="48.52187" lon="1.78603">
        <ele>122.71</ele>
        <time>2020-07-06T12:20:39Z</time>
      </trkpt>
      <trkpt lat="48.52183" lon="1.78588">
        <ele>123.19</ele>
        <time>2020-07-06T12:20:47Z</time>
      </trkpt>
      <trkpt lat="48.52177" lon="1.78573">
        <ele>123.19</ele>
        <time>2020-07-06T12:20:55Z</time>
      </trkpt>
      <trkpt lat="48.5217" lon="1.78561">
        <ele>124.15</ele>
        <time>2020-07-06T12:21:05Z</time>
      </trkpt>
      <trkpt lat="48.5216" lon="1.7855">
        <ele>123.67</ele>
        <time>2020-07-06T12:21:12Z</time>
      </trkpt>
      <trkpt lat="48.5215" lon="1.78538">
        <ele>123.19</ele>
        <time>2020-07-06T12:21:22Z</time>
      </trkpt>
      <trkpt lat="48.52138" lon="1.78527">
        <ele>123.19</ele>
        <time>2020-07-06T12:21:32Z</time>
      </trkpt>
      <trkpt lat="48.52127" lon="1.78518">
        <ele>123.19</ele>
        <time>2020-07-06T12:21:39Z</time>
      </trkpt>
      <trkpt lat="48.52115" lon="1.78509">
        <ele>123.67</ele>
        <time>2020-07-06T12:21:47Z</time>
      </trkpt>
      <trkpt lat="48.52105" lon="1.78502">
        <ele>123.67</ele>
        <time>2020-07-06T12:21:54Z</time>
      </trkpt>
      <trkpt lat="48.52094" lon="1.78496">
        <ele>123.67</ele>
        <time>2020-07-06T12:22:03Z</time>
      </trkpt>
      <trkpt lat="48.52084" lon="1.78489">
        <ele>123.67</ele>
        <time>2020-07-06T12:22:12Z</time>
      </trkpt>
      <trkpt lat="48.52074" lon="1.78483">
        <ele>123.67</ele>
        <time>2020-07-06T12:22:19Z</time>
      </trkpt>
      <trkpt lat="48.52063" lon="1.7848">
        <ele>124.15</ele>
        <time>2020-07-06T12:22:26Z</time>
      </trkpt>
      <trkpt lat="48.52053" lon="1.78474">
        <ele>124.15</ele>
        <time>2020-07-06T12:22:35Z</time>
      </trkpt>
      <trkpt lat="48.52043" lon="1.7847">
        <ele>124.15</ele>
        <time>2020-07-06T12:22:42Z</time>
      </trkpt>
      <trkpt lat="48.52032" lon="1.78468">
        <ele>124.63</ele>
        <time>2020-07-06T12:22:49Z</time>
      </trkpt>
      <trkpt lat="48.52021" lon="1.78466">
        <ele>124.63</ele>
        <time>2020-07-06T12:22:57Z</time>
      </trkpt>
      <trkpt lat="48.52009" lon="1.78466">
        <ele>124.63</ele>
        <time>2020-07-06T12:23:04Z</time>
      </trkpt>
      <trkpt lat="48.51998" lon="1.78465">
        <ele>124.63</ele>
        <time>2020-07-06T12:23:11Z</time>
      </trkpt>
      <trkpt lat="48.51987" lon="1.78464">
        <ele>124.63</ele>
        <time>2020-07-06T12:23:19Z</time>
      </trkpt>
      <trkpt lat="48.51975" lon="1.78464">
        <ele>123.67</ele>
        <time>2020-07-06T12:23:28Z</time>
      </trkpt>
      <trkpt lat="48.51963" lon="1.78464">
        <ele>123.67</ele>
        <time>2020-07-06T12:23:36Z</time>
      </trkpt>
      <trkpt lat="48.51952" lon="1.78465">
        <ele>123.19</ele>
        <time>2020-07-06T12:23:43Z</time>
      </trkpt>
      <trkpt lat="48.51941" lon="1.78467">
        <ele>124.15</ele>
        <time>2020-07-06T12:23:50Z</time>
      </trkpt>
      <trkpt lat="48.5193" lon="1.78472">
        <ele>124.15</ele>
        <time>2020-07-06T12:23:58Z</time>
      </trkpt>
      <trkpt lat="48.51918" lon="1.78473">
        <ele>124.63</ele>
        <time>2020-07-06T12:24:07Z</time>
      </trkpt>
      <trkpt lat="48.5191" lon="1.78462">
        <ele>125.11</ele>
        <time>2020-07-06T12:24:15Z</time>
      </trkpt>
      <trkpt lat="48.51909" lon="1.78447">
        <ele>125.59</ele>
        <time>2020-07-06T12:24:23Z</time>
      </trkpt>
      <trkpt lat="48.51907" lon="1.78429">
        <ele>125.59</ele>
        <time>2020-07-06T12:24:33Z</time>
      </trkpt>
      <trkpt lat="48.51905" lon="1.7841">
        <ele>126.07</ele>
        <time>2020-07-06T12:24:43Z</time>
      </trkpt>
      <trkpt lat="48.51902" lon="1.78391">
        <ele>127.03</ele>
        <time>2020-07-06T12:24:52Z</time>
      </trkpt>
      <trkpt lat="48.51901" lon="1.78369">
        <ele>127.51</ele>
        <time>2020-07-06T12:25:03Z</time>
      </trkpt>
      <trkpt lat="48.51898" lon="1.78348">
        <ele>128.47</ele>
        <time>2020-07-06T12:25:14Z</time>
      </trkpt>
      <trkpt lat="48.51894" lon="1.7833">
        <ele>129.43</ele>
        <time>2020-07-06T12:25:23Z</time>
      </trkpt>
      <trkpt lat="48.51893" lon="1.78312">
        <ele>130.4</ele>
        <time>2020-07-06T12:25:33Z</time>
      </trkpt>
      <trkpt lat="48.51889" lon="1.78286">
        <ele>131.36</ele>
        <time>2020-07-06T12:25:44Z</time>
      </trkpt>
      <trkpt lat="48.51887" lon="1.78262">
        <ele>132.8</ele>
        <time>2020-07-06T12:25:56Z</time>
      </trkpt>
      <trkpt lat="48.51883" lon="1.78239">
        <ele>133.28</ele>
        <time>2020-07-06T12:26:08Z</time>
      </trkpt>
      <trkpt lat="48.51881" lon="1.78223">
        <ele>134.24</ele>
        <time>2020-07-06T12:26:16Z</time>
      </trkpt>
      <trkpt lat="48.51879" lon="1.78198">
        <ele>135.68</ele>
        <time>2020-07-06T12:26:27Z</time>
      </trkpt>
      <trkpt lat="48.51877" lon="1.78176">
        <ele>137.13</ele>
        <time>2020-07-06T12:26:43Z</time>
      </trkpt>
      <trkpt lat="48.51874" lon="1.78152">
        <ele>138.09</ele>
        <time>2020-07-06T12:26:56Z</time>
      </trkpt>
      <trkpt lat="48.51871" lon="1.78128">
        <ele>138.57</ele>
        <time>2020-07-06T12:27:06Z</time>
      </trkpt>
      <trkpt lat="48.51869" lon="1.78104">
        <ele>139.53</ele>
        <time>2020-07-06T12:27:17Z</time>
      </trkpt>
      <trkpt lat="48.51866" lon="1.78084">
        <ele>140.49</ele>
        <time>2020-07-06T12:27:27Z</time>
      </trkpt>
      <trkpt lat="48.51863" lon="1.78059">
        <ele>140.49</ele>
        <time>2020-07-06T12:27:38Z</time>
      </trkpt>
      <trkpt lat="48.51861" lon="1.78036">
        <ele>141.45</ele>
        <time>2020-07-06T12:27:49Z</time>
      </trkpt>
      <trkpt lat="48.51857" lon="1.78012">
        <ele>141.93</ele>
        <time>2020-07-06T12:28:00Z</time>
      </trkpt>
      <trkpt lat="48.51854" lon="1.77992">
        <ele>142.41</ele>
        <time>2020-07-06T12:28:08Z</time>
      </trkpt>
      <trkpt lat="48.51851" lon="1.7797">
        <ele>142.89</ele>
        <time>2020-07-06T12:28:19Z</time>
      </trkpt>
      <trkpt lat="48.51849" lon="1.77951">
        <ele>143.37</ele>
        <time>2020-07-06T12:28:27Z</time>
      </trkpt>
      <trkpt lat="48.51846" lon="1.77927">
        <ele>143.37</ele>
        <time>2020-07-06T12:28:40Z</time>
      </trkpt>
      <trkpt lat="48.51843" lon="1.77907">
        <ele>143.85</ele>
        <time>2020-07-06T12:28:49Z</time>
      </trkpt>
      <trkpt lat="48.51842" lon="1.77889">
        <ele>143.85</ele>
        <time>2020-07-06T12:28:57Z</time>
      </trkpt>
      <trkpt lat="48.51839" lon="1.77869">
        <ele>143.85</ele>
        <time>2020-07-06T12:29:05Z</time>
      </trkpt>
      <trkpt lat="48.51835" lon="1.77853">
        <ele>144.34</ele>
        <time>2020-07-06T12:29:12Z</time>
      </trkpt>
      <trkpt lat="48.51832" lon="1.77838">
        <ele>144.34</ele>
        <time>2020-07-06T12:29:19Z</time>
      </trkpt>
      <trkpt lat="48.51822" lon="1.77839">
        <ele>145.3</ele>
        <time>2020-07-06T12:29:27Z</time>
      </trkpt>
      <trkpt lat="48.51813" lon="1.77838">
        <ele>145.3</ele>
        <time>2020-07-06T12:29:33Z</time>
      </trkpt>
      <trkpt lat="48.51802" lon="1.77842">
        <ele>145.78</ele>
        <time>2020-07-06T12:29:41Z</time>
      </trkpt>
      <trkpt lat="48.51792" lon="1.7784">
        <ele>146.74</ele>
        <time>2020-07-06T12:29:49Z</time>
      </trkpt>
      <trkpt lat="48.51781" lon="1.77836">
        <ele>147.7</ele>
        <time>2020-07-06T12:29:57Z</time>
      </trkpt>
      <trkpt lat="48.51777" lon="1.77822">
        <ele>147.7</ele>
        <time>2020-07-06T12:30:06Z</time>
      </trkpt>
      <trkpt lat="48.51774" lon="1.77807">
        <ele>147.7</ele>
        <time>2020-07-06T12:30:14Z</time>
      </trkpt>
      <trkpt lat="48.51771" lon="1.7779">
        <ele>147.22</ele>
        <time>2020-07-06T12:30:23Z</time>
      </trkpt>
      <trkpt lat="48.51769" lon="1.77774">
        <ele>147.7</ele>
        <time>2020-07-06T12:30:31Z</time>
      </trkpt>
      <trkpt lat="48.51767" lon="1.77756">
        <ele>147.22</ele>
        <time>2020-07-06T12:30:39Z</time>
      </trkpt>
      <trkpt lat="48.51765" lon="1.7774">
        <ele>147.7</ele>
        <time>2020-07-06T12:30:47Z</time>
      </trkpt>
      <trkpt lat="48.51764" lon="1.77716">
        <ele>147.7</ele>
        <time>2020-07-06T12:30:58Z</time>
      </trkpt>
      <trkpt lat="48.51763" lon="1.77696">
        <ele>147.22</ele>
        <time>2020-07-06T12:31:06Z</time>
      </trkpt>
      <trkpt lat="48.51765" lon="1.77678">
        <ele>147.7</ele>
        <time>2020-07-06T12:31:14Z</time>
      </trkpt>
      <trkpt lat="48.51761" lon="1.77663">
        <ele>147.22</ele>
        <time>2020-07-06T12:31:22Z</time>
      </trkpt>
      <trkpt lat="48.5176" lon="1.77646">
        <ele>147.22</ele>
        <time>2020-07-06T12:31:30Z</time>
      </trkpt>
      <trkpt lat="48.5176" lon="1.77628">
        <ele>147.22</ele>
        <time>2020-07-06T12:31:38Z</time>
      </trkpt>
      <trkpt lat="48.51757" lon="1.77611">
        <ele>147.22</ele>
        <time>2020-07-06T12:31:47Z</time>
      </trkpt>
      <trkpt lat="48.51756" lon="1.77594">
        <ele>147.22</ele>
        <time>2020-07-06T12:31:55Z</time>
      </trkpt>
      <trkpt lat="48.51753" lon="1.77577">
        <ele>147.22</ele>
        <time>2020-07-06T12:32:03Z</time>
      </trkpt>
      <trkpt lat="48.5175" lon="1.77558">
        <ele>146.74</ele>
        <time>2020-07-06T12:32:12Z</time>
      </trkpt>
      <trkpt lat="48.51749" lon="1.7754">
        <ele>146.74</ele>
        <time>2020-07-06T12:32:20Z</time>
      </trkpt>
      <trkpt lat="48.51746" lon="1.77525">
        <ele>146.26</ele>
        <time>2020-07-06T12:32:27Z</time>
      </trkpt>
      <trkpt lat="48.51746" lon="1.77506">
        <ele>146.26</ele>
        <time>2020-07-06T12:32:36Z</time>
      </trkpt>
      <trkpt lat="48.51743" lon="1.77487">
        <ele>146.26</ele>
        <time>2020-07-06T12:32:45Z</time>
      </trkpt>
      <trkpt lat="48.51738" lon="1.77471">
        <ele>145.78</ele>
        <time>2020-07-06T12:32:52Z</time>
      </trkpt>
      <trkpt lat="48.51737" lon="1.77452">
        <ele>145.78</ele>
        <time>2020-07-06T12:33:00Z</time>
      </trkpt>
      <trkpt lat="48.51731" lon="1.77436">
        <ele>145.3</ele>
        <time>2020-07-06T12:33:08Z</time>
      </trkpt>
      <trkpt lat="48.51729" lon="1.7742">
        <ele>144.82</ele>
        <time>2020-07-06T12:33:15Z</time>
      </trkpt>
      <trkpt lat="48.51727" lon="1.77404">
        <ele>144.82</ele>
        <time>2020-07-06T12:33:23Z</time>
      </trkpt>
      <trkpt lat="48.51722" lon="1.77388">
        <ele>144.82</ele>
        <time>2020-07-06T12:33:31Z</time>
      </trkpt>
      <trkpt lat="48.5172" lon="1.7737">
        <ele>144.34</ele>
        <time>2020-07-06T12:33:39Z</time>
      </trkpt>
      <trkpt lat="48.5172" lon="1.77353">
        <ele>143.85</ele>
        <time>2020-07-06T12:33:46Z</time>
      </trkpt>
      <trkpt lat="48.51718" lon="1.77333">
        <ele>143.85</ele>
        <time>2020-07-06T12:33:55Z</time>
      </trkpt>
      <trkpt lat="48.51715" lon="1.77313">
        <ele>143.85</ele>
        <time>2020-07-06T12:34:05Z</time>
      </trkpt>
      <trkpt lat="48.51712" lon="1.77289">
        <ele>143.37</ele>
        <time>2020-07-06T12:34:16Z</time>
      </trkpt>
      <trkpt lat="48.51711" lon="1.77269">
        <ele>143.37</ele>
        <time>2020-07-06T12:34:26Z</time>
      </trkpt>
      <trkpt lat="48.5171" lon="1.7725">
        <ele>142.89</ele>
        <time>2020-07-06T12:34:35Z</time>
      </trkpt>
      <trkpt lat="48.51707" lon="1.77235">
        <ele>142.89</ele>
        <time>2020-07-06T12:34:42Z</time>
      </trkpt>
      <trkpt lat="48.51706" lon="1.77216">
        <ele>142.89</ele>
        <time>2020-07-06T12:34:52Z</time>
      </trkpt>
      <trkpt lat="48.51705" lon="1.772">
        <ele>142.41</ele>
        <time>2020-07-06T12:35:04Z</time>
      </trkpt>
      <trkpt lat="48.51699" lon="1.77181">
        <ele>142.41</ele>
        <time>2020-07-06T12:35:12Z</time>
      </trkpt>
      <trkpt lat="48.51699" lon="1.7716">
        <ele>142.41</ele>
        <time>2020-07-06T12:35:20Z</time>
      </trkpt>
      <trkpt lat="48.51694" lon="1.77137">
        <ele>142.41</ele>
        <time>2020-07-06T12:35:31Z</time>
      </trkpt>
      <trkpt lat="48.51692" lon="1.77105">
        <ele>141.93</ele>
        <time>2020-07-06T12:35:41Z</time>
      </trkpt>
      <trkpt lat="48.51692" lon="1.77085">
        <ele>141.93</ele>
        <time>2020-07-06T12:35:50Z</time>
      </trkpt>
      <trkpt lat="48.51696" lon="1.77068">
        <ele>141.93</ele>
        <time>2020-07-06T12:36:00Z</time>
      </trkpt>
      <trkpt lat="48.51696" lon="1.77042">
        <ele>141.93</ele>
        <time>2020-07-06T12:36:09Z</time>
      </trkpt>
      <trkpt lat="48.51696" lon="1.77011">
        <ele>141.93</ele>
        <time>2020-07-06T12:36:24Z</time>
      </trkpt>
      <trkpt lat="48.51697" lon="1.76982">
        <ele>141.45</ele>
        <time>2020-07-06T12:36:36Z</time>
      </trkpt>
      <trkpt lat="48.51701" lon="1.76955">
        <ele>141.93</ele>
        <time>2020-07-06T12:36:49Z</time>
      </trkpt>
      <trkpt lat="48.51702" lon="1.76927">
        <ele>141.45</ele>
        <time>2020-07-06T12:37:01Z</time>
      </trkpt>
      <trkpt lat="48.51706" lon="1.76901">
        <ele>141.45</ele>
        <time>2020-07-06T12:37:14Z</time>
      </trkpt>
      <trkpt lat="48.5171" lon="1.76877">
        <ele>140.49</ele>
        <time>2020-07-06T12:37:28Z</time>
      </trkpt>
      <trkpt lat="48.51716" lon="1.76845">
        <ele>140.01</ele>
        <time>2020-07-06T12:37:43Z</time>
      </trkpt>
      <trkpt lat="48.51716" lon="1.76811">
        <ele>139.53</ele>
        <time>2020-07-06T12:37:58Z</time>
      </trkpt>
      <trkpt lat="48.51718" lon="1.76775">
        <ele>139.05</ele>
        <time>2020-07-06T12:38:12Z</time>
      </trkpt>
      <trkpt lat="48.51724" lon="1.76748">
        <ele>138.57</ele>
        <time>2020-07-06T12:38:23Z</time>
      </trkpt>
      <trkpt lat="48.51728" lon="1.76726">
        <ele>139.05</ele>
        <time>2020-07-06T12:38:32Z</time>
      </trkpt>
      <trkpt lat="48.51733" lon="1.76701">
        <ele>138.57</ele>
        <time>2020-07-06T12:38:45Z</time>
      </trkpt>
      <trkpt lat="48.51739" lon="1.7668">
        <ele>138.57</ele>
        <time>2020-07-06T12:38:55Z</time>
      </trkpt>
      <trkpt lat="48.51739" lon="1.76653">
        <ele>138.57</ele>
        <time>2020-07-06T12:39:07Z</time>
      </trkpt>
      <trkpt lat="48.51743" lon="1.76627">
        <ele>139.05</ele>
        <time>2020-07-06T12:39:18Z</time>
      </trkpt>
      <trkpt lat="48.51746" lon="1.76608">
        <ele>139.05</ele>
        <time>2020-07-06T12:39:28Z</time>
      </trkpt>
      <trkpt lat="48.51752" lon="1.76591">
        <ele>139.53</ele>
        <time>2020-07-06T12:39:38Z</time>
      </trkpt>
      <trkpt lat="48.51756" lon="1.76575">
        <ele>140.01</ele>
        <time>2020-07-06T12:39:47Z</time>
      </trkpt>
      <trkpt lat="48.51757" lon="1.76556">
        <ele>140.01</ele>
        <time>2020-07-06T12:39:56Z</time>
      </trkpt>
      <trkpt lat="48.5176" lon="1.76539">
        <ele>140.01</ele>
        <time>2020-07-06T12:40:04Z</time>
      </trkpt>
      <trkpt lat="48.51765" lon="1.76522">
        <ele>140.49</ele>
        <time>2020-07-06T12:40:12Z</time>
      </trkpt>
      <trkpt lat="48.5177" lon="1.76507">
        <ele>140.49</ele>
        <time>2020-07-06T12:40:19Z</time>
      </trkpt>
      <trkpt lat="48.51772" lon="1.7649">
        <ele>140.49</ele>
        <time>2020-07-06T12:40:28Z</time>
      </trkpt>
      <trkpt lat="48.51776" lon="1.76474">
        <ele>140.97</ele>
        <time>2020-07-06T12:40:36Z</time>
      </trkpt>
      <trkpt lat="48.51778" lon="1.76454">
        <ele>141.45</ele>
        <time>2020-07-06T12:40:45Z</time>
      </trkpt>
      <trkpt lat="48.51778" lon="1.76434">
        <ele>141.45</ele>
        <time>2020-07-06T12:40:54Z</time>
      </trkpt>
      <trkpt lat="48.51783" lon="1.76416">
        <ele>140.97</ele>
        <time>2020-07-06T12:41:03Z</time>
      </trkpt>
      <trkpt lat="48.51787" lon="1.76396">
        <ele>140.49</ele>
        <time>2020-07-06T12:41:13Z</time>
      </trkpt>
      <trkpt lat="48.5179" lon="1.76377">
        <ele>140.49</ele>
        <time>2020-07-06T12:41:24Z</time>
      </trkpt>
      <trkpt lat="48.51795" lon="1.76357">
        <ele>140.01</ele>
        <time>2020-07-06T12:41:33Z</time>
      </trkpt>
      <trkpt lat="48.51797" lon="1.76337">
        <ele>140.01</ele>
        <time>2020-07-06T12:41:42Z</time>
      </trkpt>
      <trkpt lat="48.51798" lon="1.76321">
        <ele>139.53</ele>
        <time>2020-07-06T12:41:49Z</time>
      </trkpt>
      <trkpt lat="48.51805" lon="1.76305">
        <ele>139.05</ele>
        <time>2020-07-06T12:41:58Z</time>
      </trkpt>
      <trkpt lat="48.51808" lon="1.76288">
        <ele>138.57</ele>
        <time>2020-07-06T12:42:05Z</time>
      </trkpt>
      <trkpt lat="48.51811" lon="1.7627">
        <ele>138.09</ele>
        <time>2020-07-06T12:42:13Z</time>
      </trkpt>
      <trkpt lat="48.51815" lon="1.76252">
        <ele>137.61</ele>
        <time>2020-07-06T12:42:23Z</time>
      </trkpt>
      <trkpt lat="48.51817" lon="1.76233">
        <ele>137.13</ele>
        <time>2020-07-06T12:42:31Z</time>
      </trkpt>
      <trkpt lat="48.51814" lon="1.7621">
        <ele>136.64</ele>
        <time>2020-07-06T12:42:40Z</time>
      </trkpt>
      <trkpt lat="48.51815" lon="1.76186">
        <ele>136.64</ele>
        <time>2020-07-06T12:42:51Z</time>
      </trkpt>
      <trkpt lat="48.51821" lon="1.76183">
        <ele>136.16</ele>
        <time>2020-07-06T12:43:03Z</time>
      </trkpt>
      <trkpt lat="48.51823" lon="1.7617">
        <ele>135.68</ele>
        <time>2020-07-06T12:43:34Z</time>
      </trkpt>
      <trkpt lat="48.51817" lon="1.76171">
        <ele>135.68</ele>
        <time>2020-07-06T12:44:10Z</time>
      </trkpt>
      <trkpt lat="48.51817" lon="1.76168">
        <ele>135.68</ele>
        <time>2020-07-06T12:44:36Z</time>
      </trkpt>
      <trkpt lat="48.51821" lon="1.76174">
        <ele>136.16</ele>
        <time>2020-07-06T12:45:00Z</time>
      </trkpt>
      <trkpt lat="48.51814" lon="1.76165">
        <ele>136.16</ele>
        <time>2020-07-06T12:45:12Z</time>
      </trkpt>
      <trkpt lat="48.51803" lon="1.7616">
        <ele>137.61</ele>
        <time>2020-07-06T12:45:21Z</time>
      </trkpt>
      <trkpt lat="48.51791" lon="1.76155">
        <ele>138.09</ele>
        <time>2020-07-06T12:45:30Z</time>
      </trkpt>
      <trkpt lat="48.5178" lon="1.76152">
        <ele>139.05</ele>
        <time>2020-07-06T12:45:37Z</time>
      </trkpt>
      <trkpt lat="48.51771" lon="1.76149">
        <ele>139.53</ele>
        <time>2020-07-06T12:45:44Z</time>
      </trkpt>
      <trkpt lat="48.51762" lon="1.76146">
        <ele>139.53</ele>
        <time>2020-07-06T12:45:50Z</time>
      </trkpt>
      <trkpt lat="48.51752" lon="1.76139">
        <ele>140.01</ele>
        <time>2020-07-06T12:45:57Z</time>
      </trkpt>
      <trkpt lat="48.51742" lon="1.76136">
        <ele>140.49</ele>
        <time>2020-07-06T12:46:05Z</time>
      </trkpt>
      <trkpt lat="48.51733" lon="1.76133">
        <ele>140.49</ele>
        <time>2020-07-06T12:46:12Z</time>
      </trkpt>
      <trkpt lat="48.51723" lon="1.76131">
        <ele>140.97</ele>
        <time>2020-07-06T12:46:21Z</time>
      </trkpt>
      <trkpt lat="48.51712" lon="1.76127">
        <ele>142.41</ele>
        <time>2020-07-06T12:46:31Z</time>
      </trkpt>
      <trkpt lat="48.51701" lon="1.76125">
        <ele>142.41</ele>
        <time>2020-07-06T12:46:39Z</time>
      </trkpt>
      <trkpt lat="48.51691" lon="1.76125">
        <ele>142.89</ele>
        <time>2020-07-06T12:46:49Z</time>
      </trkpt>
      <trkpt lat="48.51686" lon="1.76112">
        <ele>143.37</ele>
        <time>2020-07-06T12:47:01Z</time>
      </trkpt>
      <trkpt lat="48.5168" lon="1.76097">
        <ele>142.89</ele>
        <time>2020-07-06T12:47:08Z</time>
      </trkpt>
      <trkpt lat="48.51675" lon="1.7608">
        <ele>142.89</ele>
        <time>2020-07-06T12:47:17Z</time>
      </trkpt>
      <trkpt lat="48.51668" lon="1.76065">
        <ele>143.37</ele>
        <time>2020-07-06T12:47:25Z</time>
      </trkpt>
      <trkpt lat="48.51671" lon="1.76043">
        <ele>142.89</ele>
        <time>2020-07-06T12:47:35Z</time>
      </trkpt>
      <trkpt lat="48.51668" lon="1.76025">
        <ele>143.85</ele>
        <time>2020-07-06T12:47:43Z</time>
      </trkpt>
      <trkpt lat="48.51663" lon="1.7601">
        <ele>143.85</ele>
        <time>2020-07-06T12:47:50Z</time>
      </trkpt>
      <trkpt lat="48.51663" lon="1.75994">
        <ele>143.37</ele>
        <time>2020-07-06T12:47:58Z</time>
      </trkpt>
      <trkpt lat="48.51663" lon="1.75978">
        <ele>143.85</ele>
        <time>2020-07-06T12:48:06Z</time>
      </trkpt>
      <trkpt lat="48.51655" lon="1.75969">
        <ele>143.37</ele>
        <time>2020-07-06T12:48:13Z</time>
      </trkpt>
      <trkpt lat="48.51649" lon="1.7596">
        <ele>144.34</ele>
        <time>2020-07-06T12:48:21Z</time>
      </trkpt>
      <trkpt lat="48.5164" lon="1.75955">
        <ele>143.37</ele>
        <time>2020-07-06T12:48:31Z</time>
      </trkpt>
      <trkpt lat="48.51633" lon="1.75941">
        <ele>144.34</ele>
        <time>2020-07-06T12:48:50Z</time>
      </trkpt>
      <trkpt lat="48.5164" lon="1.75943">
        <ele>143.37</ele>
        <time>2020-07-06T12:49:00Z</time>
      </trkpt>
      <trkpt lat="48.51639" lon="1.75934">
        <ele>143.85</ele>
        <time>2020-07-06T12:49:09Z</time>
      </trkpt>
      <trkpt lat="48.51639" lon="1.75919">
        <ele>144.34</ele>
        <time>2020-07-06T12:49:17Z</time>
      </trkpt>
      <trkpt lat="48.51645" lon="1.75911">
        <ele>144.34</ele>
        <time>2020-07-06T12:49:29Z</time>
      </trkpt>
      <trkpt lat="48.51644" lon="1.75901">
        <ele>144.34</ele>
        <time>2020-07-06T12:49:46Z</time>
      </trkpt>
      <trkpt lat="48.51641" lon="1.75882">
        <ele>143.85</ele>
        <time>2020-07-06T12:49:55Z</time>
      </trkpt>
      <trkpt lat="48.51637" lon="1.75867">
        <ele>143.85</ele>
        <time>2020-07-06T12:50:05Z</time>
      </trkpt>
      <trkpt lat="48.51639" lon="1.75857">
        <ele>143.85</ele>
        <time>2020-07-06T12:50:20Z</time>
      </trkpt>
      <trkpt lat="48.51643" lon="1.75854">
        <ele>143.37</ele>
        <time>2020-07-06T12:51:13Z</time>
      </trkpt>
      <trkpt lat="48.51652" lon="1.75845">
        <ele>143.37</ele>
        <time>2020-07-06T12:51:21Z</time>
      </trkpt>
      <trkpt lat="48.51661" lon="1.75835">
        <ele>143.85</ele>
        <time>2020-07-06T12:51:28Z</time>
      </trkpt>
      <trkpt lat="48.51669" lon="1.75823">
        <ele>142.89</ele>
        <time>2020-07-06T12:51:34Z</time>
      </trkpt>
      <trkpt lat="48.51677" lon="1.75813">
        <ele>142.41</ele>
        <time>2020-07-06T12:51:40Z</time>
      </trkpt>
      <trkpt lat="48.51685" lon="1.75802">
        <ele>143.85</ele>
        <time>2020-07-06T12:51:47Z</time>
      </trkpt>
      <trkpt lat="48.51692" lon="1.75794">
        <ele>143.85</ele>
        <time>2020-07-06T12:51:54Z</time>
      </trkpt>
      <trkpt lat="48.51698" lon="1.7578">
        <ele>143.37</ele>
        <time>2020-07-06T12:52:02Z</time>
      </trkpt>
      <trkpt lat="48.51704" lon="1.75768">
        <ele>143.37</ele>
        <time>2020-07-06T12:52:08Z</time>
      </trkpt>
      <trkpt lat="48.51709" lon="1.75757">
        <ele>143.37</ele>
        <time>2020-07-06T12:52:15Z</time>
      </trkpt>
      <trkpt lat="48.51715" lon="1.75743">
        <ele>142.89</ele>
        <time>2020-07-06T12:52:23Z</time>
      </trkpt>
      <trkpt lat="48.51719" lon="1.75729">
        <ele>142.89</ele>
        <time>2020-07-06T12:52:30Z</time>
      </trkpt>
      <trkpt lat="48.51726" lon="1.75714">
        <ele>141.93</ele>
        <time>2020-07-06T12:52:38Z</time>
      </trkpt>
      <trkpt lat="48.51729" lon="1.75699">
        <ele>142.89</ele>
        <time>2020-07-06T12:52:45Z</time>
      </trkpt>
      <trkpt lat="48.51732" lon="1.75685">
        <ele>142.41</ele>
        <time>2020-07-06T12:52:52Z</time>
      </trkpt>
      <trkpt lat="48.51736" lon="1.7567">
        <ele>142.41</ele>
        <time>2020-07-06T12:52:59Z</time>
      </trkpt>
      <trkpt lat="48.51741" lon="1.75657">
        <ele>142.89</ele>
        <time>2020-07-06T12:53:05Z</time>
      </trkpt>
      <trkpt lat="48.51744" lon="1.75644">
        <ele>142.89</ele>
        <time>2020-07-06T12:53:14Z</time>
      </trkpt>
      <trkpt lat="48.51746" lon="1.75634">
        <ele>142.41</ele>
        <time>2020-07-06T12:53:36Z</time>
      </trkpt>
      <trkpt lat="48.51747" lon="1.75622">
        <ele>142.41</ele>
        <time>2020-07-06T12:53:59Z</time>
      </trkpt>
      <trkpt lat="48.51748" lon="1.75608">
        <ele>142.41</ele>
        <time>2020-07-06T12:54:19Z</time>
      </trkpt>
      <trkpt lat="48.51751" lon="1.75592">
        <ele>141.93</ele>
        <time>2020-07-06T12:54:27Z</time>
      </trkpt>
      <trkpt lat="48.51751" lon="1.75575">
        <ele>142.41</ele>
        <time>2020-07-06T12:54:35Z</time>
      </trkpt>
      <trkpt lat="48.51756" lon="1.75558">
        <ele>142.89</ele>
        <time>2020-07-06T12:54:44Z</time>
      </trkpt>
      <trkpt lat="48.51758" lon="1.75539">
        <ele>143.37</ele>
        <time>2020-07-06T12:54:53Z</time>
      </trkpt>
      <trkpt lat="48.51757" lon="1.75522">
        <ele>142.41</ele>
        <time>2020-07-06T12:55:01Z</time>
      </trkpt>
      <trkpt lat="48.51758" lon="1.75504">
        <ele>142.41</ele>
        <time>2020-07-06T12:55:09Z</time>
      </trkpt>
      <trkpt lat="48.5176" lon="1.75489">
        <ele>141.93</ele>
        <time>2020-07-06T12:55:17Z</time>
      </trkpt>
      <trkpt lat="48.51763" lon="1.75476">
        <ele>141.93</ele>
        <time>2020-07-06T12:55:26Z</time>
      </trkpt>
      <trkpt lat="48.51764" lon="1.75456">
        <ele>142.89</ele>
        <time>2020-07-06T12:55:35Z</time>
      </trkpt>
      <trkpt lat="48.51766" lon="1.75439">
        <ele>141.45</ele>
        <time>2020-07-06T12:55:44Z</time>
      </trkpt>
      <trkpt lat="48.51767" lon="1.75421">
        <ele>140.97</ele>
        <time>2020-07-06T12:55:53Z</time>
      </trkpt>
      <trkpt lat="48.51769" lon="1.75403">
        <ele>140.97</ele>
        <time>2020-07-06T12:56:02Z</time>
      </trkpt>
      <trkpt lat="48.51769" lon="1.75385">
        <ele>140.97</ele>
        <time>2020-07-06T12:56:11Z</time>
      </trkpt>
      <trkpt lat="48.51771" lon="1.75365">
        <ele>140.49</ele>
        <time>2020-07-06T12:56:20Z</time>
      </trkpt>
      <trkpt lat="48.51774" lon="1.75345">
        <ele>140.49</ele>
        <time>2020-07-06T12:56:31Z</time>
      </trkpt>
      <trkpt lat="48.51773" lon="1.75321">
        <ele>140.49</ele>
        <time>2020-07-06T12:56:41Z</time>
      </trkpt>
      <trkpt lat="48.51775" lon="1.75301">
        <ele>140.01</ele>
        <time>2020-07-06T12:56:50Z</time>
      </trkpt>
      <trkpt lat="48.51775" lon="1.75284">
        <ele>140.01</ele>
        <time>2020-07-06T12:56:59Z</time>
      </trkpt>
      <trkpt lat="48.51776" lon="1.7526">
        <ele>140.01</ele>
        <time>2020-07-06T12:57:10Z</time>
      </trkpt>
      <trkpt lat="48.51778" lon="1.75242">
        <ele>140.01</ele>
        <time>2020-07-06T12:57:21Z</time>
      </trkpt>
      <trkpt lat="48.5178" lon="1.75215">
        <ele>140.49</ele>
        <time>2020-07-06T12:57:33Z</time>
      </trkpt>
      <trkpt lat="48.51781" lon="1.75189">
        <ele>140.01</ele>
        <time>2020-07-06T12:57:44Z</time>
      </trkpt>
      <trkpt lat="48.51781" lon="1.75167">
        <ele>139.53</ele>
        <time>2020-07-06T12:57:53Z</time>
      </trkpt>
      <trkpt lat="48.51785" lon="1.75149">
        <ele>140.01</ele>
        <time>2020-07-06T12:58:05Z</time>
      </trkpt>
      <trkpt lat="48.5179" lon="1.75123">
        <ele>140.49</ele>
        <time>2020-07-06T12:58:16Z</time>
      </trkpt>
      <trkpt lat="48.51791" lon="1.75104">
        <ele>140.01</ele>
        <time>2020-07-06T12:58:25Z</time>
      </trkpt>
      <trkpt lat="48.51795" lon="1.75088">
        <ele>140.01</ele>
        <time>2020-07-06T12:58:34Z</time>
      </trkpt>
      <trkpt lat="48.51798" lon="1.75073">
        <ele>139.53</ele>
        <time>2020-07-06T12:58:42Z</time>
      </trkpt>
      <trkpt lat="48.51799" lon="1.75053">
        <ele>139.53</ele>
        <time>2020-07-06T12:58:51Z</time>
      </trkpt>
      <trkpt lat="48.518" lon="1.75037">
        <ele>139.05</ele>
        <time>2020-07-06T12:58:59Z</time>
      </trkpt>
      <trkpt lat="48.51804" lon="1.75022">
        <ele>137.61</ele>
        <time>2020-07-06T12:59:07Z</time>
      </trkpt>
      <trkpt lat="48.51808" lon="1.75008">
        <ele>138.09</ele>
        <time>2020-07-06T12:59:15Z</time>
      </trkpt>
      <trkpt lat="48.51807" lon="1.7499">
        <ele>137.61</ele>
        <time>2020-07-06T12:59:22Z</time>
      </trkpt>
      <trkpt lat="48.51809" lon="1.74972">
        <ele>136.64</ele>
        <time>2020-07-06T12:59:30Z</time>
      </trkpt>
      <trkpt lat="48.51813" lon="1.74958">
        <ele>136.16</ele>
        <time>2020-07-06T12:59:37Z</time>
      </trkpt>
      <trkpt lat="48.51811" lon="1.74941">
        <ele>135.2</ele>
        <time>2020-07-06T12:59:43Z</time>
      </trkpt>
      <trkpt lat="48.51811" lon="1.74925">
        <ele>133.76</ele>
        <time>2020-07-06T12:59:49Z</time>
      </trkpt>
      <trkpt lat="48.51812" lon="1.74909">
        <ele>132.8</ele>
        <time>2020-07-06T12:59:57Z</time>
      </trkpt>
      <trkpt lat="48.51812" lon="1.74893">
        <ele>131.84</ele>
        <time>2020-07-06T13:00:05Z</time>
      </trkpt>
      <trkpt lat="48.51812" lon="1.74875">
        <ele>130.4</ele>
        <time>2020-07-06T13:00:14Z</time>
      </trkpt>
      <trkpt lat="48.51814" lon="1.7486">
        <ele>128.47</ele>
        <time>2020-07-06T13:00:23Z</time>
      </trkpt>
      <trkpt lat="48.51813" lon="1.7484">
        <ele>126.07</ele>
        <time>2020-07-06T13:00:32Z</time>
      </trkpt>
      <trkpt lat="48.51809" lon="1.74822">
        <ele>124.15</ele>
        <time>2020-07-06T13:00:40Z</time>
      </trkpt>
      <trkpt lat="48.51808" lon="1.74802">
        <ele>122.71</ele>
        <time>2020-07-06T13:00:48Z</time>
      </trkpt>
      <trkpt lat="48.51805" lon="1.74785">
        <ele>120.3</ele>
        <time>2020-07-06T13:00:56Z</time>
      </trkpt>
      <trkpt lat="48.5181" lon="1.7477">
        <ele>118.86</ele>
        <time>2020-07-06T13:01:05Z</time>
      </trkpt>
      <trkpt lat="48.51811" lon="1.74752">
        <ele>118.38</ele>
        <time>2020-07-06T13:01:29Z</time>
      </trkpt>
      <trkpt lat="48.51796" lon="1.74734">
        <ele>117.9</ele>
        <time>2020-07-06T13:01:38Z</time>
      </trkpt>
      <trkpt lat="48.51797" lon="1.74718">
        <ele>116.94</ele>
        <time>2020-07-06T13:01:46Z</time>
      </trkpt>
      <trkpt lat="48.51798" lon="1.74704">
        <ele>117.42</ele>
        <time>2020-07-06T13:01:54Z</time>
      </trkpt>
      <trkpt lat="48.51798" lon="1.74688">
        <ele>117.9</ele>
        <time>2020-07-06T13:02:01Z</time>
      </trkpt>
      <trkpt lat="48.51799" lon="1.74672">
        <ele>117.42</ele>
        <time>2020-07-06T13:02:09Z</time>
      </trkpt>
      <trkpt lat="48.51804" lon="1.74657">
        <ele>117.9</ele>
        <time>2020-07-06T13:02:17Z</time>
      </trkpt>
      <trkpt lat="48.51804" lon="1.74639">
        <ele>118.38</ele>
        <time>2020-07-06T13:02:25Z</time>
      </trkpt>
      <trkpt lat="48.51807" lon="1.74624">
        <ele>118.86</ele>
        <time>2020-07-06T13:02:33Z</time>
      </trkpt>
      <trkpt lat="48.51807" lon="1.74607">
        <ele>119.34</ele>
        <time>2020-07-06T13:02:42Z</time>
      </trkpt>
      <trkpt lat="48.51812" lon="1.74593">
        <ele>120.3</ele>
        <time>2020-07-06T13:02:50Z</time>
      </trkpt>
      <trkpt lat="48.51813" lon="1.74576">
        <ele>120.3</ele>
        <time>2020-07-06T13:02:57Z</time>
      </trkpt>
      <trkpt lat="48.51813" lon="1.7456">
        <ele>120.78</ele>
        <time>2020-07-06T13:03:04Z</time>
      </trkpt>
      <trkpt lat="48.51817" lon="1.74545">
        <ele>121.26</ele>
        <time>2020-07-06T13:03:13Z</time>
      </trkpt>
      <trkpt lat="48.51819" lon="1.74529">
        <ele>121.74</ele>
        <time>2020-07-06T13:03:21Z</time>
      </trkpt>
      <trkpt lat="48.51822" lon="1.74514">
        <ele>122.22</ele>
        <time>2020-07-06T13:03:28Z</time>
      </trkpt>
      <trkpt lat="48.51824" lon="1.74499">
        <ele>123.19</ele>
        <time>2020-07-06T13:03:37Z</time>
      </trkpt>
      <trkpt lat="48.51827" lon="1.74484">
        <ele>123.19</ele>
        <time>2020-07-06T13:03:45Z</time>
      </trkpt>
      <trkpt lat="48.5183" lon="1.7447">
        <ele>123.67</ele>
        <time>2020-07-06T13:03:53Z</time>
      </trkpt>
      <trkpt lat="48.51832" lon="1.74455">
        <ele>124.63</ele>
        <time>2020-07-06T13:04:01Z</time>
      </trkpt>
      <trkpt lat="48.51834" lon="1.74439">
        <ele>125.11</ele>
        <time>2020-07-06T13:04:09Z</time>
      </trkpt>
      <trkpt lat="48.51834" lon="1.74423">
        <ele>125.11</ele>
        <time>2020-07-06T13:04:17Z</time>
      </trkpt>
      <trkpt lat="48.51832" lon="1.74403">
        <ele>125.59</ele>
        <time>2020-07-06T13:04:26Z</time>
      </trkpt>
      <trkpt lat="48.51836" lon="1.74385">
        <ele>126.07</ele>
        <time>2020-07-06T13:04:34Z</time>
      </trkpt>
      <trkpt lat="48.51839" lon="1.7437">
        <ele>126.55</ele>
        <time>2020-07-06T13:04:42Z</time>
      </trkpt>
      <trkpt lat="48.51846" lon="1.74357">
        <ele>127.03</ele>
        <time>2020-07-06T13:04:50Z</time>
      </trkpt>
      <trkpt lat="48.51851" lon="1.74346">
        <ele>127.99</ele>
        <time>2020-07-06T13:04:59Z</time>
      </trkpt>
      <trkpt lat="48.51845" lon="1.74334">
        <ele>127.51</ele>
        <time>2020-07-06T13:05:13Z</time>
      </trkpt>
      <trkpt lat="48.51844" lon="1.74317">
        <ele>127.99</ele>
        <time>2020-07-06T13:05:21Z</time>
      </trkpt>
      <trkpt lat="48.51844" lon="1.74302">
        <ele>128.47</ele>
        <time>2020-07-06T13:05:28Z</time>
      </trkpt>
      <trkpt lat="48.51845" lon="1.74284">
        <ele>128.47</ele>
        <time>2020-07-06T13:05:35Z</time>
      </trkpt>
      <trkpt lat="48.51846" lon="1.74268">
        <ele>128.47</ele>
        <time>2020-07-06T13:05:42Z</time>
      </trkpt>
      <trkpt lat="48.51846" lon="1.74253">
        <ele>128.47</ele>
        <time>2020-07-06T13:05:49Z</time>
      </trkpt>
      <trkpt lat="48.51846" lon="1.74238">
        <ele>128.47</ele>
        <time>2020-07-06T13:05:56Z</time>
      </trkpt>
      <trkpt lat="48.51849" lon="1.74224">
        <ele>128.95</ele>
        <time>2020-07-06T13:06:03Z</time>
      </trkpt>
      <trkpt lat="48.51849" lon="1.74207">
        <ele>128.47</ele>
        <time>2020-07-06T13:06:11Z</time>
      </trkpt>
      <trkpt lat="48.51853" lon="1.74192">
        <ele>128.95</ele>
        <time>2020-07-06T13:06:18Z</time>
      </trkpt>
      <trkpt lat="48.51854" lon="1.74176">
        <ele>128.47</ele>
        <time>2020-07-06T13:06:25Z</time>
      </trkpt>
      <trkpt lat="48.51854" lon="1.74159">
        <ele>127.99</ele>
        <time>2020-07-06T13:06:32Z</time>
      </trkpt>
      <trkpt lat="48.51858" lon="1.74145">
        <ele>127.51</ele>
        <time>2020-07-06T13:06:40Z</time>
      </trkpt>
      <trkpt lat="48.51859" lon="1.7413">
        <ele>127.03</ele>
        <time>2020-07-06T13:06:48Z</time>
      </trkpt>
      <trkpt lat="48.51857" lon="1.74114">
        <ele>127.03</ele>
        <time>2020-07-06T13:06:56Z</time>
      </trkpt>
      <trkpt lat="48.51853" lon="1.74097">
        <ele>127.03</ele>
        <time>2020-07-06T13:07:04Z</time>
      </trkpt>
      <trkpt lat="48.51844" lon="1.74083">
        <ele>127.03</ele>
        <time>2020-07-06T13:07:15Z</time>
      </trkpt>
      <trkpt lat="48.5184" lon="1.74067">
        <ele>127.51</ele>
        <time>2020-07-06T13:07:23Z</time>
      </trkpt>
      <trkpt lat="48.51839" lon="1.74051">
        <ele>127.99</ele>
        <time>2020-07-06T13:07:30Z</time>
      </trkpt>
      <trkpt lat="48.51841" lon="1.74036">
        <ele>127.03</ele>
        <time>2020-07-06T13:07:37Z</time>
      </trkpt>
      <trkpt lat="48.51845" lon="1.74021">
        <ele>127.03</ele>
        <time>2020-07-06T13:07:45Z</time>
      </trkpt>
      <trkpt lat="48.51847" lon="1.74003">
        <ele>127.03</ele>
        <time>2020-07-06T13:07:53Z</time>
      </trkpt>
      <trkpt lat="48.5185" lon="1.73989">
        <ele>127.03</ele>
        <time>2020-07-06T13:08:01Z</time>
      </trkpt>
      <trkpt lat="48.5185" lon="1.73974">
        <ele>127.03</ele>
        <time>2020-07-06T13:08:08Z</time>
      </trkpt>
      <trkpt lat="48.51851" lon="1.73957">
        <ele>127.03</ele>
        <time>2020-07-06T13:08:15Z</time>
      </trkpt>
      <trkpt lat="48.51851" lon="1.73941">
        <ele>127.03</ele>
        <time>2020-07-06T13:08:22Z</time>
      </trkpt>
      <trkpt lat="48.51851" lon="1.73926">
        <ele>127.03</ele>
        <time>2020-07-06T13:08:29Z</time>
      </trkpt>
      <trkpt lat="48.51848" lon="1.73911">
        <ele>127.03</ele>
        <time>2020-07-06T13:08:36Z</time>
      </trkpt>
      <trkpt lat="48.51845" lon="1.73897">
        <ele>127.51</ele>
        <time>2020-07-06T13:08:43Z</time>
      </trkpt>
      <trkpt lat="48.51838" lon="1.7388">
        <ele>127.99</ele>
        <time>2020-07-06T13:08:51Z</time>
      </trkpt>
      <trkpt lat="48.51832" lon="1.73866">
        <ele>128.47</ele>
        <time>2020-07-06T13:08:59Z</time>
      </trkpt>
      <trkpt lat="48.51827" lon="1.73852">
        <ele>128.95</ele>
        <time>2020-07-06T13:09:08Z</time>
      </trkpt>
      <trkpt lat="48.51823" lon="1.73837">
        <ele>129.43</ele>
        <time>2020-07-06T13:09:16Z</time>
      </trkpt>
      <trkpt lat="48.51819" lon="1.73823">
        <ele>129.92</ele>
        <time>2020-07-06T13:09:24Z</time>
      </trkpt>
      <trkpt lat="48.51814" lon="1.7381">
        <ele>130.4</ele>
        <time>2020-07-06T13:09:31Z</time>
      </trkpt>
      <trkpt lat="48.5181" lon="1.73796">
        <ele>130.88</ele>
        <time>2020-07-06T13:09:38Z</time>
      </trkpt>
      <trkpt lat="48.51805" lon="1.73782">
        <ele>131.36</ele>
        <time>2020-07-06T13:09:46Z</time>
      </trkpt>
      <trkpt lat="48.51801" lon="1.73769">
        <ele>131.84</ele>
        <time>2020-07-06T13:09:53Z</time>
      </trkpt>
      <trkpt lat="48.51798" lon="1.73755">
        <ele>131.36</ele>
        <time>2020-07-06T13:10:00Z</time>
      </trkpt>
      <trkpt lat="48.51795" lon="1.73741">
        <ele>131.84</ele>
        <time>2020-07-06T13:10:07Z</time>
      </trkpt>
      <trkpt lat="48.51792" lon="1.73728">
        <ele>132.32</ele>
        <time>2020-07-06T13:10:14Z</time>
      </trkpt>
      <trkpt lat="48.51788" lon="1.73714">
        <ele>132.32</ele>
        <time>2020-07-06T13:10:21Z</time>
      </trkpt>
      <trkpt lat="48.51783" lon="1.73701">
        <ele>133.28</ele>
        <time>2020-07-06T13:10:28Z</time>
      </trkpt>
      <trkpt lat="48.51777" lon="1.73689">
        <ele>132.8</ele>
        <time>2020-07-06T13:10:35Z</time>
      </trkpt>
      <trkpt lat="48.51771" lon="1.73679">
        <ele>133.76</ele>
        <time>2020-07-06T13:10:42Z</time>
      </trkpt>
      <trkpt lat="48.51765" lon="1.73668">
        <ele>133.28</ele>
        <time>2020-07-06T13:10:49Z</time>
      </trkpt>
      <trkpt lat="48.51759" lon="1.73657">
        <ele>134.24</ele>
        <time>2020-07-06T13:10:56Z</time>
      </trkpt>
      <trkpt lat="48.51753" lon="1.73647">
        <ele>134.24</ele>
        <time>2020-07-06T13:11:03Z</time>
      </trkpt>
      <trkpt lat="48.51746" lon="1.73636">
        <ele>134.72</ele>
        <time>2020-07-06T13:11:10Z</time>
      </trkpt>
      <trkpt lat="48.51738" lon="1.73627">
        <ele>134.72</ele>
        <time>2020-07-06T13:11:17Z</time>
      </trkpt>
      <trkpt lat="48.51732" lon="1.73616">
        <ele>135.68</ele>
        <time>2020-07-06T13:11:24Z</time>
      </trkpt>
      <trkpt lat="48.51726" lon="1.73605">
        <ele>135.68</ele>
        <time>2020-07-06T13:11:31Z</time>
      </trkpt>
      <trkpt lat="48.51721" lon="1.73593">
        <ele>136.16</ele>
        <time>2020-07-06T13:11:39Z</time>
      </trkpt>
      <trkpt lat="48.5172" lon="1.73592">
        <ele>134.24</ele>
        <time>2020-07-06T13:11:41Z</time>
      </trkpt>
      <trkpt lat="48.51724" lon="1.73588">
        <ele>136.64</ele>
        <time>2020-07-06T13:11:54Z</time>
      </trkpt>
      <trkpt lat="48.51714" lon="1.73579">
        <ele>135.68</ele>
        <time>2020-07-06T13:12:16Z</time>
      </trkpt>
      <trkpt lat="48.51708" lon="1.73567">
        <ele>136.16</ele>
        <time>2020-07-06T13:12:23Z</time>
      </trkpt>
      <trkpt lat="48.51703" lon="1.73554">
        <ele>136.64</ele>
        <time>2020-07-06T13:12:30Z</time>
      </trkpt>
      <trkpt lat="48.51698" lon="1.73542">
        <ele>137.13</ele>
        <time>2020-07-06T13:12:37Z</time>
      </trkpt>
      <trkpt lat="48.51693" lon="1.73529">
        <ele>136.64</ele>
        <time>2020-07-06T13:12:44Z</time>
      </trkpt>
      <trkpt lat="48.51688" lon="1.73517">
        <ele>137.61</ele>
        <time>2020-07-06T13:12:50Z</time>
      </trkpt>
      <trkpt lat="48.51683" lon="1.73503">
        <ele>136.64</ele>
        <time>2020-07-06T13:12:57Z</time>
      </trkpt>
      <trkpt lat="48.51678" lon="1.73491">
        <ele>137.13</ele>
        <time>2020-07-06T13:13:03Z</time>
      </trkpt>
      <trkpt lat="48.51673" lon="1.73478">
        <ele>136.16</ele>
        <time>2020-07-06T13:13:10Z</time>
      </trkpt>
      <trkpt lat="48.51668" lon="1.73464">
        <ele>134.72</ele>
        <time>2020-07-06T13:13:17Z</time>
      </trkpt>
      <trkpt lat="48.51664" lon="1.73451">
        <ele>136.16</ele>
        <time>2020-07-06T13:13:23Z</time>
      </trkpt>
      <trkpt lat="48.51659" lon="1.73439">
        <ele>136.64</ele>
        <time>2020-07-06T13:13:29Z</time>
      </trkpt>
      <trkpt lat="48.51654" lon="1.73427">
        <ele>136.64</ele>
        <time>2020-07-06T13:13:35Z</time>
      </trkpt>
      <trkpt lat="48.51649" lon="1.73415">
        <ele>137.61</ele>
        <time>2020-07-06T13:13:41Z</time>
      </trkpt>
      <trkpt lat="48.51645" lon="1.73402">
        <ele>137.13</ele>
        <time>2020-07-06T13:13:47Z</time>
      </trkpt>
      <trkpt lat="48.5164" lon="1.73389">
        <ele>137.61</ele>
        <time>2020-07-06T13:13:54Z</time>
      </trkpt>
      <trkpt lat="48.51635" lon="1.73376">
        <ele>137.61</ele>
        <time>2020-07-06T13:14:00Z</time>
      </trkpt>
      <trkpt lat="48.5163" lon="1.73365">
        <ele>138.09</ele>
        <time>2020-07-06T13:14:06Z</time>
      </trkpt>
      <trkpt lat="48.51625" lon="1.73351">
        <ele>138.09</ele>
        <time>2020-07-06T13:14:13Z</time>
      </trkpt>
      <trkpt lat="48.5162" lon="1.73339">
        <ele>139.05</ele>
        <time>2020-07-06T13:14:20Z</time>
      </trkpt>
      <trkpt lat="48.51616" lon="1.73325">
        <ele>139.05</ele>
        <time>2020-07-06T13:14:27Z</time>
      </trkpt>
      <trkpt lat="48.51612" lon="1.73311">
        <ele>139.05</ele>
        <time>2020-07-06T13:14:34Z</time>
      </trkpt>
      <trkpt lat="48.51607" lon="1.73298">
        <ele>138.57</ele>
        <time>2020-07-06T13:14:41Z</time>
      </trkpt>
      <trkpt lat="48.51604" lon="1.73284">
        <ele>139.53</ele>
        <time>2020-07-06T13:14:48Z</time>
      </trkpt>
      <trkpt lat="48.516" lon="1.73271">
        <ele>138.09</ele>
        <time>2020-07-06T13:14:54Z</time>
      </trkpt>
      <trkpt lat="48.51597" lon="1.73257">
        <ele>139.05</ele>
        <time>2020-07-06T13:15:00Z</time>
      </trkpt>
      <trkpt lat="48.51595" lon="1.73243">
        <ele>140.01</ele>
        <time>2020-07-06T13:15:06Z</time>
      </trkpt>
      <trkpt lat="48.51592" lon="1.7323">
        <ele>140.01</ele>
        <time>2020-07-06T13:15:12Z</time>
      </trkpt>
      <trkpt lat="48.5159" lon="1.73217">
        <ele>140.01</ele>
        <time>2020-07-06T13:15:18Z</time>
      </trkpt>
      <trkpt lat="48.51586" lon="1.73204">
        <ele>140.49</ele>
        <time>2020-07-06T13:15:24Z</time>
      </trkpt>
      <trkpt lat="48.51583" lon="1.73191">
        <ele>139.53</ele>
        <time>2020-07-06T13:15:30Z</time>
      </trkpt>
      <trkpt lat="48.51579" lon="1.73178">
        <ele>140.01</ele>
        <time>2020-07-06T13:15:36Z</time>
      </trkpt>
      <trkpt lat="48.51576" lon="1.73163">
        <ele>140.49</ele>
        <time>2020-07-06T13:15:43Z</time>
      </trkpt>
      <trkpt lat="48.51573" lon="1.7315">
        <ele>140.49</ele>
        <time>2020-07-06T13:15:49Z</time>
      </trkpt>
      <trkpt lat="48.51571" lon="1.73134">
        <ele>140.01</ele>
        <time>2020-07-06T13:15:56Z</time>
      </trkpt>
      <trkpt lat="48.51568" lon="1.73119">
        <ele>141.45</ele>
        <time>2020-07-06T13:16:03Z</time>
      </trkpt>
      <trkpt lat="48.51565" lon="1.73105">
        <ele>141.45</ele>
        <time>2020-07-06T13:16:09Z</time>
      </trkpt>
      <trkpt lat="48.51562" lon="1.73092">
        <ele>141.93</ele>
        <time>2020-07-06T13:16:15Z</time>
      </trkpt>
      <trkpt lat="48.51559" lon="1.73078">
        <ele>141.45</ele>
        <time>2020-07-06T13:16:21Z</time>
      </trkpt>
      <trkpt lat="48.51556" lon="1.73064">
        <ele>141.93</ele>
        <time>2020-07-06T13:16:27Z</time>
      </trkpt>
      <trkpt lat="48.51553" lon="1.73051">
        <ele>141.45</ele>
        <time>2020-07-06T13:16:33Z</time>
      </trkpt>
      <trkpt lat="48.5155" lon="1.73038">
        <ele>141.45</ele>
        <time>2020-07-06T13:16:39Z</time>
      </trkpt>
      <trkpt lat="48.51547" lon="1.73024">
        <ele>141.45</ele>
        <time>2020-07-06T13:16:45Z</time>
      </trkpt>
      <trkpt lat="48.51545" lon="1.73011">
        <ele>141.45</ele>
        <time>2020-07-06T13:16:51Z</time>
      </trkpt>
      <trkpt lat="48.51542" lon="1.72996">
        <ele>141.45</ele>
        <time>2020-07-06T13:16:58Z</time>
      </trkpt>
      <trkpt lat="48.51539" lon="1.72981">
        <ele>141.93</ele>
        <time>2020-07-06T13:17:05Z</time>
      </trkpt>
      <trkpt lat="48.51536" lon="1.72965">
        <ele>141.45</ele>
        <time>2020-07-06T13:17:12Z</time>
      </trkpt>
      <trkpt lat="48.51533" lon="1.72948">
        <ele>140.97</ele>
        <time>2020-07-06T13:17:19Z</time>
      </trkpt>
      <trkpt lat="48.51529" lon="1.72935">
        <ele>141.93</ele>
        <time>2020-07-06T13:17:25Z</time>
      </trkpt>
      <trkpt lat="48.51527" lon="1.7292">
        <ele>141.93</ele>
        <time>2020-07-06T13:17:32Z</time>
      </trkpt>
      <trkpt lat="48.51523" lon="1.72907">
        <ele>141.93</ele>
        <time>2020-07-06T13:17:38Z</time>
      </trkpt>
      <trkpt lat="48.51521" lon="1.72893">
        <ele>141.93</ele>
        <time>2020-07-06T13:17:45Z</time>
      </trkpt>
      <trkpt lat="48.51517" lon="1.7288">
        <ele>142.89</ele>
        <time>2020-07-06T13:17:52Z</time>
      </trkpt>
      <trkpt lat="48.51515" lon="1.72866">
        <ele>142.89</ele>
        <time>2020-07-06T13:17:59Z</time>
      </trkpt>
      <trkpt lat="48.51512" lon="1.72852">
        <ele>142.41</ele>
        <time>2020-07-06T13:18:06Z</time>
      </trkpt>
      <trkpt lat="48.51508" lon="1.72837">
        <ele>141.93</ele>
        <time>2020-07-06T13:18:13Z</time>
      </trkpt>
      <trkpt lat="48.51505" lon="1.72823">
        <ele>142.89</ele>
        <time>2020-07-06T13:18:20Z</time>
      </trkpt>
      <trkpt lat="48.51501" lon="1.72809">
        <ele>142.41</ele>
        <time>2020-07-06T13:18:28Z</time>
      </trkpt>
      <trkpt lat="48.51502" lon="1.72794">
        <ele>141.93</ele>
        <time>2020-07-06T13:18:35Z</time>
      </trkpt>
      <trkpt lat="48.51498" lon="1.72781">
        <ele>140.97</ele>
        <time>2020-07-06T13:18:42Z</time>
      </trkpt>
      <trkpt lat="48.51495" lon="1.72766">
        <ele>141.45</ele>
        <time>2020-07-06T13:18:50Z</time>
      </trkpt>
      <trkpt lat="48.51493" lon="1.72752">
        <ele>140.97</ele>
        <time>2020-07-06T13:18:57Z</time>
      </trkpt>
      <trkpt lat="48.5149" lon="1.72739">
        <ele>141.45</ele>
        <time>2020-07-06T13:19:03Z</time>
      </trkpt>
      <trkpt lat="48.51488" lon="1.72725">
        <ele>141.45</ele>
        <time>2020-07-06T13:19:10Z</time>
      </trkpt>
      <trkpt lat="48.51486" lon="1.72709">
        <ele>140.49</ele>
        <time>2020-07-06T13:19:18Z</time>
      </trkpt>
      <trkpt lat="48.51484" lon="1.72693">
        <ele>140.49</ele>
        <time>2020-07-06T13:19:26Z</time>
      </trkpt>
      <trkpt lat="48.51481" lon="1.72678">
        <ele>140.97</ele>
        <time>2020-07-06T13:19:33Z</time>
      </trkpt>
      <trkpt lat="48.51478" lon="1.72663">
        <ele>141.45</ele>
        <time>2020-07-06T13:19:40Z</time>
      </trkpt>
      <trkpt lat="48.51474" lon="1.72647">
        <ele>139.53</ele>
        <time>2020-07-06T13:19:47Z</time>
      </trkpt>
      <trkpt lat="48.51469" lon="1.72633">
        <ele>139.05</ele>
        <time>2020-07-06T13:19:54Z</time>
      </trkpt>
      <trkpt lat="48.51467" lon="1.72618">
        <ele>138.57</ele>
        <time>2020-07-06T13:20:01Z</time>
      </trkpt>
      <trkpt lat="48.51464" lon="1.72603">
        <ele>139.05</ele>
        <time>2020-07-06T13:20:08Z</time>
      </trkpt>
      <trkpt lat="48.51462" lon="1.72588">
        <ele>139.05</ele>
        <time>2020-07-06T13:20:15Z</time>
      </trkpt>
      <trkpt lat="48.5146" lon="1.72574">
        <ele>138.57</ele>
        <time>2020-07-06T13:20:22Z</time>
      </trkpt>
      <trkpt lat="48.51457" lon="1.72559">
        <ele>139.05</ele>
        <time>2020-07-06T13:20:29Z</time>
      </trkpt>
      <trkpt lat="48.51456" lon="1.72543">
        <ele>139.05</ele>
        <time>2020-07-06T13:20:36Z</time>
      </trkpt>
      <trkpt lat="48.51454" lon="1.72529">
        <ele>136.64</ele>
        <time>2020-07-06T13:20:43Z</time>
      </trkpt>
      <trkpt lat="48.51452" lon="1.72514">
        <ele>137.13</ele>
        <time>2020-07-06T13:20:50Z</time>
      </trkpt>
      <trkpt lat="48.5145" lon="1.72499">
        <ele>137.61</ele>
        <time>2020-07-06T13:20:57Z</time>
      </trkpt>
      <trkpt lat="48.51448" lon="1.72484">
        <ele>137.61</ele>
        <time>2020-07-06T13:21:04Z</time>
      </trkpt>
      <trkpt lat="48.51446" lon="1.72469">
        <ele>137.13</ele>
        <time>2020-07-06T13:21:11Z</time>
      </trkpt>
      <trkpt lat="48.51444" lon="1.72453">
        <ele>136.64</ele>
        <time>2020-07-06T13:21:18Z</time>
      </trkpt>
      <trkpt lat="48.51441" lon="1.72437">
        <ele>136.16</ele>
        <time>2020-07-06T13:21:25Z</time>
      </trkpt>
      <trkpt lat="48.51439" lon="1.72422">
        <ele>134.72</ele>
        <time>2020-07-06T13:21:32Z</time>
      </trkpt>
      <trkpt lat="48.51436" lon="1.72407">
        <ele>134.24</ele>
        <time>2020-07-06T13:21:39Z</time>
      </trkpt>
      <trkpt lat="48.51434" lon="1.72392">
        <ele>134.72</ele>
        <time>2020-07-06T13:21:46Z</time>
      </trkpt>
      <trkpt lat="48.51433" lon="1.72377">
        <ele>134.72</ele>
        <time>2020-07-06T13:21:53Z</time>
      </trkpt>
      <trkpt lat="48.51431" lon="1.72362">
        <ele>134.24</ele>
        <time>2020-07-06T13:22:00Z</time>
      </trkpt>
      <trkpt lat="48.51427" lon="1.72349">
        <ele>134.24</ele>
        <time>2020-07-06T13:22:07Z</time>
      </trkpt>
      <trkpt lat="48.51423" lon="1.72333">
        <ele>134.72</ele>
        <time>2020-07-06T13:22:14Z</time>
      </trkpt>
      <trkpt lat="48.5142" lon="1.7232">
        <ele>133.76</ele>
        <time>2020-07-06T13:22:20Z</time>
      </trkpt>
      <trkpt lat="48.51418" lon="1.72306">
        <ele>134.24</ele>
        <time>2020-07-06T13:22:27Z</time>
      </trkpt>
      <trkpt lat="48.51415" lon="1.7229">
        <ele>134.72</ele>
        <time>2020-07-06T13:22:35Z</time>
      </trkpt>
      <trkpt lat="48.51411" lon="1.72276">
        <ele>133.76</ele>
        <time>2020-07-06T13:22:42Z</time>
      </trkpt>
      <trkpt lat="48.5141" lon="1.72262">
        <ele>134.24</ele>
        <time>2020-07-06T13:22:48Z</time>
      </trkpt>
      <trkpt lat="48.51407" lon="1.72247">
        <ele>133.76</ele>
        <time>2020-07-06T13:22:55Z</time>
      </trkpt>
      <trkpt lat="48.51405" lon="1.72234">
        <ele>133.28</ele>
        <time>2020-07-06T13:23:01Z</time>
      </trkpt>
      <trkpt lat="48.51402" lon="1.7222">
        <ele>135.2</ele>
        <time>2020-07-06T13:23:08Z</time>
      </trkpt>
      <trkpt lat="48.51398" lon="1.72206">
        <ele>134.72</ele>
        <time>2020-07-06T13:23:15Z</time>
      </trkpt>
      <trkpt lat="48.51396" lon="1.72192">
        <ele>134.24</ele>
        <time>2020-07-06T13:23:21Z</time>
      </trkpt>
      <trkpt lat="48.51393" lon="1.72177">
        <ele>134.72</ele>
        <time>2020-07-06T13:23:30Z</time>
      </trkpt>
      <trkpt lat="48.51391" lon="1.72162">
        <ele>135.2</ele>
        <time>2020-07-06T13:23:37Z</time>
      </trkpt>
      <trkpt lat="48.51387" lon="1.72148">
        <ele>135.2</ele>
        <time>2020-07-06T13:23:44Z</time>
      </trkpt>
      <trkpt lat="48.51383" lon="1.72135">
        <ele>135.2</ele>
        <time>2020-07-06T13:23:50Z</time>
      </trkpt>
      <trkpt lat="48.51382" lon="1.72119">
        <ele>136.16</ele>
        <time>2020-07-06T13:23:58Z</time>
      </trkpt>
      <trkpt lat="48.51378" lon="1.72106">
        <ele>136.16</ele>
        <time>2020-07-06T13:24:05Z</time>
      </trkpt>
      <trkpt lat="48.51375" lon="1.72092">
        <ele>137.13</ele>
        <time>2020-07-06T13:24:11Z</time>
      </trkpt>
      <trkpt lat="48.51371" lon="1.72078">
        <ele>137.13</ele>
        <time>2020-07-06T13:24:19Z</time>
      </trkpt>
      <trkpt lat="48.51367" lon="1.72064">
        <ele>136.64</ele>
        <time>2020-07-06T13:24:26Z</time>
      </trkpt>
      <trkpt lat="48.51364" lon="1.72049">
        <ele>137.13</ele>
        <time>2020-07-06T13:24:34Z</time>
      </trkpt>
      <trkpt lat="48.51359" lon="1.72034">
        <ele>137.13</ele>
        <time>2020-07-06T13:24:42Z</time>
      </trkpt>
      <trkpt lat="48.51357" lon="1.7202">
        <ele>137.61</ele>
        <time>2020-07-06T13:24:49Z</time>
      </trkpt>
      <trkpt lat="48.51353" lon="1.72006">
        <ele>137.61</ele>
        <time>2020-07-06T13:24:56Z</time>
      </trkpt>
      <trkpt lat="48.5135" lon="1.71992">
        <ele>137.61</ele>
        <time>2020-07-06T13:25:03Z</time>
      </trkpt>
      <trkpt lat="48.51348" lon="1.71978">
        <ele>138.09</ele>
        <time>2020-07-06T13:25:10Z</time>
      </trkpt>
      <trkpt lat="48.51343" lon="1.71964">
        <ele>138.57</ele>
        <time>2020-07-06T13:25:17Z</time>
      </trkpt>
      <trkpt lat="48.51341" lon="1.71949">
        <ele>139.05</ele>
        <time>2020-07-06T13:25:24Z</time>
      </trkpt>
      <trkpt lat="48.51336" lon="1.71936">
        <ele>139.05</ele>
        <time>2020-07-06T13:25:31Z</time>
      </trkpt>
      <trkpt lat="48.51332" lon="1.71922">
        <ele>139.53</ele>
        <time>2020-07-06T13:25:38Z</time>
      </trkpt>
      <trkpt lat="48.51331" lon="1.71907">
        <ele>140.97</ele>
        <time>2020-07-06T13:25:45Z</time>
      </trkpt>
      <trkpt lat="48.51327" lon="1.71894">
        <ele>140.01</ele>
        <time>2020-07-06T13:25:52Z</time>
      </trkpt>
      <trkpt lat="48.51324" lon="1.7188">
        <ele>138.57</ele>
        <time>2020-07-06T13:25:59Z</time>
      </trkpt>
      <trkpt lat="48.51321" lon="1.71866">
        <ele>140.01</ele>
        <time>2020-07-06T13:26:06Z</time>
      </trkpt>
      <trkpt lat="48.51317" lon="1.71852">
        <ele>139.05</ele>
        <time>2020-07-06T13:26:13Z</time>
      </trkpt>
      <trkpt lat="48.51314" lon="1.71837">
        <ele>138.57</ele>
        <time>2020-07-06T13:26:20Z</time>
      </trkpt>
      <trkpt lat="48.51311" lon="1.71824">
        <ele>139.53</ele>
        <time>2020-07-06T13:26:27Z</time>
      </trkpt>
      <trkpt lat="48.51308" lon="1.7181">
        <ele>139.05</ele>
        <time>2020-07-06T13:26:34Z</time>
      </trkpt>
      <trkpt lat="48.51306" lon="1.71796">
        <ele>138.57</ele>
        <time>2020-07-06T13:26:41Z</time>
      </trkpt>
      <trkpt lat="48.51303" lon="1.71782">
        <ele>139.05</ele>
        <time>2020-07-06T13:26:48Z</time>
      </trkpt>
      <trkpt lat="48.513" lon="1.71767">
        <ele>138.57</ele>
        <time>2020-07-06T13:26:55Z</time>
      </trkpt>
      <trkpt lat="48.51297" lon="1.71753">
        <ele>139.05</ele>
        <time>2020-07-06T13:27:02Z</time>
      </trkpt>
      <trkpt lat="48.51292" lon="1.7174">
        <ele>139.05</ele>
        <time>2020-07-06T13:27:09Z</time>
      </trkpt>
      <trkpt lat="48.51289" lon="1.71726">
        <ele>139.05</ele>
        <time>2020-07-06T13:27:16Z</time>
      </trkpt>
      <trkpt lat="48.51284" lon="1.71713">
        <ele>139.05</ele>
        <time>2020-07-06T13:27:23Z</time>
      </trkpt>
      <trkpt lat="48.51278" lon="1.71703">
        <ele>138.57</ele>
        <time>2020-07-06T13:27:30Z</time>
      </trkpt>
      <trkpt lat="48.51274" lon="1.71689">
        <ele>139.05</ele>
        <time>2020-07-06T13:27:37Z</time>
      </trkpt>
      <trkpt lat="48.51269" lon="1.71676">
        <ele>139.05</ele>
        <time>2020-07-06T13:27:44Z</time>
      </trkpt>
      <trkpt lat="48.51262" lon="1.71666">
        <ele>138.57</ele>
        <time>2020-07-06T13:27:51Z</time>
      </trkpt>
      <trkpt lat="48.51257" lon="1.71652">
        <ele>138.57</ele>
        <time>2020-07-06T13:27:59Z</time>
      </trkpt>
      <trkpt lat="48.5125" lon="1.71641">
        <ele>138.09</ele>
        <time>2020-07-06T13:28:06Z</time>
      </trkpt>
      <trkpt lat="48.51243" lon="1.71632">
        <ele>137.61</ele>
        <time>2020-07-06T13:28:12Z</time>
      </trkpt>
      <trkpt lat="48.51238" lon="1.71619">
        <ele>137.13</ele>
        <time>2020-07-06T13:28:19Z</time>
      </trkpt>
      <trkpt lat="48.51233" lon="1.71607">
        <ele>137.13</ele>
        <time>2020-07-06T13:28:25Z</time>
      </trkpt>
      <trkpt lat="48.51225" lon="1.71598">
        <ele>136.64</ele>
        <time>2020-07-06T13:28:31Z</time>
      </trkpt>
      <trkpt lat="48.51219" lon="1.71587">
        <ele>136.16</ele>
        <time>2020-07-06T13:28:38Z</time>
      </trkpt>
      <trkpt lat="48.51215" lon="1.71574">
        <ele>135.68</ele>
        <time>2020-07-06T13:28:45Z</time>
      </trkpt>
      <trkpt lat="48.51206" lon="1.71566">
        <ele>134.72</ele>
        <time>2020-07-06T13:28:51Z</time>
      </trkpt>
      <trkpt lat="48.51199" lon="1.71557">
        <ele>134.24</ele>
        <time>2020-07-06T13:28:57Z</time>
      </trkpt>
      <trkpt lat="48.51193" lon="1.71546">
        <ele>133.28</ele>
        <time>2020-07-06T13:29:05Z</time>
      </trkpt>
      <trkpt lat="48.51188" lon="1.71532">
        <ele>132.32</ele>
        <time>2020-07-06T13:29:12Z</time>
      </trkpt>
      <trkpt lat="48.51179" lon="1.71522">
        <ele>131.36</ele>
        <time>2020-07-06T13:29:20Z</time>
      </trkpt>
      <trkpt lat="48.51171" lon="1.71513">
        <ele>130.88</ele>
        <time>2020-07-06T13:29:26Z</time>
      </trkpt>
      <trkpt lat="48.51165" lon="1.71501">
        <ele>129.43</ele>
        <time>2020-07-06T13:29:36Z</time>
      </trkpt>
      <trkpt lat="48.51159" lon="1.7149">
        <ele>128.95</ele>
        <time>2020-07-06T13:29:43Z</time>
      </trkpt>
      <trkpt lat="48.51152" lon="1.71482">
        <ele>128.47</ele>
        <time>2020-07-06T13:29:49Z</time>
      </trkpt>
      <trkpt lat="48.51145" lon="1.71472">
        <ele>127.99</ele>
        <time>2020-07-06T13:29:55Z</time>
      </trkpt>
      <trkpt lat="48.5114" lon="1.7146">
        <ele>126.07</ele>
        <time>2020-07-06T13:30:02Z</time>
      </trkpt>
      <trkpt lat="48.51133" lon="1.71451">
        <ele>125.59</ele>
        <time>2020-07-06T13:30:08Z</time>
      </trkpt>
      <trkpt lat="48.51124" lon="1.71442">
        <ele>125.59</ele>
        <time>2020-07-06T13:30:14Z</time>
      </trkpt>
      <trkpt lat="48.51117" lon="1.71433">
        <ele>124.15</ele>
        <time>2020-07-06T13:30:20Z</time>
      </trkpt>
      <trkpt lat="48.51113" lon="1.71421">
        <ele>123.19</ele>
        <time>2020-07-06T13:30:27Z</time>
      </trkpt>
      <trkpt lat="48.51106" lon="1.71411">
        <ele>122.22</ele>
        <time>2020-07-06T13:30:34Z</time>
      </trkpt>
      <trkpt lat="48.51096" lon="1.71403">
        <ele>121.26</ele>
        <time>2020-07-06T13:30:40Z</time>
      </trkpt>
      <trkpt lat="48.5109" lon="1.71393">
        <ele>120.3</ele>
        <time>2020-07-06T13:30:47Z</time>
      </trkpt>
      <trkpt lat="48.51082" lon="1.71384">
        <ele>119.34</ele>
        <time>2020-07-06T13:30:53Z</time>
      </trkpt>
      <trkpt lat="48.51076" lon="1.71371">
        <ele>119.34</ele>
        <time>2020-07-06T13:31:06Z</time>
      </trkpt>
      <trkpt lat="48.51068" lon="1.71361">
        <ele>117.9</ele>
        <time>2020-07-06T13:31:12Z</time>
      </trkpt>
      <trkpt lat="48.5106" lon="1.71351">
        <ele>116.46</ele>
        <time>2020-07-06T13:31:18Z</time>
      </trkpt>
      <trkpt lat="48.51052" lon="1.7134">
        <ele>115.98</ele>
        <time>2020-07-06T13:31:25Z</time>
      </trkpt>
      <trkpt lat="48.51045" lon="1.7133">
        <ele>115.01</ele>
        <time>2020-07-06T13:31:32Z</time>
      </trkpt>
      <trkpt lat="48.51037" lon="1.71318">
        <ele>113.09</ele>
        <time>2020-07-06T13:31:41Z</time>
      </trkpt>
      <trkpt lat="48.51028" lon="1.71307">
        <ele>112.13</ele>
        <time>2020-07-06T13:31:50Z</time>
      </trkpt>
      <trkpt lat="48.51018" lon="1.71292">
        <ele>110.69</ele>
        <time>2020-07-06T13:31:58Z</time>
      </trkpt>
      <trkpt lat="48.51008" lon="1.71281">
        <ele>109.25</ele>
        <time>2020-07-06T13:32:05Z</time>
      </trkpt>
      <trkpt lat="48.51" lon="1.71272">
        <ele>108.29</ele>
        <time>2020-07-06T13:32:11Z</time>
      </trkpt>
      <trkpt lat="48.50993" lon="1.71261">
        <ele>107.32</ele>
        <time>2020-07-06T13:32:17Z</time>
      </trkpt>
      <trkpt lat="48.50989" lon="1.71246">
        <ele>107.32</ele>
        <time>2020-07-06T13:32:24Z</time>
      </trkpt>
      <trkpt lat="48.50988" lon="1.71231">
        <ele>106.84</ele>
        <time>2020-07-06T13:32:31Z</time>
      </trkpt>
      <trkpt lat="48.50983" lon="1.71218">
        <ele>106.36</ele>
        <time>2020-07-06T13:32:38Z</time>
      </trkpt>
      <trkpt lat="48.50978" lon="1.71204">
        <ele>106.36</ele>
        <time>2020-07-06T13:32:45Z</time>
      </trkpt>
      <trkpt lat="48.50975" lon="1.71189">
        <ele>105.88</ele>
        <time>2020-07-06T13:32:53Z</time>
      </trkpt>
      <trkpt lat="48.50969" lon="1.71176">
        <ele>105.88</ele>
        <time>2020-07-06T13:33:01Z</time>
      </trkpt>
      <trkpt lat="48.50964" lon="1.71157">
        <ele>105.4</ele>
        <time>2020-07-06T13:33:10Z</time>
      </trkpt>
      <trkpt lat="48.50962" lon="1.71139">
        <ele>104.92</ele>
        <time>2020-07-06T13:33:19Z</time>
      </trkpt>
      <trkpt lat="48.50957" lon="1.71125">
        <ele>104.92</ele>
        <time>2020-07-06T13:33:25Z</time>
      </trkpt>
      <trkpt lat="48.50949" lon="1.71115">
        <ele>104.92</ele>
        <time>2020-07-06T13:33:32Z</time>
      </trkpt>
      <trkpt lat="48.50946" lon="1.71098">
        <ele>104.92</ele>
        <time>2020-07-06T13:33:40Z</time>
      </trkpt>
      <trkpt lat="48.50947" lon="1.71083">
        <ele>104.92</ele>
        <time>2020-07-06T13:33:48Z</time>
      </trkpt>
      <trkpt lat="48.50948" lon="1.71069">
        <ele>105.4</ele>
        <time>2020-07-06T13:33:55Z</time>
      </trkpt>
      <trkpt lat="48.50946" lon="1.71051">
        <ele>105.4</ele>
        <time>2020-07-06T13:34:03Z</time>
      </trkpt>
      <trkpt lat="48.50945" lon="1.71036">
        <ele>104.92</ele>
        <time>2020-07-06T13:34:11Z</time>
      </trkpt>
      <trkpt lat="48.50943" lon="1.71019">
        <ele>104.92</ele>
        <time>2020-07-06T13:34:19Z</time>
      </trkpt>
      <trkpt lat="48.50944" lon="1.71003">
        <ele>104.92</ele>
        <time>2020-07-06T13:34:28Z</time>
      </trkpt>
      <trkpt lat="48.50937" lon="1.70981">
        <ele>104.44</ele>
        <time>2020-07-06T13:34:36Z</time>
      </trkpt>
      <trkpt lat="48.50933" lon="1.70963">
        <ele>104.92</ele>
        <time>2020-07-06T13:34:42Z</time>
      </trkpt>
      <trkpt lat="48.50932" lon="1.7095">
        <ele>103.48</ele>
        <time>2020-07-06T13:34:49Z</time>
      </trkpt>
      <trkpt lat="48.50932" lon="1.70937">
        <ele>104.44</ele>
        <time>2020-07-06T13:34:56Z</time>
      </trkpt>
      <trkpt lat="48.50938" lon="1.70923">
        <ele>104.44</ele>
        <time>2020-07-06T13:35:03Z</time>
      </trkpt>
      <trkpt lat="48.50933" lon="1.70895">
        <ele>104.44</ele>
        <time>2020-07-06T13:35:10Z</time>
      </trkpt>
      <trkpt lat="48.50936" lon="1.7088">
        <ele>104.92</ele>
        <time>2020-07-06T13:35:18Z</time>
      </trkpt>
      <trkpt lat="48.5094" lon="1.70866">
        <ele>104.92</ele>
        <time>2020-07-06T13:35:25Z</time>
      </trkpt>
      <trkpt lat="48.50939" lon="1.70851">
        <ele>104.44</ele>
        <time>2020-07-06T13:35:32Z</time>
      </trkpt>
      <trkpt lat="48.5094" lon="1.70835">
        <ele>104.44</ele>
        <time>2020-07-06T13:35:40Z</time>
      </trkpt>
      <trkpt lat="48.50946" lon="1.70821">
        <ele>103</ele>
        <time>2020-07-06T13:35:48Z</time>
      </trkpt>
      <trkpt lat="48.5095" lon="1.70805">
        <ele>103.48</ele>
        <time>2020-07-06T13:35:56Z</time>
      </trkpt>
      <trkpt lat="48.50949" lon="1.70789">
        <ele>104.44</ele>
        <time>2020-07-06T13:36:07Z</time>
      </trkpt>
      <trkpt lat="48.50952" lon="1.70775">
        <ele>104.92</ele>
        <time>2020-07-06T13:36:14Z</time>
      </trkpt>
      <trkpt lat="48.50959" lon="1.70765">
        <ele>104.92</ele>
        <time>2020-07-06T13:36:22Z</time>
      </trkpt>
      <trkpt lat="48.5097" lon="1.70755">
        <ele>104.92</ele>
        <time>2020-07-06T13:36:29Z</time>
      </trkpt>
      <trkpt lat="48.50984" lon="1.70746">
        <ele>104.44</ele>
        <time>2020-07-06T13:36:36Z</time>
      </trkpt>
      <trkpt lat="48.50993" lon="1.70738">
        <ele>103.96</ele>
        <time>2020-07-06T13:36:44Z</time>
      </trkpt>
      <trkpt lat="48.51001" lon="1.70729">
        <ele>104.92</ele>
        <time>2020-07-06T13:36:51Z</time>
      </trkpt>
      <trkpt lat="48.5101" lon="1.70719">
        <ele>103.96</ele>
        <time>2020-07-06T13:36:58Z</time>
      </trkpt>
      <trkpt lat="48.51019" lon="1.70708">
        <ele>104.92</ele>
        <time>2020-07-06T13:37:07Z</time>
      </trkpt>
      <trkpt lat="48.51026" lon="1.70697">
        <ele>104.44</ele>
        <time>2020-07-06T13:37:15Z</time>
      </trkpt>
      <trkpt lat="48.51036" lon="1.70684">
        <ele>104.44</ele>
        <time>2020-07-06T13:37:24Z</time>
      </trkpt>
      <trkpt lat="48.51045" lon="1.70673">
        <ele>104.92</ele>
        <time>2020-07-06T13:37:31Z</time>
      </trkpt>
      <trkpt lat="48.51053" lon="1.70662">
        <ele>104.92</ele>
        <time>2020-07-06T13:37:38Z</time>
      </trkpt>
      <trkpt lat="48.51062" lon="1.7065">
        <ele>104.92</ele>
        <time>2020-07-06T13:37:47Z</time>
      </trkpt>
      <trkpt lat="48.51071" lon="1.70639">
        <ele>105.88</ele>
        <time>2020-07-06T13:37:55Z</time>
      </trkpt>
      <trkpt lat="48.51081" lon="1.70624">
        <ele>105.4</ele>
        <time>2020-07-06T13:38:04Z</time>
      </trkpt>
      <trkpt lat="48.51089" lon="1.70611">
        <ele>105.4</ele>
        <time>2020-07-06T13:38:12Z</time>
      </trkpt>
      <trkpt lat="48.51094" lon="1.70598">
        <ele>105.88</ele>
        <time>2020-07-06T13:38:19Z</time>
      </trkpt>
      <trkpt lat="48.51099" lon="1.70586">
        <ele>106.84</ele>
        <time>2020-07-06T13:38:26Z</time>
      </trkpt>
      <trkpt lat="48.51104" lon="1.70573">
        <ele>106.36</ele>
        <time>2020-07-06T13:38:33Z</time>
      </trkpt>
      <trkpt lat="48.5111" lon="1.70561">
        <ele>106.36</ele>
        <time>2020-07-06T13:38:40Z</time>
      </trkpt>
      <trkpt lat="48.51116" lon="1.70546">
        <ele>106.36</ele>
        <time>2020-07-06T13:38:48Z</time>
      </trkpt>
      <trkpt lat="48.51121" lon="1.70533">
        <ele>106.36</ele>
        <time>2020-07-06T13:38:54Z</time>
      </trkpt>
      <trkpt lat="48.51127" lon="1.70521">
        <ele>105.88</ele>
        <time>2020-07-06T13:39:01Z</time>
      </trkpt>
      <trkpt lat="48.51133" lon="1.70509">
        <ele>105.4</ele>
        <time>2020-07-06T13:39:08Z</time>
      </trkpt>
      <trkpt lat="48.51138" lon="1.70493">
        <ele>104.92</ele>
        <time>2020-07-06T13:39:16Z</time>
      </trkpt>
      <trkpt lat="48.51147" lon="1.70478">
        <ele>104.92</ele>
        <time>2020-07-06T13:39:23Z</time>
      </trkpt>
      <trkpt lat="48.51152" lon="1.70465">
        <ele>104.92</ele>
        <time>2020-07-06T13:39:30Z</time>
      </trkpt>
      <trkpt lat="48.51158" lon="1.7045">
        <ele>104.44</ele>
        <time>2020-07-06T13:39:37Z</time>
      </trkpt>
      <trkpt lat="48.51159" lon="1.70435">
        <ele>104.92</ele>
        <time>2020-07-06T13:39:44Z</time>
      </trkpt>
      <trkpt lat="48.51161" lon="1.7042">
        <ele>104.92</ele>
        <time>2020-07-06T13:39:51Z</time>
      </trkpt>
      <trkpt lat="48.51163" lon="1.70403">
        <ele>104.92</ele>
        <time>2020-07-06T13:40:00Z</time>
      </trkpt>
      <trkpt lat="48.51167" lon="1.70389">
        <ele>104.44</ele>
        <time>2020-07-06T13:40:07Z</time>
      </trkpt>
      <trkpt lat="48.51167" lon="1.70374">
        <ele>104.44</ele>
        <time>2020-07-06T13:40:14Z</time>
      </trkpt>
      <trkpt lat="48.51167" lon="1.70357">
        <ele>104.44</ele>
        <time>2020-07-06T13:40:20Z</time>
      </trkpt>
      <trkpt lat="48.51166" lon="1.70341">
        <ele>104.44</ele>
        <time>2020-07-06T13:40:26Z</time>
      </trkpt>
      <trkpt lat="48.51166" lon="1.70324">
        <ele>104.92</ele>
        <time>2020-07-06T13:40:33Z</time>
      </trkpt>
      <trkpt lat="48.51169" lon="1.70308">
        <ele>104.92</ele>
        <time>2020-07-06T13:40:40Z</time>
      </trkpt>
      <trkpt lat="48.51169" lon="1.70293">
        <ele>104.44</ele>
        <time>2020-07-06T13:40:47Z</time>
      </trkpt>
      <trkpt lat="48.51173" lon="1.70279">
        <ele>104.44</ele>
        <time>2020-07-06T13:40:54Z</time>
      </trkpt>
      <trkpt lat="48.51172" lon="1.70264">
        <ele>104.44</ele>
        <time>2020-07-06T13:41:01Z</time>
      </trkpt>
      <trkpt lat="48.51167" lon="1.70251">
        <ele>104.92</ele>
        <time>2020-07-06T13:41:07Z</time>
      </trkpt>
      <trkpt lat="48.51169" lon="1.70235">
        <ele>104.92</ele>
        <time>2020-07-06T13:41:15Z</time>
      </trkpt>
      <trkpt lat="48.51168" lon="1.70219">
        <ele>104.92</ele>
        <time>2020-07-06T13:41:22Z</time>
      </trkpt>
      <trkpt lat="48.51174" lon="1.7021">
        <ele>103.96</ele>
        <time>2020-07-06T13:41:32Z</time>
      </trkpt>
      <trkpt lat="48.51166" lon="1.70202">
        <ele>104.44</ele>
        <time>2020-07-06T13:41:45Z</time>
      </trkpt>
      <trkpt lat="48.51165" lon="1.70187">
        <ele>104.44</ele>
        <time>2020-07-06T13:41:53Z</time>
      </trkpt>
      <trkpt lat="48.51163" lon="1.70171">
        <ele>103.96</ele>
        <time>2020-07-06T13:42:00Z</time>
      </trkpt>
      <trkpt lat="48.51161" lon="1.70154">
        <ele>104.92</ele>
        <time>2020-07-06T13:42:07Z</time>
      </trkpt>
      <trkpt lat="48.51158" lon="1.70143">
        <ele>105.4</ele>
        <time>2020-07-06T13:42:17Z</time>
      </trkpt>
      <trkpt lat="48.5115" lon="1.70136">
        <ele>105.4</ele>
        <time>2020-07-06T13:42:25Z</time>
      </trkpt>
      <trkpt lat="48.51141" lon="1.70131">
        <ele>105.4</ele>
        <time>2020-07-06T13:42:33Z</time>
      </trkpt>
      <trkpt lat="48.51129" lon="1.70125">
        <ele>105.4</ele>
        <time>2020-07-06T13:42:40Z</time>
      </trkpt>
      <trkpt lat="48.51118" lon="1.70122">
        <ele>105.88</ele>
        <time>2020-07-06T13:42:47Z</time>
      </trkpt>
      <trkpt lat="48.51106" lon="1.70116">
        <ele>105.88</ele>
        <time>2020-07-06T13:42:55Z</time>
      </trkpt>
      <trkpt lat="48.51095" lon="1.70111">
        <ele>106.36</ele>
        <time>2020-07-06T13:43:02Z</time>
      </trkpt>
      <trkpt lat="48.51086" lon="1.70107">
        <ele>106.36</ele>
        <time>2020-07-06T13:43:09Z</time>
      </trkpt>
      <trkpt lat="48.51076" lon="1.70104">
        <ele>106.36</ele>
        <time>2020-07-06T13:43:16Z</time>
      </trkpt>
      <trkpt lat="48.51065" lon="1.70102">
        <ele>106.84</ele>
        <time>2020-07-06T13:43:23Z</time>
      </trkpt>
      <trkpt lat="48.51055" lon="1.70098">
        <ele>106.36</ele>
        <time>2020-07-06T13:43:30Z</time>
      </trkpt>
      <trkpt lat="48.51044" lon="1.70095">
        <ele>106.84</ele>
        <time>2020-07-06T13:43:38Z</time>
      </trkpt>
      <trkpt lat="48.51034" lon="1.70088">
        <ele>107.81</ele>
        <time>2020-07-06T13:43:45Z</time>
      </trkpt>
      <trkpt lat="48.51026" lon="1.7008">
        <ele>107.81</ele>
        <time>2020-07-06T13:43:52Z</time>
      </trkpt>
      <trkpt lat="48.51025" lon="1.70063">
        <ele>107.32</ele>
        <time>2020-07-06T13:44:01Z</time>
      </trkpt>
      <trkpt lat="48.51023" lon="1.70048">
        <ele>107.81</ele>
        <time>2020-07-06T13:44:08Z</time>
      </trkpt>
      <trkpt lat="48.5102" lon="1.70034">
        <ele>109.25</ele>
        <time>2020-07-06T13:44:16Z</time>
      </trkpt>
      <trkpt lat="48.51017" lon="1.70019">
        <ele>109.25</ele>
        <time>2020-07-06T13:44:24Z</time>
      </trkpt>
      <trkpt lat="48.51015" lon="1.70003">
        <ele>109.25</ele>
        <time>2020-07-06T13:44:33Z</time>
      </trkpt>
      <trkpt lat="48.51017" lon="1.69987">
        <ele>109.25</ele>
        <time>2020-07-06T13:44:43Z</time>
      </trkpt>
      <trkpt lat="48.51012" lon="1.69997">
        <ele>109.25</ele>
        <time>2020-07-06T13:45:02Z</time>
      </trkpt>
      <trkpt lat="48.51004" lon="1.70012">
        <ele>109.25</ele>
        <time>2020-07-06T13:45:10Z</time>
      </trkpt>
      <trkpt lat="48.50994" lon="1.70015">
        <ele>109.25</ele>
        <time>2020-07-06T13:45:17Z</time>
      </trkpt>
      <trkpt lat="48.50984" lon="1.70017">
        <ele>110.21</ele>
        <time>2020-07-06T13:45:25Z</time>
      </trkpt>
      <trkpt lat="48.50974" lon="1.70018">
        <ele>110.21</ele>
        <time>2020-07-06T13:45:32Z</time>
      </trkpt>
      <trkpt lat="48.50965" lon="1.70018">
        <ele>110.69</ele>
        <time>2020-07-06T13:45:45Z</time>
      </trkpt>
      <trkpt lat="48.50961" lon="1.70013">
        <ele>111.65</ele>
        <time>2020-07-06T13:45:57Z</time>
      </trkpt>
      <trkpt lat="48.50954" lon="1.69998">
        <ele>111.17</ele>
        <time>2020-07-06T13:46:05Z</time>
      </trkpt>
      <trkpt lat="48.50948" lon="1.69985">
        <ele>111.65</ele>
        <time>2020-07-06T13:46:13Z</time>
      </trkpt>
      <trkpt lat="48.50941" lon="1.69972">
        <ele>111.65</ele>
        <time>2020-07-06T13:46:20Z</time>
      </trkpt>
      <trkpt lat="48.50933" lon="1.69961">
        <ele>113.09</ele>
        <time>2020-07-06T13:46:27Z</time>
      </trkpt>
      <trkpt lat="48.50926" lon="1.69946">
        <ele>113.57</ele>
        <time>2020-07-06T13:46:35Z</time>
      </trkpt>
      <trkpt lat="48.50917" lon="1.69937">
        <ele>114.53</ele>
        <time>2020-07-06T13:46:42Z</time>
      </trkpt>
      <trkpt lat="48.50908" lon="1.69927">
        <ele>115.98</ele>
        <time>2020-07-06T13:46:51Z</time>
      </trkpt>
      <trkpt lat="48.50896" lon="1.6992">
        <ele>117.42</ele>
        <time>2020-07-06T13:46:59Z</time>
      </trkpt>
      <trkpt lat="48.50887" lon="1.69913">
        <ele>118.38</ele>
        <time>2020-07-06T13:47:07Z</time>
      </trkpt>
      <trkpt lat="48.50875" lon="1.69908">
        <ele>119.34</ele>
        <time>2020-07-06T13:47:19Z</time>
      </trkpt>
      <trkpt lat="48.50868" lon="1.69888">
        <ele>121.26</ele>
        <time>2020-07-06T13:47:58Z</time>
      </trkpt>
      <trkpt lat="48.50873" lon="1.69868">
        <ele>121.26</ele>
        <time>2020-07-06T13:48:10Z</time>
      </trkpt>
      <trkpt lat="48.50882" lon="1.69848">
        <ele>120.78</ele>
        <time>2020-07-06T13:48:24Z</time>
      </trkpt>
      <trkpt lat="48.50895" lon="1.69829">
        <ele>119.82</ele>
        <time>2020-07-06T13:48:34Z</time>
      </trkpt>
      <trkpt lat="48.50903" lon="1.69813">
        <ele>119.82</ele>
        <time>2020-07-06T13:48:46Z</time>
      </trkpt>
      <trkpt lat="48.5091" lon="1.69795">
        <ele>117.9</ele>
        <time>2020-07-06T13:48:57Z</time>
      </trkpt>
      <trkpt lat="48.50924" lon="1.69774">
        <ele>117.9</ele>
        <time>2020-07-06T13:49:09Z</time>
      </trkpt>
      <trkpt lat="48.50936" lon="1.6976">
        <ele>117.42</ele>
        <time>2020-07-06T13:49:18Z</time>
      </trkpt>
      <trkpt lat="48.50947" lon="1.69744">
        <ele>117.42</ele>
        <time>2020-07-06T13:49:29Z</time>
      </trkpt>
      <trkpt lat="48.50959" lon="1.69728">
        <ele>117.42</ele>
        <time>2020-07-06T13:49:40Z</time>
      </trkpt>
      <trkpt lat="48.50972" lon="1.69711">
        <ele>117.42</ele>
        <time>2020-07-06T13:49:53Z</time>
      </trkpt>
      <trkpt lat="48.50982" lon="1.69696">
        <ele>117.42</ele>
        <time>2020-07-06T13:50:01Z</time>
      </trkpt>
      <trkpt lat="48.50991" lon="1.69679">
        <ele>116.46</ele>
        <time>2020-07-06T13:50:11Z</time>
      </trkpt>
      <trkpt lat="48.50997" lon="1.69664">
        <ele>115.5</ele>
        <time>2020-07-06T13:50:20Z</time>
      </trkpt>
      <trkpt lat="48.51005" lon="1.6965">
        <ele>114.53</ele>
        <time>2020-07-06T13:50:29Z</time>
      </trkpt>
      <trkpt lat="48.51016" lon="1.69637">
        <ele>113.57</ele>
        <time>2020-07-06T13:50:38Z</time>
      </trkpt>
      <trkpt lat="48.51025" lon="1.69623">
        <ele>112.61</ele>
        <time>2020-07-06T13:50:46Z</time>
      </trkpt>
      <trkpt lat="48.51019" lon="1.69611">
        <ele>112.61</ele>
        <time>2020-07-06T13:50:53Z</time>
      </trkpt>
      <trkpt lat="48.51012" lon="1.69599">
        <ele>113.57</ele>
        <time>2020-07-06T13:51:01Z</time>
      </trkpt>
      <trkpt lat="48.51005" lon="1.69587">
        <ele>114.05</ele>
        <time>2020-07-06T13:51:08Z</time>
      </trkpt>
      <trkpt lat="48.50998" lon="1.69574">
        <ele>115.01</ele>
        <time>2020-07-06T13:51:16Z</time>
      </trkpt>
      <trkpt lat="48.5099" lon="1.69563">
        <ele>115.5</ele>
        <time>2020-07-06T13:51:23Z</time>
      </trkpt>
      <trkpt lat="48.50983" lon="1.69552">
        <ele>115.98</ele>
        <time>2020-07-06T13:51:31Z</time>
      </trkpt>
      <trkpt lat="48.50975" lon="1.6954">
        <ele>116.94</ele>
        <time>2020-07-06T13:51:39Z</time>
      </trkpt>
      <trkpt lat="48.50966" lon="1.6953">
        <ele>116.94</ele>
        <time>2020-07-06T13:51:46Z</time>
      </trkpt>
      <trkpt lat="48.50958" lon="1.69521">
        <ele>117.9</ele>
        <time>2020-07-06T13:51:54Z</time>
      </trkpt>
      <trkpt lat="48.5095" lon="1.69514">
        <ele>118.86</ele>
        <time>2020-07-06T13:52:02Z</time>
      </trkpt>
      <trkpt lat="48.50941" lon="1.69508">
        <ele>118.86</ele>
        <time>2020-07-06T13:52:09Z</time>
      </trkpt>
      <trkpt lat="48.50933" lon="1.69501">
        <ele>119.82</ele>
        <time>2020-07-06T13:52:16Z</time>
      </trkpt>
      <trkpt lat="48.50924" lon="1.69493">
        <ele>120.78</ele>
        <time>2020-07-06T13:52:23Z</time>
      </trkpt>
      <trkpt lat="48.50914" lon="1.69488">
        <ele>121.74</ele>
        <time>2020-07-06T13:52:31Z</time>
      </trkpt>
      <trkpt lat="48.50907" lon="1.69479">
        <ele>122.71</ele>
        <time>2020-07-06T13:52:37Z</time>
      </trkpt>
      <trkpt lat="48.50899" lon="1.69472">
        <ele>123.67</ele>
        <time>2020-07-06T13:52:44Z</time>
      </trkpt>
      <trkpt lat="48.50891" lon="1.69463">
        <ele>123.67</ele>
        <time>2020-07-06T13:52:52Z</time>
      </trkpt>
      <trkpt lat="48.50892" lon="1.6945">
        <ele>124.15</ele>
        <time>2020-07-06T13:53:00Z</time>
      </trkpt>
      <trkpt lat="48.50896" lon="1.69438">
        <ele>125.11</ele>
        <time>2020-07-06T13:53:07Z</time>
      </trkpt>
      <trkpt lat="48.50904" lon="1.69427">
        <ele>125.59</ele>
        <time>2020-07-06T13:53:15Z</time>
      </trkpt>
      <trkpt lat="48.50911" lon="1.69416">
        <ele>126.55</ele>
        <time>2020-07-06T13:53:23Z</time>
      </trkpt>
      <trkpt lat="48.50914" lon="1.69403">
        <ele>128.47</ele>
        <time>2020-07-06T13:53:30Z</time>
      </trkpt>
      <trkpt lat="48.50922" lon="1.69393">
        <ele>128.95</ele>
        <time>2020-07-06T13:53:38Z</time>
      </trkpt>
      <trkpt lat="48.50929" lon="1.69381">
        <ele>129.92</ele>
        <time>2020-07-06T13:53:46Z</time>
      </trkpt>
      <trkpt lat="48.50934" lon="1.69368">
        <ele>130.88</ele>
        <time>2020-07-06T13:53:54Z</time>
      </trkpt>
      <trkpt lat="48.50941" lon="1.69358">
        <ele>131.84</ele>
        <time>2020-07-06T13:54:01Z</time>
      </trkpt>
      <trkpt lat="48.50945" lon="1.69344">
        <ele>133.28</ele>
        <time>2020-07-06T13:54:08Z</time>
      </trkpt>
      <trkpt lat="48.50952" lon="1.69332">
        <ele>132.8</ele>
        <time>2020-07-06T13:54:15Z</time>
      </trkpt>
      <trkpt lat="48.50956" lon="1.69321">
        <ele>133.76</ele>
        <time>2020-07-06T13:54:22Z</time>
      </trkpt>
      <trkpt lat="48.50961" lon="1.69308">
        <ele>134.72</ele>
        <time>2020-07-06T13:54:29Z</time>
      </trkpt>
      <trkpt lat="48.50966" lon="1.69295">
        <ele>135.68</ele>
        <time>2020-07-06T13:54:36Z</time>
      </trkpt>
      <trkpt lat="48.50973" lon="1.69283">
        <ele>135.68</ele>
        <time>2020-07-06T13:54:43Z</time>
      </trkpt>
      <trkpt lat="48.50978" lon="1.69271">
        <ele>136.16</ele>
        <time>2020-07-06T13:54:50Z</time>
      </trkpt>
      <trkpt lat="48.50983" lon="1.69257">
        <ele>136.16</ele>
        <time>2020-07-06T13:54:57Z</time>
      </trkpt>
      <trkpt lat="48.50989" lon="1.69245">
        <ele>137.13</ele>
        <time>2020-07-06T13:55:04Z</time>
      </trkpt>
      <trkpt lat="48.50996" lon="1.69234">
        <ele>137.61</ele>
        <time>2020-07-06T13:55:11Z</time>
      </trkpt>
      <trkpt lat="48.51003" lon="1.69223">
        <ele>137.61</ele>
        <time>2020-07-06T13:55:18Z</time>
      </trkpt>
      <trkpt lat="48.5101" lon="1.69211">
        <ele>136.64</ele>
        <time>2020-07-06T13:55:25Z</time>
      </trkpt>
      <trkpt lat="48.51016" lon="1.69198">
        <ele>137.13</ele>
        <time>2020-07-06T13:55:31Z</time>
      </trkpt>
      <trkpt lat="48.51019" lon="1.69185">
        <ele>137.61</ele>
        <time>2020-07-06T13:55:38Z</time>
      </trkpt>
      <trkpt lat="48.51026" lon="1.69174">
        <ele>138.09</ele>
        <time>2020-07-06T13:55:45Z</time>
      </trkpt>
      <trkpt lat="48.51035" lon="1.69169">
        <ele>137.61</ele>
        <time>2020-07-06T13:55:51Z</time>
      </trkpt>
      <trkpt lat="48.51044" lon="1.69166">
        <ele>138.09</ele>
        <time>2020-07-06T13:55:58Z</time>
      </trkpt>
      <trkpt lat="48.51053" lon="1.69162">
        <ele>137.13</ele>
        <time>2020-07-06T13:56:05Z</time>
      </trkpt>
      <trkpt lat="48.51063" lon="1.6916">
        <ele>138.09</ele>
        <time>2020-07-06T13:56:12Z</time>
      </trkpt>
      <trkpt lat="48.51073" lon="1.69161">
        <ele>137.61</ele>
        <time>2020-07-06T13:56:19Z</time>
      </trkpt>
      <trkpt lat="48.51084" lon="1.6916">
        <ele>137.13</ele>
        <time>2020-07-06T13:56:26Z</time>
      </trkpt>
      <trkpt lat="48.51093" lon="1.69155">
        <ele>137.13</ele>
        <time>2020-07-06T13:56:33Z</time>
      </trkpt>
      <trkpt lat="48.51104" lon="1.69153">
        <ele>136.64</ele>
        <time>2020-07-06T13:56:40Z</time>
      </trkpt>
      <trkpt lat="48.51114" lon="1.69153">
        <ele>135.68</ele>
        <time>2020-07-06T13:56:47Z</time>
      </trkpt>
      <trkpt lat="48.51124" lon="1.69149">
        <ele>135.68</ele>
        <time>2020-07-06T13:56:54Z</time>
      </trkpt>
      <trkpt lat="48.51134" lon="1.69146">
        <ele>133.76</ele>
        <time>2020-07-06T13:57:01Z</time>
      </trkpt>
      <trkpt lat="48.51144" lon="1.69146">
        <ele>134.24</ele>
        <time>2020-07-06T13:57:08Z</time>
      </trkpt>
      <trkpt lat="48.51155" lon="1.69145">
        <ele>134.24</ele>
        <time>2020-07-06T13:57:16Z</time>
      </trkpt>
      <trkpt lat="48.51167" lon="1.69144">
        <ele>132.8</ele>
        <time>2020-07-06T13:57:24Z</time>
      </trkpt>
      <trkpt lat="48.51177" lon="1.69142">
        <ele>132.32</ele>
        <time>2020-07-06T13:57:30Z</time>
      </trkpt>
      <trkpt lat="48.51187" lon="1.69139">
        <ele>132.32</ele>
        <time>2020-07-06T13:57:36Z</time>
      </trkpt>
      <trkpt lat="48.51196" lon="1.69134">
        <ele>132.32</ele>
        <time>2020-07-06T13:57:44Z</time>
      </trkpt>
      <trkpt lat="48.51205" lon="1.69132">
        <ele>131.84</ele>
        <time>2020-07-06T13:57:50Z</time>
      </trkpt>
      <trkpt lat="48.51216" lon="1.6913">
        <ele>133.28</ele>
        <time>2020-07-06T13:57:57Z</time>
      </trkpt>
      <trkpt lat="48.51224" lon="1.69125">
        <ele>131.84</ele>
        <time>2020-07-06T13:58:04Z</time>
      </trkpt>
      <trkpt lat="48.51235" lon="1.69121">
        <ele>131.84</ele>
        <time>2020-07-06T13:58:11Z</time>
      </trkpt>
      <trkpt lat="48.51244" lon="1.6912">
        <ele>131.36</ele>
        <time>2020-07-06T13:58:17Z</time>
      </trkpt>
      <trkpt lat="48.51253" lon="1.69116">
        <ele>130.88</ele>
        <time>2020-07-06T13:58:23Z</time>
      </trkpt>
      <trkpt lat="48.51261" lon="1.6911">
        <ele>130.4</ele>
        <time>2020-07-06T13:58:30Z</time>
      </trkpt>
      <trkpt lat="48.51272" lon="1.69108">
        <ele>130.88</ele>
        <time>2020-07-06T13:58:37Z</time>
      </trkpt>
      <trkpt lat="48.51282" lon="1.69104">
        <ele>131.36</ele>
        <time>2020-07-06T13:58:44Z</time>
      </trkpt>
      <trkpt lat="48.51289" lon="1.691">
        <ele>131.36</ele>
        <time>2020-07-06T13:58:50Z</time>
      </trkpt>
      <trkpt lat="48.51299" lon="1.69097">
        <ele>130.88</ele>
        <time>2020-07-06T13:58:56Z</time>
      </trkpt>
      <trkpt lat="48.51309" lon="1.69096">
        <ele>130.4</ele>
        <time>2020-07-06T13:59:03Z</time>
      </trkpt>
      <trkpt lat="48.51318" lon="1.69093">
        <ele>130.88</ele>
        <time>2020-07-06T13:59:09Z</time>
      </trkpt>
      <trkpt lat="48.51327" lon="1.69088">
        <ele>129.92</ele>
        <time>2020-07-06T13:59:15Z</time>
      </trkpt>
      <trkpt lat="48.51336" lon="1.69083">
        <ele>130.4</ele>
        <time>2020-07-06T13:59:22Z</time>
      </trkpt>
      <trkpt lat="48.51345" lon="1.69081">
        <ele>129.43</ele>
        <time>2020-07-06T13:59:28Z</time>
      </trkpt>
      <trkpt lat="48.51355" lon="1.69075">
        <ele>129.92</ele>
        <time>2020-07-06T13:59:35Z</time>
      </trkpt>
      <trkpt lat="48.51364" lon="1.69071">
        <ele>129.43</ele>
        <time>2020-07-06T13:59:41Z</time>
      </trkpt>
      <trkpt lat="48.51371" lon="1.69065">
        <ele>128.95</ele>
        <time>2020-07-06T13:59:48Z</time>
      </trkpt>
      <trkpt lat="48.51381" lon="1.69063">
        <ele>127.99</ele>
        <time>2020-07-06T13:59:55Z</time>
      </trkpt>
      <trkpt lat="48.51391" lon="1.69059">
        <ele>127.99</ele>
        <time>2020-07-06T14:00:02Z</time>
      </trkpt>
      <trkpt lat="48.51401" lon="1.69052">
        <ele>127.99</ele>
        <time>2020-07-06T14:00:09Z</time>
      </trkpt>
      <trkpt lat="48.51409" lon="1.69046">
        <ele>127.51</ele>
        <time>2020-07-06T14:00:16Z</time>
      </trkpt>
      <trkpt lat="48.5142" lon="1.69042">
        <ele>127.03</ele>
        <time>2020-07-06T14:00:24Z</time>
      </trkpt>
      <trkpt lat="48.5143" lon="1.69035">
        <ele>126.55</ele>
        <time>2020-07-06T14:00:31Z</time>
      </trkpt>
      <trkpt lat="48.5144" lon="1.6903">
        <ele>126.07</ele>
        <time>2020-07-06T14:00:38Z</time>
      </trkpt>
      <trkpt lat="48.5145" lon="1.69028">
        <ele>125.59</ele>
        <time>2020-07-06T14:00:45Z</time>
      </trkpt>
      <trkpt lat="48.51459" lon="1.69024">
        <ele>124.15</ele>
        <time>2020-07-06T14:00:51Z</time>
      </trkpt>
      <trkpt lat="48.51467" lon="1.69017">
        <ele>124.15</ele>
        <time>2020-07-06T14:00:58Z</time>
      </trkpt>
      <trkpt lat="48.51476" lon="1.69013">
        <ele>123.19</ele>
        <time>2020-07-06T14:01:12Z</time>
      </trkpt>
      <trkpt lat="48.51485" lon="1.69007">
        <ele>123.67</ele>
        <time>2020-07-06T14:01:18Z</time>
      </trkpt>
      <trkpt lat="48.51495" lon="1.69002">
        <ele>122.71</ele>
        <time>2020-07-06T14:01:24Z</time>
      </trkpt>
      <trkpt lat="48.51505" lon="1.68997">
        <ele>122.71</ele>
        <time>2020-07-06T14:01:30Z</time>
      </trkpt>
      <trkpt lat="48.51514" lon="1.68992">
        <ele>121.26</ele>
        <time>2020-07-06T14:01:36Z</time>
      </trkpt>
      <trkpt lat="48.51525" lon="1.68987">
        <ele>121.26</ele>
        <time>2020-07-06T14:01:42Z</time>
      </trkpt>
      <trkpt lat="48.51533" lon="1.68982">
        <ele>120.3</ele>
        <time>2020-07-06T14:01:47Z</time>
      </trkpt>
      <trkpt lat="48.51542" lon="1.68973">
        <ele>119.34</ele>
        <time>2020-07-06T14:01:53Z</time>
      </trkpt>
      <trkpt lat="48.5155" lon="1.68969">
        <ele>119.34</ele>
        <time>2020-07-06T14:01:59Z</time>
      </trkpt>
      <trkpt lat="48.5156" lon="1.6896">
        <ele>117.9</ele>
        <time>2020-07-06T14:02:06Z</time>
      </trkpt>
      <trkpt lat="48.51566" lon="1.68948">
        <ele>117.9</ele>
        <time>2020-07-06T14:02:12Z</time>
      </trkpt>
      <trkpt lat="48.51571" lon="1.68935">
        <ele>116.94</ele>
        <time>2020-07-06T14:02:19Z</time>
      </trkpt>
      <trkpt lat="48.51577" lon="1.68924">
        <ele>115.98</ele>
        <time>2020-07-06T14:02:25Z</time>
      </trkpt>
      <trkpt lat="48.51583" lon="1.68911">
        <ele>115.5</ele>
        <time>2020-07-06T14:02:32Z</time>
      </trkpt>
      <trkpt lat="48.51589" lon="1.689">
        <ele>114.53</ele>
        <time>2020-07-06T14:02:38Z</time>
      </trkpt>
      <trkpt lat="48.51593" lon="1.68884">
        <ele>113.57</ele>
        <time>2020-07-06T14:02:45Z</time>
      </trkpt>
      <trkpt lat="48.51597" lon="1.68871">
        <ele>112.61</ele>
        <time>2020-07-06T14:02:52Z</time>
      </trkpt>
      <trkpt lat="48.51603" lon="1.68857">
        <ele>111.65</ele>
        <time>2020-07-06T14:03:00Z</time>
      </trkpt>
      <trkpt lat="48.51608" lon="1.68842">
        <ele>111.17</ele>
        <time>2020-07-06T14:03:07Z</time>
      </trkpt>
      <trkpt lat="48.51613" lon="1.68828">
        <ele>109.73</ele>
        <time>2020-07-06T14:03:14Z</time>
      </trkpt>
      <trkpt lat="48.51618" lon="1.68815">
        <ele>109.73</ele>
        <time>2020-07-06T14:03:20Z</time>
      </trkpt>
      <trkpt lat="48.51624" lon="1.68802">
        <ele>109.73</ele>
        <time>2020-07-06T14:03:27Z</time>
      </trkpt>
      <trkpt lat="48.51631" lon="1.68789">
        <ele>110.21</ele>
        <time>2020-07-06T14:03:34Z</time>
      </trkpt>
      <trkpt lat="48.51636" lon="1.68775">
        <ele>110.21</ele>
        <time>2020-07-06T14:03:41Z</time>
      </trkpt>
      <trkpt lat="48.51641" lon="1.68762">
        <ele>110.69</ele>
        <time>2020-07-06T14:03:48Z</time>
      </trkpt>
      <trkpt lat="48.51647" lon="1.6875">
        <ele>110.69</ele>
        <time>2020-07-06T14:03:56Z</time>
      </trkpt>
      <trkpt lat="48.51654" lon="1.68739">
        <ele>111.65</ele>
        <time>2020-07-06T14:04:04Z</time>
      </trkpt>
      <trkpt lat="48.51658" lon="1.68721">
        <ele>112.13</ele>
        <time>2020-07-06T14:04:14Z</time>
      </trkpt>
      <trkpt lat="48.51662" lon="1.68706">
        <ele>113.09</ele>
        <time>2020-07-06T14:04:23Z</time>
      </trkpt>
      <trkpt lat="48.51668" lon="1.68692">
        <ele>114.05</ele>
        <time>2020-07-06T14:04:31Z</time>
      </trkpt>
      <trkpt lat="48.51674" lon="1.68679">
        <ele>114.05</ele>
        <time>2020-07-06T14:04:39Z</time>
      </trkpt>
      <trkpt lat="48.51679" lon="1.68666">
        <ele>114.05</ele>
        <time>2020-07-06T14:04:47Z</time>
      </trkpt>
      <trkpt lat="48.5169" lon="1.68665">
        <ele>114.05</ele>
        <time>2020-07-06T14:04:56Z</time>
      </trkpt>
      <trkpt lat="48.51701" lon="1.68662">
        <ele>114.05</ele>
        <time>2020-07-06T14:05:04Z</time>
      </trkpt>
      <trkpt lat="48.51712" lon="1.68659">
        <ele>114.05</ele>
        <time>2020-07-06T14:05:12Z</time>
      </trkpt>
      <trkpt lat="48.51719" lon="1.68649">
        <ele>114.53</ele>
        <time>2020-07-06T14:05:21Z</time>
      </trkpt>
      <trkpt lat="48.51726" lon="1.68634">
        <ele>114.53</ele>
        <time>2020-07-06T14:05:29Z</time>
      </trkpt>
      <trkpt lat="48.51735" lon="1.68627">
        <ele>114.53</ele>
        <time>2020-07-06T14:05:36Z</time>
      </trkpt>
      <trkpt lat="48.51744" lon="1.6862">
        <ele>114.53</ele>
        <time>2020-07-06T14:05:44Z</time>
      </trkpt>
      <trkpt lat="48.51753" lon="1.68614">
        <ele>114.05</ele>
        <time>2020-07-06T14:05:51Z</time>
      </trkpt>
      <trkpt lat="48.51761" lon="1.68605">
        <ele>115.01</ele>
        <time>2020-07-06T14:05:58Z</time>
      </trkpt>
      <trkpt lat="48.51765" lon="1.68592">
        <ele>114.53</ele>
        <time>2020-07-06T14:06:05Z</time>
      </trkpt>
      <trkpt lat="48.51771" lon="1.6858">
        <ele>114.05</ele>
        <time>2020-07-06T14:06:13Z</time>
      </trkpt>
      <trkpt lat="48.51775" lon="1.68566">
        <ele>114.53</ele>
        <time>2020-07-06T14:06:20Z</time>
      </trkpt>
      <trkpt lat="48.51778" lon="1.68549">
        <ele>114.53</ele>
        <time>2020-07-06T14:06:29Z</time>
      </trkpt>
      <trkpt lat="48.51781" lon="1.68534">
        <ele>115.01</ele>
        <time>2020-07-06T14:06:44Z</time>
      </trkpt>
      <trkpt lat="48.51785" lon="1.68519">
        <ele>115.01</ele>
        <time>2020-07-06T14:07:08Z</time>
      </trkpt>
      <trkpt lat="48.51792" lon="1.68507">
        <ele>115.01</ele>
        <time>2020-07-06T14:07:46Z</time>
      </trkpt>
      <trkpt lat="48.51788" lon="1.68519">
        <ele>115.01</ele>
        <time>2020-07-06T14:08:07Z</time>
      </trkpt>
      <trkpt lat="48.51786" lon="1.68531">
        <ele>115.01</ele>
        <time>2020-07-06T14:08:42Z</time>
      </trkpt>
      <trkpt lat="48.5178" lon="1.68545">
        <ele>115.01</ele>
        <time>2020-07-06T14:08:53Z</time>
      </trkpt>
      <trkpt lat="48.51775" lon="1.68559">
        <ele>115.01</ele>
        <time>2020-07-06T14:09:01Z</time>
      </trkpt>
      <trkpt lat="48.51771" lon="1.68576">
        <ele>115.01</ele>
        <time>2020-07-06T14:09:10Z</time>
      </trkpt>
      <trkpt lat="48.51775" lon="1.68591">
        <ele>115.01</ele>
        <time>2020-07-06T14:09:19Z</time>
      </trkpt>
      <trkpt lat="48.51781" lon="1.68602">
        <ele>115.01</ele>
        <time>2020-07-06T14:09:29Z</time>
      </trkpt>
      <trkpt lat="48.5179" lon="1.686">
        <ele>115.5</ele>
        <time>2020-07-06T14:10:34Z</time>
      </trkpt>
      <trkpt lat="48.51795" lon="1.6859">
        <ele>115.5</ele>
        <time>2020-07-06T14:10:47Z</time>
      </trkpt>
      <trkpt lat="48.518" lon="1.68578">
        <ele>115.98</ele>
        <time>2020-07-06T14:11:09Z</time>
      </trkpt>
      <trkpt lat="48.51805" lon="1.68564">
        <ele>115.01</ele>
        <time>2020-07-06T14:11:18Z</time>
      </trkpt>
      <trkpt lat="48.5181" lon="1.68547">
        <ele>115.01</ele>
        <time>2020-07-06T14:11:26Z</time>
      </trkpt>
      <trkpt lat="48.51816" lon="1.68534">
        <ele>115.01</ele>
        <time>2020-07-06T14:11:35Z</time>
      </trkpt>
      <trkpt lat="48.51825" lon="1.68525">
        <ele>114.53</ele>
        <time>2020-07-06T14:11:43Z</time>
      </trkpt>
      <trkpt lat="48.51819" lon="1.68528">
        <ele>115.01</ele>
        <time>2020-07-06T14:11:55Z</time>
      </trkpt>
      <trkpt lat="48.51829" lon="1.6852">
        <ele>115.01</ele>
        <time>2020-07-06T14:12:05Z</time>
      </trkpt>
      <trkpt lat="48.51837" lon="1.68511">
        <ele>113.57</ele>
        <time>2020-07-06T14:12:12Z</time>
      </trkpt>
      <trkpt lat="48.51845" lon="1.68503">
        <ele>113.57</ele>
        <time>2020-07-06T14:12:21Z</time>
      </trkpt>
      <trkpt lat="48.51849" lon="1.68497">
        <ele>113.57</ele>
        <time>2020-07-06T14:12:56Z</time>
      </trkpt>
      <trkpt lat="48.51858" lon="1.68487">
        <ele>113.57</ele>
        <time>2020-07-06T14:13:05Z</time>
      </trkpt>
      <trkpt lat="48.51866" lon="1.68487">
        <ele>113.09</ele>
        <time>2020-07-06T14:13:15Z</time>
      </trkpt>
      <trkpt lat="48.51875" lon="1.68492">
        <ele>113.09</ele>
        <time>2020-07-06T14:13:24Z</time>
      </trkpt>
      <trkpt lat="48.51886" lon="1.68495">
        <ele>113.09</ele>
        <time>2020-07-06T14:13:31Z</time>
      </trkpt>
      <trkpt lat="48.51896" lon="1.685">
        <ele>113.09</ele>
        <time>2020-07-06T14:13:40Z</time>
      </trkpt>
      <trkpt lat="48.51907" lon="1.68507">
        <ele>112.61</ele>
        <time>2020-07-06T14:13:47Z</time>
      </trkpt>
      <trkpt lat="48.51915" lon="1.68515">
        <ele>112.13</ele>
        <time>2020-07-06T14:13:54Z</time>
      </trkpt>
      <trkpt lat="48.51925" lon="1.68522">
        <ele>112.61</ele>
        <time>2020-07-06T14:14:01Z</time>
      </trkpt>
      <trkpt lat="48.51935" lon="1.68527">
        <ele>112.13</ele>
        <time>2020-07-06T14:14:09Z</time>
      </trkpt>
      <trkpt lat="48.51944" lon="1.68532">
        <ele>111.65</ele>
        <time>2020-07-06T14:14:15Z</time>
      </trkpt>
      <trkpt lat="48.51956" lon="1.68536">
        <ele>111.17</ele>
        <time>2020-07-06T14:14:23Z</time>
      </trkpt>
      <trkpt lat="48.51966" lon="1.68544">
        <ele>111.17</ele>
        <time>2020-07-06T14:14:31Z</time>
      </trkpt>
      <trkpt lat="48.51973" lon="1.68552">
        <ele>110.69</ele>
        <time>2020-07-06T14:14:38Z</time>
      </trkpt>
      <trkpt lat="48.51982" lon="1.68558">
        <ele>110.69</ele>
        <time>2020-07-06T14:14:47Z</time>
      </trkpt>
      <trkpt lat="48.51991" lon="1.68564">
        <ele>110.21</ele>
        <time>2020-07-06T14:14:55Z</time>
      </trkpt>
      <trkpt lat="48.52" lon="1.6857">
        <ele>109.73</ele>
        <time>2020-07-06T14:15:02Z</time>
      </trkpt>
      <trkpt lat="48.52009" lon="1.68576">
        <ele>109.25</ele>
        <time>2020-07-06T14:15:10Z</time>
      </trkpt>
      <trkpt lat="48.52018" lon="1.68583">
        <ele>109.25</ele>
        <time>2020-07-06T14:15:18Z</time>
      </trkpt>
      <trkpt lat="48.52027" lon="1.68589">
        <ele>108.29</ele>
        <time>2020-07-06T14:15:26Z</time>
      </trkpt>
      <trkpt lat="48.52036" lon="1.68593">
        <ele>108.29</ele>
        <time>2020-07-06T14:15:34Z</time>
      </trkpt>
      <trkpt lat="48.52047" lon="1.68604">
        <ele>108.29</ele>
        <time>2020-07-06T14:15:43Z</time>
      </trkpt>
      <trkpt lat="48.52058" lon="1.6861">
        <ele>107.81</ele>
        <time>2020-07-06T14:15:51Z</time>
      </trkpt>
      <trkpt lat="48.52065" lon="1.68619">
        <ele>108.29</ele>
        <time>2020-07-06T14:15:58Z</time>
      </trkpt>
      <trkpt lat="48.52077" lon="1.68632">
        <ele>108.29</ele>
        <time>2020-07-06T14:16:07Z</time>
      </trkpt>
      <trkpt lat="48.52088" lon="1.68637">
        <ele>108.29</ele>
        <time>2020-07-06T14:16:15Z</time>
      </trkpt>
      <trkpt lat="48.52096" lon="1.68649">
        <ele>108.77</ele>
        <time>2020-07-06T14:16:26Z</time>
      </trkpt>
      <trkpt lat="48.52106" lon="1.68655">
        <ele>108.29</ele>
        <time>2020-07-06T14:16:40Z</time>
      </trkpt>
      <trkpt lat="48.52115" lon="1.68664">
        <ele>108.29</ele>
        <time>2020-07-06T14:16:54Z</time>
      </trkpt>
      <trkpt lat="48.52124" lon="1.68673">
        <ele>108.29</ele>
        <time>2020-07-06T14:17:02Z</time>
      </trkpt>
      <trkpt lat="48.52133" lon="1.68679">
        <ele>108.29</ele>
        <time>2020-07-06T14:17:08Z</time>
      </trkpt>
      <trkpt lat="48.52143" lon="1.68684">
        <ele>108.29</ele>
        <time>2020-07-06T14:17:15Z</time>
      </trkpt>
      <trkpt lat="48.52155" lon="1.6869">
        <ele>108.29</ele>
        <time>2020-07-06T14:17:23Z</time>
      </trkpt>
      <trkpt lat="48.52166" lon="1.68696">
        <ele>108.29</ele>
        <time>2020-07-06T14:17:30Z</time>
      </trkpt>
      <trkpt lat="48.52174" lon="1.68705">
        <ele>108.29</ele>
        <time>2020-07-06T14:17:37Z</time>
      </trkpt>
      <trkpt lat="48.52184" lon="1.6871">
        <ele>108.29</ele>
        <time>2020-07-06T14:17:46Z</time>
      </trkpt>
      <trkpt lat="48.52196" lon="1.68713">
        <ele>107.32</ele>
        <time>2020-07-06T14:17:54Z</time>
      </trkpt>
      <trkpt lat="48.52207" lon="1.68722">
        <ele>108.29</ele>
        <time>2020-07-06T14:18:02Z</time>
      </trkpt>
      <trkpt lat="48.52217" lon="1.68728">
        <ele>106.84</ele>
        <time>2020-07-06T14:18:09Z</time>
      </trkpt>
      <trkpt lat="48.52227" lon="1.68737">
        <ele>107.81</ele>
        <time>2020-07-06T14:18:16Z</time>
      </trkpt>
      <trkpt lat="48.52237" lon="1.68745">
        <ele>107.32</ele>
        <time>2020-07-06T14:18:25Z</time>
      </trkpt>
      <trkpt lat="48.5225" lon="1.68752">
        <ele>107.81</ele>
        <time>2020-07-06T14:18:35Z</time>
      </trkpt>
      <trkpt lat="48.52264" lon="1.68756">
        <ele>107.81</ele>
        <time>2020-07-06T14:18:52Z</time>
      </trkpt>
      <trkpt lat="48.52273" lon="1.68755">
        <ele>109.25</ele>
        <time>2020-07-06T14:19:05Z</time>
      </trkpt>
      <trkpt lat="48.52282" lon="1.68761">
        <ele>107.81</ele>
        <time>2020-07-06T14:19:12Z</time>
      </trkpt>
      <trkpt lat="48.52293" lon="1.68765">
        <ele>108.77</ele>
        <time>2020-07-06T14:19:20Z</time>
      </trkpt>
      <trkpt lat="48.52304" lon="1.6877">
        <ele>107.81</ele>
        <time>2020-07-06T14:19:27Z</time>
      </trkpt>
      <trkpt lat="48.52313" lon="1.68774">
        <ele>108.29</ele>
        <time>2020-07-06T14:19:34Z</time>
      </trkpt>
      <trkpt lat="48.52326" lon="1.68777">
        <ele>108.29</ele>
        <time>2020-07-06T14:19:43Z</time>
      </trkpt>
      <trkpt lat="48.52338" lon="1.68781">
        <ele>107.81</ele>
        <time>2020-07-06T14:19:50Z</time>
      </trkpt>
      <trkpt lat="48.52348" lon="1.68786">
        <ele>107.81</ele>
        <time>2020-07-06T14:19:56Z</time>
      </trkpt>
      <trkpt lat="48.52353" lon="1.68797">
        <ele>107.81</ele>
        <time>2020-07-06T14:20:04Z</time>
      </trkpt>
      <trkpt lat="48.52361" lon="1.68799">
        <ele>107.81</ele>
        <time>2020-07-06T14:20:16Z</time>
      </trkpt>
      <trkpt lat="48.52367" lon="1.68798">
        <ele>108.29</ele>
        <time>2020-07-06T14:20:44Z</time>
      </trkpt>
      <trkpt lat="48.52379" lon="1.68809">
        <ele>107.81</ele>
        <time>2020-07-06T14:20:53Z</time>
      </trkpt>
      <trkpt lat="48.5239" lon="1.68816">
        <ele>108.29</ele>
        <time>2020-07-06T14:21:01Z</time>
      </trkpt>
      <trkpt lat="48.52397" lon="1.68824">
        <ele>109.25</ele>
        <time>2020-07-06T14:21:15Z</time>
      </trkpt>
      <trkpt lat="48.52411" lon="1.68829">
        <ele>111.65</ele>
        <time>2020-07-06T14:21:27Z</time>
      </trkpt>
      <trkpt lat="48.52426" lon="1.68837">
        <ele>114.53</ele>
        <time>2020-07-06T14:21:40Z</time>
      </trkpt>
      <trkpt lat="48.52437" lon="1.68841">
        <ele>115.98</ele>
        <time>2020-07-06T14:21:48Z</time>
      </trkpt>
      <trkpt lat="48.5245" lon="1.68845">
        <ele>116.46</ele>
        <time>2020-07-06T14:22:01Z</time>
      </trkpt>
      <trkpt lat="48.52454" lon="1.6884">
        <ele>117.42</ele>
        <time>2020-07-06T14:22:23Z</time>
      </trkpt>
      <trkpt lat="48.52459" lon="1.68824">
        <ele>118.38</ele>
        <time>2020-07-06T14:22:34Z</time>
      </trkpt>
      <trkpt lat="48.5246" lon="1.68806">
        <ele>119.34</ele>
        <time>2020-07-06T14:22:43Z</time>
      </trkpt>
      <trkpt lat="48.52462" lon="1.6879">
        <ele>119.34</ele>
        <time>2020-07-06T14:23:06Z</time>
      </trkpt>
      <trkpt lat="48.52467" lon="1.68776">
        <ele>120.78</ele>
        <time>2020-07-06T14:23:18Z</time>
      </trkpt>
      <trkpt lat="48.5247" lon="1.68762">
        <ele>120.3</ele>
        <time>2020-07-06T14:23:29Z</time>
      </trkpt>
      <trkpt lat="48.52476" lon="1.68757">
        <ele>120.78</ele>
        <time>2020-07-06T14:23:55Z</time>
      </trkpt>
      <trkpt lat="48.52484" lon="1.68766">
        <ele>120.78</ele>
        <time>2020-07-06T14:24:02Z</time>
      </trkpt>
      <trkpt lat="48.52493" lon="1.68779">
        <ele>121.74</ele>
        <time>2020-07-06T14:24:20Z</time>
      </trkpt>
      <trkpt lat="48.52498" lon="1.6878">
        <ele>123.67</ele>
        <time>2020-07-06T14:24:53Z</time>
      </trkpt>
      <trkpt lat="48.52491" lon="1.6878">
        <ele>123.19</ele>
        <time>2020-07-06T14:25:10Z</time>
      </trkpt>
      <trkpt lat="48.52493" lon="1.68767">
        <ele>123.19</ele>
        <time>2020-07-06T14:25:26Z</time>
      </trkpt>
      <trkpt lat="48.52513" lon="1.68801">
        <ele>123.67</ele>
        <time>2020-07-06T14:25:44Z</time>
      </trkpt>
      <trkpt lat="48.52526" lon="1.68807">
        <ele>124.63</ele>
        <time>2020-07-06T14:25:58Z</time>
      </trkpt>
      <trkpt lat="48.52526" lon="1.68805">
        <ele>124.15</ele>
        <time>2020-07-06T14:26:36Z</time>
      </trkpt>
      <trkpt lat="48.5253" lon="1.68795">
        <ele>124.15</ele>
        <time>2020-07-06T14:26:49Z</time>
      </trkpt>
      <trkpt lat="48.52529" lon="1.68783">
        <ele>123.67</ele>
        <time>2020-07-06T14:27:05Z</time>
      </trkpt>
      <trkpt lat="48.52528" lon="1.68801">
        <ele>124.15</ele>
        <time>2020-07-06T14:27:25Z</time>
      </trkpt>
      <trkpt lat="48.52547" lon="1.68806">
        <ele>124.63</ele>
        <time>2020-07-06T14:27:45Z</time>
      </trkpt>
      <trkpt lat="48.52539" lon="1.68815">
        <ele>124.63</ele>
        <time>2020-07-06T14:28:59Z</time>
      </trkpt>
      <trkpt lat="48.52535" lon="1.6883">
        <ele>124.63</ele>
        <time>2020-07-06T14:29:05Z</time>
      </trkpt>
      <trkpt lat="48.52532" lon="1.68843">
        <ele>124.63</ele>
        <time>2020-07-06T14:29:12Z</time>
      </trkpt>
      <trkpt lat="48.52524" lon="1.68841">
        <ele>124.15</ele>
        <time>2020-07-06T14:29:21Z</time>
      </trkpt>
      <trkpt lat="48.52517" lon="1.68832">
        <ele>123.67</ele>
        <time>2020-07-06T14:29:35Z</time>
      </trkpt>
      <trkpt lat="48.5252" lon="1.68817">
        <ele>122.71</ele>
        <time>2020-07-06T14:29:56Z</time>
      </trkpt>
      <trkpt lat="48.52508" lon="1.68809">
        <ele>122.22</ele>
        <time>2020-07-06T14:30:14Z</time>
      </trkpt>
      <trkpt lat="48.52502" lon="1.68807">
        <ele>122.22</ele>
        <time>2020-07-06T14:30:27Z</time>
      </trkpt>
      <trkpt lat="48.52496" lon="1.68809">
        <ele>122.22</ele>
        <time>2020-07-06T14:30:38Z</time>
      </trkpt>
      <trkpt lat="48.5249" lon="1.68816">
        <ele>122.22</ele>
        <time>2020-07-06T14:30:49Z</time>
      </trkpt>
      <trkpt lat="48.52494" lon="1.68774">
        <ele>121.26</ele>
        <time>2020-07-06T14:31:00Z</time>
      </trkpt>
      <trkpt lat="48.52496" lon="1.68775">
        <ele>121.26</ele>
        <time>2020-07-06T14:32:22Z</time>
      </trkpt>
      <trkpt lat="48.52503" lon="1.68772">
        <ele>121.74</ele>
        <time>2020-07-06T14:32:42Z</time>
      </trkpt>
      <trkpt lat="48.5251" lon="1.68777">
        <ele>123.19</ele>
        <time>2020-07-06T14:33:01Z</time>
      </trkpt>
      <trkpt lat="48.52524" lon="1.68781">
        <ele>124.15</ele>
        <time>2020-07-06T14:33:16Z</time>
      </trkpt>
      <trkpt lat="48.52537" lon="1.68768">
        <ele>125.59</ele>
        <time>2020-07-06T14:33:50Z</time>
      </trkpt>
      <trkpt lat="48.5255" lon="1.68756">
        <ele>126.55</ele>
        <time>2020-07-06T14:34:02Z</time>
      </trkpt>
      <trkpt lat="48.52567" lon="1.68743">
        <ele>130.4</ele>
        <time>2020-07-06T14:34:20Z</time>
      </trkpt>
      <trkpt lat="48.5258" lon="1.68738">
        <ele>130.88</ele>
        <time>2020-07-06T14:34:46Z</time>
      </trkpt>
      <trkpt lat="48.52584" lon="1.68747">
        <ele>130.4</ele>
        <time>2020-07-06T14:35:03Z</time>
      </trkpt>
      <trkpt lat="48.52593" lon="1.68756">
        <ele>130.88</ele>
        <time>2020-07-06T14:35:15Z</time>
      </trkpt>
      <trkpt lat="48.5261" lon="1.68766">
        <ele>131.84</ele>
        <time>2020-07-06T14:35:25Z</time>
      </trkpt>
      <trkpt lat="48.52618" lon="1.68777">
        <ele>132.8</ele>
        <time>2020-07-06T14:35:36Z</time>
      </trkpt>
      <trkpt lat="48.52624" lon="1.68779">
        <ele>132.8</ele>
        <time>2020-07-06T14:35:49Z</time>
      </trkpt>
      <trkpt lat="48.52621" lon="1.68775">
        <ele>132.8</ele>
        <time>2020-07-06T14:36:07Z</time>
      </trkpt>
      <trkpt lat="48.52616" lon="1.68772">
        <ele>133.28</ele>
        <time>2020-07-06T14:36:48Z</time>
      </trkpt>
      <trkpt lat="48.52618" lon="1.6878">
        <ele>133.28</ele>
        <time>2020-07-06T14:37:03Z</time>
      </trkpt>
      <trkpt lat="48.52616" lon="1.68782">
        <ele>133.28</ele>
        <time>2020-07-06T14:37:26Z</time>
      </trkpt>
      <trkpt lat="48.52615" lon="1.68773">
        <ele>133.28</ele>
        <time>2020-07-06T14:38:12Z</time>
      </trkpt>
      <trkpt lat="48.52618" lon="1.68777">
        <ele>133.28</ele>
        <time>2020-07-06T14:39:02Z</time>
      </trkpt>
      <trkpt lat="48.52612" lon="1.68767">
        <ele>132.32</ele>
        <time>2020-07-06T14:39:09Z</time>
      </trkpt>
      <trkpt lat="48.52603" lon="1.68763">
        <ele>132.32</ele>
        <time>2020-07-06T14:39:17Z</time>
      </trkpt>
      <trkpt lat="48.52593" lon="1.68759">
        <ele>130.88</ele>
        <time>2020-07-06T14:39:26Z</time>
      </trkpt>
      <trkpt lat="48.52583" lon="1.68753">
        <ele>130.88</ele>
        <time>2020-07-06T14:39:36Z</time>
      </trkpt>
      <trkpt lat="48.52574" lon="1.68744">
        <ele>130.4</ele>
        <time>2020-07-06T14:39:44Z</time>
      </trkpt>
      <trkpt lat="48.52569" lon="1.68748">
        <ele>129.92</ele>
        <time>2020-07-06T14:39:52Z</time>
      </trkpt>
      <trkpt lat="48.52563" lon="1.68753">
        <ele>127.51</ele>
        <time>2020-07-06T14:40:02Z</time>
      </trkpt>
      <trkpt lat="48.52551" lon="1.68749">
        <ele>126.55</ele>
        <time>2020-07-06T14:40:11Z</time>
      </trkpt>
      <trkpt lat="48.52542" lon="1.68743">
        <ele>125.59</ele>
        <time>2020-07-06T14:40:24Z</time>
      </trkpt>
      <trkpt lat="48.52532" lon="1.68736">
        <ele>124.15</ele>
        <time>2020-07-06T14:40:34Z</time>
      </trkpt>
      <trkpt lat="48.52522" lon="1.6873">
        <ele>122.22</ele>
        <time>2020-07-06T14:40:44Z</time>
      </trkpt>
      <trkpt lat="48.5252" lon="1.6872">
        <ele>122.22</ele>
        <time>2020-07-06T14:41:42Z</time>
      </trkpt>
      <trkpt lat="48.52514" lon="1.68705">
        <ele>120.78</ele>
        <time>2020-07-06T14:41:55Z</time>
      </trkpt>
      <trkpt lat="48.52508" lon="1.68688">
        <ele>119.34</ele>
        <time>2020-07-06T14:42:07Z</time>
      </trkpt>
      <trkpt lat="48.525" lon="1.6868">
        <ele>118.86</ele>
        <time>2020-07-06T14:42:16Z</time>
      </trkpt>
      <trkpt lat="48.52502" lon="1.68667">
        <ele>117.9</ele>
        <time>2020-07-06T14:42:38Z</time>
      </trkpt>
      <trkpt lat="48.525" lon="1.68653">
        <ele>116.94</ele>
        <time>2020-07-06T14:42:49Z</time>
      </trkpt>
      <trkpt lat="48.52492" lon="1.68644">
        <ele>115.5</ele>
        <time>2020-07-06T14:42:58Z</time>
      </trkpt>
      <trkpt lat="48.52485" lon="1.68631">
        <ele>113.09</ele>
        <time>2020-07-06T14:43:09Z</time>
      </trkpt>
      <trkpt lat="48.52477" lon="1.6862">
        <ele>112.13</ele>
        <time>2020-07-06T14:43:16Z</time>
      </trkpt>
      <trkpt lat="48.52467" lon="1.68611">
        <ele>111.17</ele>
        <time>2020-07-06T14:43:24Z</time>
      </trkpt>
      <trkpt lat="48.5246" lon="1.686">
        <ele>110.21</ele>
        <time>2020-07-06T14:43:31Z</time>
      </trkpt>
      <trkpt lat="48.52451" lon="1.68592">
        <ele>109.73</ele>
        <time>2020-07-06T14:43:38Z</time>
      </trkpt>
      <trkpt lat="48.52443" lon="1.68584">
        <ele>107.81</ele>
        <time>2020-07-06T14:43:45Z</time>
      </trkpt>
      <trkpt lat="48.52437" lon="1.68573">
        <ele>108.29</ele>
        <time>2020-07-06T14:43:53Z</time>
      </trkpt>
      <trkpt lat="48.52437" lon="1.68558">
        <ele>108.29</ele>
        <time>2020-07-06T14:44:01Z</time>
      </trkpt>
      <trkpt lat="48.52438" lon="1.68542">
        <ele>108.29</ele>
        <time>2020-07-06T14:44:09Z</time>
      </trkpt>
      <trkpt lat="48.52442" lon="1.68528">
        <ele>108.77</ele>
        <time>2020-07-06T14:44:16Z</time>
      </trkpt>
      <trkpt lat="48.52445" lon="1.68514">
        <ele>108.77</ele>
        <time>2020-07-06T14:44:23Z</time>
      </trkpt>
      <trkpt lat="48.52449" lon="1.68501">
        <ele>108.29</ele>
        <time>2020-07-06T14:44:30Z</time>
      </trkpt>
      <trkpt lat="48.52452" lon="1.68488">
        <ele>108.29</ele>
        <time>2020-07-06T14:44:37Z</time>
      </trkpt>
      <trkpt lat="48.52454" lon="1.68474">
        <ele>108.29</ele>
        <time>2020-07-06T14:44:45Z</time>
      </trkpt>
      <trkpt lat="48.52459" lon="1.68462">
        <ele>108.29</ele>
        <time>2020-07-06T14:44:52Z</time>
      </trkpt>
      <trkpt lat="48.52461" lon="1.68445">
        <ele>108.29</ele>
        <time>2020-07-06T14:45:00Z</time>
      </trkpt>
      <trkpt lat="48.52465" lon="1.68427">
        <ele>107.32</ele>
        <time>2020-07-06T14:45:08Z</time>
      </trkpt>
      <trkpt lat="48.52468" lon="1.68408">
        <ele>107.32</ele>
        <time>2020-07-06T14:45:16Z</time>
      </trkpt>
      <trkpt lat="48.52473" lon="1.6839">
        <ele>107.32</ele>
        <time>2020-07-06T14:45:25Z</time>
      </trkpt>
      <trkpt lat="48.52477" lon="1.68375">
        <ele>107.32</ele>
        <time>2020-07-06T14:45:33Z</time>
      </trkpt>
      <trkpt lat="48.52481" lon="1.68357">
        <ele>107.81</ele>
        <time>2020-07-06T14:45:42Z</time>
      </trkpt>
      <trkpt lat="48.52485" lon="1.68343">
        <ele>107.81</ele>
        <time>2020-07-06T14:45:49Z</time>
      </trkpt>
      <trkpt lat="48.5249" lon="1.68328">
        <ele>107.81</ele>
        <time>2020-07-06T14:45:58Z</time>
      </trkpt>
      <trkpt lat="48.52494" lon="1.68313">
        <ele>107.81</ele>
        <time>2020-07-06T14:46:06Z</time>
      </trkpt>
      <trkpt lat="48.52499" lon="1.68297">
        <ele>107.32</ele>
        <time>2020-07-06T14:46:15Z</time>
      </trkpt>
      <trkpt lat="48.52504" lon="1.68283">
        <ele>107.81</ele>
        <time>2020-07-06T14:46:22Z</time>
      </trkpt>
      <trkpt lat="48.52508" lon="1.68264">
        <ele>107.81</ele>
        <time>2020-07-06T14:46:32Z</time>
      </trkpt>
      <trkpt lat="48.52515" lon="1.68246">
        <ele>107.32</ele>
        <time>2020-07-06T14:46:42Z</time>
      </trkpt>
      <trkpt lat="48.52519" lon="1.68228">
        <ele>107.81</ele>
        <time>2020-07-06T14:46:51Z</time>
      </trkpt>
      <trkpt lat="48.52525" lon="1.68211">
        <ele>107.81</ele>
        <time>2020-07-06T14:47:02Z</time>
      </trkpt>
      <trkpt lat="48.52524" lon="1.68186">
        <ele>107.81</ele>
        <time>2020-07-06T14:47:12Z</time>
      </trkpt>
      <trkpt lat="48.52527" lon="1.68164">
        <ele>107.81</ele>
        <time>2020-07-06T14:47:23Z</time>
      </trkpt>
      <trkpt lat="48.52531" lon="1.6814">
        <ele>107.81</ele>
        <time>2020-07-06T14:47:34Z</time>
      </trkpt>
      <trkpt lat="48.52532" lon="1.68117">
        <ele>107.32</ele>
        <time>2020-07-06T14:47:44Z</time>
      </trkpt>
      <trkpt lat="48.52536" lon="1.68097">
        <ele>107.32</ele>
        <time>2020-07-06T14:47:54Z</time>
      </trkpt>
      <trkpt lat="48.52539" lon="1.68079">
        <ele>107.32</ele>
        <time>2020-07-06T14:48:03Z</time>
      </trkpt>
      <trkpt lat="48.52541" lon="1.68054">
        <ele>107.32</ele>
        <time>2020-07-06T14:48:14Z</time>
      </trkpt>
      <trkpt lat="48.52542" lon="1.68028">
        <ele>107.32</ele>
        <time>2020-07-06T14:48:26Z</time>
      </trkpt>
      <trkpt lat="48.52547" lon="1.68011">
        <ele>107.32</ele>
        <time>2020-07-06T14:48:36Z</time>
      </trkpt>
      <trkpt lat="48.52547" lon="1.67985">
        <ele>106.84</ele>
        <time>2020-07-06T14:48:45Z</time>
      </trkpt>
      <trkpt lat="48.52547" lon="1.67966">
        <ele>106.36</ele>
        <time>2020-07-06T14:48:53Z</time>
      </trkpt>
      <trkpt lat="48.52551" lon="1.67951">
        <ele>107.32</ele>
        <time>2020-07-06T14:49:01Z</time>
      </trkpt>
      <trkpt lat="48.52552" lon="1.67932">
        <ele>106.84</ele>
        <time>2020-07-06T14:49:09Z</time>
      </trkpt>
      <trkpt lat="48.52556" lon="1.67916">
        <ele>106.84</ele>
        <time>2020-07-06T14:49:22Z</time>
      </trkpt>
      <trkpt lat="48.52559" lon="1.67896">
        <ele>106.84</ele>
        <time>2020-07-06T14:49:31Z</time>
      </trkpt>
      <trkpt lat="48.52561" lon="1.67876">
        <ele>106.84</ele>
        <time>2020-07-06T14:49:39Z</time>
      </trkpt>
      <trkpt lat="48.52559" lon="1.67853">
        <ele>107.32</ele>
        <time>2020-07-06T14:49:49Z</time>
      </trkpt>
      <trkpt lat="48.52548" lon="1.6784">
        <ele>107.81</ele>
        <time>2020-07-06T14:50:01Z</time>
      </trkpt>
      <trkpt lat="48.52551" lon="1.67834">
        <ele>107.32</ele>
        <time>2020-07-06T14:50:20Z</time>
      </trkpt>
      <trkpt lat="48.52555" lon="1.67817">
        <ele>106.84</ele>
        <time>2020-07-06T14:50:31Z</time>
      </trkpt>
      <trkpt lat="48.52559" lon="1.67799">
        <ele>106.84</ele>
        <time>2020-07-06T14:50:41Z</time>
      </trkpt>
      <trkpt lat="48.52559" lon="1.67777">
        <ele>106.84</ele>
        <time>2020-07-06T14:50:53Z</time>
      </trkpt>
      <trkpt lat="48.52565" lon="1.67758">
        <ele>106.84</ele>
        <time>2020-07-06T14:51:03Z</time>
      </trkpt>
      <trkpt lat="48.52571" lon="1.67736">
        <ele>106.36</ele>
        <time>2020-07-06T14:51:20Z</time>
      </trkpt>
      <trkpt lat="48.52581" lon="1.67717">
        <ele>105.88</ele>
        <time>2020-07-06T14:51:32Z</time>
      </trkpt>
      <trkpt lat="48.52589" lon="1.67698">
        <ele>106.36</ele>
        <time>2020-07-06T14:51:43Z</time>
      </trkpt>
      <trkpt lat="48.52594" lon="1.67675">
        <ele>105.88</ele>
        <time>2020-07-06T14:52:09Z</time>
      </trkpt>
      <trkpt lat="48.52603" lon="1.67656">
        <ele>105.88</ele>
        <time>2020-07-06T14:52:32Z</time>
      </trkpt>
      <trkpt lat="48.52611" lon="1.67641">
        <ele>105.4</ele>
        <time>2020-07-06T14:52:43Z</time>
      </trkpt>
      <trkpt lat="48.52616" lon="1.67625">
        <ele>105.88</ele>
        <time>2020-07-06T14:52:54Z</time>
      </trkpt>
      <trkpt lat="48.52624" lon="1.6761">
        <ele>105.88</ele>
        <time>2020-07-06T14:53:04Z</time>
      </trkpt>
      <trkpt lat="48.52631" lon="1.67592">
        <ele>106.36</ele>
        <time>2020-07-06T14:53:15Z</time>
      </trkpt>
      <trkpt lat="48.52637" lon="1.67579">
        <ele>105.88</ele>
        <time>2020-07-06T14:53:23Z</time>
      </trkpt>
      <trkpt lat="48.52642" lon="1.67561">
        <ele>105.88</ele>
        <time>2020-07-06T14:53:33Z</time>
      </trkpt>
      <trkpt lat="48.52651" lon="1.67548">
        <ele>105.88</ele>
        <time>2020-07-06T14:53:41Z</time>
      </trkpt>
      <trkpt lat="48.52657" lon="1.67533">
        <ele>105.88</ele>
        <time>2020-07-06T14:53:50Z</time>
      </trkpt>
      <trkpt lat="48.52667" lon="1.67518">
        <ele>105.88</ele>
        <time>2020-07-06T14:54:00Z</time>
      </trkpt>
      <trkpt lat="48.52676" lon="1.67496">
        <ele>105.88</ele>
        <time>2020-07-06T14:54:11Z</time>
      </trkpt>
      <trkpt lat="48.52682" lon="1.67485">
        <ele>105.88</ele>
        <time>2020-07-06T14:54:26Z</time>
      </trkpt>
      <trkpt lat="48.52691" lon="1.6749">
        <ele>105.4</ele>
        <time>2020-07-06T14:54:48Z</time>
      </trkpt>
      <trkpt lat="48.52693" lon="1.67476">
        <ele>105.4</ele>
        <time>2020-07-06T14:54:58Z</time>
      </trkpt>
      <trkpt lat="48.5269" lon="1.67465">
        <ele>104.92</ele>
        <time>2020-07-06T14:55:07Z</time>
      </trkpt>
      <trkpt lat="48.52698" lon="1.67453">
        <ele>104.44</ele>
        <time>2020-07-06T14:55:16Z</time>
      </trkpt>
      <trkpt lat="48.52707" lon="1.67444">
        <ele>104.92</ele>
        <time>2020-07-06T14:55:24Z</time>
      </trkpt>
      <trkpt lat="48.52714" lon="1.6743">
        <ele>104.92</ele>
        <time>2020-07-06T14:55:32Z</time>
      </trkpt>
      <trkpt lat="48.52719" lon="1.67413">
        <ele>104.92</ele>
        <time>2020-07-06T14:55:39Z</time>
      </trkpt>
      <trkpt lat="48.52726" lon="1.67401">
        <ele>104.92</ele>
        <time>2020-07-06T14:55:47Z</time>
      </trkpt>
      <trkpt lat="48.52732" lon="1.67385">
        <ele>105.88</ele>
        <time>2020-07-06T14:55:55Z</time>
      </trkpt>
      <trkpt lat="48.52737" lon="1.6737">
        <ele>104.92</ele>
        <time>2020-07-06T14:56:04Z</time>
      </trkpt>
      <trkpt lat="48.52744" lon="1.67358">
        <ele>105.88</ele>
        <time>2020-07-06T14:56:13Z</time>
      </trkpt>
      <trkpt lat="48.52742" lon="1.6733">
        <ele>105.4</ele>
        <time>2020-07-06T14:56:26Z</time>
      </trkpt>
      <trkpt lat="48.52732" lon="1.6732">
        <ele>105.88</ele>
        <time>2020-07-06T14:56:37Z</time>
      </trkpt>
      <trkpt lat="48.52735" lon="1.67305">
        <ele>105.88</ele>
        <time>2020-07-06T14:56:49Z</time>
      </trkpt>
      <trkpt lat="48.52739" lon="1.67293">
        <ele>105.88</ele>
        <time>2020-07-06T14:57:00Z</time>
      </trkpt>
      <trkpt lat="48.52747" lon="1.6728">
        <ele>105.4</ele>
        <time>2020-07-06T14:57:09Z</time>
      </trkpt>
      <trkpt lat="48.52752" lon="1.67264">
        <ele>104.92</ele>
        <time>2020-07-06T14:57:18Z</time>
      </trkpt>
      <trkpt lat="48.52758" lon="1.67248">
        <ele>105.4</ele>
        <time>2020-07-06T14:57:28Z</time>
      </trkpt>
      <trkpt lat="48.52765" lon="1.67234">
        <ele>104.92</ele>
        <time>2020-07-06T14:57:37Z</time>
      </trkpt>
      <trkpt lat="48.5277" lon="1.67219">
        <ele>104.92</ele>
        <time>2020-07-06T14:57:46Z</time>
      </trkpt>
      <trkpt lat="48.52775" lon="1.67204">
        <ele>105.4</ele>
        <time>2020-07-06T14:57:55Z</time>
      </trkpt>
      <trkpt lat="48.52782" lon="1.6719">
        <ele>105.4</ele>
        <time>2020-07-06T14:58:04Z</time>
      </trkpt>
      <trkpt lat="48.52787" lon="1.6717">
        <ele>105.4</ele>
        <time>2020-07-06T14:58:15Z</time>
      </trkpt>
      <trkpt lat="48.52791" lon="1.67151">
        <ele>104.92</ele>
        <time>2020-07-06T14:58:25Z</time>
      </trkpt>
      <trkpt lat="48.52795" lon="1.67135">
        <ele>104.92</ele>
        <time>2020-07-06T14:58:36Z</time>
      </trkpt>
      <trkpt lat="48.52803" lon="1.6712">
        <ele>104.44</ele>
        <time>2020-07-06T14:58:45Z</time>
      </trkpt>
      <trkpt lat="48.52804" lon="1.67104">
        <ele>105.4</ele>
        <time>2020-07-06T14:58:54Z</time>
      </trkpt>
      <trkpt lat="48.5281" lon="1.6709">
        <ele>104.92</ele>
        <time>2020-07-06T14:59:01Z</time>
      </trkpt>
      <trkpt lat="48.52819" lon="1.67077">
        <ele>104.92</ele>
        <time>2020-07-06T14:59:10Z</time>
      </trkpt>
      <trkpt lat="48.52822" lon="1.67053">
        <ele>104.92</ele>
        <time>2020-07-06T14:59:18Z</time>
      </trkpt>
      <trkpt lat="48.52824" lon="1.67027">
        <ele>104.92</ele>
        <time>2020-07-06T14:59:27Z</time>
      </trkpt>
      <trkpt lat="48.52823" lon="1.67011">
        <ele>104.92</ele>
        <time>2020-07-06T14:59:34Z</time>
      </trkpt>
      <trkpt lat="48.5283" lon="1.66999">
        <ele>104.92</ele>
        <time>2020-07-06T14:59:41Z</time>
      </trkpt>
      <trkpt lat="48.52833" lon="1.66985">
        <ele>104.92</ele>
        <time>2020-07-06T14:59:48Z</time>
      </trkpt>
      <trkpt lat="48.52836" lon="1.66969">
        <ele>104.92</ele>
        <time>2020-07-06T14:59:59Z</time>
      </trkpt>
      <trkpt lat="48.52846" lon="1.66948">
        <ele>104.44</ele>
        <time>2020-07-06T15:00:10Z</time>
      </trkpt>
      <trkpt lat="48.52851" lon="1.66933">
        <ele>104.44</ele>
        <time>2020-07-06T15:00:38Z</time>
      </trkpt>
      <trkpt lat="48.52858" lon="1.66916">
        <ele>103.96</ele>
        <time>2020-07-06T15:00:49Z</time>
      </trkpt>
      <trkpt lat="48.52866" lon="1.66902">
        <ele>103.96</ele>
        <time>2020-07-06T15:00:57Z</time>
      </trkpt>
      <trkpt lat="48.52873" lon="1.66891">
        <ele>103.96</ele>
        <time>2020-07-06T15:01:07Z</time>
      </trkpt>
      <trkpt lat="48.52875" lon="1.66876">
        <ele>103.96</ele>
        <time>2020-07-06T15:01:15Z</time>
      </trkpt>
      <trkpt lat="48.52882" lon="1.66862">
        <ele>103.96</ele>
        <time>2020-07-06T15:01:26Z</time>
      </trkpt>
      <trkpt lat="48.52887" lon="1.66843">
        <ele>103.48</ele>
        <time>2020-07-06T15:01:35Z</time>
      </trkpt>
      <trkpt lat="48.52894" lon="1.66821">
        <ele>103.96</ele>
        <time>2020-07-06T15:01:49Z</time>
      </trkpt>
      <trkpt lat="48.52902" lon="1.66801">
        <ele>103.48</ele>
        <time>2020-07-06T15:02:00Z</time>
      </trkpt>
      <trkpt lat="48.52909" lon="1.66785">
        <ele>103</ele>
        <time>2020-07-06T15:02:09Z</time>
      </trkpt>
      <trkpt lat="48.52916" lon="1.66756">
        <ele>103</ele>
        <time>2020-07-06T15:02:24Z</time>
      </trkpt>
      <trkpt lat="48.52923" lon="1.66738">
        <ele>103</ele>
        <time>2020-07-06T15:02:37Z</time>
      </trkpt>
      <trkpt lat="48.52929" lon="1.66717">
        <ele>103</ele>
        <time>2020-07-06T15:02:48Z</time>
      </trkpt>
      <trkpt lat="48.52937" lon="1.66688">
        <ele>103.48</ele>
        <time>2020-07-06T15:03:00Z</time>
      </trkpt>
      <trkpt lat="48.52941" lon="1.66658">
        <ele>103.96</ele>
        <time>2020-07-06T15:03:13Z</time>
      </trkpt>
      <trkpt lat="48.52949" lon="1.66635">
        <ele>103.96</ele>
        <time>2020-07-06T15:03:23Z</time>
      </trkpt>
      <trkpt lat="48.52956" lon="1.6662">
        <ele>103.96</ele>
        <time>2020-07-06T15:03:33Z</time>
      </trkpt>
      <trkpt lat="48.52962" lon="1.66603">
        <ele>103.48</ele>
        <time>2020-07-06T15:03:42Z</time>
      </trkpt>
      <trkpt lat="48.52969" lon="1.66582">
        <ele>103</ele>
        <time>2020-07-06T15:03:52Z</time>
      </trkpt>
      <trkpt lat="48.52974" lon="1.66567">
        <ele>103</ele>
        <time>2020-07-06T15:04:00Z</time>
      </trkpt>
      <trkpt lat="48.52981" lon="1.6655">
        <ele>103.48</ele>
        <time>2020-07-06T15:04:09Z</time>
      </trkpt>
      <trkpt lat="48.52987" lon="1.66526">
        <ele>103.48</ele>
        <time>2020-07-06T15:04:21Z</time>
      </trkpt>
      <trkpt lat="48.52998" lon="1.66501">
        <ele>103</ele>
        <time>2020-07-06T15:04:34Z</time>
      </trkpt>
      <trkpt lat="48.53006" lon="1.6648">
        <ele>102.52</ele>
        <time>2020-07-06T15:04:44Z</time>
      </trkpt>
      <trkpt lat="48.53014" lon="1.66462">
        <ele>102.52</ele>
        <time>2020-07-06T15:04:54Z</time>
      </trkpt>
      <trkpt lat="48.5302" lon="1.66441">
        <ele>102.52</ele>
        <time>2020-07-06T15:05:05Z</time>
      </trkpt>
      <trkpt lat="48.53024" lon="1.66417">
        <ele>102.52</ele>
        <time>2020-07-06T15:05:16Z</time>
      </trkpt>
      <trkpt lat="48.53032" lon="1.66397">
        <ele>103</ele>
        <time>2020-07-06T15:05:27Z</time>
      </trkpt>
      <trkpt lat="48.5304" lon="1.66376">
        <ele>103.48</ele>
        <time>2020-07-06T15:05:39Z</time>
      </trkpt>
      <trkpt lat="48.53046" lon="1.66357">
        <ele>103</ele>
        <time>2020-07-06T15:05:50Z</time>
      </trkpt>
      <trkpt lat="48.53054" lon="1.66342">
        <ele>103.48</ele>
        <time>2020-07-06T15:05:58Z</time>
      </trkpt>
      <trkpt lat="48.53061" lon="1.66324">
        <ele>103.48</ele>
        <time>2020-07-06T15:06:08Z</time>
      </trkpt>
      <trkpt lat="48.53069" lon="1.66307">
        <ele>103</ele>
        <time>2020-07-06T15:06:18Z</time>
      </trkpt>
      <trkpt lat="48.53077" lon="1.66295">
        <ele>102.04</ele>
        <time>2020-07-06T15:06:28Z</time>
      </trkpt>
      <trkpt lat="48.53081" lon="1.66276">
        <ele>102.52</ele>
        <time>2020-07-06T15:06:35Z</time>
      </trkpt>
      <trkpt lat="48.53089" lon="1.66265">
        <ele>102.52</ele>
        <time>2020-07-06T15:06:42Z</time>
      </trkpt>
      <trkpt lat="48.53095" lon="1.66244">
        <ele>103</ele>
        <time>2020-07-06T15:06:50Z</time>
      </trkpt>
      <trkpt lat="48.53104" lon="1.6623">
        <ele>102.52</ele>
        <time>2020-07-06T15:06:59Z</time>
      </trkpt>
      <trkpt lat="48.53109" lon="1.66214">
        <ele>102.52</ele>
        <time>2020-07-06T15:07:07Z</time>
      </trkpt>
      <trkpt lat="48.53118" lon="1.66199">
        <ele>102.04</ele>
        <time>2020-07-06T15:07:15Z</time>
      </trkpt>
      <trkpt lat="48.53128" lon="1.66186">
        <ele>102.52</ele>
        <time>2020-07-06T15:07:24Z</time>
      </trkpt>
      <trkpt lat="48.5314" lon="1.6617">
        <ele>102.52</ele>
        <time>2020-07-06T15:07:35Z</time>
      </trkpt>
      <trkpt lat="48.53149" lon="1.66156">
        <ele>102.52</ele>
        <time>2020-07-06T15:07:47Z</time>
      </trkpt>
      <trkpt lat="48.53161" lon="1.66143">
        <ele>103</ele>
        <time>2020-07-06T15:08:01Z</time>
      </trkpt>
      <trkpt lat="48.53167" lon="1.66132">
        <ele>102.04</ele>
        <time>2020-07-06T15:08:38Z</time>
      </trkpt>
      <trkpt lat="48.53177" lon="1.66117">
        <ele>102.04</ele>
        <time>2020-07-06T15:08:48Z</time>
      </trkpt>
      <trkpt lat="48.53191" lon="1.66103">
        <ele>102.04</ele>
        <time>2020-07-06T15:09:01Z</time>
      </trkpt>
      <trkpt lat="48.53203" lon="1.66091">
        <ele>102.04</ele>
        <time>2020-07-06T15:09:10Z</time>
      </trkpt>
      <trkpt lat="48.53214" lon="1.66081">
        <ele>102.52</ele>
        <time>2020-07-06T15:09:19Z</time>
      </trkpt>
      <trkpt lat="48.53224" lon="1.66074">
        <ele>102.04</ele>
        <time>2020-07-06T15:09:28Z</time>
      </trkpt>
      <trkpt lat="48.53232" lon="1.66064">
        <ele>102.04</ele>
        <time>2020-07-06T15:09:37Z</time>
      </trkpt>
      <trkpt lat="48.53243" lon="1.66052">
        <ele>102.04</ele>
        <time>2020-07-06T15:09:45Z</time>
      </trkpt>
      <trkpt lat="48.53252" lon="1.66044">
        <ele>102.04</ele>
        <time>2020-07-06T15:09:53Z</time>
      </trkpt>
      <trkpt lat="48.53263" lon="1.66048">
        <ele>103.48</ele>
        <time>2020-07-06T15:10:04Z</time>
      </trkpt>
      <trkpt lat="48.53272" lon="1.66062">
        <ele>103.96</ele>
        <time>2020-07-06T15:10:13Z</time>
      </trkpt>
      <trkpt lat="48.5328" lon="1.66068">
        <ele>103.96</ele>
        <time>2020-07-06T15:10:22Z</time>
      </trkpt>
      <trkpt lat="48.5329" lon="1.6607">
        <ele>104.44</ele>
        <time>2020-07-06T15:10:31Z</time>
      </trkpt>
      <trkpt lat="48.53302" lon="1.66067">
        <ele>104.92</ele>
        <time>2020-07-06T15:10:41Z</time>
      </trkpt>
      <trkpt lat="48.53312" lon="1.66064">
        <ele>105.88</ele>
        <time>2020-07-06T15:10:49Z</time>
      </trkpt>
      <trkpt lat="48.53323" lon="1.6606">
        <ele>107.81</ele>
        <time>2020-07-06T15:11:00Z</time>
      </trkpt>
      <trkpt lat="48.53332" lon="1.6605">
        <ele>106.36</ele>
        <time>2020-07-06T15:11:09Z</time>
      </trkpt>
      <trkpt lat="48.5334" lon="1.66039">
        <ele>107.81</ele>
        <time>2020-07-06T15:11:16Z</time>
      </trkpt>
      <trkpt lat="48.53346" lon="1.66029">
        <ele>106.84</ele>
        <time>2020-07-06T15:11:23Z</time>
      </trkpt>
      <trkpt lat="48.53355" lon="1.6602">
        <ele>107.32</ele>
        <time>2020-07-06T15:11:32Z</time>
      </trkpt>
      <trkpt lat="48.53363" lon="1.6601">
        <ele>106.36</ele>
        <time>2020-07-06T15:11:39Z</time>
      </trkpt>
      <trkpt lat="48.5337" lon="1.66">
        <ele>106.36</ele>
        <time>2020-07-06T15:11:47Z</time>
      </trkpt>
      <trkpt lat="48.53377" lon="1.65988">
        <ele>104.92</ele>
        <time>2020-07-06T15:11:54Z</time>
      </trkpt>
      <trkpt lat="48.53385" lon="1.65979">
        <ele>105.4</ele>
        <time>2020-07-06T15:12:02Z</time>
      </trkpt>
      <trkpt lat="48.53393" lon="1.65968">
        <ele>105.88</ele>
        <time>2020-07-06T15:12:09Z</time>
      </trkpt>
      <trkpt lat="48.53399" lon="1.65956">
        <ele>105.88</ele>
        <time>2020-07-06T15:12:17Z</time>
      </trkpt>
      <trkpt lat="48.53407" lon="1.65946">
        <ele>105.88</ele>
        <time>2020-07-06T15:12:25Z</time>
      </trkpt>
      <trkpt lat="48.53414" lon="1.65934">
        <ele>105.4</ele>
        <time>2020-07-06T15:12:33Z</time>
      </trkpt>
      <trkpt lat="48.53422" lon="1.65921">
        <ele>104.44</ele>
        <time>2020-07-06T15:12:43Z</time>
      </trkpt>
      <trkpt lat="48.53433" lon="1.65911">
        <ele>104.92</ele>
        <time>2020-07-06T15:12:50Z</time>
      </trkpt>
      <trkpt lat="48.53442" lon="1.65902">
        <ele>104.44</ele>
        <time>2020-07-06T15:12:57Z</time>
      </trkpt>
      <trkpt lat="48.5345" lon="1.65892">
        <ele>103.96</ele>
        <time>2020-07-06T15:13:05Z</time>
      </trkpt>
      <trkpt lat="48.53458" lon="1.65881">
        <ele>103.96</ele>
        <time>2020-07-06T15:13:13Z</time>
      </trkpt>
      <trkpt lat="48.53468" lon="1.65873">
        <ele>103.96</ele>
        <time>2020-07-06T15:13:20Z</time>
      </trkpt>
      <trkpt lat="48.53476" lon="1.65863">
        <ele>103.96</ele>
        <time>2020-07-06T15:13:28Z</time>
      </trkpt>
      <trkpt lat="48.53482" lon="1.65852">
        <ele>103</ele>
        <time>2020-07-06T15:13:35Z</time>
      </trkpt>
      <trkpt lat="48.53492" lon="1.65842">
        <ele>103.48</ele>
        <time>2020-07-06T15:13:45Z</time>
      </trkpt>
      <trkpt lat="48.53501" lon="1.6583">
        <ele>103.96</ele>
        <time>2020-07-06T15:13:52Z</time>
      </trkpt>
      <trkpt lat="48.53513" lon="1.65819">
        <ele>103</ele>
        <time>2020-07-06T15:14:02Z</time>
      </trkpt>
      <trkpt lat="48.53518" lon="1.65803">
        <ele>103.48</ele>
        <time>2020-07-06T15:14:10Z</time>
      </trkpt>
      <trkpt lat="48.53524" lon="1.65792">
        <ele>103.48</ele>
        <time>2020-07-06T15:14:17Z</time>
      </trkpt>
      <trkpt lat="48.53532" lon="1.65781">
        <ele>103</ele>
        <time>2020-07-06T15:14:24Z</time>
      </trkpt>
      <trkpt lat="48.53537" lon="1.65768">
        <ele>103</ele>
        <time>2020-07-06T15:14:31Z</time>
      </trkpt>
      <trkpt lat="48.53544" lon="1.65756">
        <ele>103</ele>
        <time>2020-07-06T15:14:39Z</time>
      </trkpt>
      <trkpt lat="48.5355" lon="1.65745">
        <ele>103</ele>
        <time>2020-07-06T15:14:46Z</time>
      </trkpt>
      <trkpt lat="48.53558" lon="1.65735">
        <ele>103</ele>
        <time>2020-07-06T15:14:53Z</time>
      </trkpt>
      <trkpt lat="48.53566" lon="1.65727">
        <ele>102.04</ele>
        <time>2020-07-06T15:15:00Z</time>
      </trkpt>
      <trkpt lat="48.53573" lon="1.65717">
        <ele>103</ele>
        <time>2020-07-06T15:15:07Z</time>
      </trkpt>
      <trkpt lat="48.53581" lon="1.65705">
        <ele>103.48</ele>
        <time>2020-07-06T15:15:15Z</time>
      </trkpt>
      <trkpt lat="48.53589" lon="1.65695">
        <ele>103.48</ele>
        <time>2020-07-06T15:15:23Z</time>
      </trkpt>
      <trkpt lat="48.53596" lon="1.65684">
        <ele>103.48</ele>
        <time>2020-07-06T15:15:32Z</time>
      </trkpt>
      <trkpt lat="48.53604" lon="1.65672">
        <ele>103.48</ele>
        <time>2020-07-06T15:15:40Z</time>
      </trkpt>
      <trkpt lat="48.5361" lon="1.65657">
        <ele>103.48</ele>
        <time>2020-07-06T15:15:48Z</time>
      </trkpt>
      <trkpt lat="48.53617" lon="1.65645">
        <ele>103</ele>
        <time>2020-07-06T15:15:55Z</time>
      </trkpt>
      <trkpt lat="48.53623" lon="1.65632">
        <ele>103.48</ele>
        <time>2020-07-06T15:16:02Z</time>
      </trkpt>
      <trkpt lat="48.53629" lon="1.65618">
        <ele>104.44</ele>
        <time>2020-07-06T15:16:10Z</time>
      </trkpt>
      <trkpt lat="48.53635" lon="1.65606">
        <ele>104.44</ele>
        <time>2020-07-06T15:16:17Z</time>
      </trkpt>
      <trkpt lat="48.5364" lon="1.65596">
        <ele>104.44</ele>
        <time>2020-07-06T15:16:23Z</time>
      </trkpt>
      <trkpt lat="48.53646" lon="1.65585">
        <ele>104.44</ele>
        <time>2020-07-06T15:16:30Z</time>
      </trkpt>
      <trkpt lat="48.53653" lon="1.65576">
        <ele>104.92</ele>
        <time>2020-07-06T15:16:37Z</time>
      </trkpt>
      <trkpt lat="48.5366" lon="1.65568">
        <ele>104.92</ele>
        <time>2020-07-06T15:16:46Z</time>
      </trkpt>
      <trkpt lat="48.53669" lon="1.65573">
        <ele>105.4</ele>
        <time>2020-07-06T15:17:06Z</time>
      </trkpt>
      <trkpt lat="48.53678" lon="1.65583">
        <ele>105.4</ele>
        <time>2020-07-06T15:17:15Z</time>
      </trkpt>
      <trkpt lat="48.53686" lon="1.65595">
        <ele>105.88</ele>
        <time>2020-07-06T15:17:23Z</time>
      </trkpt>
      <trkpt lat="48.53695" lon="1.65605">
        <ele>106.36</ele>
        <time>2020-07-06T15:17:31Z</time>
      </trkpt>
      <trkpt lat="48.53703" lon="1.65615">
        <ele>106.84</ele>
        <time>2020-07-06T15:17:38Z</time>
      </trkpt>
      <trkpt lat="48.53713" lon="1.65627">
        <ele>107.32</ele>
        <time>2020-07-06T15:17:47Z</time>
      </trkpt>
      <trkpt lat="48.53721" lon="1.65638">
        <ele>107.81</ele>
        <time>2020-07-06T15:17:54Z</time>
      </trkpt>
      <trkpt lat="48.53727" lon="1.65652">
        <ele>107.81</ele>
        <time>2020-07-06T15:18:02Z</time>
      </trkpt>
      <trkpt lat="48.53735" lon="1.65662">
        <ele>107.81</ele>
        <time>2020-07-06T15:18:09Z</time>
      </trkpt>
      <trkpt lat="48.5374" lon="1.65675">
        <ele>108.29</ele>
        <time>2020-07-06T15:18:17Z</time>
      </trkpt>
      <trkpt lat="48.53748" lon="1.65687">
        <ele>109.73</ele>
        <time>2020-07-06T15:18:25Z</time>
      </trkpt>
      <trkpt lat="48.53755" lon="1.65697">
        <ele>109.25</ele>
        <time>2020-07-06T15:18:32Z</time>
      </trkpt>
      <trkpt lat="48.53765" lon="1.65706">
        <ele>110.21</ele>
        <time>2020-07-06T15:18:40Z</time>
      </trkpt>
      <trkpt lat="48.53772" lon="1.65717">
        <ele>109.73</ele>
        <time>2020-07-06T15:18:48Z</time>
      </trkpt>
      <trkpt lat="48.5378" lon="1.65725">
        <ele>110.69</ele>
        <time>2020-07-06T15:18:55Z</time>
      </trkpt>
      <trkpt lat="48.53786" lon="1.6574">
        <ele>111.17</ele>
        <time>2020-07-06T15:19:05Z</time>
      </trkpt>
      <trkpt lat="48.53793" lon="1.65754">
        <ele>111.17</ele>
        <time>2020-07-06T15:19:13Z</time>
      </trkpt>
      <trkpt lat="48.53798" lon="1.65769">
        <ele>112.61</ele>
        <time>2020-07-06T15:19:21Z</time>
      </trkpt>
      <trkpt lat="48.53803" lon="1.65786">
        <ele>113.09</ele>
        <time>2020-07-06T15:19:29Z</time>
      </trkpt>
      <trkpt lat="48.53806" lon="1.65801">
        <ele>113.09</ele>
        <time>2020-07-06T15:19:37Z</time>
      </trkpt>
      <trkpt lat="48.53811" lon="1.65815">
        <ele>113.09</ele>
        <time>2020-07-06T15:19:45Z</time>
      </trkpt>
      <trkpt lat="48.53818" lon="1.65825">
        <ele>113.57</ele>
        <time>2020-07-06T15:19:54Z</time>
      </trkpt>
      <trkpt lat="48.53823" lon="1.6584">
        <ele>115.01</ele>
        <time>2020-07-06T15:20:02Z</time>
      </trkpt>
      <trkpt lat="48.53825" lon="1.65856">
        <ele>115.5</ele>
        <time>2020-07-06T15:20:10Z</time>
      </trkpt>
      <trkpt lat="48.53827" lon="1.65873">
        <ele>115.01</ele>
        <time>2020-07-06T15:20:18Z</time>
      </trkpt>
      <trkpt lat="48.53828" lon="1.65892">
        <ele>115.98</ele>
        <time>2020-07-06T15:20:27Z</time>
      </trkpt>
      <trkpt lat="48.53826" lon="1.65907">
        <ele>116.46</ele>
        <time>2020-07-06T15:20:35Z</time>
      </trkpt>
      <trkpt lat="48.53825" lon="1.65926">
        <ele>116.94</ele>
        <time>2020-07-06T15:20:45Z</time>
      </trkpt>
      <trkpt lat="48.53824" lon="1.65944">
        <ele>117.42</ele>
        <time>2020-07-06T15:20:54Z</time>
      </trkpt>
      <trkpt lat="48.53824" lon="1.65959">
        <ele>118.38</ele>
        <time>2020-07-06T15:21:01Z</time>
      </trkpt>
      <trkpt lat="48.53821" lon="1.65977">
        <ele>118.38</ele>
        <time>2020-07-06T15:21:10Z</time>
      </trkpt>
      <trkpt lat="48.53821" lon="1.65993">
        <ele>119.34</ele>
        <time>2020-07-06T15:21:19Z</time>
      </trkpt>
      <trkpt lat="48.53825" lon="1.66008">
        <ele>119.34</ele>
        <time>2020-07-06T15:21:27Z</time>
      </trkpt>
      <trkpt lat="48.53826" lon="1.66024">
        <ele>119.82</ele>
        <time>2020-07-06T15:21:35Z</time>
      </trkpt>
      <trkpt lat="48.5383" lon="1.66041">
        <ele>120.78</ele>
        <time>2020-07-06T15:21:44Z</time>
      </trkpt>
      <trkpt lat="48.53833" lon="1.66054">
        <ele>121.26</ele>
        <time>2020-07-06T15:21:51Z</time>
      </trkpt>
      <trkpt lat="48.53834" lon="1.66071">
        <ele>121.74</ele>
        <time>2020-07-06T15:21:58Z</time>
      </trkpt>
      <trkpt lat="48.53836" lon="1.66085">
        <ele>122.22</ele>
        <time>2020-07-06T15:22:05Z</time>
      </trkpt>
      <trkpt lat="48.53841" lon="1.66098">
        <ele>122.71</ele>
        <time>2020-07-06T15:22:11Z</time>
      </trkpt>
      <trkpt lat="48.53845" lon="1.66113">
        <ele>123.19</ele>
        <time>2020-07-06T15:22:19Z</time>
      </trkpt>
      <trkpt lat="48.53852" lon="1.66125">
        <ele>124.63</ele>
        <time>2020-07-06T15:22:26Z</time>
      </trkpt>
      <trkpt lat="48.53858" lon="1.66141">
        <ele>124.63</ele>
        <time>2020-07-06T15:22:34Z</time>
      </trkpt>
      <trkpt lat="48.53862" lon="1.66155">
        <ele>125.11</ele>
        <time>2020-07-06T15:22:41Z</time>
      </trkpt>
      <trkpt lat="48.53873" lon="1.66163">
        <ele>125.59</ele>
        <time>2020-07-06T15:22:49Z</time>
      </trkpt>
      <trkpt lat="48.53881" lon="1.66174">
        <ele>126.07</ele>
        <time>2020-07-06T15:22:57Z</time>
      </trkpt>
      <trkpt lat="48.53892" lon="1.66181">
        <ele>127.03</ele>
        <time>2020-07-06T15:23:05Z</time>
      </trkpt>
      <trkpt lat="48.53902" lon="1.66188">
        <ele>127.03</ele>
        <time>2020-07-06T15:23:12Z</time>
      </trkpt>
      <trkpt lat="48.53912" lon="1.66196">
        <ele>127.51</ele>
        <time>2020-07-06T15:23:21Z</time>
      </trkpt>
      <trkpt lat="48.53922" lon="1.66201">
        <ele>127.99</ele>
        <time>2020-07-06T15:23:28Z</time>
      </trkpt>
      <trkpt lat="48.5393" lon="1.66208">
        <ele>128.47</ele>
        <time>2020-07-06T15:23:36Z</time>
      </trkpt>
      <trkpt lat="48.53939" lon="1.66214">
        <ele>129.43</ele>
        <time>2020-07-06T15:23:44Z</time>
      </trkpt>
      <trkpt lat="48.53947" lon="1.66222">
        <ele>129.43</ele>
        <time>2020-07-06T15:23:51Z</time>
      </trkpt>
      <trkpt lat="48.53958" lon="1.66226">
        <ele>130.4</ele>
        <time>2020-07-06T15:23:59Z</time>
      </trkpt>
      <trkpt lat="48.53968" lon="1.66233">
        <ele>132.32</ele>
        <time>2020-07-06T15:24:07Z</time>
      </trkpt>
      <trkpt lat="48.53977" lon="1.66241">
        <ele>132.8</ele>
        <time>2020-07-06T15:24:15Z</time>
      </trkpt>
      <trkpt lat="48.53986" lon="1.66248">
        <ele>133.28</ele>
        <time>2020-07-06T15:24:22Z</time>
      </trkpt>
      <trkpt lat="48.53995" lon="1.66256">
        <ele>134.24</ele>
        <time>2020-07-06T15:24:29Z</time>
      </trkpt>
      <trkpt lat="48.54004" lon="1.66263">
        <ele>135.2</ele>
        <time>2020-07-06T15:24:36Z</time>
      </trkpt>
      <trkpt lat="48.54012" lon="1.66269">
        <ele>135.2</ele>
        <time>2020-07-06T15:24:45Z</time>
      </trkpt>
      <trkpt lat="48.54021" lon="1.66273">
        <ele>135.68</ele>
        <time>2020-07-06T15:25:00Z</time>
      </trkpt>
      <trkpt lat="48.54027" lon="1.66277">
        <ele>136.16</ele>
        <time>2020-07-06T15:25:31Z</time>
      </trkpt>
      <trkpt lat="48.54035" lon="1.66282">
        <ele>136.64</ele>
        <time>2020-07-06T15:25:38Z</time>
      </trkpt>
      <trkpt lat="48.54046" lon="1.66288">
        <ele>137.13</ele>
        <time>2020-07-06T15:25:46Z</time>
      </trkpt>
      <trkpt lat="48.54054" lon="1.66296">
        <ele>137.61</ele>
        <time>2020-07-06T15:25:53Z</time>
      </trkpt>
      <trkpt lat="48.54063" lon="1.66305">
        <ele>138.57</ele>
        <time>2020-07-06T15:26:00Z</time>
      </trkpt>
      <trkpt lat="48.54073" lon="1.6631">
        <ele>139.05</ele>
        <time>2020-07-06T15:26:07Z</time>
      </trkpt>
      <trkpt lat="48.54082" lon="1.66315">
        <ele>139.05</ele>
        <time>2020-07-06T15:26:14Z</time>
      </trkpt>
      <trkpt lat="48.5409" lon="1.66321">
        <ele>140.01</ele>
        <time>2020-07-06T15:26:21Z</time>
      </trkpt>
      <trkpt lat="48.54099" lon="1.66328">
        <ele>140.49</ele>
        <time>2020-07-06T15:26:28Z</time>
      </trkpt>
      <trkpt lat="48.54109" lon="1.66333">
        <ele>140.97</ele>
        <time>2020-07-06T15:26:36Z</time>
      </trkpt>
      <trkpt lat="48.54119" lon="1.6634">
        <ele>141.45</ele>
        <time>2020-07-06T15:26:43Z</time>
      </trkpt>
      <trkpt lat="48.54128" lon="1.66345">
        <ele>140.49</ele>
        <time>2020-07-06T15:26:50Z</time>
      </trkpt>
      <trkpt lat="48.54137" lon="1.6635">
        <ele>140.97</ele>
        <time>2020-07-06T15:26:57Z</time>
      </trkpt>
      <trkpt lat="48.54146" lon="1.66357">
        <ele>140.49</ele>
        <time>2020-07-06T15:27:04Z</time>
      </trkpt>
      <trkpt lat="48.54156" lon="1.66362">
        <ele>140.49</ele>
        <time>2020-07-06T15:27:11Z</time>
      </trkpt>
      <trkpt lat="48.54165" lon="1.66367">
        <ele>141.45</ele>
        <time>2020-07-06T15:27:18Z</time>
      </trkpt>
      <trkpt lat="48.54174" lon="1.66374">
        <ele>141.93</ele>
        <time>2020-07-06T15:27:25Z</time>
      </trkpt>
      <trkpt lat="48.54184" lon="1.66379">
        <ele>142.41</ele>
        <time>2020-07-06T15:27:33Z</time>
      </trkpt>
      <trkpt lat="48.54194" lon="1.66384">
        <ele>142.41</ele>
        <time>2020-07-06T15:27:40Z</time>
      </trkpt>
      <trkpt lat="48.54202" lon="1.66389">
        <ele>142.41</ele>
        <time>2020-07-06T15:27:48Z</time>
      </trkpt>
      <trkpt lat="48.54212" lon="1.66387">
        <ele>142.41</ele>
        <time>2020-07-06T15:28:04Z</time>
      </trkpt>
      <trkpt lat="48.54221" lon="1.66378">
        <ele>142.41</ele>
        <time>2020-07-06T15:28:12Z</time>
      </trkpt>
      <trkpt lat="48.54228" lon="1.66367">
        <ele>141.93</ele>
        <time>2020-07-06T15:28:19Z</time>
      </trkpt>
      <trkpt lat="48.54236" lon="1.66358">
        <ele>142.89</ele>
        <time>2020-07-06T15:28:26Z</time>
      </trkpt>
      <trkpt lat="48.54244" lon="1.6635">
        <ele>142.41</ele>
        <time>2020-07-06T15:28:33Z</time>
      </trkpt>
      <trkpt lat="48.54252" lon="1.66343">
        <ele>142.41</ele>
        <time>2020-07-06T15:28:40Z</time>
      </trkpt>
      <trkpt lat="48.5426" lon="1.66335">
        <ele>142.89</ele>
        <time>2020-07-06T15:28:47Z</time>
      </trkpt>
      <trkpt lat="48.54266" lon="1.66326">
        <ele>142.89</ele>
        <time>2020-07-06T15:28:55Z</time>
      </trkpt>
      <trkpt lat="48.54275" lon="1.66318">
        <ele>142.41</ele>
        <time>2020-07-06T15:29:02Z</time>
      </trkpt>
      <trkpt lat="48.54283" lon="1.66309">
        <ele>142.89</ele>
        <time>2020-07-06T15:29:09Z</time>
      </trkpt>
      <trkpt lat="48.54291" lon="1.66302">
        <ele>143.37</ele>
        <time>2020-07-06T15:29:16Z</time>
      </trkpt>
      <trkpt lat="48.54298" lon="1.66293">
        <ele>143.37</ele>
        <time>2020-07-06T15:29:23Z</time>
      </trkpt>
      <trkpt lat="48.54306" lon="1.66287">
        <ele>143.85</ele>
        <time>2020-07-06T15:29:30Z</time>
      </trkpt>
      <trkpt lat="48.54313" lon="1.66277">
        <ele>143.85</ele>
        <time>2020-07-06T15:29:37Z</time>
      </trkpt>
      <trkpt lat="48.5432" lon="1.66269">
        <ele>143.85</ele>
        <time>2020-07-06T15:29:44Z</time>
      </trkpt>
      <trkpt lat="48.54328" lon="1.66262">
        <ele>143.85</ele>
        <time>2020-07-06T15:29:50Z</time>
      </trkpt>
      <trkpt lat="48.54335" lon="1.66252">
        <ele>143.37</ele>
        <time>2020-07-06T15:29:57Z</time>
      </trkpt>
      <trkpt lat="48.54344" lon="1.66245">
        <ele>143.37</ele>
        <time>2020-07-06T15:30:04Z</time>
      </trkpt>
      <trkpt lat="48.54351" lon="1.66237">
        <ele>143.37</ele>
        <time>2020-07-06T15:30:10Z</time>
      </trkpt>
      <trkpt lat="48.54359" lon="1.66228">
        <ele>143.37</ele>
        <time>2020-07-06T15:30:18Z</time>
      </trkpt>
      <trkpt lat="48.54366" lon="1.66219">
        <ele>143.37</ele>
        <time>2020-07-06T15:30:25Z</time>
      </trkpt>
      <trkpt lat="48.54374" lon="1.6621">
        <ele>143.37</ele>
        <time>2020-07-06T15:30:33Z</time>
      </trkpt>
      <trkpt lat="48.54381" lon="1.66201">
        <ele>142.89</ele>
        <time>2020-07-06T15:30:44Z</time>
      </trkpt>
      <trkpt lat="48.54389" lon="1.66194">
        <ele>142.89</ele>
        <time>2020-07-06T15:30:51Z</time>
      </trkpt>
      <trkpt lat="48.54397" lon="1.66184">
        <ele>142.89</ele>
        <time>2020-07-06T15:30:58Z</time>
      </trkpt>
      <trkpt lat="48.54405" lon="1.66176">
        <ele>142.41</ele>
        <time>2020-07-06T15:31:05Z</time>
      </trkpt>
      <trkpt lat="48.54414" lon="1.66168">
        <ele>141.93</ele>
        <time>2020-07-06T15:31:12Z</time>
      </trkpt>
      <trkpt lat="48.54422" lon="1.66158">
        <ele>142.41</ele>
        <time>2020-07-06T15:31:20Z</time>
      </trkpt>
      <trkpt lat="48.5443" lon="1.66149">
        <ele>141.45</ele>
        <time>2020-07-06T15:31:27Z</time>
      </trkpt>
      <trkpt lat="48.54436" lon="1.6614">
        <ele>141.45</ele>
        <time>2020-07-06T15:31:34Z</time>
      </trkpt>
      <trkpt lat="48.54445" lon="1.66132">
        <ele>141.45</ele>
        <time>2020-07-06T15:31:42Z</time>
      </trkpt>
      <trkpt lat="48.54452" lon="1.66121">
        <ele>140.49</ele>
        <time>2020-07-06T15:31:50Z</time>
      </trkpt>
      <trkpt lat="48.54461" lon="1.66112">
        <ele>140.01</ele>
        <time>2020-07-06T15:31:58Z</time>
      </trkpt>
      <trkpt lat="48.54468" lon="1.66103">
        <ele>139.05</ele>
        <time>2020-07-06T15:32:04Z</time>
      </trkpt>
      <trkpt lat="48.54478" lon="1.66095">
        <ele>139.05</ele>
        <time>2020-07-06T15:32:12Z</time>
      </trkpt>
      <trkpt lat="48.54485" lon="1.66084">
        <ele>138.57</ele>
        <time>2020-07-06T15:32:19Z</time>
      </trkpt>
      <trkpt lat="48.54494" lon="1.66077">
        <ele>139.05</ele>
        <time>2020-07-06T15:32:27Z</time>
      </trkpt>
      <trkpt lat="48.54502" lon="1.66067">
        <ele>138.09</ele>
        <time>2020-07-06T15:32:35Z</time>
      </trkpt>
      <trkpt lat="48.54511" lon="1.66061">
        <ele>137.61</ele>
        <time>2020-07-06T15:32:42Z</time>
      </trkpt>
      <trkpt lat="48.54518" lon="1.6605">
        <ele>137.61</ele>
        <time>2020-07-06T15:32:50Z</time>
      </trkpt>
      <trkpt lat="48.54527" lon="1.66042">
        <ele>137.61</ele>
        <time>2020-07-06T15:32:57Z</time>
      </trkpt>
      <trkpt lat="48.54535" lon="1.66034">
        <ele>137.13</ele>
        <time>2020-07-06T15:33:04Z</time>
      </trkpt>
      <trkpt lat="48.54542" lon="1.66025">
        <ele>137.13</ele>
        <time>2020-07-06T15:33:11Z</time>
      </trkpt>
      <trkpt lat="48.54551" lon="1.66018">
        <ele>138.09</ele>
        <time>2020-07-06T15:33:19Z</time>
      </trkpt>
      <trkpt lat="48.54558" lon="1.66009">
        <ele>138.57</ele>
        <time>2020-07-06T15:33:27Z</time>
      </trkpt>
      <trkpt lat="48.54565" lon="1.66">
        <ele>139.05</ele>
        <time>2020-07-06T15:33:34Z</time>
      </trkpt>
      <trkpt lat="48.54573" lon="1.65993">
        <ele>139.53</ele>
        <time>2020-07-06T15:33:41Z</time>
      </trkpt>
      <trkpt lat="48.5458" lon="1.65983">
        <ele>139.53</ele>
        <time>2020-07-06T15:33:48Z</time>
      </trkpt>
      <trkpt lat="48.54588" lon="1.65976">
        <ele>140.01</ele>
        <time>2020-07-06T15:33:56Z</time>
      </trkpt>
      <trkpt lat="48.54595" lon="1.65966">
        <ele>140.01</ele>
        <time>2020-07-06T15:34:04Z</time>
      </trkpt>
      <trkpt lat="48.54604" lon="1.65958">
        <ele>141.45</ele>
        <time>2020-07-06T15:34:12Z</time>
      </trkpt>
      <trkpt lat="48.54612" lon="1.65949">
        <ele>141.93</ele>
        <time>2020-07-06T15:34:20Z</time>
      </trkpt>
      <trkpt lat="48.54621" lon="1.6594">
        <ele>141.93</ele>
        <time>2020-07-06T15:34:29Z</time>
      </trkpt>
      <trkpt lat="48.54628" lon="1.6593">
        <ele>141.45</ele>
        <time>2020-07-06T15:34:36Z</time>
      </trkpt>
      <trkpt lat="48.54637" lon="1.65924">
        <ele>142.41</ele>
        <time>2020-07-06T15:34:43Z</time>
      </trkpt>
      <trkpt lat="48.54643" lon="1.65913">
        <ele>142.41</ele>
        <time>2020-07-06T15:34:50Z</time>
      </trkpt>
      <trkpt lat="48.54653" lon="1.65905">
        <ele>142.41</ele>
        <time>2020-07-06T15:34:58Z</time>
      </trkpt>
      <trkpt lat="48.5466" lon="1.65897">
        <ele>142.89</ele>
        <time>2020-07-06T15:35:05Z</time>
      </trkpt>
      <trkpt lat="48.54669" lon="1.65889">
        <ele>142.89</ele>
        <time>2020-07-06T15:35:13Z</time>
      </trkpt>
      <trkpt lat="48.54677" lon="1.6588">
        <ele>143.37</ele>
        <time>2020-07-06T15:35:20Z</time>
      </trkpt>
      <trkpt lat="48.54684" lon="1.6587">
        <ele>143.37</ele>
        <time>2020-07-06T15:35:27Z</time>
      </trkpt>
      <trkpt lat="48.54693" lon="1.65864">
        <ele>142.89</ele>
        <time>2020-07-06T15:35:33Z</time>
      </trkpt>
      <trkpt lat="48.547" lon="1.65856">
        <ele>143.37</ele>
        <time>2020-07-06T15:35:40Z</time>
      </trkpt>
      <trkpt lat="48.54706" lon="1.65845">
        <ele>144.34</ele>
        <time>2020-07-06T15:35:46Z</time>
      </trkpt>
      <trkpt lat="48.54715" lon="1.65838">
        <ele>143.85</ele>
        <time>2020-07-06T15:35:53Z</time>
      </trkpt>
      <trkpt lat="48.54723" lon="1.65831">
        <ele>143.85</ele>
        <time>2020-07-06T15:36:01Z</time>
      </trkpt>
      <trkpt lat="48.54731" lon="1.6582">
        <ele>144.34</ele>
        <time>2020-07-06T15:36:09Z</time>
      </trkpt>
      <trkpt lat="48.54739" lon="1.65813">
        <ele>144.82</ele>
        <time>2020-07-06T15:36:16Z</time>
      </trkpt>
      <trkpt lat="48.54747" lon="1.65803">
        <ele>144.82</ele>
        <time>2020-07-06T15:36:23Z</time>
      </trkpt>
      <trkpt lat="48.54755" lon="1.65794">
        <ele>144.82</ele>
        <time>2020-07-06T15:36:30Z</time>
      </trkpt>
      <trkpt lat="48.54763" lon="1.65788">
        <ele>144.82</ele>
        <time>2020-07-06T15:36:37Z</time>
      </trkpt>
      <trkpt lat="48.5477" lon="1.65777">
        <ele>144.82</ele>
        <time>2020-07-06T15:36:44Z</time>
      </trkpt>
      <trkpt lat="48.54778" lon="1.65771">
        <ele>144.34</ele>
        <time>2020-07-06T15:36:51Z</time>
      </trkpt>
      <trkpt lat="48.54786" lon="1.65762">
        <ele>144.82</ele>
        <time>2020-07-06T15:36:58Z</time>
      </trkpt>
      <trkpt lat="48.54795" lon="1.65755">
        <ele>144.34</ele>
        <time>2020-07-06T15:37:06Z</time>
      </trkpt>
      <trkpt lat="48.54801" lon="1.65746">
        <ele>144.34</ele>
        <time>2020-07-06T15:37:14Z</time>
      </trkpt>
      <trkpt lat="48.54808" lon="1.65751">
        <ele>145.3</ele>
        <time>2020-07-06T15:37:34Z</time>
      </trkpt>
      <trkpt lat="48.54816" lon="1.65751">
        <ele>145.3</ele>
        <time>2020-07-06T15:37:45Z</time>
      </trkpt>
      <trkpt lat="48.54824" lon="1.65758">
        <ele>145.78</ele>
        <time>2020-07-06T15:37:53Z</time>
      </trkpt>
      <trkpt lat="48.54829" lon="1.65769">
        <ele>145.78</ele>
        <time>2020-07-06T15:38:01Z</time>
      </trkpt>
      <trkpt lat="48.54838" lon="1.65777">
        <ele>145.3</ele>
        <time>2020-07-06T15:38:09Z</time>
      </trkpt>
      <trkpt lat="48.54845" lon="1.65788">
        <ele>145.78</ele>
        <time>2020-07-06T15:38:16Z</time>
      </trkpt>
      <trkpt lat="48.54852" lon="1.65799">
        <ele>145.78</ele>
        <time>2020-07-06T15:38:24Z</time>
      </trkpt>
      <trkpt lat="48.54859" lon="1.65809">
        <ele>145.78</ele>
        <time>2020-07-06T15:38:31Z</time>
      </trkpt>
      <trkpt lat="48.54866" lon="1.65818">
        <ele>146.26</ele>
        <time>2020-07-06T15:38:38Z</time>
      </trkpt>
      <trkpt lat="48.54872" lon="1.65828">
        <ele>146.26</ele>
        <time>2020-07-06T15:38:44Z</time>
      </trkpt>
      <trkpt lat="48.54878" lon="1.65838">
        <ele>145.78</ele>
        <time>2020-07-06T15:38:51Z</time>
      </trkpt>
      <trkpt lat="48.54886" lon="1.65849">
        <ele>145.78</ele>
        <time>2020-07-06T15:38:58Z</time>
      </trkpt>
      <trkpt lat="48.54893" lon="1.65859">
        <ele>145.78</ele>
        <time>2020-07-06T15:39:05Z</time>
      </trkpt>
      <trkpt lat="48.549" lon="1.65866">
        <ele>145.78</ele>
        <time>2020-07-06T15:39:10Z</time>
      </trkpt>
      <trkpt lat="48.54908" lon="1.65873">
        <ele>145.3</ele>
        <time>2020-07-06T15:39:17Z</time>
      </trkpt>
      <trkpt lat="48.54914" lon="1.65882">
        <ele>145.3</ele>
        <time>2020-07-06T15:39:25Z</time>
      </trkpt>
      <trkpt lat="48.54919" lon="1.65893">
        <ele>145.3</ele>
        <time>2020-07-06T15:39:32Z</time>
      </trkpt>
      <trkpt lat="48.54925" lon="1.65905">
        <ele>145.78</ele>
        <time>2020-07-06T15:39:39Z</time>
      </trkpt>
      <trkpt lat="48.54932" lon="1.65912">
        <ele>145.3</ele>
        <time>2020-07-06T15:39:48Z</time>
      </trkpt>
      <trkpt lat="48.54936" lon="1.6592">
        <ele>145.78</ele>
        <time>2020-07-06T15:40:05Z</time>
      </trkpt>
      <trkpt lat="48.54943" lon="1.6593">
        <ele>145.78</ele>
        <time>2020-07-06T15:40:13Z</time>
      </trkpt>
      <trkpt lat="48.54949" lon="1.6594">
        <ele>145.78</ele>
        <time>2020-07-06T15:40:20Z</time>
      </trkpt>
      <trkpt lat="48.54957" lon="1.6595">
        <ele>146.26</ele>
        <time>2020-07-06T15:40:27Z</time>
      </trkpt>
      <trkpt lat="48.54964" lon="1.6596">
        <ele>145.78</ele>
        <time>2020-07-06T15:40:34Z</time>
      </trkpt>
      <trkpt lat="48.5497" lon="1.65971">
        <ele>146.26</ele>
        <time>2020-07-06T15:40:41Z</time>
      </trkpt>
      <trkpt lat="48.54976" lon="1.65982">
        <ele>146.26</ele>
        <time>2020-07-06T15:40:49Z</time>
      </trkpt>
      <trkpt lat="48.54983" lon="1.65993">
        <ele>146.74</ele>
        <time>2020-07-06T15:40:57Z</time>
      </trkpt>
      <trkpt lat="48.54991" lon="1.66003">
        <ele>146.26</ele>
        <time>2020-07-06T15:41:04Z</time>
      </trkpt>
      <trkpt lat="48.54998" lon="1.66013">
        <ele>146.74</ele>
        <time>2020-07-06T15:41:10Z</time>
      </trkpt>
      <trkpt lat="48.55005" lon="1.66024">
        <ele>146.26</ele>
        <time>2020-07-06T15:41:17Z</time>
      </trkpt>
      <trkpt lat="48.55013" lon="1.66034">
        <ele>147.7</ele>
        <time>2020-07-06T15:41:24Z</time>
      </trkpt>
      <trkpt lat="48.5502" lon="1.66045">
        <ele>146.74</ele>
        <time>2020-07-06T15:41:31Z</time>
      </trkpt>
      <trkpt lat="48.55027" lon="1.66053">
        <ele>146.26</ele>
        <time>2020-07-06T15:41:37Z</time>
      </trkpt>
      <trkpt lat="48.55034" lon="1.66064">
        <ele>146.26</ele>
        <time>2020-07-06T15:41:45Z</time>
      </trkpt>
      <trkpt lat="48.5504" lon="1.66075">
        <ele>147.22</ele>
        <time>2020-07-06T15:41:52Z</time>
      </trkpt>
      <trkpt lat="48.55048" lon="1.66084">
        <ele>147.22</ele>
        <time>2020-07-06T15:41:58Z</time>
      </trkpt>
      <trkpt lat="48.55053" lon="1.66094">
        <ele>146.26</ele>
        <time>2020-07-06T15:42:05Z</time>
      </trkpt>
      <trkpt lat="48.5506" lon="1.66106">
        <ele>146.74</ele>
        <time>2020-07-06T15:42:12Z</time>
      </trkpt>
      <trkpt lat="48.55067" lon="1.66117">
        <ele>146.74</ele>
        <time>2020-07-06T15:42:19Z</time>
      </trkpt>
      <trkpt lat="48.55076" lon="1.66125">
        <ele>146.74</ele>
        <time>2020-07-06T15:42:24Z</time>
      </trkpt>
      <trkpt lat="48.55083" lon="1.66135">
        <ele>147.7</ele>
        <time>2020-07-06T15:42:30Z</time>
      </trkpt>
      <trkpt lat="48.55089" lon="1.66145">
        <ele>147.22</ele>
        <time>2020-07-06T15:42:37Z</time>
      </trkpt>
      <trkpt lat="48.55098" lon="1.66155">
        <ele>146.74</ele>
        <time>2020-07-06T15:42:44Z</time>
      </trkpt>
      <trkpt lat="48.55104" lon="1.66166">
        <ele>147.22</ele>
        <time>2020-07-06T15:42:51Z</time>
      </trkpt>
      <trkpt lat="48.55112" lon="1.66179">
        <ele>146.74</ele>
        <time>2020-07-06T15:42:58Z</time>
      </trkpt>
      <trkpt lat="48.55119" lon="1.66191">
        <ele>146.26</ele>
        <time>2020-07-06T15:43:05Z</time>
      </trkpt>
      <trkpt lat="48.55126" lon="1.662">
        <ele>146.26</ele>
        <time>2020-07-06T15:43:11Z</time>
      </trkpt>
      <trkpt lat="48.55134" lon="1.66209">
        <ele>147.7</ele>
        <time>2020-07-06T15:43:17Z</time>
      </trkpt>
      <trkpt lat="48.55142" lon="1.66218">
        <ele>147.7</ele>
        <time>2020-07-06T15:43:23Z</time>
      </trkpt>
      <trkpt lat="48.55149" lon="1.66228">
        <ele>147.22</ele>
        <time>2020-07-06T15:43:30Z</time>
      </trkpt>
      <trkpt lat="48.55156" lon="1.66238">
        <ele>147.22</ele>
        <time>2020-07-06T15:43:36Z</time>
      </trkpt>
      <trkpt lat="48.55161" lon="1.6625">
        <ele>148.18</ele>
        <time>2020-07-06T15:43:43Z</time>
      </trkpt>
      <trkpt lat="48.55168" lon="1.6626">
        <ele>147.22</ele>
        <time>2020-07-06T15:43:49Z</time>
      </trkpt>
      <trkpt lat="48.55175" lon="1.66269">
        <ele>147.7</ele>
        <time>2020-07-06T15:43:55Z</time>
      </trkpt>
      <trkpt lat="48.55183" lon="1.66278">
        <ele>147.7</ele>
        <time>2020-07-06T15:44:02Z</time>
      </trkpt>
      <trkpt lat="48.55189" lon="1.6629">
        <ele>147.7</ele>
        <time>2020-07-06T15:44:10Z</time>
      </trkpt>
      <trkpt lat="48.55196" lon="1.66302">
        <ele>148.18</ele>
        <time>2020-07-06T15:44:17Z</time>
      </trkpt>
      <trkpt lat="48.55204" lon="1.66312">
        <ele>147.7</ele>
        <time>2020-07-06T15:44:25Z</time>
      </trkpt>
      <trkpt lat="48.5521" lon="1.66324">
        <ele>147.7</ele>
        <time>2020-07-06T15:44:32Z</time>
      </trkpt>
      <trkpt lat="48.55217" lon="1.66331">
        <ele>148.18</ele>
        <time>2020-07-06T15:44:46Z</time>
      </trkpt>
      <trkpt lat="48.55223" lon="1.66344">
        <ele>147.7</ele>
        <time>2020-07-06T15:44:53Z</time>
      </trkpt>
      <trkpt lat="48.5523" lon="1.66356">
        <ele>147.7</ele>
        <time>2020-07-06T15:45:01Z</time>
      </trkpt>
      <trkpt lat="48.55236" lon="1.66369">
        <ele>147.7</ele>
        <time>2020-07-06T15:45:08Z</time>
      </trkpt>
      <trkpt lat="48.55242" lon="1.66383">
        <ele>148.18</ele>
        <time>2020-07-06T15:45:15Z</time>
      </trkpt>
      <trkpt lat="48.55247" lon="1.66396">
        <ele>148.66</ele>
        <time>2020-07-06T15:45:22Z</time>
      </trkpt>
      <trkpt lat="48.55253" lon="1.66407">
        <ele>148.18</ele>
        <time>2020-07-06T15:45:28Z</time>
      </trkpt>
      <trkpt lat="48.55258" lon="1.66421">
        <ele>147.7</ele>
        <time>2020-07-06T15:45:35Z</time>
      </trkpt>
      <trkpt lat="48.55262" lon="1.66434">
        <ele>147.22</ele>
        <time>2020-07-06T15:45:42Z</time>
      </trkpt>
      <trkpt lat="48.55267" lon="1.66447">
        <ele>147.22</ele>
        <time>2020-07-06T15:45:48Z</time>
      </trkpt>
      <trkpt lat="48.55272" lon="1.66459">
        <ele>147.7</ele>
        <time>2020-07-06T15:45:55Z</time>
      </trkpt>
      <trkpt lat="48.55275" lon="1.66474">
        <ele>147.7</ele>
        <time>2020-07-06T15:46:02Z</time>
      </trkpt>
      <trkpt lat="48.55279" lon="1.66488">
        <ele>148.18</ele>
        <time>2020-07-06T15:46:09Z</time>
      </trkpt>
      <trkpt lat="48.55284" lon="1.66501">
        <ele>147.7</ele>
        <time>2020-07-06T15:46:16Z</time>
      </trkpt>
      <trkpt lat="48.55287" lon="1.66516">
        <ele>147.7</ele>
        <time>2020-07-06T15:46:23Z</time>
      </trkpt>
      <trkpt lat="48.55289" lon="1.6653">
        <ele>148.18</ele>
        <time>2020-07-06T15:46:30Z</time>
      </trkpt>
      <trkpt lat="48.55292" lon="1.66544">
        <ele>148.66</ele>
        <time>2020-07-06T15:46:37Z</time>
      </trkpt>
      <trkpt lat="48.55297" lon="1.66559">
        <ele>148.66</ele>
        <time>2020-07-06T15:46:44Z</time>
      </trkpt>
      <trkpt lat="48.55299" lon="1.66573">
        <ele>148.66</ele>
        <time>2020-07-06T15:46:51Z</time>
      </trkpt>
      <trkpt lat="48.553" lon="1.66588">
        <ele>149.14</ele>
        <time>2020-07-06T15:46:58Z</time>
      </trkpt>
      <trkpt lat="48.55302" lon="1.66602">
        <ele>148.66</ele>
        <time>2020-07-06T15:47:05Z</time>
      </trkpt>
      <trkpt lat="48.55303" lon="1.66617">
        <ele>149.62</ele>
        <time>2020-07-06T15:47:12Z</time>
      </trkpt>
      <trkpt lat="48.55303" lon="1.66633">
        <ele>149.62</ele>
        <time>2020-07-06T15:47:19Z</time>
      </trkpt>
      <trkpt lat="48.55304" lon="1.66647">
        <ele>149.62</ele>
        <time>2020-07-06T15:47:26Z</time>
      </trkpt>
      <trkpt lat="48.55304" lon="1.66661">
        <ele>150.58</ele>
        <time>2020-07-06T15:47:33Z</time>
      </trkpt>
      <trkpt lat="48.55305" lon="1.66676">
        <ele>150.58</ele>
        <time>2020-07-06T15:47:40Z</time>
      </trkpt>
      <trkpt lat="48.55305" lon="1.66692">
        <ele>150.58</ele>
        <time>2020-07-06T15:47:47Z</time>
      </trkpt>
      <trkpt lat="48.55306" lon="1.66706">
        <ele>151.54</ele>
        <time>2020-07-06T15:47:54Z</time>
      </trkpt>
      <trkpt lat="48.55306" lon="1.66721">
        <ele>151.06</ele>
        <time>2020-07-06T15:48:01Z</time>
      </trkpt>
      <trkpt lat="48.55306" lon="1.66736">
        <ele>150.58</ele>
        <time>2020-07-06T15:48:08Z</time>
      </trkpt>
      <trkpt lat="48.55305" lon="1.66749">
        <ele>151.06</ele>
        <time>2020-07-06T15:48:16Z</time>
      </trkpt>
      <trkpt lat="48.55305" lon="1.66764">
        <ele>151.54</ele>
        <time>2020-07-06T15:48:23Z</time>
      </trkpt>
      <trkpt lat="48.55305" lon="1.66779">
        <ele>152.03</ele>
        <time>2020-07-06T15:48:30Z</time>
      </trkpt>
      <trkpt lat="48.55305" lon="1.66793">
        <ele>151.54</ele>
        <time>2020-07-06T15:48:37Z</time>
      </trkpt>
      <trkpt lat="48.55305" lon="1.66808">
        <ele>151.06</ele>
        <time>2020-07-06T15:48:44Z</time>
      </trkpt>
      <trkpt lat="48.55305" lon="1.66821">
        <ele>152.51</ele>
        <time>2020-07-06T15:48:51Z</time>
      </trkpt>
      <trkpt lat="48.55306" lon="1.66836">
        <ele>152.99</ele>
        <time>2020-07-06T15:48:58Z</time>
      </trkpt>
      <trkpt lat="48.55306" lon="1.6685">
        <ele>151.54</ele>
        <time>2020-07-06T15:49:05Z</time>
      </trkpt>
      <trkpt lat="48.5531" lon="1.66863">
        <ele>151.54</ele>
        <time>2020-07-06T15:49:12Z</time>
      </trkpt>
      <trkpt lat="48.55316" lon="1.66875">
        <ele>150.58</ele>
        <time>2020-07-06T15:49:20Z</time>
      </trkpt>
      <trkpt lat="48.55323" lon="1.66887">
        <ele>151.54</ele>
        <time>2020-07-06T15:49:28Z</time>
      </trkpt>
      <trkpt lat="48.55324" lon="1.66896">
        <ele>152.51</ele>
        <time>2020-07-06T15:50:24Z</time>
      </trkpt>
      <trkpt lat="48.55322" lon="1.6691">
        <ele>151.06</ele>
        <time>2020-07-06T15:50:36Z</time>
      </trkpt>
      <trkpt lat="48.55321" lon="1.6692">
        <ele>151.06</ele>
        <time>2020-07-06T15:50:55Z</time>
      </trkpt>
      <trkpt lat="48.55325" lon="1.66934">
        <ele>151.54</ele>
        <time>2020-07-06T15:51:03Z</time>
      </trkpt>
      <trkpt lat="48.5533" lon="1.66946">
        <ele>152.03</ele>
        <time>2020-07-06T15:51:10Z</time>
      </trkpt>
      <trkpt lat="48.55336" lon="1.66959">
        <ele>150.1</ele>
        <time>2020-07-06T15:51:18Z</time>
      </trkpt>
      <trkpt lat="48.55342" lon="1.6697">
        <ele>150.1</ele>
        <time>2020-07-06T15:51:25Z</time>
      </trkpt>
      <trkpt lat="48.55348" lon="1.66981">
        <ele>149.62</ele>
        <time>2020-07-06T15:51:32Z</time>
      </trkpt>
      <trkpt lat="48.55355" lon="1.66992">
        <ele>149.62</ele>
        <time>2020-07-06T15:51:39Z</time>
      </trkpt>
      <trkpt lat="48.5536" lon="1.67004">
        <ele>149.14</ele>
        <time>2020-07-06T15:51:46Z</time>
      </trkpt>
      <trkpt lat="48.55365" lon="1.67017">
        <ele>149.14</ele>
        <time>2020-07-06T15:51:53Z</time>
      </trkpt>
      <trkpt lat="48.55371" lon="1.67029">
        <ele>149.14</ele>
        <time>2020-07-06T15:52:00Z</time>
      </trkpt>
      <trkpt lat="48.55378" lon="1.67041">
        <ele>149.14</ele>
        <time>2020-07-06T15:52:08Z</time>
      </trkpt>
      <trkpt lat="48.55384" lon="1.67053">
        <ele>148.66</ele>
        <time>2020-07-06T15:52:14Z</time>
      </trkpt>
      <trkpt lat="48.5539" lon="1.67064">
        <ele>148.66</ele>
        <time>2020-07-06T15:52:20Z</time>
      </trkpt>
      <trkpt lat="48.55395" lon="1.67077">
        <ele>149.14</ele>
        <time>2020-07-06T15:52:27Z</time>
      </trkpt>
      <trkpt lat="48.55401" lon="1.67089">
        <ele>148.66</ele>
        <time>2020-07-06T15:52:34Z</time>
      </trkpt>
      <trkpt lat="48.55408" lon="1.67098">
        <ele>148.66</ele>
        <time>2020-07-06T15:52:39Z</time>
      </trkpt>
      <trkpt lat="48.55414" lon="1.6711">
        <ele>148.66</ele>
        <time>2020-07-06T15:52:46Z</time>
      </trkpt>
      <trkpt lat="48.55419" lon="1.6712">
        <ele>148.66</ele>
        <time>2020-07-06T15:52:52Z</time>
      </trkpt>
      <trkpt lat="48.55425" lon="1.67131">
        <ele>149.14</ele>
        <time>2020-07-06T15:52:58Z</time>
      </trkpt>
      <trkpt lat="48.55431" lon="1.67142">
        <ele>149.14</ele>
        <time>2020-07-06T15:53:04Z</time>
      </trkpt>
      <trkpt lat="48.55436" lon="1.67155">
        <ele>149.62</ele>
        <time>2020-07-06T15:53:11Z</time>
      </trkpt>
      <trkpt lat="48.55442" lon="1.67168">
        <ele>149.62</ele>
        <time>2020-07-06T15:53:18Z</time>
      </trkpt>
      <trkpt lat="48.55448" lon="1.67179">
        <ele>149.62</ele>
        <time>2020-07-06T15:53:25Z</time>
      </trkpt>
      <trkpt lat="48.55455" lon="1.67192">
        <ele>150.1</ele>
        <time>2020-07-06T15:53:32Z</time>
      </trkpt>
      <trkpt lat="48.55461" lon="1.67203">
        <ele>150.1</ele>
        <time>2020-07-06T15:53:38Z</time>
      </trkpt>
      <trkpt lat="48.55466" lon="1.67215">
        <ele>150.1</ele>
        <time>2020-07-06T15:53:45Z</time>
      </trkpt>
      <trkpt lat="48.55471" lon="1.67227">
        <ele>150.1</ele>
        <time>2020-07-06T15:53:51Z</time>
      </trkpt>
      <trkpt lat="48.55477" lon="1.67238">
        <ele>150.1</ele>
        <time>2020-07-06T15:54:02Z</time>
      </trkpt>
      <trkpt lat="48.55481" lon="1.6725">
        <ele>150.1</ele>
        <time>2020-07-06T15:54:09Z</time>
      </trkpt>
      <trkpt lat="48.55488" lon="1.67261">
        <ele>150.1</ele>
        <time>2020-07-06T15:54:16Z</time>
      </trkpt>
      <trkpt lat="48.55495" lon="1.67271">
        <ele>149.62</ele>
        <time>2020-07-06T15:54:22Z</time>
      </trkpt>
      <trkpt lat="48.55501" lon="1.67282">
        <ele>149.62</ele>
        <time>2020-07-06T15:54:28Z</time>
      </trkpt>
      <trkpt lat="48.55507" lon="1.67295">
        <ele>150.1</ele>
        <time>2020-07-06T15:54:35Z</time>
      </trkpt>
      <trkpt lat="48.55512" lon="1.67307">
        <ele>149.62</ele>
        <time>2020-07-06T15:54:43Z</time>
      </trkpt>
      <trkpt lat="48.55517" lon="1.67319">
        <ele>149.62</ele>
        <time>2020-07-06T15:54:50Z</time>
      </trkpt>
      <trkpt lat="48.55524" lon="1.67329">
        <ele>149.14</ele>
        <time>2020-07-06T15:54:56Z</time>
      </trkpt>
      <trkpt lat="48.55529" lon="1.67341">
        <ele>149.14</ele>
        <time>2020-07-06T15:55:03Z</time>
      </trkpt>
      <trkpt lat="48.55535" lon="1.67354">
        <ele>149.62</ele>
        <time>2020-07-06T15:55:10Z</time>
      </trkpt>
      <trkpt lat="48.55541" lon="1.67363">
        <ele>149.14</ele>
        <time>2020-07-06T15:55:16Z</time>
      </trkpt>
      <trkpt lat="48.55547" lon="1.67372">
        <ele>149.62</ele>
        <time>2020-07-06T15:55:22Z</time>
      </trkpt>
      <trkpt lat="48.55552" lon="1.67385">
        <ele>149.14</ele>
        <time>2020-07-06T15:55:29Z</time>
      </trkpt>
      <trkpt lat="48.55558" lon="1.67395">
        <ele>149.14</ele>
        <time>2020-07-06T15:55:35Z</time>
      </trkpt>
      <trkpt lat="48.55564" lon="1.67406">
        <ele>147.7</ele>
        <time>2020-07-06T15:55:42Z</time>
      </trkpt>
      <trkpt lat="48.55568" lon="1.67418">
        <ele>148.18</ele>
        <time>2020-07-06T15:55:49Z</time>
      </trkpt>
      <trkpt lat="48.55572" lon="1.67431">
        <ele>147.7</ele>
        <time>2020-07-06T15:55:56Z</time>
      </trkpt>
      <trkpt lat="48.5558" lon="1.6744">
        <ele>147.7</ele>
        <time>2020-07-06T15:56:03Z</time>
      </trkpt>
      <trkpt lat="48.55587" lon="1.67452">
        <ele>147.7</ele>
        <time>2020-07-06T15:56:10Z</time>
      </trkpt>
      <trkpt lat="48.55592" lon="1.67466">
        <ele>147.22</ele>
        <time>2020-07-06T15:56:17Z</time>
      </trkpt>
      <trkpt lat="48.55598" lon="1.67477">
        <ele>147.22</ele>
        <time>2020-07-06T15:56:24Z</time>
      </trkpt>
      <trkpt lat="48.55606" lon="1.67487">
        <ele>147.7</ele>
        <time>2020-07-06T15:56:30Z</time>
      </trkpt>
      <trkpt lat="48.55611" lon="1.67498">
        <ele>146.74</ele>
        <time>2020-07-06T15:56:36Z</time>
      </trkpt>
      <trkpt lat="48.55615" lon="1.6751">
        <ele>146.26</ele>
        <time>2020-07-06T15:56:43Z</time>
      </trkpt>
      <trkpt lat="48.55622" lon="1.6752">
        <ele>145.78</ele>
        <time>2020-07-06T15:56:49Z</time>
      </trkpt>
      <trkpt lat="48.55628" lon="1.67533">
        <ele>145.3</ele>
        <time>2020-07-06T15:56:56Z</time>
      </trkpt>
      <trkpt lat="48.55633" lon="1.67545">
        <ele>145.78</ele>
        <time>2020-07-06T15:57:03Z</time>
      </trkpt>
      <trkpt lat="48.55638" lon="1.67555">
        <ele>145.3</ele>
        <time>2020-07-06T15:57:09Z</time>
      </trkpt>
      <trkpt lat="48.55645" lon="1.67566">
        <ele>144.82</ele>
        <time>2020-07-06T15:57:15Z</time>
      </trkpt>
      <trkpt lat="48.55651" lon="1.67577">
        <ele>144.34</ele>
        <time>2020-07-06T15:57:22Z</time>
      </trkpt>
      <trkpt lat="48.55656" lon="1.67587">
        <ele>144.34</ele>
        <time>2020-07-06T15:57:28Z</time>
      </trkpt>
      <trkpt lat="48.55662" lon="1.676">
        <ele>144.82</ele>
        <time>2020-07-06T15:57:35Z</time>
      </trkpt>
      <trkpt lat="48.55667" lon="1.67613">
        <ele>143.37</ele>
        <time>2020-07-06T15:57:42Z</time>
      </trkpt>
      <trkpt lat="48.55673" lon="1.67623">
        <ele>142.89</ele>
        <time>2020-07-06T15:57:48Z</time>
      </trkpt>
      <trkpt lat="48.5568" lon="1.67635">
        <ele>143.85</ele>
        <time>2020-07-06T15:57:55Z</time>
      </trkpt>
      <trkpt lat="48.55686" lon="1.67647">
        <ele>142.41</ele>
        <time>2020-07-06T15:58:02Z</time>
      </trkpt>
      <trkpt lat="48.55691" lon="1.67661">
        <ele>142.89</ele>
        <time>2020-07-06T15:58:09Z</time>
      </trkpt>
      <trkpt lat="48.55697" lon="1.67674">
        <ele>142.89</ele>
        <time>2020-07-06T15:58:16Z</time>
      </trkpt>
      <trkpt lat="48.55704" lon="1.67684">
        <ele>142.41</ele>
        <time>2020-07-06T15:58:22Z</time>
      </trkpt>
      <trkpt lat="48.55709" lon="1.67694">
        <ele>141.93</ele>
        <time>2020-07-06T15:58:28Z</time>
      </trkpt>
      <trkpt lat="48.55716" lon="1.67705">
        <ele>140.97</ele>
        <time>2020-07-06T15:58:35Z</time>
      </trkpt>
      <trkpt lat="48.55722" lon="1.67718">
        <ele>141.45</ele>
        <time>2020-07-06T15:58:42Z</time>
      </trkpt>
      <trkpt lat="48.55727" lon="1.67729">
        <ele>140.49</ele>
        <time>2020-07-06T15:58:48Z</time>
      </trkpt>
      <trkpt lat="48.55733" lon="1.6774">
        <ele>140.97</ele>
        <time>2020-07-06T15:58:55Z</time>
      </trkpt>
      <trkpt lat="48.5574" lon="1.67751">
        <ele>140.49</ele>
        <time>2020-07-06T15:59:02Z</time>
      </trkpt>
      <trkpt lat="48.55746" lon="1.67763">
        <ele>139.53</ele>
        <time>2020-07-06T15:59:09Z</time>
      </trkpt>
      <trkpt lat="48.55751" lon="1.67776">
        <ele>139.53</ele>
        <time>2020-07-06T15:59:16Z</time>
      </trkpt>
      <trkpt lat="48.55758" lon="1.67788">
        <ele>139.05</ele>
        <time>2020-07-06T15:59:23Z</time>
      </trkpt>
      <trkpt lat="48.55764" lon="1.67799">
        <ele>139.53</ele>
        <time>2020-07-06T15:59:29Z</time>
      </trkpt>
      <trkpt lat="48.55771" lon="1.6781">
        <ele>139.53</ele>
        <time>2020-07-06T15:59:35Z</time>
      </trkpt>
      <trkpt lat="48.55777" lon="1.67819">
        <ele>140.01</ele>
        <time>2020-07-06T15:59:40Z</time>
      </trkpt>
      <trkpt lat="48.55782" lon="1.67828">
        <ele>139.53</ele>
        <time>2020-07-06T15:59:46Z</time>
      </trkpt>
      <trkpt lat="48.55789" lon="1.6784">
        <ele>140.01</ele>
        <time>2020-07-06T15:59:53Z</time>
      </trkpt>
      <trkpt lat="48.55796" lon="1.6785">
        <ele>139.05</ele>
        <time>2020-07-06T16:00:00Z</time>
      </trkpt>
      <trkpt lat="48.55803" lon="1.67861">
        <ele>139.05</ele>
        <time>2020-07-06T16:00:07Z</time>
      </trkpt>
      <trkpt lat="48.55811" lon="1.67872">
        <ele>140.97</ele>
        <time>2020-07-06T16:00:14Z</time>
      </trkpt>
      <trkpt lat="48.55819" lon="1.6788">
        <ele>139.53</ele>
        <time>2020-07-06T16:00:20Z</time>
      </trkpt>
      <trkpt lat="48.55826" lon="1.67889">
        <ele>140.01</ele>
        <time>2020-07-06T16:00:26Z</time>
      </trkpt>
      <trkpt lat="48.55834" lon="1.67899">
        <ele>138.57</ele>
        <time>2020-07-06T16:00:33Z</time>
      </trkpt>
      <trkpt lat="48.55842" lon="1.67909">
        <ele>139.05</ele>
        <time>2020-07-06T16:00:40Z</time>
      </trkpt>
      <trkpt lat="48.55851" lon="1.67918">
        <ele>138.57</ele>
        <time>2020-07-06T16:00:47Z</time>
      </trkpt>
      <trkpt lat="48.55859" lon="1.67929">
        <ele>137.61</ele>
        <time>2020-07-06T16:00:54Z</time>
      </trkpt>
      <trkpt lat="48.55866" lon="1.67937">
        <ele>137.61</ele>
        <time>2020-07-06T16:01:00Z</time>
      </trkpt>
      <trkpt lat="48.55876" lon="1.67946">
        <ele>137.13</ele>
        <time>2020-07-06T16:01:07Z</time>
      </trkpt>
      <trkpt lat="48.55883" lon="1.67955">
        <ele>137.61</ele>
        <time>2020-07-06T16:01:13Z</time>
      </trkpt>
      <trkpt lat="48.55892" lon="1.67963">
        <ele>137.61</ele>
        <time>2020-07-06T16:01:19Z</time>
      </trkpt>
      <trkpt lat="48.55899" lon="1.67972">
        <ele>137.13</ele>
        <time>2020-07-06T16:01:25Z</time>
      </trkpt>
      <trkpt lat="48.55907" lon="1.67979">
        <ele>136.64</ele>
        <time>2020-07-06T16:01:31Z</time>
      </trkpt>
      <trkpt lat="48.55915" lon="1.67987">
        <ele>137.61</ele>
        <time>2020-07-06T16:01:37Z</time>
      </trkpt>
      <trkpt lat="48.55923" lon="1.67995">
        <ele>137.13</ele>
        <time>2020-07-06T16:01:44Z</time>
      </trkpt>
      <trkpt lat="48.55932" lon="1.68002">
        <ele>136.64</ele>
        <time>2020-07-06T16:01:51Z</time>
      </trkpt>
      <trkpt lat="48.5594" lon="1.68008">
        <ele>136.64</ele>
        <time>2020-07-06T16:01:57Z</time>
      </trkpt>
      <trkpt lat="48.55949" lon="1.68014">
        <ele>136.64</ele>
        <time>2020-07-06T16:02:03Z</time>
      </trkpt>
      <trkpt lat="48.55957" lon="1.6802">
        <ele>135.68</ele>
        <time>2020-07-06T16:02:09Z</time>
      </trkpt>
      <trkpt lat="48.55966" lon="1.68027">
        <ele>135.2</ele>
        <time>2020-07-06T16:02:16Z</time>
      </trkpt>
      <trkpt lat="48.55975" lon="1.68033">
        <ele>135.2</ele>
        <time>2020-07-06T16:02:22Z</time>
      </trkpt>
      <trkpt lat="48.55984" lon="1.68039">
        <ele>134.72</ele>
        <time>2020-07-06T16:02:28Z</time>
      </trkpt>
      <trkpt lat="48.55993" lon="1.68045">
        <ele>134.72</ele>
        <time>2020-07-06T16:02:34Z</time>
      </trkpt>
      <trkpt lat="48.56003" lon="1.68051">
        <ele>133.76</ele>
        <time>2020-07-06T16:02:40Z</time>
      </trkpt>
      <trkpt lat="48.56012" lon="1.68057">
        <ele>133.76</ele>
        <time>2020-07-06T16:02:46Z</time>
      </trkpt>
      <trkpt lat="48.5602" lon="1.68062">
        <ele>133.28</ele>
        <time>2020-07-06T16:02:52Z</time>
      </trkpt>
      <trkpt lat="48.56029" lon="1.68067">
        <ele>133.28</ele>
        <time>2020-07-06T16:02:59Z</time>
      </trkpt>
      <trkpt lat="48.56039" lon="1.68072">
        <ele>133.28</ele>
        <time>2020-07-06T16:03:06Z</time>
      </trkpt>
      <trkpt lat="48.56048" lon="1.68076">
        <ele>133.28</ele>
        <time>2020-07-06T16:03:12Z</time>
      </trkpt>
      <trkpt lat="48.56057" lon="1.6808">
        <ele>133.76</ele>
        <time>2020-07-06T16:03:18Z</time>
      </trkpt>
      <trkpt lat="48.56066" lon="1.68085">
        <ele>132.8</ele>
        <time>2020-07-06T16:03:24Z</time>
      </trkpt>
      <trkpt lat="48.56076" lon="1.6809">
        <ele>132.8</ele>
        <time>2020-07-06T16:03:31Z</time>
      </trkpt>
      <trkpt lat="48.56084" lon="1.68093">
        <ele>133.28</ele>
        <time>2020-07-06T16:03:37Z</time>
      </trkpt>
      <trkpt lat="48.56094" lon="1.68096">
        <ele>133.28</ele>
        <time>2020-07-06T16:03:44Z</time>
      </trkpt>
      <trkpt lat="48.56104" lon="1.68099">
        <ele>133.28</ele>
        <time>2020-07-06T16:03:51Z</time>
      </trkpt>
      <trkpt lat="48.56114" lon="1.68101">
        <ele>133.28</ele>
        <time>2020-07-06T16:03:57Z</time>
      </trkpt>
      <trkpt lat="48.56124" lon="1.68103">
        <ele>133.28</ele>
        <time>2020-07-06T16:04:03Z</time>
      </trkpt>
      <trkpt lat="48.56134" lon="1.68105">
        <ele>134.72</ele>
        <time>2020-07-06T16:04:11Z</time>
      </trkpt>
      <trkpt lat="48.56144" lon="1.68108">
        <ele>134.24</ele>
        <time>2020-07-06T16:04:18Z</time>
      </trkpt>
      <trkpt lat="48.56155" lon="1.6811">
        <ele>134.72</ele>
        <time>2020-07-06T16:04:25Z</time>
      </trkpt>
      <trkpt lat="48.56165" lon="1.68111">
        <ele>135.68</ele>
        <time>2020-07-06T16:04:31Z</time>
      </trkpt>
      <trkpt lat="48.56175" lon="1.68112">
        <ele>135.2</ele>
        <time>2020-07-06T16:04:38Z</time>
      </trkpt>
      <trkpt lat="48.56185" lon="1.68113">
        <ele>134.72</ele>
        <time>2020-07-06T16:04:45Z</time>
      </trkpt>
      <trkpt lat="48.56195" lon="1.68115">
        <ele>135.2</ele>
        <time>2020-07-06T16:04:51Z</time>
      </trkpt>
      <trkpt lat="48.56204" lon="1.68116">
        <ele>136.16</ele>
        <time>2020-07-06T16:04:58Z</time>
      </trkpt>
      <trkpt lat="48.56214" lon="1.68116">
        <ele>135.68</ele>
        <time>2020-07-06T16:05:04Z</time>
      </trkpt>
      <trkpt lat="48.56224" lon="1.68117">
        <ele>137.13</ele>
        <time>2020-07-06T16:05:11Z</time>
      </trkpt>
      <trkpt lat="48.56234" lon="1.68117">
        <ele>137.13</ele>
        <time>2020-07-06T16:05:18Z</time>
      </trkpt>
      <trkpt lat="48.56244" lon="1.68116">
        <ele>137.61</ele>
        <time>2020-07-06T16:05:25Z</time>
      </trkpt>
      <trkpt lat="48.56253" lon="1.68116">
        <ele>138.09</ele>
        <time>2020-07-06T16:05:32Z</time>
      </trkpt>
      <trkpt lat="48.56263" lon="1.68116">
        <ele>138.57</ele>
        <time>2020-07-06T16:05:39Z</time>
      </trkpt>
      <trkpt lat="48.56273" lon="1.68115">
        <ele>137.61</ele>
        <time>2020-07-06T16:05:46Z</time>
      </trkpt>
      <trkpt lat="48.56283" lon="1.68114">
        <ele>139.53</ele>
        <time>2020-07-06T16:05:53Z</time>
      </trkpt>
      <trkpt lat="48.56293" lon="1.68113">
        <ele>139.53</ele>
        <time>2020-07-06T16:06:00Z</time>
      </trkpt>
      <trkpt lat="48.56302" lon="1.6811">
        <ele>140.49</ele>
        <time>2020-07-06T16:06:07Z</time>
      </trkpt>
      <trkpt lat="48.56312" lon="1.6811">
        <ele>140.97</ele>
        <time>2020-07-06T16:06:14Z</time>
      </trkpt>
      <trkpt lat="48.56322" lon="1.68108">
        <ele>140.97</ele>
        <time>2020-07-06T16:06:20Z</time>
      </trkpt>
      <trkpt lat="48.56332" lon="1.68106">
        <ele>141.45</ele>
        <time>2020-07-06T16:06:28Z</time>
      </trkpt>
      <trkpt lat="48.56342" lon="1.68102">
        <ele>141.93</ele>
        <time>2020-07-06T16:06:35Z</time>
      </trkpt>
      <trkpt lat="48.56352" lon="1.681">
        <ele>141.93</ele>
        <time>2020-07-06T16:06:42Z</time>
      </trkpt>
      <trkpt lat="48.56362" lon="1.68097">
        <ele>141.93</ele>
        <time>2020-07-06T16:06:49Z</time>
      </trkpt>
      <trkpt lat="48.56372" lon="1.68094">
        <ele>143.37</ele>
        <time>2020-07-06T16:06:56Z</time>
      </trkpt>
      <trkpt lat="48.56381" lon="1.6809">
        <ele>143.85</ele>
        <time>2020-07-06T16:07:03Z</time>
      </trkpt>
      <trkpt lat="48.56391" lon="1.68086">
        <ele>143.85</ele>
        <time>2020-07-06T16:07:10Z</time>
      </trkpt>
      <trkpt lat="48.56401" lon="1.68083">
        <ele>144.82</ele>
        <time>2020-07-06T16:07:18Z</time>
      </trkpt>
      <trkpt lat="48.56411" lon="1.68078">
        <ele>144.82</ele>
        <time>2020-07-06T16:07:24Z</time>
      </trkpt>
      <trkpt lat="48.5642" lon="1.68073">
        <ele>145.78</ele>
        <time>2020-07-06T16:07:32Z</time>
      </trkpt>
      <trkpt lat="48.56429" lon="1.68069">
        <ele>146.26</ele>
        <time>2020-07-06T16:07:38Z</time>
      </trkpt>
      <trkpt lat="48.56439" lon="1.68065">
        <ele>146.74</ele>
        <time>2020-07-06T16:07:44Z</time>
      </trkpt>
      <trkpt lat="48.56449" lon="1.68061">
        <ele>147.22</ele>
        <time>2020-07-06T16:07:52Z</time>
      </trkpt>
      <trkpt lat="48.56457" lon="1.68055">
        <ele>148.18</ele>
        <time>2020-07-06T16:07:58Z</time>
      </trkpt>
      <trkpt lat="48.56467" lon="1.6805">
        <ele>147.7</ele>
        <time>2020-07-06T16:08:04Z</time>
      </trkpt>
      <trkpt lat="48.56476" lon="1.68043">
        <ele>148.66</ele>
        <time>2020-07-06T16:08:11Z</time>
      </trkpt>
      <trkpt lat="48.56485" lon="1.68037">
        <ele>148.66</ele>
        <time>2020-07-06T16:08:18Z</time>
      </trkpt>
      <trkpt lat="48.56494" lon="1.68031">
        <ele>148.66</ele>
        <time>2020-07-06T16:08:24Z</time>
      </trkpt>
      <trkpt lat="48.56504" lon="1.68025">
        <ele>148.18</ele>
        <time>2020-07-06T16:08:32Z</time>
      </trkpt>
      <trkpt lat="48.56514" lon="1.68017">
        <ele>149.14</ele>
        <time>2020-07-06T16:08:39Z</time>
      </trkpt>
      <trkpt lat="48.56523" lon="1.6801">
        <ele>149.14</ele>
        <time>2020-07-06T16:08:45Z</time>
      </trkpt>
      <trkpt lat="48.5653" lon="1.68004">
        <ele>149.62</ele>
        <time>2020-07-06T16:08:51Z</time>
      </trkpt>
      <trkpt lat="48.56539" lon="1.67997">
        <ele>150.1</ele>
        <time>2020-07-06T16:08:58Z</time>
      </trkpt>
      <trkpt lat="48.56547" lon="1.6799">
        <ele>150.1</ele>
        <time>2020-07-06T16:09:04Z</time>
      </trkpt>
      <trkpt lat="48.56556" lon="1.67982">
        <ele>149.62</ele>
        <time>2020-07-06T16:09:10Z</time>
      </trkpt>
      <trkpt lat="48.56564" lon="1.67977">
        <ele>150.58</ele>
        <time>2020-07-06T16:09:16Z</time>
      </trkpt>
      <trkpt lat="48.56572" lon="1.67968">
        <ele>149.62</ele>
        <time>2020-07-06T16:09:23Z</time>
      </trkpt>
      <trkpt lat="48.5658" lon="1.6796">
        <ele>149.14</ele>
        <time>2020-07-06T16:09:29Z</time>
      </trkpt>
      <trkpt lat="48.56588" lon="1.67952">
        <ele>149.62</ele>
        <time>2020-07-06T16:09:35Z</time>
      </trkpt>
      <trkpt lat="48.56596" lon="1.67944">
        <ele>150.1</ele>
        <time>2020-07-06T16:09:42Z</time>
      </trkpt>
      <trkpt lat="48.56605" lon="1.67937">
        <ele>150.1</ele>
        <time>2020-07-06T16:09:48Z</time>
      </trkpt>
      <trkpt lat="48.56612" lon="1.6793">
        <ele>150.1</ele>
        <time>2020-07-06T16:09:54Z</time>
      </trkpt>
      <trkpt lat="48.56621" lon="1.67922">
        <ele>149.14</ele>
        <time>2020-07-06T16:10:01Z</time>
      </trkpt>
      <trkpt lat="48.5663" lon="1.67913">
        <ele>150.1</ele>
        <time>2020-07-06T16:10:08Z</time>
      </trkpt>
      <trkpt lat="48.56638" lon="1.67904">
        <ele>150.1</ele>
        <time>2020-07-06T16:10:14Z</time>
      </trkpt>
      <trkpt lat="48.56645" lon="1.67897">
        <ele>149.62</ele>
        <time>2020-07-06T16:10:20Z</time>
      </trkpt>
      <trkpt lat="48.56653" lon="1.67887">
        <ele>149.14</ele>
        <time>2020-07-06T16:10:27Z</time>
      </trkpt>
      <trkpt lat="48.56662" lon="1.6788">
        <ele>149.14</ele>
        <time>2020-07-06T16:10:33Z</time>
      </trkpt>
      <trkpt lat="48.56671" lon="1.67872">
        <ele>149.14</ele>
        <time>2020-07-06T16:10:39Z</time>
      </trkpt>
      <trkpt lat="48.56678" lon="1.67864">
        <ele>149.14</ele>
        <time>2020-07-06T16:10:45Z</time>
      </trkpt>
      <trkpt lat="48.56687" lon="1.67854">
        <ele>149.14</ele>
        <time>2020-07-06T16:10:52Z</time>
      </trkpt>
      <trkpt lat="48.56695" lon="1.67845">
        <ele>149.62</ele>
        <time>2020-07-06T16:10:58Z</time>
      </trkpt>
      <trkpt lat="48.56703" lon="1.67837">
        <ele>149.62</ele>
        <time>2020-07-06T16:11:04Z</time>
      </trkpt>
      <trkpt lat="48.56711" lon="1.67829">
        <ele>149.62</ele>
        <time>2020-07-06T16:11:10Z</time>
      </trkpt>
      <trkpt lat="48.56719" lon="1.67822">
        <ele>149.14</ele>
        <time>2020-07-06T16:11:16Z</time>
      </trkpt>
      <trkpt lat="48.56727" lon="1.67815">
        <ele>149.14</ele>
        <time>2020-07-06T16:11:22Z</time>
      </trkpt>
      <trkpt lat="48.56736" lon="1.67807">
        <ele>149.14</ele>
        <time>2020-07-06T16:11:28Z</time>
      </trkpt>
      <trkpt lat="48.56744" lon="1.678">
        <ele>148.18</ele>
        <time>2020-07-06T16:11:34Z</time>
      </trkpt>
      <trkpt lat="48.56751" lon="1.67793">
        <ele>148.66</ele>
        <time>2020-07-06T16:11:40Z</time>
      </trkpt>
      <trkpt lat="48.56759" lon="1.67784">
        <ele>148.66</ele>
        <time>2020-07-06T16:11:47Z</time>
      </trkpt>
      <trkpt lat="48.56766" lon="1.67775">
        <ele>148.18</ele>
        <time>2020-07-06T16:11:54Z</time>
      </trkpt>
      <trkpt lat="48.56772" lon="1.67765">
        <ele>148.66</ele>
        <time>2020-07-06T16:12:04Z</time>
      </trkpt>
      <trkpt lat="48.5678" lon="1.67759">
        <ele>149.14</ele>
        <time>2020-07-06T16:12:11Z</time>
      </trkpt>
      <trkpt lat="48.56789" lon="1.67755">
        <ele>149.14</ele>
        <time>2020-07-06T16:12:18Z</time>
      </trkpt>
      <trkpt lat="48.56797" lon="1.67747">
        <ele>149.14</ele>
        <time>2020-07-06T16:12:25Z</time>
      </trkpt>
      <trkpt lat="48.56805" lon="1.67738">
        <ele>148.18</ele>
        <time>2020-07-06T16:12:32Z</time>
      </trkpt>
      <trkpt lat="48.56814" lon="1.67729">
        <ele>149.14</ele>
        <time>2020-07-06T16:12:39Z</time>
      </trkpt>
      <trkpt lat="48.56822" lon="1.67722">
        <ele>148.66</ele>
        <time>2020-07-06T16:12:47Z</time>
      </trkpt>
      <trkpt lat="48.5683" lon="1.67713">
        <ele>149.14</ele>
        <time>2020-07-06T16:12:54Z</time>
      </trkpt>
      <trkpt lat="48.56838" lon="1.67706">
        <ele>149.14</ele>
        <time>2020-07-06T16:13:00Z</time>
      </trkpt>
      <trkpt lat="48.56846" lon="1.67699">
        <ele>148.18</ele>
        <time>2020-07-06T16:13:06Z</time>
      </trkpt>
      <trkpt lat="48.56855" lon="1.67693">
        <ele>147.7</ele>
        <time>2020-07-06T16:13:13Z</time>
      </trkpt>
      <trkpt lat="48.56863" lon="1.67685">
        <ele>148.18</ele>
        <time>2020-07-06T16:13:20Z</time>
      </trkpt>
      <trkpt lat="48.56872" lon="1.67676">
        <ele>148.66</ele>
        <time>2020-07-06T16:13:27Z</time>
      </trkpt>
      <trkpt lat="48.5688" lon="1.67667">
        <ele>148.18</ele>
        <time>2020-07-06T16:13:34Z</time>
      </trkpt>
      <trkpt lat="48.56889" lon="1.67661">
        <ele>149.14</ele>
        <time>2020-07-06T16:13:40Z</time>
      </trkpt>
      <trkpt lat="48.56897" lon="1.67655">
        <ele>148.66</ele>
        <time>2020-07-06T16:13:46Z</time>
      </trkpt>
      <trkpt lat="48.56905" lon="1.67647">
        <ele>149.14</ele>
        <time>2020-07-06T16:13:53Z</time>
      </trkpt>
      <trkpt lat="48.56913" lon="1.67638">
        <ele>149.14</ele>
        <time>2020-07-06T16:14:01Z</time>
      </trkpt>
      <trkpt lat="48.56921" lon="1.67629">
        <ele>148.66</ele>
        <time>2020-07-06T16:14:08Z</time>
      </trkpt>
      <trkpt lat="48.56929" lon="1.67621">
        <ele>148.66</ele>
        <time>2020-07-06T16:14:14Z</time>
      </trkpt>
      <trkpt lat="48.56937" lon="1.67614">
        <ele>148.66</ele>
        <time>2020-07-06T16:14:20Z</time>
      </trkpt>
      <trkpt lat="48.56946" lon="1.67607">
        <ele>149.14</ele>
        <time>2020-07-06T16:14:26Z</time>
      </trkpt>
      <trkpt lat="48.56954" lon="1.67599">
        <ele>148.66</ele>
        <time>2020-07-06T16:14:32Z</time>
      </trkpt>
      <trkpt lat="48.56962" lon="1.67592">
        <ele>148.18</ele>
        <time>2020-07-06T16:14:38Z</time>
      </trkpt>
      <trkpt lat="48.56969" lon="1.67584">
        <ele>147.22</ele>
        <time>2020-07-06T16:14:45Z</time>
      </trkpt>
      <trkpt lat="48.56977" lon="1.67576">
        <ele>147.7</ele>
        <time>2020-07-06T16:14:54Z</time>
      </trkpt>
      <trkpt lat="48.56986" lon="1.67567">
        <ele>147.7</ele>
        <time>2020-07-06T16:15:01Z</time>
      </trkpt>
      <trkpt lat="48.56994" lon="1.67559">
        <ele>147.7</ele>
        <time>2020-07-06T16:15:07Z</time>
      </trkpt>
      <trkpt lat="48.57001" lon="1.6755">
        <ele>146.74</ele>
        <time>2020-07-06T16:15:14Z</time>
      </trkpt>
      <trkpt lat="48.57009" lon="1.67543">
        <ele>146.26</ele>
        <time>2020-07-06T16:15:20Z</time>
      </trkpt>
      <trkpt lat="48.57018" lon="1.67536">
        <ele>146.26</ele>
        <time>2020-07-06T16:15:26Z</time>
      </trkpt>
      <trkpt lat="48.57025" lon="1.67529">
        <ele>146.26</ele>
        <time>2020-07-06T16:15:32Z</time>
      </trkpt>
      <trkpt lat="48.57034" lon="1.67521">
        <ele>145.3</ele>
        <time>2020-07-06T16:15:39Z</time>
      </trkpt>
      <trkpt lat="48.57042" lon="1.67512">
        <ele>144.34</ele>
        <time>2020-07-06T16:15:46Z</time>
      </trkpt>
      <trkpt lat="48.5705" lon="1.67505">
        <ele>144.82</ele>
        <time>2020-07-06T16:15:52Z</time>
      </trkpt>
      <trkpt lat="48.57059" lon="1.67495">
        <ele>142.89</ele>
        <time>2020-07-06T16:15:59Z</time>
      </trkpt>
      <trkpt lat="48.57067" lon="1.67488">
        <ele>142.89</ele>
        <time>2020-07-06T16:16:05Z</time>
      </trkpt>
      <trkpt lat="48.57074" lon="1.67478">
        <ele>142.89</ele>
        <time>2020-07-06T16:16:12Z</time>
      </trkpt>
      <trkpt lat="48.57082" lon="1.67471">
        <ele>142.89</ele>
        <time>2020-07-06T16:16:18Z</time>
      </trkpt>
      <trkpt lat="48.5709" lon="1.67461">
        <ele>142.89</ele>
        <time>2020-07-06T16:16:25Z</time>
      </trkpt>
      <trkpt lat="48.57099" lon="1.67453">
        <ele>142.41</ele>
        <time>2020-07-06T16:16:32Z</time>
      </trkpt>
      <trkpt lat="48.57108" lon="1.67442">
        <ele>141.93</ele>
        <time>2020-07-06T16:16:40Z</time>
      </trkpt>
      <trkpt lat="48.57116" lon="1.67433">
        <ele>140.01</ele>
        <time>2020-07-06T16:16:46Z</time>
      </trkpt>
      <trkpt lat="48.57124" lon="1.67423">
        <ele>140.01</ele>
        <time>2020-07-06T16:16:52Z</time>
      </trkpt>
      <trkpt lat="48.57131" lon="1.67414">
        <ele>140.01</ele>
        <time>2020-07-06T16:16:59Z</time>
      </trkpt>
      <trkpt lat="48.57139" lon="1.67404">
        <ele>140.01</ele>
        <time>2020-07-06T16:17:06Z</time>
      </trkpt>
      <trkpt lat="48.57148" lon="1.67394">
        <ele>139.05</ele>
        <time>2020-07-06T16:17:13Z</time>
      </trkpt>
      <trkpt lat="48.57155" lon="1.67385">
        <ele>138.57</ele>
        <time>2020-07-06T16:17:19Z</time>
      </trkpt>
      <trkpt lat="48.57164" lon="1.67375">
        <ele>137.61</ele>
        <time>2020-07-06T16:17:25Z</time>
      </trkpt>
      <trkpt lat="48.57171" lon="1.67365">
        <ele>136.64</ele>
        <time>2020-07-06T16:17:32Z</time>
      </trkpt>
      <trkpt lat="48.57177" lon="1.67355">
        <ele>136.64</ele>
        <time>2020-07-06T16:17:39Z</time>
      </trkpt>
      <trkpt lat="48.57185" lon="1.67342">
        <ele>135.68</ele>
        <time>2020-07-06T16:17:46Z</time>
      </trkpt>
      <trkpt lat="48.57191" lon="1.67333">
        <ele>136.16</ele>
        <time>2020-07-06T16:17:52Z</time>
      </trkpt>
      <trkpt lat="48.57198" lon="1.67321">
        <ele>134.72</ele>
        <time>2020-07-06T16:17:59Z</time>
      </trkpt>
      <trkpt lat="48.57205" lon="1.6731">
        <ele>136.16</ele>
        <time>2020-07-06T16:18:06Z</time>
      </trkpt>
      <trkpt lat="48.57212" lon="1.67298">
        <ele>136.16</ele>
        <time>2020-07-06T16:18:13Z</time>
      </trkpt>
      <trkpt lat="48.57219" lon="1.67288">
        <ele>135.2</ele>
        <time>2020-07-06T16:18:19Z</time>
      </trkpt>
      <trkpt lat="48.57226" lon="1.67279">
        <ele>135.68</ele>
        <time>2020-07-06T16:18:25Z</time>
      </trkpt>
      <trkpt lat="48.57232" lon="1.67269">
        <ele>135.2</ele>
        <time>2020-07-06T16:18:31Z</time>
      </trkpt>
      <trkpt lat="48.57239" lon="1.67258">
        <ele>135.68</ele>
        <time>2020-07-06T16:18:38Z</time>
      </trkpt>
      <trkpt lat="48.57245" lon="1.67247">
        <ele>135.68</ele>
        <time>2020-07-06T16:18:45Z</time>
      </trkpt>
      <trkpt lat="48.57252" lon="1.67235">
        <ele>135.2</ele>
        <time>2020-07-06T16:18:52Z</time>
      </trkpt>
      <trkpt lat="48.57259" lon="1.67223">
        <ele>136.16</ele>
        <time>2020-07-06T16:19:00Z</time>
      </trkpt>
      <trkpt lat="48.57266" lon="1.67214">
        <ele>136.16</ele>
        <time>2020-07-06T16:19:06Z</time>
      </trkpt>
      <trkpt lat="48.57275" lon="1.67209">
        <ele>136.64</ele>
        <time>2020-07-06T16:19:15Z</time>
      </trkpt>
      <trkpt lat="48.57283" lon="1.67199">
        <ele>137.13</ele>
        <time>2020-07-06T16:19:22Z</time>
      </trkpt>
      <trkpt lat="48.57291" lon="1.67188">
        <ele>137.61</ele>
        <time>2020-07-06T16:19:30Z</time>
      </trkpt>
      <trkpt lat="48.57298" lon="1.67177">
        <ele>137.61</ele>
        <time>2020-07-06T16:19:37Z</time>
      </trkpt>
      <trkpt lat="48.57304" lon="1.67165">
        <ele>138.57</ele>
        <time>2020-07-06T16:19:44Z</time>
      </trkpt>
      <trkpt lat="48.57309" lon="1.67154">
        <ele>140.01</ele>
        <time>2020-07-06T16:19:50Z</time>
      </trkpt>
      <trkpt lat="48.57317" lon="1.67145">
        <ele>139.53</ele>
        <time>2020-07-06T16:19:57Z</time>
      </trkpt>
      <trkpt lat="48.57324" lon="1.67135">
        <ele>140.01</ele>
        <time>2020-07-06T16:20:05Z</time>
      </trkpt>
      <trkpt lat="48.57333" lon="1.67125">
        <ele>140.01</ele>
        <time>2020-07-06T16:20:13Z</time>
      </trkpt>
      <trkpt lat="48.57343" lon="1.67124">
        <ele>140.97</ele>
        <time>2020-07-06T16:20:20Z</time>
      </trkpt>
      <trkpt lat="48.57353" lon="1.67122">
        <ele>140.97</ele>
        <time>2020-07-06T16:20:27Z</time>
      </trkpt>
      <trkpt lat="48.57362" lon="1.67117">
        <ele>140.97</ele>
        <time>2020-07-06T16:20:34Z</time>
      </trkpt>
      <trkpt lat="48.57372" lon="1.67113">
        <ele>140.97</ele>
        <time>2020-07-06T16:20:41Z</time>
      </trkpt>
      <trkpt lat="48.57381" lon="1.67109">
        <ele>140.49</ele>
        <time>2020-07-06T16:20:47Z</time>
      </trkpt>
      <trkpt lat="48.5739" lon="1.67113">
        <ele>140.49</ele>
        <time>2020-07-06T16:20:54Z</time>
      </trkpt>
      <trkpt lat="48.57397" lon="1.6712">
        <ele>140.97</ele>
        <time>2020-07-06T16:21:02Z</time>
      </trkpt>
      <trkpt lat="48.57405" lon="1.67127">
        <ele>140.97</ele>
        <time>2020-07-06T16:21:11Z</time>
      </trkpt>
      <trkpt lat="48.57415" lon="1.67132">
        <ele>140.97</ele>
        <time>2020-07-06T16:21:19Z</time>
      </trkpt>
      <trkpt lat="48.57424" lon="1.67139">
        <ele>141.45</ele>
        <time>2020-07-06T16:21:26Z</time>
      </trkpt>
      <trkpt lat="48.57434" lon="1.67146">
        <ele>141.93</ele>
        <time>2020-07-06T16:21:34Z</time>
      </trkpt>
      <trkpt lat="48.57444" lon="1.67152">
        <ele>141.93</ele>
        <time>2020-07-06T16:21:42Z</time>
      </trkpt>
      <trkpt lat="48.57453" lon="1.67158">
        <ele>141.93</ele>
        <time>2020-07-06T16:21:50Z</time>
      </trkpt>
      <trkpt lat="48.57456" lon="1.67155">
        <ele>141.45</ele>
        <time>2020-07-06T16:23:20Z</time>
      </trkpt>
      <trkpt lat="48.57465" lon="1.67153">
        <ele>142.41</ele>
        <time>2020-07-06T16:23:40Z</time>
      </trkpt>
      <trkpt lat="48.57474" lon="1.67151">
        <ele>142.41</ele>
        <time>2020-07-06T16:23:48Z</time>
      </trkpt>
      <trkpt lat="48.57484" lon="1.67149">
        <ele>142.89</ele>
        <time>2020-07-06T16:23:55Z</time>
      </trkpt>
      <trkpt lat="48.57493" lon="1.67147">
        <ele>143.85</ele>
        <time>2020-07-06T16:24:03Z</time>
      </trkpt>
      <trkpt lat="48.57502" lon="1.67144">
        <ele>143.85</ele>
        <time>2020-07-06T16:24:14Z</time>
      </trkpt>
      <trkpt lat="48.57512" lon="1.6714">
        <ele>144.34</ele>
        <time>2020-07-06T16:24:21Z</time>
      </trkpt>
      <trkpt lat="48.57522" lon="1.6714">
        <ele>144.82</ele>
        <time>2020-07-06T16:24:29Z</time>
      </trkpt>
      <trkpt lat="48.57532" lon="1.67135">
        <ele>145.3</ele>
        <time>2020-07-06T16:24:40Z</time>
      </trkpt>
      <trkpt lat="48.57543" lon="1.67131">
        <ele>145.78</ele>
        <time>2020-07-06T16:24:50Z</time>
      </trkpt>
      <trkpt lat="48.57557" lon="1.67125">
        <ele>145.78</ele>
        <time>2020-07-06T16:24:59Z</time>
      </trkpt>
      <trkpt lat="48.57569" lon="1.67124">
        <ele>146.26</ele>
        <time>2020-07-06T16:25:08Z</time>
      </trkpt>
      <trkpt lat="48.57578" lon="1.67123">
        <ele>146.74</ele>
        <time>2020-07-06T16:25:15Z</time>
      </trkpt>
      <trkpt lat="48.57588" lon="1.67124">
        <ele>146.74</ele>
        <time>2020-07-06T16:25:23Z</time>
      </trkpt>
      <trkpt lat="48.57599" lon="1.67124">
        <ele>147.22</ele>
        <time>2020-07-06T16:25:32Z</time>
      </trkpt>
      <trkpt lat="48.57611" lon="1.67126">
        <ele>147.7</ele>
        <time>2020-07-06T16:25:41Z</time>
      </trkpt>
      <trkpt lat="48.57623" lon="1.67125">
        <ele>148.18</ele>
        <time>2020-07-06T16:25:50Z</time>
      </trkpt>
      <trkpt lat="48.57634" lon="1.67123">
        <ele>148.18</ele>
        <time>2020-07-06T16:25:58Z</time>
      </trkpt>
      <trkpt lat="48.57646" lon="1.6712">
        <ele>148.66</ele>
        <time>2020-07-06T16:26:08Z</time>
      </trkpt>
      <trkpt lat="48.57657" lon="1.67119">
        <ele>149.14</ele>
        <time>2020-07-06T16:26:16Z</time>
      </trkpt>
      <trkpt lat="48.57668" lon="1.67116">
        <ele>149.62</ele>
        <time>2020-07-06T16:26:26Z</time>
      </trkpt>
      <trkpt lat="48.57681" lon="1.67114">
        <ele>150.1</ele>
        <time>2020-07-06T16:26:37Z</time>
      </trkpt>
      <trkpt lat="48.57692" lon="1.67113">
        <ele>150.58</ele>
        <time>2020-07-06T16:26:47Z</time>
      </trkpt>
      <trkpt lat="48.57704" lon="1.67111">
        <ele>150.58</ele>
        <time>2020-07-06T16:26:56Z</time>
      </trkpt>
      <trkpt lat="48.57716" lon="1.67106">
        <ele>151.06</ele>
        <time>2020-07-06T16:27:06Z</time>
      </trkpt>
      <trkpt lat="48.57727" lon="1.67104">
        <ele>150.58</ele>
        <time>2020-07-06T16:27:14Z</time>
      </trkpt>
      <trkpt lat="48.57737" lon="1.67101">
        <ele>151.06</ele>
        <time>2020-07-06T16:27:22Z</time>
      </trkpt>
      <trkpt lat="48.57751" lon="1.67098">
        <ele>152.03</ele>
        <time>2020-07-06T16:27:33Z</time>
      </trkpt>
      <trkpt lat="48.57766" lon="1.67096">
        <ele>152.51</ele>
        <time>2020-07-06T16:27:42Z</time>
      </trkpt>
      <trkpt lat="48.5778" lon="1.67093">
        <ele>152.51</ele>
        <time>2020-07-06T16:27:51Z</time>
      </trkpt>
      <trkpt lat="48.57789" lon="1.67094">
        <ele>152.51</ele>
        <time>2020-07-06T16:27:58Z</time>
      </trkpt>
      <trkpt lat="48.578" lon="1.67091">
        <ele>152.51</ele>
        <time>2020-07-06T16:28:06Z</time>
      </trkpt>
      <trkpt lat="48.5781" lon="1.67089">
        <ele>152.99</ele>
        <time>2020-07-06T16:28:13Z</time>
      </trkpt>
      <trkpt lat="48.5782" lon="1.67088">
        <ele>152.99</ele>
        <time>2020-07-06T16:28:22Z</time>
      </trkpt>
      <trkpt lat="48.57832" lon="1.67088">
        <ele>153.47</ele>
        <time>2020-07-06T16:28:30Z</time>
      </trkpt>
      <trkpt lat="48.57842" lon="1.67084">
        <ele>153.47</ele>
        <time>2020-07-06T16:28:37Z</time>
      </trkpt>
      <trkpt lat="48.57852" lon="1.67085">
        <ele>153.47</ele>
        <time>2020-07-06T16:28:45Z</time>
      </trkpt>
      <trkpt lat="48.57862" lon="1.67085">
        <ele>153.47</ele>
        <time>2020-07-06T16:28:54Z</time>
      </trkpt>
      <trkpt lat="48.57873" lon="1.67085">
        <ele>153.47</ele>
        <time>2020-07-06T16:29:03Z</time>
      </trkpt>
      <trkpt lat="48.57884" lon="1.67084">
        <ele>153.47</ele>
        <time>2020-07-06T16:29:11Z</time>
      </trkpt>
      <trkpt lat="48.57895" lon="1.67084">
        <ele>153.95</ele>
        <time>2020-07-06T16:29:18Z</time>
      </trkpt>
      <trkpt lat="48.57906" lon="1.67082">
        <ele>154.43</ele>
        <time>2020-07-06T16:29:27Z</time>
      </trkpt>
      <trkpt lat="48.57916" lon="1.67082">
        <ele>154.43</ele>
        <time>2020-07-06T16:29:34Z</time>
      </trkpt>
      <trkpt lat="48.57927" lon="1.67081">
        <ele>154.91</ele>
        <time>2020-07-06T16:29:42Z</time>
      </trkpt>
      <trkpt lat="48.57937" lon="1.67079">
        <ele>154.43</ele>
        <time>2020-07-06T16:29:49Z</time>
      </trkpt>
      <trkpt lat="48.57948" lon="1.67081">
        <ele>154.91</ele>
        <time>2020-07-06T16:29:58Z</time>
      </trkpt>
      <trkpt lat="48.57958" lon="1.67078">
        <ele>154.43</ele>
        <time>2020-07-06T16:30:05Z</time>
      </trkpt>
      <trkpt lat="48.57968" lon="1.67079">
        <ele>155.39</ele>
        <time>2020-07-06T16:30:13Z</time>
      </trkpt>
      <trkpt lat="48.5798" lon="1.67078">
        <ele>154.91</ele>
        <time>2020-07-06T16:30:21Z</time>
      </trkpt>
      <trkpt lat="48.57991" lon="1.67079">
        <ele>155.39</ele>
        <time>2020-07-06T16:30:29Z</time>
      </trkpt>
      <trkpt lat="48.58002" lon="1.67074">
        <ele>154.43</ele>
        <time>2020-07-06T16:30:37Z</time>
      </trkpt>
      <trkpt lat="48.58012" lon="1.67072">
        <ele>153.95</ele>
        <time>2020-07-06T16:30:45Z</time>
      </trkpt>
      <trkpt lat="48.58022" lon="1.6707">
        <ele>153.95</ele>
        <time>2020-07-06T16:30:52Z</time>
      </trkpt>
      <trkpt lat="48.58031" lon="1.67067">
        <ele>153.95</ele>
        <time>2020-07-06T16:31:00Z</time>
      </trkpt>
      <trkpt lat="48.58041" lon="1.67057">
        <ele>153.95</ele>
        <time>2020-07-06T16:31:10Z</time>
      </trkpt>
      <trkpt lat="48.58052" lon="1.67049">
        <ele>153.95</ele>
        <time>2020-07-06T16:31:23Z</time>
      </trkpt>
      <trkpt lat="48.58061" lon="1.67037">
        <ele>153.95</ele>
        <time>2020-07-06T16:31:32Z</time>
      </trkpt>
      <trkpt lat="48.5807" lon="1.67028">
        <ele>152.99</ele>
        <time>2020-07-06T16:31:39Z</time>
      </trkpt>
      <trkpt lat="48.58079" lon="1.67015">
        <ele>153.47</ele>
        <time>2020-07-06T16:31:48Z</time>
      </trkpt>
      <trkpt lat="48.58086" lon="1.67006">
        <ele>152.99</ele>
        <time>2020-07-06T16:31:54Z</time>
      </trkpt>
      <trkpt lat="48.58094" lon="1.66995">
        <ele>152.51</ele>
        <time>2020-07-06T16:32:02Z</time>
      </trkpt>
      <trkpt lat="48.58103" lon="1.66986">
        <ele>152.03</ele>
        <time>2020-07-06T16:32:09Z</time>
      </trkpt>
      <trkpt lat="48.58111" lon="1.66974">
        <ele>152.51</ele>
        <time>2020-07-06T16:32:17Z</time>
      </trkpt>
      <trkpt lat="48.58119" lon="1.66961">
        <ele>152.03</ele>
        <time>2020-07-06T16:32:25Z</time>
      </trkpt>
      <trkpt lat="48.58129" lon="1.66949">
        <ele>152.03</ele>
        <time>2020-07-06T16:32:34Z</time>
      </trkpt>
      <trkpt lat="48.58138" lon="1.66937">
        <ele>151.06</ele>
        <time>2020-07-06T16:32:43Z</time>
      </trkpt>
      <trkpt lat="48.5815" lon="1.66928">
        <ele>150.1</ele>
        <time>2020-07-06T16:32:52Z</time>
      </trkpt>
      <trkpt lat="48.58159" lon="1.66922">
        <ele>150.1</ele>
        <time>2020-07-06T16:32:59Z</time>
      </trkpt>
      <trkpt lat="48.58168" lon="1.66917">
        <ele>150.1</ele>
        <time>2020-07-06T16:33:06Z</time>
      </trkpt>
      <trkpt lat="48.58178" lon="1.66914">
        <ele>150.58</ele>
        <time>2020-07-06T16:33:13Z</time>
      </trkpt>
      <trkpt lat="48.58186" lon="1.66916">
        <ele>150.1</ele>
        <time>2020-07-06T16:33:21Z</time>
      </trkpt>
      <trkpt lat="48.58196" lon="1.66912">
        <ele>150.58</ele>
        <time>2020-07-06T16:33:27Z</time>
      </trkpt>
      <trkpt lat="48.58205" lon="1.66905">
        <ele>151.06</ele>
        <time>2020-07-06T16:33:35Z</time>
      </trkpt>
      <trkpt lat="48.58215" lon="1.66898">
        <ele>152.03</ele>
        <time>2020-07-06T16:33:43Z</time>
      </trkpt>
      <trkpt lat="48.58225" lon="1.66887">
        <ele>151.54</ele>
        <time>2020-07-06T16:33:52Z</time>
      </trkpt>
      <trkpt lat="48.58233" lon="1.66877">
        <ele>152.51</ele>
        <time>2020-07-06T16:34:01Z</time>
      </trkpt>
      <trkpt lat="48.5824" lon="1.66866">
        <ele>152.99</ele>
        <time>2020-07-06T16:34:09Z</time>
      </trkpt>
      <trkpt lat="48.5825" lon="1.66854">
        <ele>152.99</ele>
        <time>2020-07-06T16:34:18Z</time>
      </trkpt>
      <trkpt lat="48.58261" lon="1.66841">
        <ele>152.99</ele>
        <time>2020-07-06T16:34:27Z</time>
      </trkpt>
      <trkpt lat="48.5827" lon="1.66831">
        <ele>152.99</ele>
        <time>2020-07-06T16:34:35Z</time>
      </trkpt>
      <trkpt lat="48.5828" lon="1.66823">
        <ele>152.99</ele>
        <time>2020-07-06T16:34:43Z</time>
      </trkpt>
      <trkpt lat="48.5829" lon="1.66818">
        <ele>152.51</ele>
        <time>2020-07-06T16:34:51Z</time>
      </trkpt>
      <trkpt lat="48.583" lon="1.66813">
        <ele>152.51</ele>
        <time>2020-07-06T16:34:58Z</time>
      </trkpt>
      <trkpt lat="48.5831" lon="1.66811">
        <ele>152.51</ele>
        <time>2020-07-06T16:35:08Z</time>
      </trkpt>
      <trkpt lat="48.5832" lon="1.66811">
        <ele>152.03</ele>
        <time>2020-07-06T16:35:18Z</time>
      </trkpt>
      <trkpt lat="48.58332" lon="1.66814">
        <ele>151.54</ele>
        <time>2020-07-06T16:35:29Z</time>
      </trkpt>
      <trkpt lat="48.58343" lon="1.66826">
        <ele>151.06</ele>
        <time>2020-07-06T16:35:38Z</time>
      </trkpt>
      <trkpt lat="48.58358" lon="1.66834">
        <ele>151.06</ele>
        <time>2020-07-06T16:35:47Z</time>
      </trkpt>
      <trkpt lat="48.58371" lon="1.66838">
        <ele>151.06</ele>
        <time>2020-07-06T16:35:55Z</time>
      </trkpt>
      <trkpt lat="48.58382" lon="1.66831">
        <ele>150.58</ele>
        <time>2020-07-06T16:36:03Z</time>
      </trkpt>
      <trkpt lat="48.58391" lon="1.66818">
        <ele>149.62</ele>
        <time>2020-07-06T16:36:14Z</time>
      </trkpt>
      <trkpt lat="48.58403" lon="1.66812">
        <ele>148.66</ele>
        <time>2020-07-06T16:36:27Z</time>
      </trkpt>
      <trkpt lat="48.58419" lon="1.66816">
        <ele>147.22</ele>
        <time>2020-07-06T16:36:36Z</time>
      </trkpt>
      <trkpt lat="48.58433" lon="1.66819">
        <ele>146.74</ele>
        <time>2020-07-06T16:36:44Z</time>
      </trkpt>
      <trkpt lat="48.58447" lon="1.66817">
        <ele>145.3</ele>
        <time>2020-07-06T16:36:54Z</time>
      </trkpt>
      <trkpt lat="48.58457" lon="1.66807">
        <ele>143.85</ele>
        <time>2020-07-06T16:37:07Z</time>
      </trkpt>
      <trkpt lat="48.58467" lon="1.66798">
        <ele>142.89</ele>
        <time>2020-07-06T16:37:17Z</time>
      </trkpt>
      <trkpt lat="48.58478" lon="1.66791">
        <ele>141.93</ele>
        <time>2020-07-06T16:37:25Z</time>
      </trkpt>
      <trkpt lat="48.58487" lon="1.66783">
        <ele>141.45</ele>
        <time>2020-07-06T16:37:33Z</time>
      </trkpt>
      <trkpt lat="48.58497" lon="1.66775">
        <ele>140.97</ele>
        <time>2020-07-06T16:37:40Z</time>
      </trkpt>
      <trkpt lat="48.58505" lon="1.66767">
        <ele>141.45</ele>
        <time>2020-07-06T16:37:47Z</time>
      </trkpt>
      <trkpt lat="48.58513" lon="1.66759">
        <ele>140.49</ele>
        <time>2020-07-06T16:37:54Z</time>
      </trkpt>
      <trkpt lat="48.58523" lon="1.66753">
        <ele>139.05</ele>
        <time>2020-07-06T16:38:02Z</time>
      </trkpt>
      <trkpt lat="48.58532" lon="1.66744">
        <ele>138.57</ele>
        <time>2020-07-06T16:38:09Z</time>
      </trkpt>
      <trkpt lat="48.5854" lon="1.66737">
        <ele>138.57</ele>
        <time>2020-07-06T16:38:15Z</time>
      </trkpt>
      <trkpt lat="48.5855" lon="1.66733">
        <ele>138.57</ele>
        <time>2020-07-06T16:38:22Z</time>
      </trkpt>
      <trkpt lat="48.58558" lon="1.66724">
        <ele>138.09</ele>
        <time>2020-07-06T16:38:29Z</time>
      </trkpt>
      <trkpt lat="48.58565" lon="1.66717">
        <ele>137.61</ele>
        <time>2020-07-06T16:38:42Z</time>
      </trkpt>
      <trkpt lat="48.58573" lon="1.66707">
        <ele>137.13</ele>
        <time>2020-07-06T16:38:49Z</time>
      </trkpt>
      <trkpt lat="48.58581" lon="1.667">
        <ele>137.13</ele>
        <time>2020-07-06T16:38:55Z</time>
      </trkpt>
      <trkpt lat="48.5859" lon="1.66695">
        <ele>137.61</ele>
        <time>2020-07-06T16:39:02Z</time>
      </trkpt>
      <trkpt lat="48.586" lon="1.66688">
        <ele>136.64</ele>
        <time>2020-07-06T16:39:10Z</time>
      </trkpt>
      <trkpt lat="48.5861" lon="1.66684">
        <ele>136.16</ele>
        <time>2020-07-06T16:39:17Z</time>
      </trkpt>
      <trkpt lat="48.58621" lon="1.66686">
        <ele>134.72</ele>
        <time>2020-07-06T16:39:25Z</time>
      </trkpt>
      <trkpt lat="48.58631" lon="1.66689">
        <ele>134.24</ele>
        <time>2020-07-06T16:39:32Z</time>
      </trkpt>
      <trkpt lat="48.5864" lon="1.6669">
        <ele>133.76</ele>
        <time>2020-07-06T16:39:38Z</time>
      </trkpt>
      <trkpt lat="48.5865" lon="1.66693">
        <ele>133.28</ele>
        <time>2020-07-06T16:39:46Z</time>
      </trkpt>
      <trkpt lat="48.58661" lon="1.66695">
        <ele>132.8</ele>
        <time>2020-07-06T16:39:54Z</time>
      </trkpt>
      <trkpt lat="48.58671" lon="1.66696">
        <ele>131.84</ele>
        <time>2020-07-06T16:40:01Z</time>
      </trkpt>
      <trkpt lat="48.58681" lon="1.66698">
        <ele>131.84</ele>
        <time>2020-07-06T16:40:08Z</time>
      </trkpt>
      <trkpt lat="48.5869" lon="1.66702">
        <ele>131.36</ele>
        <time>2020-07-06T16:40:15Z</time>
      </trkpt>
      <trkpt lat="48.587" lon="1.66702">
        <ele>130.4</ele>
        <time>2020-07-06T16:40:21Z</time>
      </trkpt>
      <trkpt lat="48.58708" lon="1.66706">
        <ele>129.92</ele>
        <time>2020-07-06T16:40:28Z</time>
      </trkpt>
      <trkpt lat="48.58719" lon="1.66709">
        <ele>129.92</ele>
        <time>2020-07-06T16:40:36Z</time>
      </trkpt>
      <trkpt lat="48.58729" lon="1.66711">
        <ele>129.43</ele>
        <time>2020-07-06T16:40:44Z</time>
      </trkpt>
      <trkpt lat="48.5874" lon="1.66714">
        <ele>128.95</ele>
        <time>2020-07-06T16:40:52Z</time>
      </trkpt>
      <trkpt lat="48.5875" lon="1.66716">
        <ele>128.95</ele>
        <time>2020-07-06T16:41:00Z</time>
      </trkpt>
      <trkpt lat="48.58761" lon="1.66716">
        <ele>128.47</ele>
        <time>2020-07-06T16:41:08Z</time>
      </trkpt>
      <trkpt lat="48.58768" lon="1.66714">
        <ele>127.03</ele>
        <time>2020-07-06T16:41:15Z</time>
      </trkpt>
      <trkpt lat="48.58773" lon="1.66716">
        <ele>128.95</ele>
        <time>2020-07-06T16:41:43Z</time>
      </trkpt>
      <trkpt lat="48.58782" lon="1.6672">
        <ele>127.03</ele>
        <time>2020-07-06T16:41:49Z</time>
      </trkpt>
      <trkpt lat="48.58792" lon="1.66722">
        <ele>126.55</ele>
        <time>2020-07-06T16:41:55Z</time>
      </trkpt>
      <trkpt lat="48.588" lon="1.66725">
        <ele>126.55</ele>
        <time>2020-07-06T16:42:00Z</time>
      </trkpt>
      <trkpt lat="48.58809" lon="1.66726">
        <ele>126.07</ele>
        <time>2020-07-06T16:42:06Z</time>
      </trkpt>
      <trkpt lat="48.58818" lon="1.66729">
        <ele>126.55</ele>
        <time>2020-07-06T16:42:12Z</time>
      </trkpt>
      <trkpt lat="48.58827" lon="1.66732">
        <ele>127.03</ele>
        <time>2020-07-06T16:42:19Z</time>
      </trkpt>
      <trkpt lat="48.58836" lon="1.66734">
        <ele>126.55</ele>
        <time>2020-07-06T16:42:25Z</time>
      </trkpt>
      <trkpt lat="48.58845" lon="1.66736">
        <ele>125.11</ele>
        <time>2020-07-06T16:42:31Z</time>
      </trkpt>
      <trkpt lat="48.58854" lon="1.6674">
        <ele>125.11</ele>
        <time>2020-07-06T16:42:37Z</time>
      </trkpt>
      <trkpt lat="48.58864" lon="1.66745">
        <ele>125.59</ele>
        <time>2020-07-06T16:42:44Z</time>
      </trkpt>
      <trkpt lat="48.58875" lon="1.66748">
        <ele>125.11</ele>
        <time>2020-07-06T16:42:51Z</time>
      </trkpt>
      <trkpt lat="48.58885" lon="1.66751">
        <ele>125.11</ele>
        <time>2020-07-06T16:42:58Z</time>
      </trkpt>
      <trkpt lat="48.58896" lon="1.66754">
        <ele>125.11</ele>
        <time>2020-07-06T16:43:04Z</time>
      </trkpt>
      <trkpt lat="48.58905" lon="1.66756">
        <ele>125.11</ele>
        <time>2020-07-06T16:43:10Z</time>
      </trkpt>
      <trkpt lat="48.58914" lon="1.6676">
        <ele>124.63</ele>
        <time>2020-07-06T16:43:15Z</time>
      </trkpt>
      <trkpt lat="48.58923" lon="1.66764">
        <ele>124.15</ele>
        <time>2020-07-06T16:43:20Z</time>
      </trkpt>
      <trkpt lat="48.58931" lon="1.66769">
        <ele>123.67</ele>
        <time>2020-07-06T16:43:26Z</time>
      </trkpt>
      <trkpt lat="48.5894" lon="1.66771">
        <ele>123.19</ele>
        <time>2020-07-06T16:43:32Z</time>
      </trkpt>
      <trkpt lat="48.58949" lon="1.66774">
        <ele>123.19</ele>
        <time>2020-07-06T16:43:37Z</time>
      </trkpt>
      <trkpt lat="48.58958" lon="1.66776">
        <ele>123.67</ele>
        <time>2020-07-06T16:43:43Z</time>
      </trkpt>
      <trkpt lat="48.58967" lon="1.66777">
        <ele>121.74</ele>
        <time>2020-07-06T16:43:48Z</time>
      </trkpt>
      <trkpt lat="48.58975" lon="1.66779">
        <ele>122.71</ele>
        <time>2020-07-06T16:43:53Z</time>
      </trkpt>
      <trkpt lat="48.58984" lon="1.66781">
        <ele>122.22</ele>
        <time>2020-07-06T16:43:59Z</time>
      </trkpt>
      <trkpt lat="48.58993" lon="1.66785">
        <ele>121.74</ele>
        <time>2020-07-06T16:44:05Z</time>
      </trkpt>
      <trkpt lat="48.59001" lon="1.66789">
        <ele>122.71</ele>
        <time>2020-07-06T16:44:11Z</time>
      </trkpt>
      <trkpt lat="48.59011" lon="1.66792">
        <ele>121.74</ele>
        <time>2020-07-06T16:44:17Z</time>
      </trkpt>
      <trkpt lat="48.5902" lon="1.66794">
        <ele>122.22</ele>
        <time>2020-07-06T16:44:22Z</time>
      </trkpt>
      <trkpt lat="48.59028" lon="1.66796">
        <ele>121.74</ele>
        <time>2020-07-06T16:44:28Z</time>
      </trkpt>
      <trkpt lat="48.59038" lon="1.66798">
        <ele>121.74</ele>
        <time>2020-07-06T16:44:34Z</time>
      </trkpt>
      <trkpt lat="48.59048" lon="1.668">
        <ele>121.74</ele>
        <time>2020-07-06T16:44:41Z</time>
      </trkpt>
      <trkpt lat="48.59057" lon="1.66804">
        <ele>122.71</ele>
        <time>2020-07-06T16:44:46Z</time>
      </trkpt>
      <trkpt lat="48.59065" lon="1.66808">
        <ele>121.74</ele>
        <time>2020-07-06T16:44:52Z</time>
      </trkpt>
      <trkpt lat="48.59073" lon="1.66813">
        <ele>120.3</ele>
        <time>2020-07-06T16:44:58Z</time>
      </trkpt>
      <trkpt lat="48.59082" lon="1.66817">
        <ele>121.26</ele>
        <time>2020-07-06T16:45:04Z</time>
      </trkpt>
      <trkpt lat="48.59091" lon="1.66821">
        <ele>120.78</ele>
        <time>2020-07-06T16:45:10Z</time>
      </trkpt>
      <trkpt lat="48.591" lon="1.66826">
        <ele>120.78</ele>
        <time>2020-07-06T16:45:17Z</time>
      </trkpt>
      <trkpt lat="48.5911" lon="1.6683">
        <ele>120.3</ele>
        <time>2020-07-06T16:45:24Z</time>
      </trkpt>
      <trkpt lat="48.59119" lon="1.66833">
        <ele>121.26</ele>
        <time>2020-07-06T16:45:31Z</time>
      </trkpt>
      <trkpt lat="48.59129" lon="1.66836">
        <ele>120.78</ele>
        <time>2020-07-06T16:45:38Z</time>
      </trkpt>
      <trkpt lat="48.59138" lon="1.66839">
        <ele>119.82</ele>
        <time>2020-07-06T16:45:45Z</time>
      </trkpt>
      <trkpt lat="48.59148" lon="1.66843">
        <ele>119.82</ele>
        <time>2020-07-06T16:45:52Z</time>
      </trkpt>
      <trkpt lat="48.59157" lon="1.66845">
        <ele>120.3</ele>
        <time>2020-07-06T16:45:59Z</time>
      </trkpt>
      <trkpt lat="48.59166" lon="1.66849">
        <ele>120.3</ele>
        <time>2020-07-06T16:46:06Z</time>
      </trkpt>
      <trkpt lat="48.59176" lon="1.66852">
        <ele>119.82</ele>
        <time>2020-07-06T16:46:13Z</time>
      </trkpt>
      <trkpt lat="48.59185" lon="1.66854">
        <ele>119.34</ele>
        <time>2020-07-06T16:46:19Z</time>
      </trkpt>
      <trkpt lat="48.59195" lon="1.66856">
        <ele>118.86</ele>
        <time>2020-07-06T16:46:26Z</time>
      </trkpt>
      <trkpt lat="48.59205" lon="1.66857">
        <ele>119.34</ele>
        <time>2020-07-06T16:46:35Z</time>
      </trkpt>
      <trkpt lat="48.59214" lon="1.66857">
        <ele>118.38</ele>
        <time>2020-07-06T16:46:41Z</time>
      </trkpt>
      <trkpt lat="48.59224" lon="1.6686">
        <ele>118.86</ele>
        <time>2020-07-06T16:46:48Z</time>
      </trkpt>
      <trkpt lat="48.59234" lon="1.6686">
        <ele>118.38</ele>
        <time>2020-07-06T16:46:55Z</time>
      </trkpt>
      <trkpt lat="48.59244" lon="1.6686">
        <ele>118.86</ele>
        <time>2020-07-06T16:47:02Z</time>
      </trkpt>
      <trkpt lat="48.59254" lon="1.66859">
        <ele>118.86</ele>
        <time>2020-07-06T16:47:09Z</time>
      </trkpt>
      <trkpt lat="48.59265" lon="1.66857">
        <ele>119.34</ele>
        <time>2020-07-06T16:47:16Z</time>
      </trkpt>
      <trkpt lat="48.59273" lon="1.66863">
        <ele>118.86</ele>
        <time>2020-07-06T16:47:23Z</time>
      </trkpt>
      <trkpt lat="48.59282" lon="1.66859">
        <ele>118.86</ele>
        <time>2020-07-06T16:47:30Z</time>
      </trkpt>
      <trkpt lat="48.59291" lon="1.66854">
        <ele>118.86</ele>
        <time>2020-07-06T16:47:38Z</time>
      </trkpt>
      <trkpt lat="48.593" lon="1.66849">
        <ele>118.86</ele>
        <time>2020-07-06T16:47:45Z</time>
      </trkpt>
      <trkpt lat="48.59309" lon="1.6684">
        <ele>118.86</ele>
        <time>2020-07-06T16:47:53Z</time>
      </trkpt>
      <trkpt lat="48.59318" lon="1.66835">
        <ele>118.38</ele>
        <time>2020-07-06T16:47:59Z</time>
      </trkpt>
      <trkpt lat="48.59326" lon="1.66829">
        <ele>120.3</ele>
        <time>2020-07-06T16:48:07Z</time>
      </trkpt>
      <trkpt lat="48.59334" lon="1.6682">
        <ele>118.38</ele>
        <time>2020-07-06T16:48:14Z</time>
      </trkpt>
      <trkpt lat="48.59343" lon="1.66809">
        <ele>118.86</ele>
        <time>2020-07-06T16:48:22Z</time>
      </trkpt>
      <trkpt lat="48.59352" lon="1.66803">
        <ele>118.86</ele>
        <time>2020-07-06T16:48:30Z</time>
      </trkpt>
      <trkpt lat="48.5936" lon="1.66792">
        <ele>117.9</ele>
        <time>2020-07-06T16:48:37Z</time>
      </trkpt>
      <trkpt lat="48.59367" lon="1.6678">
        <ele>118.38</ele>
        <time>2020-07-06T16:48:43Z</time>
      </trkpt>
      <trkpt lat="48.59373" lon="1.66767">
        <ele>118.38</ele>
        <time>2020-07-06T16:48:50Z</time>
      </trkpt>
      <trkpt lat="48.5938" lon="1.66758">
        <ele>118.86</ele>
        <time>2020-07-06T16:48:58Z</time>
      </trkpt>
      <trkpt lat="48.59385" lon="1.66745">
        <ele>118.38</ele>
        <time>2020-07-06T16:49:05Z</time>
      </trkpt>
      <trkpt lat="48.59391" lon="1.66731">
        <ele>118.38</ele>
        <time>2020-07-06T16:49:12Z</time>
      </trkpt>
      <trkpt lat="48.59397" lon="1.66718">
        <ele>116.94</ele>
        <time>2020-07-06T16:49:19Z</time>
      </trkpt>
      <trkpt lat="48.59403" lon="1.66703">
        <ele>116.94</ele>
        <time>2020-07-06T16:49:27Z</time>
      </trkpt>
      <trkpt lat="48.59407" lon="1.6669">
        <ele>116.46</ele>
        <time>2020-07-06T16:49:33Z</time>
      </trkpt>
      <trkpt lat="48.59414" lon="1.66676">
        <ele>115.5</ele>
        <time>2020-07-06T16:49:41Z</time>
      </trkpt>
      <trkpt lat="48.5942" lon="1.66663">
        <ele>115.01</ele>
        <time>2020-07-06T16:49:48Z</time>
      </trkpt>
      <trkpt lat="48.59425" lon="1.66648">
        <ele>114.53</ele>
        <time>2020-07-06T16:49:55Z</time>
      </trkpt>
      <trkpt lat="48.5943" lon="1.66633">
        <ele>113.57</ele>
        <time>2020-07-06T16:50:02Z</time>
      </trkpt>
      <trkpt lat="48.59438" lon="1.6662">
        <ele>112.61</ele>
        <time>2020-07-06T16:50:10Z</time>
      </trkpt>
      <trkpt lat="48.59445" lon="1.66607">
        <ele>111.65</ele>
        <time>2020-07-06T16:50:18Z</time>
      </trkpt>
      <trkpt lat="48.59453" lon="1.66598">
        <ele>111.65</ele>
        <time>2020-07-06T16:50:25Z</time>
      </trkpt>
      <trkpt lat="48.59463" lon="1.66593">
        <ele>111.65</ele>
        <time>2020-07-06T16:50:33Z</time>
      </trkpt>
      <trkpt lat="48.59473" lon="1.66586">
        <ele>110.69</ele>
        <time>2020-07-06T16:50:40Z</time>
      </trkpt>
      <trkpt lat="48.59483" lon="1.66579">
        <ele>110.69</ele>
        <time>2020-07-06T16:50:48Z</time>
      </trkpt>
      <trkpt lat="48.59493" lon="1.6657">
        <ele>109.73</ele>
        <time>2020-07-06T16:50:56Z</time>
      </trkpt>
      <trkpt lat="48.59504" lon="1.6656">
        <ele>109.73</ele>
        <time>2020-07-06T16:51:06Z</time>
      </trkpt>
      <trkpt lat="48.59513" lon="1.66549">
        <ele>110.69</ele>
        <time>2020-07-06T16:51:13Z</time>
      </trkpt>
      <trkpt lat="48.59521" lon="1.66538">
        <ele>109.73</ele>
        <time>2020-07-06T16:51:21Z</time>
      </trkpt>
      <trkpt lat="48.59531" lon="1.66533">
        <ele>109.73</ele>
        <time>2020-07-06T16:51:27Z</time>
      </trkpt>
      <trkpt lat="48.59543" lon="1.66528">
        <ele>109.25</ele>
        <time>2020-07-06T16:51:37Z</time>
      </trkpt>
      <trkpt lat="48.59553" lon="1.66537">
        <ele>108.29</ele>
        <time>2020-07-06T16:51:44Z</time>
      </trkpt>
      <trkpt lat="48.59559" lon="1.6655">
        <ele>108.77</ele>
        <time>2020-07-06T16:51:51Z</time>
      </trkpt>
      <trkpt lat="48.59565" lon="1.66562">
        <ele>108.29</ele>
        <time>2020-07-06T16:51:57Z</time>
      </trkpt>
      <trkpt lat="48.59571" lon="1.66574">
        <ele>108.77</ele>
        <time>2020-07-06T16:52:03Z</time>
      </trkpt>
      <trkpt lat="48.59576" lon="1.66589">
        <ele>108.77</ele>
        <time>2020-07-06T16:52:10Z</time>
      </trkpt>
      <trkpt lat="48.59582" lon="1.66602">
        <ele>108.77</ele>
        <time>2020-07-06T16:52:16Z</time>
      </trkpt>
      <trkpt lat="48.59585" lon="1.66616">
        <ele>108.29</ele>
        <time>2020-07-06T16:52:24Z</time>
      </trkpt>
      <trkpt lat="48.59593" lon="1.66629">
        <ele>107.81</ele>
        <time>2020-07-06T16:52:31Z</time>
      </trkpt>
      <trkpt lat="48.59598" lon="1.66645">
        <ele>108.77</ele>
        <time>2020-07-06T16:52:39Z</time>
      </trkpt>
      <trkpt lat="48.59602" lon="1.66657">
        <ele>109.25</ele>
        <time>2020-07-06T16:52:45Z</time>
      </trkpt>
      <trkpt lat="48.59606" lon="1.66671">
        <ele>107.81</ele>
        <time>2020-07-06T16:52:52Z</time>
      </trkpt>
      <trkpt lat="48.59612" lon="1.66684">
        <ele>108.77</ele>
        <time>2020-07-06T16:52:59Z</time>
      </trkpt>
      <trkpt lat="48.59616" lon="1.66698">
        <ele>108.77</ele>
        <time>2020-07-06T16:53:06Z</time>
      </trkpt>
      <trkpt lat="48.59624" lon="1.66711">
        <ele>108.77</ele>
        <time>2020-07-06T16:53:13Z</time>
      </trkpt>
      <trkpt lat="48.59623" lon="1.66723">
        <ele>108.77</ele>
        <time>2020-07-06T16:53:23Z</time>
      </trkpt>
      <trkpt lat="48.59628" lon="1.66735">
        <ele>108.77</ele>
        <time>2020-07-06T16:53:29Z</time>
      </trkpt>
      <trkpt lat="48.59634" lon="1.6675">
        <ele>108.29</ele>
        <time>2020-07-06T16:53:36Z</time>
      </trkpt>
      <trkpt lat="48.59638" lon="1.6677">
        <ele>108.77</ele>
        <time>2020-07-06T16:53:45Z</time>
      </trkpt>
      <trkpt lat="48.59642" lon="1.66782">
        <ele>109.25</ele>
        <time>2020-07-06T16:53:51Z</time>
      </trkpt>
      <trkpt lat="48.59648" lon="1.66794">
        <ele>108.77</ele>
        <time>2020-07-06T16:53:57Z</time>
      </trkpt>
      <trkpt lat="48.59649" lon="1.66809">
        <ele>108.77</ele>
        <time>2020-07-06T16:54:04Z</time>
      </trkpt>
      <trkpt lat="48.59654" lon="1.66822">
        <ele>109.25</ele>
        <time>2020-07-06T16:54:11Z</time>
      </trkpt>
      <trkpt lat="48.59659" lon="1.66835">
        <ele>109.73</ele>
        <time>2020-07-06T16:54:18Z</time>
      </trkpt>
      <trkpt lat="48.59668" lon="1.66847">
        <ele>109.73</ele>
        <time>2020-07-06T16:54:25Z</time>
      </trkpt>
      <trkpt lat="48.59674" lon="1.66861">
        <ele>108.77</ele>
        <time>2020-07-06T16:54:31Z</time>
      </trkpt>
      <trkpt lat="48.5968" lon="1.66874">
        <ele>109.25</ele>
        <time>2020-07-06T16:54:38Z</time>
      </trkpt>
      <trkpt lat="48.59686" lon="1.66888">
        <ele>109.25</ele>
        <time>2020-07-06T16:54:46Z</time>
      </trkpt>
      <trkpt lat="48.59693" lon="1.66901">
        <ele>108.77</ele>
        <time>2020-07-06T16:54:53Z</time>
      </trkpt>
      <trkpt lat="48.59697" lon="1.66915">
        <ele>108.77</ele>
        <time>2020-07-06T16:55:00Z</time>
      </trkpt>
      <trkpt lat="48.597" lon="1.6693">
        <ele>109.25</ele>
        <time>2020-07-06T16:55:07Z</time>
      </trkpt>
      <trkpt lat="48.59705" lon="1.66942">
        <ele>109.25</ele>
        <time>2020-07-06T16:55:14Z</time>
      </trkpt>
      <trkpt lat="48.59705" lon="1.66957">
        <ele>109.25</ele>
        <time>2020-07-06T16:55:21Z</time>
      </trkpt>
      <trkpt lat="48.59707" lon="1.66974">
        <ele>109.73</ele>
        <time>2020-07-06T16:55:30Z</time>
      </trkpt>
      <trkpt lat="48.5971" lon="1.6699">
        <ele>110.21</ele>
        <time>2020-07-06T16:55:37Z</time>
      </trkpt>
      <trkpt lat="48.59714" lon="1.67004">
        <ele>110.69</ele>
        <time>2020-07-06T16:55:44Z</time>
      </trkpt>
      <trkpt lat="48.59719" lon="1.67019">
        <ele>111.17</ele>
        <time>2020-07-06T16:55:52Z</time>
      </trkpt>
      <trkpt lat="48.59727" lon="1.67031">
        <ele>112.13</ele>
        <time>2020-07-06T16:56:00Z</time>
      </trkpt>
      <trkpt lat="48.59734" lon="1.67043">
        <ele>112.13</ele>
        <time>2020-07-06T16:56:07Z</time>
      </trkpt>
      <trkpt lat="48.59741" lon="1.67055">
        <ele>112.61</ele>
        <time>2020-07-06T16:56:15Z</time>
      </trkpt>
      <trkpt lat="48.5975" lon="1.67065">
        <ele>113.09</ele>
        <time>2020-07-06T16:56:23Z</time>
      </trkpt>
      <trkpt lat="48.59755" lon="1.67077">
        <ele>114.05</ele>
        <time>2020-07-06T16:56:30Z</time>
      </trkpt>
      <trkpt lat="48.59764" lon="1.67086">
        <ele>115.01</ele>
        <time>2020-07-06T16:56:38Z</time>
      </trkpt>
      <trkpt lat="48.59771" lon="1.67098">
        <ele>114.05</ele>
        <time>2020-07-06T16:56:44Z</time>
      </trkpt>
      <trkpt lat="48.59778" lon="1.6711">
        <ele>114.05</ele>
        <time>2020-07-06T16:56:51Z</time>
      </trkpt>
      <trkpt lat="48.59785" lon="1.67118">
        <ele>114.53</ele>
        <time>2020-07-06T16:56:56Z</time>
      </trkpt>
      <trkpt lat="48.59792" lon="1.67127">
        <ele>115.01</ele>
        <time>2020-07-06T16:57:02Z</time>
      </trkpt>
      <trkpt lat="48.59797" lon="1.67138">
        <ele>115.5</ele>
        <time>2020-07-06T16:57:09Z</time>
      </trkpt>
      <trkpt lat="48.59804" lon="1.67148">
        <ele>115.5</ele>
        <time>2020-07-06T16:57:16Z</time>
      </trkpt>
      <trkpt lat="48.59811" lon="1.67158">
        <ele>116.46</ele>
        <time>2020-07-06T16:57:23Z</time>
      </trkpt>
      <trkpt lat="48.59819" lon="1.67167">
        <ele>116.46</ele>
        <time>2020-07-06T16:57:30Z</time>
      </trkpt>
      <trkpt lat="48.59825" lon="1.67177">
        <ele>116.46</ele>
        <time>2020-07-06T16:57:37Z</time>
      </trkpt>
      <trkpt lat="48.59832" lon="1.67187">
        <ele>116.46</ele>
        <time>2020-07-06T16:57:44Z</time>
      </trkpt>
      <trkpt lat="48.59841" lon="1.67195">
        <ele>116.94</ele>
        <time>2020-07-06T16:57:51Z</time>
      </trkpt>
      <trkpt lat="48.59847" lon="1.67207">
        <ele>116.94</ele>
        <time>2020-07-06T16:57:58Z</time>
      </trkpt>
      <trkpt lat="48.59856" lon="1.6722">
        <ele>117.42</ele>
        <time>2020-07-06T16:58:07Z</time>
      </trkpt>
      <trkpt lat="48.59863" lon="1.67231">
        <ele>117.42</ele>
        <time>2020-07-06T16:58:14Z</time>
      </trkpt>
      <trkpt lat="48.5987" lon="1.67241">
        <ele>117.42</ele>
        <time>2020-07-06T16:58:21Z</time>
      </trkpt>
      <trkpt lat="48.59878" lon="1.67253">
        <ele>117.42</ele>
        <time>2020-07-06T16:58:29Z</time>
      </trkpt>
      <trkpt lat="48.59887" lon="1.67263">
        <ele>118.86</ele>
        <time>2020-07-06T16:58:37Z</time>
      </trkpt>
      <trkpt lat="48.59896" lon="1.67276">
        <ele>118.38</ele>
        <time>2020-07-06T16:58:45Z</time>
      </trkpt>
      <trkpt lat="48.59903" lon="1.67287">
        <ele>118.38</ele>
        <time>2020-07-06T16:58:52Z</time>
      </trkpt>
      <trkpt lat="48.59911" lon="1.67298">
        <ele>118.38</ele>
        <time>2020-07-06T16:59:00Z</time>
      </trkpt>
      <trkpt lat="48.59919" lon="1.67308">
        <ele>118.86</ele>
        <time>2020-07-06T16:59:07Z</time>
      </trkpt>
      <trkpt lat="48.59928" lon="1.67321">
        <ele>119.34</ele>
        <time>2020-07-06T16:59:16Z</time>
      </trkpt>
      <trkpt lat="48.59935" lon="1.67332">
        <ele>119.34</ele>
        <time>2020-07-06T16:59:23Z</time>
      </trkpt>
      <trkpt lat="48.59942" lon="1.67344">
        <ele>119.82</ele>
        <time>2020-07-06T16:59:31Z</time>
      </trkpt>
      <trkpt lat="48.59951" lon="1.67352">
        <ele>120.3</ele>
        <time>2020-07-06T16:59:38Z</time>
      </trkpt>
      <trkpt lat="48.59959" lon="1.67366">
        <ele>120.78</ele>
        <time>2020-07-06T16:59:47Z</time>
      </trkpt>
      <trkpt lat="48.59968" lon="1.6738">
        <ele>120.78</ele>
        <time>2020-07-06T16:59:56Z</time>
      </trkpt>
      <trkpt lat="48.59977" lon="1.67394">
        <ele>120.78</ele>
        <time>2020-07-06T17:00:05Z</time>
      </trkpt>
      <trkpt lat="48.59986" lon="1.67406">
        <ele>120.78</ele>
        <time>2020-07-06T17:00:13Z</time>
      </trkpt>
      <trkpt lat="48.59993" lon="1.67419">
        <ele>120.78</ele>
        <time>2020-07-06T17:00:21Z</time>
      </trkpt>
      <trkpt lat="48.60002" lon="1.67431">
        <ele>120.78</ele>
        <time>2020-07-06T17:00:30Z</time>
      </trkpt>
      <trkpt lat="48.60011" lon="1.67444">
        <ele>120.78</ele>
        <time>2020-07-06T17:00:38Z</time>
      </trkpt>
      <trkpt lat="48.60021" lon="1.67456">
        <ele>120.78</ele>
        <time>2020-07-06T17:00:47Z</time>
      </trkpt>
      <trkpt lat="48.60028" lon="1.67472">
        <ele>120.3</ele>
        <time>2020-07-06T17:00:55Z</time>
      </trkpt>
      <trkpt lat="48.60036" lon="1.67484">
        <ele>120.3</ele>
        <time>2020-07-06T17:01:03Z</time>
      </trkpt>
      <trkpt lat="48.60045" lon="1.67496">
        <ele>120.3</ele>
        <time>2020-07-06T17:01:11Z</time>
      </trkpt>
      <trkpt lat="48.60052" lon="1.67507">
        <ele>119.82</ele>
        <time>2020-07-06T17:01:18Z</time>
      </trkpt>
      <trkpt lat="48.6006" lon="1.67518">
        <ele>119.82</ele>
        <time>2020-07-06T17:01:25Z</time>
      </trkpt>
      <trkpt lat="48.60064" lon="1.67532">
        <ele>119.82</ele>
        <time>2020-07-06T17:01:34Z</time>
      </trkpt>
      <trkpt lat="48.60057" lon="1.67545">
        <ele>120.3</ele>
        <time>2020-07-06T17:01:43Z</time>
      </trkpt>
      <trkpt lat="48.60047" lon="1.67556">
        <ele>120.78</ele>
        <time>2020-07-06T17:01:51Z</time>
      </trkpt>
      <trkpt lat="48.60037" lon="1.67561">
        <ele>121.26</ele>
        <time>2020-07-06T17:02:02Z</time>
      </trkpt>
      <trkpt lat="48.60035" lon="1.67579">
        <ele>121.26</ele>
        <time>2020-07-06T17:02:11Z</time>
      </trkpt>
      <trkpt lat="48.60026" lon="1.6759">
        <ele>121.74</ele>
        <time>2020-07-06T17:02:19Z</time>
      </trkpt>
      <trkpt lat="48.60017" lon="1.67599">
        <ele>122.22</ele>
        <time>2020-07-06T17:02:27Z</time>
      </trkpt>
      <trkpt lat="48.60011" lon="1.6761">
        <ele>123.19</ele>
        <time>2020-07-06T17:02:36Z</time>
      </trkpt>
      <trkpt lat="48.60019" lon="1.67621">
        <ele>124.15</ele>
        <time>2020-07-06T17:02:44Z</time>
      </trkpt>
      <trkpt lat="48.60029" lon="1.6763">
        <ele>124.15</ele>
        <time>2020-07-06T17:02:52Z</time>
      </trkpt>
      <trkpt lat="48.60037" lon="1.67637">
        <ele>124.63</ele>
        <time>2020-07-06T17:03:00Z</time>
      </trkpt>
      <trkpt lat="48.60046" lon="1.67646">
        <ele>124.63</ele>
        <time>2020-07-06T17:03:07Z</time>
      </trkpt>
      <trkpt lat="48.60055" lon="1.67654">
        <ele>125.11</ele>
        <time>2020-07-06T17:03:15Z</time>
      </trkpt>
      <trkpt lat="48.60064" lon="1.6766">
        <ele>125.11</ele>
        <time>2020-07-06T17:03:21Z</time>
      </trkpt>
      <trkpt lat="48.60073" lon="1.67665">
        <ele>124.63</ele>
        <time>2020-07-06T17:03:28Z</time>
      </trkpt>
      <trkpt lat="48.60081" lon="1.67675">
        <ele>124.63</ele>
        <time>2020-07-06T17:03:35Z</time>
      </trkpt>
      <trkpt lat="48.6009" lon="1.67681">
        <ele>124.15</ele>
        <time>2020-07-06T17:03:43Z</time>
      </trkpt>
      <trkpt lat="48.60099" lon="1.67687">
        <ele>123.67</ele>
        <time>2020-07-06T17:03:50Z</time>
      </trkpt>
      <trkpt lat="48.60107" lon="1.67698">
        <ele>123.19</ele>
        <time>2020-07-06T17:03:57Z</time>
      </trkpt>
      <trkpt lat="48.60117" lon="1.67707">
        <ele>123.19</ele>
        <time>2020-07-06T17:04:04Z</time>
      </trkpt>
      <trkpt lat="48.60125" lon="1.67714">
        <ele>122.71</ele>
        <time>2020-07-06T17:04:11Z</time>
      </trkpt>
      <trkpt lat="48.60133" lon="1.67724">
        <ele>122.22</ele>
        <time>2020-07-06T17:04:19Z</time>
      </trkpt>
      <trkpt lat="48.60143" lon="1.67729">
        <ele>121.74</ele>
        <time>2020-07-06T17:04:26Z</time>
      </trkpt>
      <trkpt lat="48.60153" lon="1.67734">
        <ele>121.26</ele>
        <time>2020-07-06T17:04:33Z</time>
      </trkpt>
      <trkpt lat="48.60161" lon="1.67742">
        <ele>120.78</ele>
        <time>2020-07-06T17:04:40Z</time>
      </trkpt>
      <trkpt lat="48.60168" lon="1.67754">
        <ele>120.78</ele>
        <time>2020-07-06T17:04:46Z</time>
      </trkpt>
      <trkpt lat="48.60176" lon="1.67765">
        <ele>120.3</ele>
        <time>2020-07-06T17:04:54Z</time>
      </trkpt>
      <trkpt lat="48.60184" lon="1.67778">
        <ele>119.82</ele>
        <time>2020-07-06T17:05:02Z</time>
      </trkpt>
      <trkpt lat="48.60195" lon="1.67788">
        <ele>119.82</ele>
        <time>2020-07-06T17:05:10Z</time>
      </trkpt>
      <trkpt lat="48.60204" lon="1.67802">
        <ele>119.34</ele>
        <time>2020-07-06T17:05:18Z</time>
      </trkpt>
      <trkpt lat="48.60211" lon="1.67813">
        <ele>118.86</ele>
        <time>2020-07-06T17:05:26Z</time>
      </trkpt>
      <trkpt lat="48.6022" lon="1.67824">
        <ele>118.86</ele>
        <time>2020-07-06T17:05:34Z</time>
      </trkpt>
      <trkpt lat="48.60227" lon="1.67836">
        <ele>118.38</ele>
        <time>2020-07-06T17:05:45Z</time>
      </trkpt>
      <trkpt lat="48.60235" lon="1.6785">
        <ele>118.86</ele>
        <time>2020-07-06T17:05:54Z</time>
      </trkpt>
      <trkpt lat="48.60243" lon="1.6786">
        <ele>118.86</ele>
        <time>2020-07-06T17:06:02Z</time>
      </trkpt>
      <trkpt lat="48.60251" lon="1.67872">
        <ele>117.9</ele>
        <time>2020-07-06T17:06:09Z</time>
      </trkpt>
      <trkpt lat="48.6026" lon="1.67884">
        <ele>118.86</ele>
        <time>2020-07-06T17:06:17Z</time>
      </trkpt>
      <trkpt lat="48.60266" lon="1.67896">
        <ele>118.38</ele>
        <time>2020-07-06T17:06:23Z</time>
      </trkpt>
      <trkpt lat="48.60274" lon="1.67908">
        <ele>118.86</ele>
        <time>2020-07-06T17:06:32Z</time>
      </trkpt>
      <trkpt lat="48.60283" lon="1.67919">
        <ele>118.38</ele>
        <time>2020-07-06T17:06:40Z</time>
      </trkpt>
      <trkpt lat="48.60291" lon="1.6793">
        <ele>118.38</ele>
        <time>2020-07-06T17:06:47Z</time>
      </trkpt>
      <trkpt lat="48.60298" lon="1.67943">
        <ele>118.38</ele>
        <time>2020-07-06T17:06:54Z</time>
      </trkpt>
      <trkpt lat="48.60306" lon="1.67955">
        <ele>118.86</ele>
        <time>2020-07-06T17:07:03Z</time>
      </trkpt>
      <trkpt lat="48.60315" lon="1.67964">
        <ele>118.86</ele>
        <time>2020-07-06T17:07:10Z</time>
      </trkpt>
      <trkpt lat="48.60323" lon="1.67977">
        <ele>118.38</ele>
        <time>2020-07-06T17:07:17Z</time>
      </trkpt>
      <trkpt lat="48.6033" lon="1.67989">
        <ele>118.38</ele>
        <time>2020-07-06T17:07:25Z</time>
      </trkpt>
      <trkpt lat="48.60339" lon="1.68">
        <ele>118.38</ele>
        <time>2020-07-06T17:07:33Z</time>
      </trkpt>
      <trkpt lat="48.60347" lon="1.68012">
        <ele>118.38</ele>
        <time>2020-07-06T17:07:40Z</time>
      </trkpt>
      <trkpt lat="48.60354" lon="1.68023">
        <ele>118.86</ele>
        <time>2020-07-06T17:07:47Z</time>
      </trkpt>
      <trkpt lat="48.60361" lon="1.68036">
        <ele>118.86</ele>
        <time>2020-07-06T17:07:54Z</time>
      </trkpt>
      <trkpt lat="48.6037" lon="1.68045">
        <ele>118.86</ele>
        <time>2020-07-06T17:08:02Z</time>
      </trkpt>
      <trkpt lat="48.60378" lon="1.68057">
        <ele>118.86</ele>
        <time>2020-07-06T17:08:11Z</time>
      </trkpt>
      <trkpt lat="48.60385" lon="1.68071">
        <ele>118.86</ele>
        <time>2020-07-06T17:08:20Z</time>
      </trkpt>
      <trkpt lat="48.60392" lon="1.68083">
        <ele>118.86</ele>
        <time>2020-07-06T17:08:27Z</time>
      </trkpt>
      <trkpt lat="48.60401" lon="1.68097">
        <ele>118.86</ele>
        <time>2020-07-06T17:08:37Z</time>
      </trkpt>
      <trkpt lat="48.60412" lon="1.68107">
        <ele>119.34</ele>
        <time>2020-07-06T17:08:46Z</time>
      </trkpt>
      <trkpt lat="48.6042" lon="1.68118">
        <ele>118.86</ele>
        <time>2020-07-06T17:08:53Z</time>
      </trkpt>
      <trkpt lat="48.60427" lon="1.68129">
        <ele>118.86</ele>
        <time>2020-07-06T17:09:00Z</time>
      </trkpt>
      <trkpt lat="48.60436" lon="1.68138">
        <ele>119.82</ele>
        <time>2020-07-06T17:09:08Z</time>
      </trkpt>
      <trkpt lat="48.60445" lon="1.68146">
        <ele>119.34</ele>
        <time>2020-07-06T17:09:15Z</time>
      </trkpt>
      <trkpt lat="48.60456" lon="1.68154">
        <ele>119.34</ele>
        <time>2020-07-06T17:09:23Z</time>
      </trkpt>
      <trkpt lat="48.60466" lon="1.68163">
        <ele>119.34</ele>
        <time>2020-07-06T17:09:31Z</time>
      </trkpt>
      <trkpt lat="48.60475" lon="1.68169">
        <ele>118.86</ele>
        <time>2020-07-06T17:09:38Z</time>
      </trkpt>
      <trkpt lat="48.60484" lon="1.68177">
        <ele>117.9</ele>
        <time>2020-07-06T17:09:46Z</time>
      </trkpt>
      <trkpt lat="48.60493" lon="1.68183">
        <ele>117.42</ele>
        <time>2020-07-06T17:09:53Z</time>
      </trkpt>
      <trkpt lat="48.60502" lon="1.68193">
        <ele>117.42</ele>
        <time>2020-07-06T17:09:59Z</time>
      </trkpt>
      <trkpt lat="48.60516" lon="1.68197">
        <ele>115.5</ele>
        <time>2020-07-06T17:10:11Z</time>
      </trkpt>
      <trkpt lat="48.60526" lon="1.68206">
        <ele>112.13</ele>
        <time>2020-07-06T17:10:26Z</time>
      </trkpt>
      <trkpt lat="48.60529" lon="1.68218">
        <ele>112.13</ele>
        <time>2020-07-06T17:10:38Z</time>
      </trkpt>
      <trkpt lat="48.60527" lon="1.68175">
        <ele>115.5</ele>
        <time>2020-07-06T17:10:58Z</time>
      </trkpt>
      <trkpt lat="48.60523" lon="1.68185">
        <ele>115.98</ele>
        <time>2020-07-06T17:12:42Z</time>
      </trkpt>
      <trkpt lat="48.60529" lon="1.68181">
        <ele>116.46</ele>
        <time>2020-07-06T17:13:59Z</time>
      </trkpt>
      <trkpt lat="48.60529" lon="1.68166">
        <ele>115.98</ele>
        <time>2020-07-06T17:14:08Z</time>
      </trkpt>
      <trkpt lat="48.6052" lon="1.68157">
        <ele>115.98</ele>
        <time>2020-07-06T17:14:15Z</time>
      </trkpt>
      <trkpt lat="48.60514" lon="1.6815">
        <ele>115.5</ele>
        <time>2020-07-06T17:14:27Z</time>
      </trkpt>
      <trkpt lat="48.60517" lon="1.68144">
        <ele>116.46</ele>
        <time>2020-07-06T17:15:15Z</time>
      </trkpt>
      <trkpt lat="48.60521" lon="1.68139">
        <ele>116.46</ele>
        <time>2020-07-06T17:15:27Z</time>
      </trkpt>
      <trkpt lat="48.6052" lon="1.68145">
        <ele>116.46</ele>
        <time>2020-07-06T17:15:47Z</time>
      </trkpt>
      <trkpt lat="48.60517" lon="1.68147">
        <ele>115.98</ele>
        <time>2020-07-06T17:16:24Z</time>
      </trkpt>
      <trkpt lat="48.60515" lon="1.68128">
        <ele>115.5</ele>
        <time>2020-07-06T17:16:51Z</time>
      </trkpt>
      <trkpt lat="48.60511" lon="1.68127">
        <ele>114.53</ele>
        <time>2020-07-06T17:17:02Z</time>
      </trkpt>
      <trkpt lat="48.60522" lon="1.6812">
        <ele>115.01</ele>
        <time>2020-07-06T17:17:14Z</time>
      </trkpt>
      <trkpt lat="48.60527" lon="1.68118">
        <ele>107.81</ele>
        <time>2020-07-06T17:17:51Z</time>
      </trkpt>
    </trkseg>
  </trk>
</gpx>